GFSSGP_sfc_wetblb_000.txt.gz
Wetbulb
59.50 58.08 58.35 54.68 46.84 46.48 43.99 46.24 50.06 48.59 49.57 56.65 57.93 58.67 57.87 59.10 56.99 52.85 67.45 69.39 69.96 69.21 69.51 66.56 69.66 69.55 70.35 71.52 72.36 72.70 73.08 72.56 73.17 73.05 72.63 72.22 69.78 70.08 69.31 68.19 66.53 64.97 66.31 65.52 68.94 70.11 70.85 71.53 71.14
56.58 56.53 53.82 51.61 44.71 42.31 44.28 48.69 47.44 48.33 50.17 54.06 57.03 58.45 57.62 57.47 63.60 64.19 66.42 69.45 69.56 69.50 68.79 67.64 70.24 70.02 69.35 69.80 70.51 71.80 72.27 72.13 72.05 72.34 72.03 70.88 69.52 69.25 69.29 67.78 66.34 65.67 66.96 67.02 68.35 69.84 70.06 71.10 69.73
56.84 56.58 48.89 47.56 45.34 43.10 44.42 48.18 48.63 49.49 51.66 53.16 55.19 61.46 58.53 59.26 63.44 64.77 69.01 69.85 69.81 69.40 69.30 68.57 69.89 69.85 69.59 69.62 70.33 70.77 71.08 71.35 71.43 71.57 71.28 70.86 70.16 68.59 68.43 68.26 66.81 66.57 67.79 69.65 69.14 67.46 69.43 69.25 68.67
53.78 52.54 49.65 44.84 43.77 45.94 47.05 48.37 49.89 49.49 52.42 53.44 55.75 57.65 62.67 65.85 64.59 67.18 68.87 69.90 69.27 69.51 69.63 68.76 69.55 69.55 69.43 68.71 69.67 70.47 70.37 70.31 70.91 71.17 71.30 71.07 68.61 67.55 66.51 65.96 65.65 67.42 68.03 68.22 65.61 65.04 66.12 68.37 67.91
53.39 50.67 45.08 44.59 43.74 45.92 48.30 49.72 51.05 49.83 53.47 54.57 56.39 54.71 59.09 65.45 68.02 67.97 67.99 68.77 68.52 69.12 70.11 68.94 69.08 69.65 69.42 68.94 68.95 69.24 69.77 69.66 69.73 70.39 70.32 70.12 69.80 69.73 67.97 67.55 67.98 68.69 65.59 63.74 63.60 63.43 64.35 67.31 67.93
48.65 50.13 43.82 42.04 43.46 46.32 48.70 51.08 52.23 52.38 54.15 55.52 53.58 53.40 59.47 66.30 66.57 67.76 68.02 67.75 69.03 68.99 69.80 69.63 68.96 69.14 68.52 68.22 67.94 67.85 68.39 68.75 69.12 69.30 69.27 69.40 69.02 68.86 67.89 67.88 68.36 67.92 67.08 65.69 64.60 65.95 66.94 66.96 67.48
47.97 47.57 44.39 44.01 43.66 44.73 46.64 50.13 49.14 49.57 52.57 52.42 56.59 53.47 57.75 62.18 66.95 68.16 67.54 67.64 67.64 68.16 68.78 69.81 69.23 68.74 67.53 66.66 66.05 66.51 67.29 67.53 67.89 68.39 68.32 68.01 67.92 66.39 65.78 65.96 65.60 64.98 64.88 65.53 66.60 66.35 66.57 66.76 67.12
50.12 48.63 44.46 44.70 43.57 43.26 47.29 49.11 50.65 49.53 48.23 51.92 52.62 52.47 54.43 62.25 66.76 67.47 67.65 67.83 68.94 68.46 67.91 68.58 69.39 69.45 67.47 65.16 64.96 65.31 66.44 66.82 67.18 67.54 67.65 68.06 66.66 65.01 64.22 64.06 64.01 63.81 64.59 63.10 62.07 61.02 64.30 65.59 65.69
52.39 45.70 42.99 43.57 44.44 45.15 48.41 47.08 51.14 52.26 50.45 51.70 52.77 54.99 62.52 65.04 66.20 65.36 65.03 65.22 65.97 65.22 66.66 68.84 68.77 69.43 68.58 67.90 65.60 66.11 66.49 66.66 66.22 65.60 66.28 65.28 66.89 65.13 63.56 63.14 63.36 62.99 62.62 62.69 61.21 60.07 60.73 62.55 63.64
49.55 46.04 44.58 47.27 47.47 46.88 48.20 47.45 48.69 48.50 49.47 50.32 52.74 56.05 60.69 63.50 63.38 62.11 61.68 61.98 62.71 62.35 62.62 64.14 66.26 67.36 67.83 66.95 65.33 68.25 67.85 66.86 66.64 66.76 65.89 65.67 64.90 63.43 63.41 63.21 63.05 62.31 61.66 61.29 60.75 59.84 59.20 58.94 58.08
49.69 45.06 47.37 48.46 49.26 48.82 48.11 48.17 50.36 48.12 47.36 51.25 50.82 54.31 57.19 59.39 60.21 60.86 60.11 60.83 59.90 60.88 61.08 61.59 64.43 66.36 67.41 66.80 66.68 66.82 66.48 66.06 65.68 65.41 64.88 63.79 62.93 62.50 62.24 62.14 62.29 61.77 60.07 60.06 59.35 58.94 58.20 57.49 57.96
47.63 49.26 49.58 50.13 50.43 49.70 49.26 50.87 49.49 49.95 49.84 52.99 53.55 55.40 56.55 57.31 58.41 59.34 59.67 60.53 58.78 59.76 59.72 60.48 63.66 64.76 65.09 64.64 64.20 64.27 63.50 63.46 62.68 62.86 63.34 62.86 61.96 61.13 60.70 60.78 59.80 59.95 60.02 59.60 58.87 57.44 56.65 56.66 57.88
49.25 49.68 50.87 51.57 51.56 51.03 51.19 49.52 49.90 49.60 52.04 53.64 54.01 55.60 55.87 56.57 57.64 58.79 60.18 59.82 60.59 59.29 59.69 59.35 61.40 62.82 63.98 63.14 62.46 61.62 60.61 59.61 59.25 59.96 60.10 61.17 60.45 60.23 60.25 59.60 59.13 58.93 59.17 58.67 59.09 58.18 57.25 56.92 57.69
51.37 51.11 50.95 51.68 51.30 51.03 49.58 49.21 49.53 50.24 52.86 52.37 53.03 53.82 54.92 55.71 56.25 56.88 56.23 56.12 56.87 57.39 58.93 59.38 59.55 61.40 61.64 62.05 61.59 59.98 58.82 57.63 57.71 58.17 58.90 60.16 59.96 59.11 59.20 57.88 57.60 56.87 57.27 57.86 58.11 58.75 59.49 58.99 58.78
51.60 48.84 50.98 51.07 49.90 48.18 50.55 46.50 46.63 51.86 52.89 51.35 51.62 52.87 53.67 54.49 55.23 54.90 56.09 55.88 56.44 57.45 57.91 57.51 58.26 59.85 59.67 59.90 59.08 58.27 56.36 56.13 56.05 57.19 57.76 57.84 58.37 56.16 55.50 54.92 54.49 55.08 55.63 55.59 55.43 54.47 55.04 56.10 58.94
49.16 49.45 44.61 48.72 49.17 49.54 48.34 42.64 48.84 51.84 50.76 50.07 50.87 51.91 52.72 53.72 54.37 55.32 56.22 56.26 57.41 58.70 56.18 56.57 55.44 56.75 57.18 57.57 55.96 55.73 55.16 55.46 55.94 57.02 56.70 56.14 56.16 55.66 54.67 54.03 53.41 52.48 53.22 52.30 50.80 50.32 50.88 52.88 53.98
47.99 42.87 44.43 46.51 49.89 48.18 47.34 44.39 48.86 51.67 50.52 50.00 51.14 51.57 52.21 53.15 54.13 54.97 55.93 56.31 56.59 56.58 55.65 55.43 54.69 54.19 55.55 55.53 54.78 54.74 54.82 54.23 55.25 56.08 55.03 54.90 54.22 53.81 52.30 52.34 52.34 51.46 50.17 49.48 48.60 47.92 47.61 46.77 47.52
42.56 43.31 45.39 45.36 48.33 48.44 47.07 46.61 49.70 51.34 50.92 50.72 51.34 51.84 51.99 52.37 53.14 55.51 55.82 56.72 55.78 56.57 55.51 55.06 54.54 54.27 54.96 54.29 53.91 53.68 53.58 53.66 53.68 53.86 53.59 53.69 52.60 52.37 51.24 51.57 51.02 50.59 49.34 48.78 48.52 47.84 47.88 47.30 46.95
46.27 45.42 44.83 47.29 48.99 47.59 46.79 47.15 48.89 50.27 49.92 50.09 50.45 51.33 51.80 52.67 54.26 56.18 56.75 56.52 55.10 55.58 54.26 53.67 53.12 53.55 52.49 51.84 50.93 50.69 50.55 51.85 52.49 52.90 53.34 53.15 52.66 52.32 51.15 50.42 49.82 50.19 49.08 48.37 48.11 47.42 46.51 45.93 47.34
45.69 44.95 44.81 46.86 48.76 47.97 47.27 46.76 49.08 49.23 49.22 49.76 50.02 50.91 51.60 52.44 53.00 54.52 55.57 55.76 55.15 54.36 54.17 53.38 53.18 53.29 52.64 51.78 51.59 51.58 51.80 51.74 51.89 52.38 52.23 52.45 52.85 51.80 51.37 50.61 49.07 49.19 47.80 48.02 48.22 47.48 45.29 45.88 46.16
44.83 44.76 44.01 43.65 47.12 49.17 47.26 45.40 47.30 48.54 49.37 49.56 50.80 51.45 51.78 51.50 51.35 52.69 54.81 54.88 55.22 54.00 53.86 53.86 53.21 52.99 52.90 51.90 51.65 51.58 51.32 50.28 49.29 49.62 50.30 51.60 52.03 52.42 51.80 50.94 49.76 48.84 48.49 47.40 47.00 46.42 45.88 43.53 45.10
41.93 47.48 46.04 45.40 44.35 40.06 47.33 38.25 44.98 47.10 46.76 48.37 49.84 51.68 51.70 52.16 52.84 53.06 54.25 53.84 54.86 54.06 55.26 54.44 54.00 53.07 52.99 53.02 50.52 49.74 48.04 46.78 47.95 48.37 49.39 50.08 51.86 51.30 51.09 50.93 50.43 48.94 48.51 47.50 47.70 47.84 46.83 45.26 42.59
44.29 47.76 46.60 46.83 45.31 44.14 44.22 40.53 44.22 47.06 45.42 47.05 49.71 50.61 51.60 52.53 52.73 52.24 52.40 53.26 54.13 54.43 54.67 54.34 54.11 53.54 53.28 52.98 51.55 49.79 48.67 48.60 49.11 49.13 49.72 49.09 49.54 50.14 50.21 49.85 49.33 48.08 48.01 47.47 46.57 46.28 46.25 45.75 44.26
49.17 47.66 47.53 48.27 44.80 38.96 43.98 42.20 41.89 44.64 46.16 47.22 49.20 50.69 51.43 51.79 51.86 52.28 53.10 53.75 53.06 55.00 54.53 54.93 53.95 53.34 53.42 52.70 51.89 50.26 48.14 48.63 48.00 48.18 46.44 47.55 47.69 47.35 48.23 47.43 46.03 45.93 45.50 44.78 44.20 43.91 43.94 43.73 43.60
47.81 44.26 38.97 37.92 40.24 38.01 44.57 41.14 43.21 48.23 49.07 48.46 48.36 49.41 50.93 51.92 51.43 52.10 52.08 52.48 53.04 53.34 54.29 54.87 53.97 52.60 53.02 52.81 52.05 50.57 49.65 48.96 48.22 47.89 46.29 45.89 43.94 44.25 44.05 44.23 43.80 43.21 43.00 43.24 43.01 42.13 41.78 41.96 41.68
44.85 43.65 38.96 30.46 32.71 35.04 42.09 37.54 43.15 49.34 49.77 49.74 50.02 51.09 51.17 52.01 52.53 52.24 53.21 53.83 53.54 54.04 54.13 53.96 52.98 52.27 52.58 52.23 51.85 51.02 50.26 48.63 47.97 47.25 45.16 43.38 42.83 43.00 44.03 43.01 42.93 42.86 42.93 42.02 41.70 41.20 40.98 40.86 40.76
44.45 41.82 45.72 38.26 36.60 34.47 38.53 43.68 48.08 50.17 49.00 49.34 49.81 50.55 50.74 51.41 52.09 52.65 53.00 53.27 53.42 53.54 53.12 52.83 52.76 53.04 52.53 51.98 51.52 50.31 49.30 47.76 45.93 45.86 44.22 43.09 43.40 43.13 43.40 42.79 42.22 42.05 41.74 41.26 40.67 39.59 39.65 40.27 40.14
46.11 48.03 39.27 41.11 31.33 29.75 36.82 38.48 40.29 46.45 47.68 49.14 49.70 50.13 50.87 51.95 52.09 52.56 52.54 52.36 52.92 53.29 53.64 53.49 53.26 51.31 50.49 50.46 49.04 46.67 45.86 45.36 43.96 43.48 42.61 42.36 41.96 42.16 41.90 41.33 41.03 40.60 40.24 39.97 39.18 38.09 38.69 38.83 39.10
44.18 42.72 43.93 43.09 40.23 33.13 31.33 36.07 47.21 46.45 48.17 48.76 49.33 50.18 50.49 51.23 51.71 52.04 52.50 52.68 52.47 52.73 51.83 51.22 49.99 49.00 48.28 47.66 45.62 44.07 43.84 43.65 42.63 41.86 41.31 41.13 41.60 41.04 40.77 40.22 39.44 39.28 38.81 38.61 37.51 37.30 37.78 37.39 37.30
46.44 44.50 44.38 36.23 35.47 37.86 36.36 36.10 48.37 50.15 50.95 50.09 50.34 50.35 50.95 51.18 50.95 50.74 51.05 51.47 51.32 50.94 50.64 50.65 48.78 47.71 46.66 45.79 43.79 42.74 42.29 41.80 40.79 40.56 41.01 41.80 40.38 40.70 40.10 39.60 39.20 38.65 38.07 37.65 36.86 36.17 36.71 36.08 35.57

GFSSGP_sfc_wetblb_003.txt.gz
Wetbulb
55.02 52.18 52.35 49.48 40.78 38.15 34.91 39.88 42.85 43.65 45.68 49.92 58.09 57.31 56.23 57.01 54.26 51.90 65.46 67.61 67.43 66.45 66.13 67.91 69.34 70.03 70.52 71.56 72.25 72.54 72.59 72.86 73.07 72.78 72.29 71.74 70.23 69.67 69.31 68.28 67.10 66.10 66.21 64.53 65.29 66.25 69.23 69.67 70.26
54.03 53.90 48.14 44.44 37.47 32.49 36.77 40.88 41.37 43.69 46.48 51.39 57.27 54.63 55.82 56.11 62.61 63.43 64.43 67.60 68.06 66.43 66.68 68.37 69.53 69.83 70.35 70.80 71.22 71.62 71.85 71.97 71.99 72.13 71.32 70.82 70.25 70.09 68.97 67.14 66.37 65.54 65.64 64.74 65.31 68.54 67.87 68.69 68.03
55.39 53.94 42.25 39.69 35.54 34.15 36.99 42.04 42.10 45.32 47.87 48.93 54.79 56.26 57.01 57.17 61.94 63.86 66.85 68.05 67.30 66.09 67.22 68.89 69.00 68.85 69.19 70.42 70.81 70.79 71.21 70.99 71.02 71.20 71.32 70.16 69.96 69.89 69.91 67.44 66.03 65.46 65.53 66.04 67.87 66.46 67.07 66.03 64.84
51.12 46.34 43.13 36.90 33.16 38.66 41.40 43.21 45.53 46.14 48.99 55.21 57.99 55.30 60.47 63.83 62.22 64.87 67.85 67.96 65.91 65.71 66.89 68.28 68.50 68.95 69.12 70.09 70.42 70.26 70.15 70.45 70.29 70.69 71.21 70.05 69.54 68.74 68.56 67.88 66.71 66.15 66.50 67.62 68.02 66.88 65.61 65.50 65.88
48.84 42.75 37.67 35.64 35.82 41.10 43.97 45.36 46.56 49.13 52.11 54.97 56.46 52.42 57.53 64.07 65.05 65.17 65.96 67.31 66.10 66.15 67.05 68.10 68.18 68.56 69.29 69.05 68.73 69.00 69.14 69.19 69.92 70.32 69.95 70.17 68.93 67.48 66.12 65.38 65.66 66.41 67.61 66.92 66.00 65.14 64.28 63.83 65.33
41.74 41.39 34.71 34.92 36.59 41.58 43.51 43.98 45.82 47.26 50.99 53.48 53.56 54.47 56.61 64.90 64.86 65.23 65.20 65.14 67.72 66.95 66.75 67.63 68.39 67.87 67.70 67.82 67.49 67.12 67.56 68.02 68.58 69.16 69.18 69.01 69.15 68.77 68.31 68.66 67.96 68.24 66.80 64.99 63.77 63.73 63.94 65.18 64.82
39.86 38.36 36.04 36.38 38.23 39.98 42.57 44.47 43.92 44.53 46.07 49.61 54.40 51.45 55.22 59.23 64.20 64.96 62.89 63.52 65.10 67.00 67.44 66.64 67.09 67.09 66.35 65.59 65.54 65.77 66.23 66.96 67.73 67.83 67.40 67.16 66.33 66.29 66.24 66.12 65.90 66.08 66.19 67.04 66.42 66.25 65.94 66.80 66.64
42.47 39.80 36.63 36.25 37.47 36.50 41.98 43.28 43.39 45.25 41.64 50.36 54.36 50.40 49.81 55.65 64.16 64.17 63.01 63.07 63.49 63.60 64.51 66.33 66.07 65.48 63.68 62.59 64.25 64.87 65.43 65.71 66.59 67.11 67.20 65.20 64.80 64.87 64.84 64.60 64.70 65.14 64.61 64.15 63.72 64.66 64.89 65.26 65.21
43.67 37.67 33.91 36.72 38.93 39.65 41.05 41.34 44.69 46.36 45.17 46.84 48.57 55.50 57.81 59.85 63.95 61.08 60.79 61.11 60.62 62.99 63.93 64.20 64.66 65.64 63.96 63.09 64.09 64.98 65.72 65.68 65.69 65.91 66.13 64.60 63.23 62.40 61.33 63.21 63.68 63.36 64.04 63.41 62.08 62.66 63.91 63.72 63.24
43.01 35.92 37.18 42.04 42.38 39.44 41.91 42.30 43.28 43.54 43.27 44.75 48.04 56.02 59.24 61.40 60.74 59.60 58.88 58.45 57.60 57.08 58.68 60.74 61.78 62.64 63.68 65.70 63.70 64.12 65.53 64.33 64.11 63.85 63.20 63.05 61.33 60.25 61.00 62.15 62.88 62.19 61.64 61.47 61.32 60.90 60.86 59.78 57.76
41.58 38.90 43.69 44.80 46.68 44.54 43.57 45.35 46.16 42.06 41.03 45.67 45.99 50.26 56.53 57.67 58.44 57.49 55.69 57.67 55.50 55.28 56.04 57.90 61.20 61.77 61.67 61.63 63.35 63.86 62.78 63.05 62.25 61.60 61.16 59.51 60.00 59.29 59.78 59.24 59.72 58.45 59.54 58.09 58.61 58.64 58.41 57.56 57.21
42.16 45.96 46.95 45.39 46.61 45.99 44.36 44.93 46.06 42.25 43.29 49.88 48.76 51.89 52.49 53.40 54.35 55.28 54.03 53.51 53.26 53.98 54.48 57.16 59.24 60.17 59.51 58.88 58.40 58.29 60.54 59.18 59.53 59.86 60.56 59.45 58.61 57.76 57.58 56.77 57.26 56.88 57.23 56.75 58.23 56.23 55.53 55.18 56.45
44.96 45.78 47.56 48.35 48.32 46.65 48.38 45.65 45.58 45.06 47.79 49.88 50.35 52.93 50.79 52.24 52.53 53.78 53.30 51.91 51.72 52.42 52.82 55.44 57.72 58.51 59.65 57.51 56.58 55.59 54.72 54.34 54.29 55.47 56.03 56.96 57.63 57.30 57.30 57.30 56.56 56.97 57.48 57.20 56.01 56.27 55.65 55.05 56.05
48.46 48.15 47.30 47.81 47.81 47.91 46.38 45.78 44.14 46.09 46.18 48.76 50.07 49.66 49.76 49.95 51.49 50.24 50.50 50.38 50.96 52.06 52.70 53.40 55.25 56.62 57.28 57.04 55.53 54.10 52.48 52.28 52.79 53.67 55.21 56.64 55.34 54.48 54.38 55.17 55.57 54.57 54.37 54.48 53.55 52.77 53.44 55.75 57.45
49.21 44.30 46.59 47.23 46.81 43.69 43.56 42.02 41.26 47.43 48.10 47.91 48.28 49.27 49.47 50.18 51.23 50.95 51.00 50.06 50.79 51.14 51.99 51.82 52.27 54.68 54.31 55.68 55.09 53.46 51.87 52.46 51.55 53.08 54.08 54.20 54.45 51.85 51.17 50.32 50.78 51.01 52.73 53.70 52.66 51.84 51.48 51.54 53.45
45.82 43.98 39.02 46.09 46.43 46.13 43.90 37.60 43.34 45.65 47.11 46.01 46.34 47.28 48.89 49.46 50.70 49.70 50.72 50.95 50.41 50.40 50.66 50.86 52.83 52.47 52.07 53.05 53.32 52.01 49.40 49.63 51.03 53.16 53.03 53.26 53.58 53.25 51.35 50.51 49.26 48.52 49.00 49.54 46.37 46.09 45.78 47.15 46.89
42.18 36.06 40.04 43.37 45.66 43.90 42.22 39.49 45.36 47.33 45.95 44.53 45.23 45.62 46.96 47.51 48.56 49.53 50.66 50.04 49.91 49.96 49.51 49.63 47.13 48.03 49.88 49.79 49.81 49.32 49.80 49.11 50.31 52.78 51.89 52.09 51.96 51.43 48.54 49.52 48.48 47.93 47.63 46.65 46.55 45.50 44.99 43.61 43.69
37.06 37.74 41.30 39.13 42.89 43.76 41.68 41.38 44.30 46.55 45.06 43.67 43.44 43.71 44.25 45.97 46.70 50.12 49.49 49.96 49.31 48.86 49.05 49.43 48.60 48.27 49.55 48.94 48.10 47.94 47.75 48.03 48.92 50.72 51.10 51.57 50.42 49.84 47.46 48.40 48.40 47.62 46.63 46.28 45.61 45.04 45.36 44.86 44.30
42.10 40.24 38.47 41.33 45.67 43.16 41.57 41.27 43.97 42.78 43.64 43.38 43.56 44.33 45.47 47.10 48.52 50.43 50.11 48.76 48.57 48.28 48.12 48.50 47.89 48.14 47.75 46.39 45.97 45.52 45.43 46.88 47.18 47.69 50.16 50.08 49.48 49.16 47.67 46.61 47.49 47.33 46.03 45.46 45.14 45.08 43.98 43.17 44.09
42.24 40.27 39.40 42.49 45.78 44.44 42.14 42.02 43.18 44.24 43.76 44.30 44.89 44.95 45.97 46.49 47.84 49.38 49.79 48.13 47.84 47.78 47.92 47.54 47.94 47.75 47.24 46.99 46.51 46.03 45.42 46.03 46.91 47.81 48.37 49.32 48.97 48.65 48.04 47.14 45.44 45.95 45.06 44.63 44.66 44.96 43.00 43.45 43.81
40.53 40.34 39.71 39.87 43.54 44.86 41.57 39.64 41.55 43.74 45.00 46.50 46.64 46.13 46.64 46.42 46.32 47.79 48.97 47.97 47.63 47.51 47.91 48.70 48.01 47.87 47.75 47.31 46.67 46.03 45.64 45.91 44.97 45.57 46.68 47.38 48.65 48.73 48.24 47.20 46.28 45.51 44.94 44.14 44.57 43.69 42.54 41.19 43.39
38.03 44.46 43.66 42.29 39.35 34.54 42.17 31.79 39.06 41.56 42.40 44.89 45.96 44.65 45.33 46.17 47.46 47.97 46.90 46.01 47.61 48.22 48.48 49.15 49.46 49.13 48.87 47.76 45.62 45.05 44.40 44.12 44.45 45.10 45.18 46.55 48.17 48.72 48.99 48.34 47.27 46.24 45.20 44.53 44.79 46.08 44.26 42.91 40.92
41.48 45.53 43.51 42.96 39.72 36.66 39.02 34.34 37.12 41.41 40.62 42.41 43.89 45.32 45.39 46.33 46.45 47.03 46.11 46.72 46.64 48.69 48.49 48.92 49.22 49.57 49.95 48.40 46.67 45.40 43.98 45.36 45.67 46.05 45.59 45.34 46.99 47.92 47.91 46.38 46.39 45.51 44.66 44.25 42.72 42.19 42.45 43.14 42.84
46.69 44.24 43.33 43.36 39.32 30.41 38.16 36.02 34.68 39.30 41.18 43.19 44.87 45.46 46.06 46.10 46.10 47.36 47.34 48.70 48.25 49.01 48.59 48.22 48.13 49.03 49.39 49.11 48.20 46.68 45.80 46.24 45.33 44.90 43.96 44.90 44.69 44.53 44.08 43.86 42.36 41.97 41.70 41.96 41.73 41.45 40.27 39.94 40.56
43.41 38.94 28.62 27.56 27.41 27.52 40.01 36.31 37.29 43.45 44.20 44.55 43.76 44.16 45.02 45.11 45.31 46.93 45.53 47.54 47.94 48.07 48.44 48.31 48.65 48.95 49.15 48.40 48.05 47.83 47.36 46.36 45.50 44.82 42.88 42.12 41.18 41.70 41.09 41.73 41.68 41.51 41.66 41.83 41.90 41.08 40.12 39.59 39.23
40.59 39.35 28.70 24.41 23.13 27.58 38.58 32.77 38.24 45.13 45.82 46.83 46.52 44.99 46.04 46.75 47.13 46.53 46.23 47.61 47.63 48.13 48.09 48.40 49.26 49.51 49.47 47.97 47.70 48.03 47.71 47.23 47.07 45.70 42.99 40.23 39.70 40.83 41.29 41.04 41.25 41.01 40.99 40.83 41.03 40.34 39.51 38.78 39.00
41.02 35.89 41.64 32.70 26.45 25.16 32.54 38.66 43.67 44.85 46.91 48.03 46.96 47.18 46.35 45.98 47.57 45.94 47.19 47.81 47.42 47.62 47.85 46.90 46.97 48.26 48.44 46.32 45.80 44.57 44.38 42.91 41.00 39.45 39.89 40.22 40.92 41.22 40.38 39.86 39.64 40.07 40.48 40.70 40.00 38.69 38.22 37.96 38.49
43.03 44.50 33.20 31.13 25.01 24.43 31.27 33.19 35.12 41.59 43.67 46.10 44.10 44.81 45.61 45.98 46.48 47.19 46.89 47.44 47.50 47.32 46.34 46.30 46.57 45.80 45.35 43.05 41.83 41.13 39.99 39.39 40.05 41.08 39.81 39.58 39.70 39.82 39.63 39.38 39.76 40.16 39.85 39.42 38.77 37.86 37.94 37.29 37.55
39.37 36.79 38.78 40.93 33.61 29.12 26.96 30.92 42.13 43.47 44.07 44.81 46.40 46.88 46.03 45.88 45.32 45.89 46.84 48.07 46.82 46.35 46.13 45.80 46.34 45.90 42.23 41.15 39.73 39.37 38.95 38.57 38.06 38.70 38.70 38.70 38.71 39.09 39.28 39.69 39.44 39.17 38.34 38.61 37.95 37.04 36.86 36.05 36.11
43.16 42.04 41.93 32.83 32.42 30.95 28.58 33.09 46.02 44.32 45.91 47.68 46.93 46.72 46.44 45.87 45.67 46.26 46.15 46.20 46.05 46.07 46.07 46.45 46.60 42.60 41.00 39.71 38.53 38.04 37.62 36.71 36.30 37.22 38.27 38.48 37.82 39.06 38.63 38.73 38.74 38.44 38.39 37.61 36.29 35.33 35.08 34.49 34.06

GFSSGP_sfc_wetblb_006.txt.gz
Wetbulb
53.78 50.16 48.98 47.04 39.56 36.18 31.88 36.62 40.34 42.38 45.67 55.57 58.87 56.55 54.46 55.34 53.72 49.66 64.47 66.22 65.01 64.03 65.78 67.54 69.17 70.64 71.52 71.96 72.20 72.27 72.62 72.95 72.99 72.59 72.20 71.33 70.59 69.88 70.12 70.10 69.23 66.39 68.04 67.23 67.09 67.46 68.82 69.38 67.50
52.21 52.37 45.75 42.02 35.44 31.41 34.55 39.53 40.18 43.76 53.11 56.39 56.00 58.20 56.82 56.53 61.99 62.66 63.49 65.70 65.35 65.09 66.87 67.46 68.93 70.21 70.84 70.81 71.13 71.43 71.63 71.65 72.29 72.23 71.81 71.13 70.50 70.26 70.10 69.09 66.04 65.76 64.92 67.21 68.93 69.03 67.64 68.28 65.19
51.64 52.03 41.46 37.75 33.56 33.53 35.67 41.04 41.57 47.63 53.68 51.16 56.11 57.96 58.65 56.60 62.41 63.44 65.39 66.08 65.54 65.50 66.92 67.43 67.86 69.05 70.52 70.33 70.58 70.58 70.66 70.85 71.31 71.01 71.10 70.96 70.43 70.07 69.48 67.37 66.23 65.46 65.45 66.70 68.29 69.07 68.43 66.76 65.81
49.25 44.54 41.07 35.80 32.05 36.89 39.93 42.04 43.53 45.72 54.78 56.42 56.83 54.80 60.04 61.66 61.96 65.04 66.91 65.90 64.75 64.80 65.34 66.81 67.52 68.36 70.08 70.36 70.19 70.15 70.19 69.97 70.27 70.67 70.71 69.99 69.80 69.26 69.15 67.41 66.02 65.77 66.23 66.46 67.79 66.67 66.41 66.38 65.28
45.80 40.40 35.58 33.50 34.87 39.55 40.83 43.41 46.79 50.67 52.24 54.22 54.40 50.82 56.16 61.26 64.15 66.25 66.00 66.04 64.70 64.37 65.90 66.68 67.16 68.24 69.01 69.17 69.19 69.14 69.41 69.49 69.69 69.78 70.00 69.44 68.57 67.35 66.27 65.35 66.71 66.36 67.01 66.93 67.09 67.91 66.64 65.77 65.75
40.99 39.93 33.86 32.10 35.06 40.09 41.15 43.63 46.44 48.74 51.91 53.27 53.73 53.67 53.62 62.08 62.18 65.00 66.07 66.34 66.50 65.32 66.23 66.63 67.65 67.68 67.73 67.88 67.69 67.49 67.88 68.55 68.83 68.68 68.93 69.01 68.82 68.43 68.16 67.84 67.02 66.79 67.88 65.70 65.17 64.72 65.95 64.35 65.29
39.82 36.37 32.73 33.47 35.53 38.32 41.32 42.54 42.54 42.90 43.27 49.04 53.93 51.18 55.64 57.82 62.52 63.52 64.88 65.32 66.73 65.95 65.43 65.47 65.77 66.33 66.52 65.79 65.74 65.48 66.43 67.28 67.71 67.48 67.22 66.84 66.55 66.68 66.57 66.31 66.46 66.59 66.77 66.39 65.32 65.05 64.46 64.76 66.08
40.76 37.84 32.89 32.75 35.63 35.88 41.32 42.22 43.31 44.04 40.64 53.71 53.57 49.09 48.25 57.79 61.09 63.00 61.43 63.78 64.62 65.88 65.36 64.19 64.36 63.97 62.22 61.72 64.56 64.77 65.18 66.00 66.86 66.52 65.88 65.14 64.99 65.12 64.97 64.81 65.43 65.31 65.08 65.04 64.87 65.69 65.58 65.83 65.41
41.35 35.89 33.34 34.52 36.82 38.15 40.55 40.44 43.45 45.04 44.18 45.60 50.02 53.19 54.59 58.46 62.28 60.95 59.41 59.70 60.13 63.40 64.53 64.59 64.46 64.10 61.80 60.60 63.04 64.76 65.59 65.63 65.70 66.32 65.22 63.23 62.03 61.47 61.72 62.83 63.91 63.88 63.75 62.73 62.06 62.09 62.50 61.92 61.59
39.88 34.10 35.75 40.66 40.35 36.71 39.41 40.32 41.48 41.71 44.18 44.88 52.29 54.84 57.40 61.30 60.30 59.72 58.00 57.50 57.38 58.95 59.73 60.86 62.41 63.00 62.69 63.71 62.86 62.40 64.37 63.65 63.16 63.45 63.65 62.59 60.34 59.49 60.58 61.77 62.85 62.00 61.81 61.68 61.41 61.38 61.21 59.27 57.36
42.83 38.23 41.67 43.20 43.20 41.20 41.01 43.56 44.46 41.27 40.43 44.92 51.46 52.85 57.07 58.41 58.68 58.75 57.55 58.15 55.48 55.50 57.31 59.22 60.29 60.74 59.46 60.88 62.17 62.56 62.27 62.05 62.06 61.37 60.96 59.48 58.93 59.06 58.78 57.98 58.44 56.64 59.05 56.92 57.37 56.82 56.36 56.16 56.26
40.65 43.77 44.70 43.68 43.80 43.35 41.89 41.99 44.15 44.10 43.39 48.50 51.14 55.73 55.93 57.14 57.57 57.28 53.75 54.98 53.48 53.15 54.78 57.70 58.87 59.05 57.70 57.34 61.12 60.91 60.33 60.97 59.77 59.76 59.41 58.18 57.34 56.42 56.60 56.00 56.78 55.54 55.58 55.22 55.06 54.85 55.10 53.85 54.27
42.83 43.74 45.49 46.59 46.35 44.64 46.20 43.46 44.16 43.13 45.22 47.66 50.26 51.69 52.37 53.49 52.85 52.93 53.34 52.73 52.24 51.91 53.42 55.85 57.55 58.20 57.57 55.85 54.42 54.15 54.06 55.03 54.77 55.31 56.00 58.57 57.16 56.24 56.32 56.00 55.00 55.22 55.38 54.98 53.98 55.90 57.16 56.38 56.74
46.86 46.03 45.72 46.12 45.59 45.67 44.41 43.64 43.13 45.75 44.15 47.00 49.78 48.78 49.10 49.97 51.26 50.03 49.08 49.53 50.08 51.35 52.53 55.08 55.77 57.13 57.43 55.20 53.76 52.24 51.82 51.69 52.12 53.52 54.37 56.42 56.16 55.14 55.66 55.10 55.46 54.08 53.39 52.98 51.68 50.95 50.37 50.79 52.02
47.28 43.36 45.02 45.79 44.61 43.54 43.06 39.39 40.33 44.70 45.22 46.45 46.72 48.36 48.96 49.77 50.21 50.41 50.35 49.40 49.83 50.31 51.32 52.65 53.89 54.52 53.97 55.39 54.07 52.40 50.98 51.01 51.31 52.26 53.13 54.51 53.19 51.11 51.19 50.79 51.71 52.14 52.36 52.27 51.30 49.88 49.33 48.55 50.40
44.27 41.54 37.57 44.03 45.42 44.40 41.65 36.95 43.51 43.39 44.64 44.56 45.10 45.95 47.75 48.69 49.94 49.59 50.00 49.70 48.82 49.26 50.54 50.85 54.31 52.86 52.05 53.50 53.11 52.90 51.08 49.22 50.16 51.57 51.81 52.56 53.36 51.82 50.05 49.11 48.50 47.86 48.47 49.87 45.08 44.58 43.96 43.45 43.67
39.12 34.48 36.70 41.58 44.45 42.55 40.40 38.19 43.62 45.01 44.40 44.23 43.36 43.72 45.31 45.39 46.82 47.69 48.40 47.04 47.90 49.11 48.88 46.89 49.50 49.90 49.45 49.08 49.62 48.52 49.40 47.57 48.58 51.40 51.42 51.77 52.17 51.30 49.10 49.56 47.90 46.64 46.89 45.68 45.15 43.93 43.72 42.36 42.67
34.83 35.41 38.08 36.53 41.68 42.33 39.88 39.94 42.99 43.77 43.17 43.28 41.63 43.03 44.43 46.35 46.38 48.45 48.32 48.22 47.17 47.08 47.94 47.35 46.19 47.12 48.45 47.71 46.58 46.24 46.47 46.46 46.60 50.16 50.79 51.60 50.80 50.37 47.03 48.16 47.44 46.40 45.63 45.27 44.28 43.45 43.69 43.32 42.62
39.73 37.59 36.37 39.28 42.69 42.15 39.64 39.42 42.44 42.75 40.61 41.28 41.66 42.73 43.42 45.00 45.69 46.80 47.09 46.98 46.37 46.48 46.98 47.40 46.90 46.86 46.04 45.14 44.61 43.90 44.19 45.38 45.55 46.85 50.94 50.51 50.04 49.50 46.73 46.03 47.18 46.81 45.02 45.09 44.11 43.40 42.97 41.80 42.07
40.45 38.11 37.13 40.51 43.67 42.05 41.06 40.13 39.69 41.41 40.64 41.79 42.78 42.90 43.80 44.09 45.98 47.19 46.58 44.55 46.18 46.04 46.21 46.35 46.52 46.46 46.18 44.96 44.74 44.98 43.90 44.51 45.74 46.19 46.54 49.62 49.22 47.96 47.04 45.61 45.75 45.42 44.68 43.75 44.15 43.90 42.25 42.06 42.22
38.59 38.00 37.71 38.43 41.20 41.67 40.27 38.31 39.15 42.15 43.20 43.96 43.69 43.84 44.52 44.80 45.35 46.26 47.26 45.57 44.71 45.57 46.08 46.91 46.67 46.60 46.50 46.36 44.92 44.18 43.85 43.74 43.82 44.19 44.75 46.71 48.38 48.56 47.44 46.04 45.25 44.07 43.95 43.07 42.65 42.74 41.63 40.19 41.69
36.38 41.96 41.74 40.36 37.52 32.96 39.95 31.03 37.39 39.53 40.19 42.47 43.20 42.60 43.45 45.24 45.92 45.84 45.39 44.81 45.67 46.32 45.82 46.26 47.29 47.02 46.95 46.43 44.20 43.71 45.59 44.87 46.51 46.87 44.26 45.73 47.94 47.80 47.43 46.53 45.53 44.15 43.96 43.54 43.57 43.62 42.06 41.53 39.21
39.79 43.09 41.85 40.88 36.94 34.80 36.88 32.88 36.60 39.78 39.09 41.17 41.29 43.19 42.81 43.45 44.61 44.45 44.14 45.02 46.16 47.03 46.63 46.91 47.04 47.45 48.41 47.67 46.04 44.57 44.15 45.64 46.43 43.09 43.07 43.31 44.66 46.27 46.79 46.26 45.24 44.30 43.91 42.33 40.60 40.54 38.67 40.26 38.79
44.80 42.42 40.84 39.98 36.90 29.07 35.54 33.66 33.30 37.25 39.90 41.14 42.71 43.30 44.52 43.46 43.51 45.47 45.95 45.71 46.16 46.81 46.75 47.70 47.27 47.76 48.09 47.68 47.12 44.92 43.91 45.23 43.87 44.21 43.42 43.14 41.95 41.86 42.95 43.01 41.91 41.24 41.02 40.60 39.98 39.88 37.98 38.26 38.89
41.41 36.71 27.61 26.33 25.69 26.38 37.97 33.91 34.53 39.51 42.44 43.30 43.55 42.94 42.93 43.97 44.95 44.43 44.93 45.24 45.93 45.41 45.88 46.86 46.81 47.88 49.34 47.19 46.82 46.62 45.78 45.61 44.67 44.77 44.61 43.53 41.80 40.67 40.37 40.80 40.92 40.15 40.03 40.18 39.34 40.74 40.54 39.27 38.42
39.22 37.69 27.63 23.57 22.09 27.04 36.30 30.82 35.89 42.77 43.24 43.60 44.16 44.14 45.85 43.67 44.93 44.55 45.45 45.49 46.02 46.27 46.11 46.79 47.64 46.78 46.91 46.41 46.39 45.29 45.29 44.69 44.47 43.44 42.20 40.13 40.88 39.72 40.14 39.71 39.94 40.78 41.15 40.26 40.94 41.32 40.68 39.69 37.14
40.03 34.40 39.63 31.17 24.15 24.18 30.99 36.44 40.89 42.08 44.34 44.95 43.49 44.58 44.40 45.00 44.61 44.83 46.23 45.86 44.96 44.78 45.21 45.34 44.98 46.38 46.39 45.02 42.76 40.75 40.20 40.59 38.42 37.88 38.57 39.34 39.21 39.98 39.37 40.47 41.07 42.12 42.61 42.21 40.11 38.14 37.63 38.05 37.56
41.09 42.57 32.81 30.32 20.87 25.10 29.84 31.25 33.62 39.81 42.48 44.69 42.59 42.25 44.02 43.52 44.51 45.11 45.21 45.48 45.39 44.93 45.45 45.86 45.62 45.63 45.03 41.43 40.35 38.89 37.91 38.17 38.11 37.76 37.19 37.43 38.80 40.81 41.53 42.32 42.25 42.40 40.80 39.77 38.81 37.52 36.62 36.01 36.08
37.47 35.50 37.52 38.19 31.77 26.44 26.01 30.06 39.24 41.89 43.07 43.51 44.96 43.38 42.49 42.98 43.12 44.04 45.91 47.18 47.56 47.42 46.88 45.57 44.46 43.86 40.23 39.74 39.08 38.02 36.99 37.43 36.70 36.31 36.51 37.25 38.39 39.40 40.19 39.85 39.18 39.42 38.92 38.55 36.78 35.67 35.55 34.90 34.76
40.87 38.72 37.97 27.40 30.61 29.36 28.19 32.05 44.68 42.81 45.09 43.34 42.52 43.30 43.47 42.85 43.29 44.00 44.89 45.42 44.97 44.57 44.01 44.13 44.03 40.29 39.33 39.45 38.22 37.36 36.12 35.31 35.09 35.56 36.31 36.89 37.20 38.71 38.11 37.92 38.01 37.58 37.27 36.67 35.42 34.35 34.13 32.57 32.06

GFSSGP_sfc_wetblb_009.txt.gz
Wetbulb
55.44 50.13 48.39 46.91 39.94 35.59 32.03 35.14 39.69 41.11 52.24 55.85 56.31 54.86 53.08 54.38 52.46 45.90 64.52 65.41 63.73 63.93 66.26 67.78 69.76 71.26 71.82 71.87 72.35 72.54 72.96 73.08 72.79 72.25 71.57 71.02 70.48 70.39 70.16 69.99 68.43 67.00 67.81 67.26 67.24 68.74 69.84 68.18 68.67
52.53 50.62 45.15 40.95 35.86 31.15 33.46 37.80 40.08 47.14 55.81 57.67 57.29 56.46 56.18 55.48 61.00 62.23 62.76 64.08 63.43 65.02 66.20 67.22 69.63 70.43 70.66 70.78 71.05 71.59 71.45 71.93 72.43 72.55 71.63 71.19 70.61 70.29 70.27 68.89 66.27 66.06 66.58 67.69 68.12 68.18 69.51 67.87 68.12
50.62 48.36 41.19 37.08 32.10 32.19 33.62 38.38 45.68 51.03 53.95 51.38 55.74 58.74 57.49 57.27 62.11 63.20 64.18 64.30 64.87 65.04 65.45 66.33 68.79 69.53 70.00 70.10 70.10 70.23 70.29 71.02 70.95 71.34 71.19 70.70 70.34 69.74 69.16 67.02 66.75 65.73 66.31 67.19 67.38 68.11 68.19 67.15 65.72
47.80 43.27 40.10 35.44 33.31 35.40 37.68 40.31 44.80 49.04 52.88 56.33 56.00 54.37 58.62 60.98 62.18 64.14 64.47 64.38 63.88 63.63 64.16 65.74 67.65 68.97 69.60 69.55 69.36 69.30 69.38 69.84 70.39 70.22 70.01 70.07 69.68 69.50 68.77 66.80 65.87 65.51 66.02 66.65 67.64 67.22 66.93 67.13 66.15
42.36 39.42 34.85 33.01 32.83 36.98 40.43 48.60 49.99 49.77 50.75 52.54 53.13 51.33 55.63 60.36 64.20 64.53 63.99 64.33 62.90 63.09 64.10 65.03 66.73 68.14 69.20 68.83 68.50 68.94 69.02 69.17 69.19 69.83 69.54 69.25 68.77 67.86 66.52 66.79 66.92 66.61 66.35 67.00 67.64 68.49 68.11 66.76 65.80
41.18 38.77 33.64 30.70 34.01 38.10 40.02 44.18 48.29 50.68 51.37 51.91 51.86 51.87 53.28 60.37 63.65 63.81 65.01 63.93 64.11 63.54 64.62 65.14 67.09 67.28 67.46 68.00 68.04 67.77 68.07 68.35 68.21 68.39 68.86 68.92 68.38 68.16 67.71 66.75 65.77 66.15 66.67 67.13 66.12 65.88 64.99 66.05 64.71
38.91 36.14 32.31 31.60 36.05 38.22 40.11 41.52 41.94 41.91 45.19 47.64 53.42 52.13 54.84 58.02 62.10 64.09 64.78 64.45 64.48 64.56 64.39 64.37 64.90 66.04 66.50 65.88 65.86 66.20 66.78 67.28 67.46 67.08 67.03 66.99 66.79 66.88 66.81 66.56 66.93 66.86 66.80 66.62 65.05 65.60 64.54 64.56 64.87
39.45 37.29 30.92 32.78 34.96 34.45 39.78 40.93 41.34 42.04 40.13 52.27 52.22 48.92 52.42 58.65 61.74 62.94 64.07 64.40 63.99 63.34 63.88 62.92 63.27 63.43 62.02 61.53 64.83 64.72 65.59 66.28 66.45 66.14 65.65 64.87 64.90 65.30 65.08 64.43 65.49 64.91 64.93 64.24 63.87 64.24 64.65 64.85 64.19
39.10 34.86 32.15 33.10 34.83 37.56 39.79 39.17 42.56 42.68 47.43 45.16 49.67 50.99 53.35 60.25 61.30 59.25 59.34 60.57 62.23 64.24 63.05 62.77 62.56 61.96 60.64 59.29 62.09 64.54 65.42 65.76 65.85 65.58 64.80 62.48 61.23 60.03 60.22 63.02 63.62 63.93 63.07 62.68 62.31 61.94 61.49 60.39 59.75
38.73 33.94 35.74 39.33 38.58 36.67 39.59 39.99 40.20 41.14 44.46 48.93 51.57 53.68 56.07 60.04 59.39 57.88 57.80 58.51 59.72 61.78 62.43 62.63 62.43 62.38 61.09 62.49 61.36 61.33 63.02 62.67 62.82 63.53 61.98 61.30 59.27 58.54 59.72 61.18 62.37 61.54 61.39 61.21 60.73 60.77 59.66 58.33 56.07
37.93 37.43 40.46 42.16 41.89 41.02 40.17 41.15 42.27 40.63 39.37 47.92 50.55 51.67 57.09 58.53 58.34 57.98 57.24 59.30 58.57 61.05 60.36 60.83 61.82 61.24 61.04 61.24 60.98 60.80 61.23 60.92 60.93 60.65 61.08 59.64 58.58 58.43 57.65 57.11 57.17 55.59 58.21 55.55 56.13 55.13 54.85 53.84 53.40
40.10 41.93 43.04 41.76 43.75 41.88 40.25 44.15 42.21 42.66 42.63 47.81 52.98 52.94 56.61 57.51 56.58 55.90 55.85 56.47 54.87 54.85 56.73 58.48 59.21 57.96 56.20 59.74 61.08 61.22 60.68 60.62 59.94 59.69 59.06 57.61 56.15 55.97 56.17 55.73 55.85 54.75 54.61 53.99 54.15 53.98 54.12 53.92 54.10
41.89 42.46 43.77 44.53 44.35 42.64 44.40 42.35 42.27 42.76 44.74 46.24 52.19 54.13 55.95 56.62 55.91 54.32 54.78 54.52 52.70 52.72 54.40 56.90 57.57 57.22 55.87 56.44 55.20 56.68 57.14 59.72 58.51 58.25 58.14 57.75 56.05 55.05 55.15 54.31 54.51 53.75 54.25 53.74 53.02 52.77 53.43 53.50 53.74
45.31 44.46 44.63 44.35 44.24 43.67 42.88 42.22 41.46 44.23 42.73 45.45 49.45 51.82 53.51 54.10 54.51 49.41 51.03 51.94 51.30 51.42 52.98 55.11 56.06 56.95 55.30 53.77 52.78 52.48 52.60 53.27 53.37 53.53 54.07 56.74 56.51 55.33 55.11 54.77 54.13 53.81 53.11 52.08 50.54 49.37 48.81 48.46 49.62
45.84 42.43 43.55 43.51 43.27 43.16 43.04 39.40 40.22 42.89 42.95 44.59 46.82 48.48 49.32 50.33 49.68 49.32 51.14 51.56 52.21 50.94 52.52 54.48 54.59 55.51 54.97 54.34 53.08 51.17 50.20 50.70 50.61 52.08 53.38 54.96 54.90 53.34 53.65 53.55 53.33 52.97 51.77 50.85 49.99 48.48 47.83 45.46 47.27
41.75 39.65 36.26 42.43 42.58 42.63 40.52 36.34 42.63 41.81 41.93 42.72 43.49 45.76 46.80 47.46 48.12 47.11 48.27 47.66 47.68 49.13 50.99 51.98 55.07 53.15 51.89 53.24 52.81 52.06 50.46 49.15 49.17 50.66 51.32 53.08 52.95 50.95 49.28 48.87 50.04 50.39 48.52 50.55 46.86 43.33 42.76 42.34 42.09
37.34 32.20 34.38 39.35 43.10 42.47 39.38 37.29 42.07 43.24 42.53 42.69 41.91 43.02 44.62 43.70 45.35 45.83 47.72 47.83 47.21 48.46 49.17 48.29 51.06 51.03 50.14 51.07 51.16 49.95 49.40 47.34 47.36 49.53 50.47 50.87 51.91 51.70 49.74 48.99 48.35 46.85 46.19 46.72 44.09 43.15 42.68 41.49 41.28
32.91 33.10 36.48 35.32 40.69 41.78 38.54 38.27 41.90 43.14 41.33 41.44 39.67 40.06 40.81 42.91 44.27 46.35 46.06 46.97 46.91 47.34 46.80 45.87 48.09 48.25 47.33 46.73 45.94 45.41 45.46 46.02 46.12 47.33 49.92 51.07 50.63 50.78 47.94 48.12 48.11 45.92 44.72 44.36 43.22 42.75 42.44 42.17 41.65
37.85 36.00 34.42 37.43 41.01 40.98 38.02 38.35 41.52 40.92 39.33 38.90 38.18 41.14 43.02 44.56 43.77 44.72 45.09 44.69 45.04 45.43 45.94 45.21 44.80 44.87 45.01 44.44 44.04 43.44 43.87 44.57 44.87 45.43 48.34 50.61 50.42 49.77 47.27 46.33 47.15 45.95 44.51 44.12 43.68 42.44 41.59 41.16 40.90
38.55 36.27 35.17 39.10 41.81 40.27 39.42 38.85 38.90 40.36 39.64 39.42 40.56 41.32 43.00 43.55 44.02 44.92 44.46 43.40 44.64 44.79 45.22 45.32 45.86 45.57 44.93 44.14 43.91 43.96 43.15 43.54 44.25 45.00 46.12 49.37 50.37 49.88 48.22 45.97 46.29 46.43 44.88 43.60 43.25 42.45 41.24 41.15 41.25
36.97 35.90 35.63 37.01 39.73 39.46 38.48 37.22 38.13 41.03 41.99 42.80 42.47 42.19 42.56 43.37 44.09 44.77 45.24 43.83 43.31 43.76 44.45 45.30 45.59 45.32 45.29 45.26 43.92 43.38 42.89 43.00 42.67 43.69 43.37 45.85 49.43 50.60 48.72 46.61 45.84 45.44 45.72 44.55 43.01 42.30 41.42 39.80 40.59
34.81 40.00 39.25 38.67 36.17 32.02 37.59 30.17 36.57 38.00 38.47 40.85 41.42 40.57 40.64 43.16 43.93 44.68 45.07 44.77 44.48 45.02 44.52 45.03 45.51 45.42 45.99 45.47 44.26 42.84 43.67 44.02 46.53 46.15 45.70 45.81 46.12 48.02 49.53 48.41 45.89 44.95 43.39 41.61 41.25 42.34 41.15 40.36 38.07
39.12 42.04 39.46 38.94 35.52 33.40 35.64 31.01 35.75 38.13 37.02 38.14 39.37 41.39 42.18 42.41 43.20 44.22 44.89 44.42 43.59 44.52 44.48 44.77 45.85 47.04 47.04 46.71 45.78 44.80 43.55 45.14 46.22 45.61 42.87 43.62 43.68 45.84 47.25 47.78 46.08 44.11 44.26 43.14 41.31 39.74 38.08 38.39 37.88
43.76 40.15 38.76 37.52 34.98 28.28 33.10 32.12 31.24 34.84 37.52 39.30 41.39 42.04 42.40 42.37 43.68 43.61 45.06 44.71 45.30 45.16 44.92 45.39 46.36 46.75 47.60 47.08 46.50 44.80 43.33 44.15 43.53 43.84 42.95 43.87 42.01 42.03 44.07 43.99 43.55 41.87 41.06 40.37 39.17 39.60 39.39 38.54 38.12
40.77 35.36 26.34 25.24 24.71 25.70 35.53 31.81 33.35 38.65 40.71 41.37 41.51 42.88 43.51 42.35 42.39 42.90 42.17 44.52 44.85 44.26 44.20 45.07 45.03 45.28 45.32 44.88 44.85 44.90 44.16 43.32 42.95 43.26 43.38 41.84 39.19 38.07 38.72 40.07 39.18 39.18 39.75 40.32 41.42 40.99 41.73 41.53 40.59
37.68 35.94 26.34 21.87 20.93 25.71 34.49 28.86 34.73 40.57 42.21 42.72 43.85 42.20 43.44 44.07 43.71 43.31 44.46 43.87 43.52 43.65 44.41 44.38 44.76 44.96 45.31 44.60 43.77 42.73 41.92 41.98 42.98 42.56 41.23 40.08 37.83 37.28 38.47 39.54 41.43 42.23 42.30 42.78 43.10 42.81 41.38 40.92 39.91
38.40 33.36 37.79 29.09 22.76 23.18 29.69 34.96 39.26 40.86 42.51 43.61 42.75 43.29 41.97 42.54 42.85 43.26 43.79 44.11 43.80 43.90 44.25 44.15 44.43 44.77 44.59 42.65 40.41 40.35 39.11 39.39 39.68 37.58 37.46 36.86 37.20 38.79 39.04 40.66 41.53 42.26 41.89 41.89 41.89 40.68 39.40 39.13 38.53
40.36 41.02 31.98 29.91 19.67 23.31 29.30 30.44 32.58 37.58 40.35 42.55 41.38 40.43 40.70 41.52 42.69 43.21 43.61 44.20 44.94 44.61 44.25 44.24 44.32 43.80 42.98 39.41 39.63 40.01 37.90 37.32 37.11 36.37 36.15 36.35 37.47 39.35 41.31 41.87 41.75 42.32 42.13 41.07 40.22 37.92 37.52 36.44 36.14
36.89 34.63 35.46 35.85 30.70 26.64 22.44 29.04 38.11 38.37 40.09 40.92 39.96 41.11 40.26 40.53 41.86 43.03 43.89 44.47 44.42 44.39 44.14 43.60 43.53 42.95 39.86 38.40 38.71 38.32 37.31 36.04 35.11 35.10 35.38 36.43 38.23 39.45 39.11 39.41 39.79 39.59 38.68 38.26 36.86 35.46 34.97 34.44 33.79
39.84 37.17 36.11 30.16 28.74 28.02 24.55 29.76 40.33 39.63 40.77 40.73 39.93 41.89 41.99 41.60 42.75 43.73 43.98 44.53 43.85 43.65 43.53 43.00 42.64 40.77 38.96 39.24 38.57 38.11 36.64 35.10 34.06 34.68 36.00 36.93 37.52 38.25 37.46 36.89 37.07 36.81 36.44 35.89 34.79 33.45 33.47 32.23 31.28

GFSSGP_sfc_wetblb_012.txt.gz
Wetbulb
53.80 48.53 47.01 45.44 39.61 35.90 31.18 35.28 38.01 41.93 51.13 55.34 56.04 53.31 52.81 54.06 51.47 44.45 64.47 63.85 63.51 64.09 65.61 67.99 70.44 71.46 71.72 72.01 72.36 72.82 72.97 72.93 72.05 71.87 71.40 70.85 70.60 70.38 70.48 69.00 67.39 67.57 67.71 67.57 67.02 68.69 69.94 68.86 69.13
53.22 49.24 44.67 40.68 35.00 31.18 33.56 38.62 44.98 47.62 54.63 56.29 56.43 55.55 55.27 54.34 60.02 61.41 61.41 62.47 63.56 64.48 65.45 67.33 69.81 70.22 70.47 70.64 71.16 71.64 71.86 72.32 72.55 71.98 71.51 70.64 70.21 70.20 69.62 67.26 66.81 66.70 67.04 67.77 68.00 68.01 69.35 68.69 68.56
49.46 45.31 40.91 36.59 31.59 31.08 33.74 37.77 48.15 51.71 54.88 52.06 55.00 57.53 56.52 56.39 61.68 62.34 63.20 63.26 64.66 64.16 64.76 67.51 68.85 68.88 69.58 69.67 69.82 70.21 70.59 70.92 71.42 71.65 71.23 70.97 70.30 69.76 68.95 66.45 66.72 65.62 65.87 67.04 67.43 68.13 68.18 68.11 66.56
46.17 42.65 39.36 36.33 31.38 34.22 36.57 40.64 50.99 51.56 52.08 55.82 55.93 53.80 57.77 60.44 62.48 63.48 63.59 64.21 63.02 62.34 62.66 66.59 67.81 68.50 69.04 69.23 69.05 68.90 69.20 69.98 69.95 69.94 70.28 70.07 69.80 69.32 68.79 67.73 66.44 65.63 66.28 66.84 67.71 68.08 67.71 66.51 66.58
41.46 38.97 34.47 33.37 33.42 38.31 41.97 45.32 47.72 48.88 50.11 50.85 52.65 52.34 55.31 60.57 63.51 63.27 63.07 63.31 61.21 61.49 62.18 64.58 66.96 68.01 68.84 68.65 68.40 68.71 68.79 68.99 69.38 69.53 69.40 69.36 68.69 67.78 66.85 66.58 67.12 66.93 66.49 67.23 67.68 67.40 67.06 66.38 66.12
40.19 37.52 32.07 30.49 33.22 36.88 40.16 43.72 48.19 48.92 49.79 51.92 52.70 52.50 52.93 61.03 62.51 62.89 63.80 61.84 62.47 61.97 62.86 63.37 66.74 67.24 67.67 68.07 67.72 67.57 67.71 67.94 67.75 68.22 68.77 68.67 68.25 67.98 67.57 66.69 65.62 65.95 66.64 67.35 66.16 65.48 65.44 64.71 64.82
38.44 34.31 30.91 30.59 33.74 36.06 38.72 39.91 40.70 43.99 45.73 47.25 54.25 51.11 53.92 59.27 62.74 63.64 63.21 61.55 61.85 62.57 62.57 62.82 63.32 65.09 66.21 65.77 65.87 66.11 66.69 67.12 66.92 66.56 66.65 66.36 66.52 66.48 66.27 66.32 66.33 66.06 66.00 65.84 65.49 65.23 65.65 65.30 64.99
37.91 36.76 30.83 31.20 33.32 33.34 38.71 40.11 40.14 41.00 43.11 51.51 52.20 51.54 51.90 58.38 62.37 63.33 63.84 62.90 61.99 62.26 62.28 61.55 61.73 62.46 61.35 61.13 64.77 64.88 65.54 65.90 66.01 65.74 65.19 64.45 64.36 64.48 64.39 63.46 64.87 64.38 63.85 63.42 63.16 62.87 62.59 61.85 61.35
37.84 34.35 31.79 32.96 34.35 36.73 38.41 40.85 39.80 42.30 47.39 44.93 49.93 52.64 53.02 60.41 60.98 60.78 59.96 60.86 61.02 62.64 61.87 61.41 61.42 61.12 59.55 58.80 61.59 64.28 65.40 65.56 65.72 65.12 64.47 61.81 60.00 58.97 59.09 62.89 63.71 63.20 62.68 62.24 61.89 61.65 61.03 59.87 59.12
38.25 33.78 35.12 38.09 37.54 39.58 38.13 38.70 39.35 41.71 45.36 48.90 49.78 53.22 57.05 59.30 59.19 59.19 59.57 60.10 60.28 61.06 61.99 61.70 61.62 60.99 59.93 61.00 59.92 60.37 61.88 61.88 62.14 62.67 61.07 60.03 58.56 57.88 59.15 60.46 62.22 61.15 61.07 60.89 60.28 59.86 58.77 56.01 53.91
40.24 37.08 39.11 40.59 39.66 38.67 39.30 40.77 41.39 41.74 41.48 48.07 48.43 52.15 56.45 57.22 56.76 58.55 59.43 60.36 60.52 61.24 61.66 62.40 61.83 61.19 60.59 60.60 59.56 59.32 60.10 60.02 60.05 60.28 60.44 59.34 58.78 57.59 56.91 56.15 56.25 54.62 57.77 54.25 54.96 54.40 54.47 54.06 53.59
39.55 40.83 41.10 40.67 41.91 41.37 39.19 42.90 40.73 38.74 42.39 48.71 50.70 54.26 56.45 57.26 56.98 56.54 57.15 58.24 58.10 59.77 61.53 61.28 60.86 60.45 59.26 59.41 59.76 59.45 59.90 59.68 59.40 59.35 59.16 57.71 56.41 55.25 55.57 55.19 54.99 54.47 53.87 53.22 53.25 53.32 53.54 53.68 53.75
41.30 40.85 43.03 43.33 43.50 41.65 43.09 40.75 40.84 42.01 44.71 43.90 50.33 54.62 56.59 57.36 56.52 54.98 56.62 55.99 55.61 57.38 58.14 57.57 57.95 57.40 55.69 57.68 58.25 58.90 59.10 59.52 59.17 58.43 57.89 57.15 55.57 54.61 54.67 54.53 53.71 53.58 53.45 53.40 52.95 51.66 51.26 50.45 51.06
43.76 42.66 42.29 42.52 42.34 42.38 41.83 40.92 40.57 43.01 41.77 42.73 50.53 51.11 54.82 56.10 56.73 52.81 53.23 53.41 53.36 54.64 54.36 56.05 56.16 56.44 54.80 54.08 54.12 55.38 55.08 56.51 56.19 56.11 56.73 56.27 56.25 54.65 53.97 54.03 53.67 52.89 53.16 52.55 50.75 48.94 47.68 46.74 47.81
44.20 41.15 41.29 42.84 41.83 41.04 40.95 38.78 39.28 42.34 41.99 42.51 44.36 50.31 52.31 54.07 53.39 53.27 52.60 52.45 53.33 51.54 52.52 54.10 55.06 55.57 54.33 53.25 52.21 51.01 51.20 51.60 51.35 52.50 52.97 53.30 55.20 54.67 54.22 53.69 53.26 53.35 52.59 50.77 49.27 48.06 47.19 44.84 45.36
39.69 37.95 35.08 41.50 41.72 40.77 39.74 36.19 42.26 40.60 40.49 43.11 41.80 46.17 49.53 51.25 50.32 48.76 48.30 49.81 49.97 49.55 51.27 53.19 55.44 54.19 53.61 52.87 52.56 51.53 49.87 49.16 48.77 49.86 51.06 52.30 53.78 53.36 51.66 51.40 51.53 52.25 51.09 50.20 48.81 44.26 43.14 42.31 42.14
36.10 31.63 32.96 37.84 41.32 41.46 39.75 37.16 41.49 40.51 42.49 42.01 40.19 41.36 44.52 44.09 43.89 45.24 47.21 47.33 47.84 49.11 50.60 51.39 51.08 51.92 51.08 50.88 51.56 50.89 50.15 48.69 47.91 47.96 49.41 50.53 51.74 52.18 49.50 48.62 48.82 49.50 48.29 47.94 47.87 42.86 42.39 41.06 40.91
31.53 31.53 34.79 33.27 39.68 40.82 37.96 37.51 40.63 42.26 41.30 40.60 38.41 38.95 41.54 41.44 42.67 44.74 45.12 45.22 45.28 47.51 48.97 48.82 48.81 50.04 48.83 46.70 45.74 45.48 45.08 45.32 46.11 45.95 47.33 49.74 50.36 51.01 49.96 48.62 48.19 47.45 45.22 44.44 43.70 42.59 41.95 41.94 41.56
36.21 34.16 32.95 34.95 39.04 39.25 36.17 36.81 39.28 38.59 38.49 38.26 36.64 39.05 41.50 42.54 42.45 42.87 43.30 44.01 45.01 45.47 45.41 45.14 45.98 46.25 44.85 43.97 43.93 43.40 44.08 44.00 44.60 45.30 46.47 48.06 49.81 50.43 49.80 48.51 47.59 47.11 45.34 45.13 43.71 42.36 41.57 40.79 41.24
37.01 34.48 33.42 37.61 39.54 38.65 37.57 37.60 37.86 39.76 38.64 37.93 38.93 40.07 41.44 41.85 42.22 44.15 43.49 42.36 44.28 45.11 45.26 44.65 44.55 44.17 43.49 43.22 42.81 42.87 42.20 42.83 43.11 44.12 44.95 45.92 47.38 49.29 49.83 48.50 47.14 46.56 46.37 43.40 42.91 41.90 40.53 40.91 40.41
36.33 34.12 33.91 35.55 38.23 37.55 36.47 34.70 37.16 39.37 40.61 41.20 40.95 40.16 41.21 42.24 43.48 42.88 43.49 42.77 42.57 43.42 43.70 44.14 44.05 43.91 43.86 44.51 43.81 43.26 42.89 43.06 42.92 44.02 43.42 45.05 45.74 47.52 48.84 49.24 48.12 46.27 46.10 45.82 44.22 42.99 41.12 41.05 39.91
33.96 38.48 37.63 36.84 34.66 31.22 35.71 29.10 35.31 36.74 37.59 39.61 39.98 39.88 39.33 40.84 42.38 43.53 43.57 42.18 42.05 43.03 43.15 43.84 44.91 45.02 45.97 45.40 44.07 42.96 41.95 41.97 44.13 44.09 44.55 45.49 44.83 44.93 47.01 48.83 47.93 46.15 45.04 44.50 41.62 42.39 41.42 39.83 38.47
38.01 40.34 37.72 37.05 34.00 32.51 34.26 30.00 34.33 36.67 36.09 36.67 38.28 40.96 39.91 41.57 42.02 41.88 41.83 42.96 43.33 43.07 43.62 44.01 45.26 45.82 45.91 45.22 44.59 43.67 44.00 45.05 44.52 44.36 43.26 43.97 44.05 43.20 44.22 45.25 45.99 43.83 42.63 42.14 43.02 39.28 38.99 39.78 38.19
42.31 38.51 36.89 35.57 33.53 27.55 31.96 30.69 30.71 33.69 36.23 38.21 39.97 40.64 42.03 41.86 41.70 43.75 42.79 44.11 43.48 43.44 43.34 43.82 44.49 45.13 45.73 45.12 45.25 43.40 41.76 41.77 41.93 42.27 42.26 42.83 42.34 41.07 40.79 42.68 41.32 39.56 38.81 38.44 39.10 40.51 40.50 40.09 40.07
39.81 33.35 25.07 24.68 23.99 24.85 34.05 30.24 32.39 38.20 39.17 39.53 40.02 42.01 42.15 41.90 41.34 41.44 41.96 42.85 43.22 43.28 43.66 44.65 44.21 44.59 45.26 46.19 43.26 41.14 40.40 39.99 39.88 40.68 41.68 41.31 40.25 36.74 36.69 37.96 38.74 39.10 39.41 40.57 41.28 41.07 41.80 41.30 40.32
36.44 34.38 25.57 21.16 19.97 24.65 32.74 28.20 34.04 40.13 40.72 43.22 43.29 41.30 42.05 41.48 42.07 42.06 42.66 42.31 42.90 43.54 43.68 43.98 44.60 44.69 44.69 43.13 40.58 40.31 40.85 39.78 39.73 39.88 39.39 38.40 36.76 36.17 38.46 39.69 40.26 40.50 40.66 41.01 42.21 42.02 41.34 40.42 38.66
36.76 32.26 36.11 28.60 21.31 22.16 28.50 33.16 38.13 39.17 40.89 41.44 41.53 40.68 40.06 40.92 41.50 42.37 43.49 43.56 43.08 43.63 44.10 43.50 43.29 43.55 43.71 41.82 39.17 39.18 39.38 39.07 38.50 37.52 36.56 35.99 36.32 38.95 39.23 39.59 39.91 40.48 42.30 42.24 41.57 40.57 38.55 38.54 38.14
39.17 39.73 30.47 29.11 19.45 21.34 27.65 29.03 30.97 36.25 38.09 39.68 38.61 38.77 40.17 41.37 42.47 42.90 43.33 43.88 44.78 44.31 43.80 43.42 43.09 42.91 43.05 39.39 39.39 40.44 39.49 39.86 37.42 35.76 35.59 35.19 37.08 39.09 39.25 39.50 39.17 39.06 39.42 40.82 40.91 40.00 39.49 38.18 37.72
36.15 33.16 34.07 34.09 29.67 21.63 22.24 27.63 36.73 36.58 38.18 38.61 38.69 40.25 40.21 40.63 41.93 42.63 43.41 43.92 43.92 43.50 43.72 43.40 42.97 42.46 42.55 38.93 38.80 38.64 40.30 39.47 36.23 33.95 34.49 35.74 37.40 38.62 38.02 38.35 38.25 38.68 38.02 38.23 37.02 36.03 35.45 34.55 34.20
37.58 35.35 34.33 25.43 25.94 26.97 23.37 28.06 38.39 38.94 39.00 39.68 39.12 41.12 41.38 41.69 42.12 42.45 43.09 43.55 43.39 43.57 43.49 43.18 42.32 42.35 40.80 38.82 39.61 39.54 39.04 35.75 33.42 33.29 34.33 35.39 36.30 36.97 36.84 37.27 36.62 36.00 35.47 35.28 34.63 33.40 33.08 32.16 31.03

GFSSGP_sfc_wetblb_015.txt.gz
Wetbulb
56.96 51.89 52.94 51.37 46.28 44.70 39.89 41.83 43.92 51.64 54.24 58.05 58.64 56.33 56.01 57.66 53.68 50.74 65.69 65.54 66.18 67.48 69.64 70.52 70.50 71.03 71.52 72.23 72.86 72.84 72.45 72.57 72.08 71.51 71.30 71.17 70.89 71.03 69.70 68.05 67.36 67.26 68.16 68.57 67.88 69.02 69.56 68.79 68.86
55.53 50.32 50.34 47.18 42.53 41.24 42.83 44.44 44.89 54.14 58.40 59.08 59.17 58.72 57.88 55.50 62.43 63.23 63.29 64.68 65.80 66.80 68.67 70.00 69.64 70.22 70.43 70.73 71.32 72.09 72.70 72.48 72.21 71.61 71.14 70.43 70.18 70.27 69.41 67.96 67.35 66.92 67.16 68.07 68.82 68.56 69.37 68.63 67.44
52.54 48.28 48.67 43.93 40.68 39.89 44.88 47.96 54.19 56.64 57.00 57.40 58.37 60.39 59.24 58.95 63.24 64.23 66.03 64.61 65.28 65.80 68.14 69.46 68.84 69.06 69.55 69.68 70.26 70.66 70.86 71.42 71.90 71.81 71.41 70.88 70.39 70.01 69.09 67.22 67.13 66.18 66.29 66.92 67.98 68.20 68.46 67.77 67.11
50.27 48.80 45.83 45.07 40.64 41.88 45.61 52.21 56.31 55.50 56.29 59.40 59.33 56.12 60.72 63.48 64.47 66.27 65.15 65.31 64.83 65.31 67.81 68.02 67.69 68.16 68.86 69.18 69.34 69.05 69.44 69.91 70.06 70.30 70.53 70.49 70.14 69.70 68.36 68.24 66.80 65.88 66.33 66.86 67.72 68.20 67.96 67.22 66.67
46.72 46.17 43.78 43.44 43.47 46.30 48.61 51.75 55.07 53.35 54.37 56.06 57.23 55.66 58.07 63.83 66.04 65.71 65.11 65.14 64.03 64.69 66.21 67.77 66.91 67.76 68.64 68.56 68.25 68.54 68.54 68.68 68.98 69.08 69.19 69.17 68.57 67.82 67.17 66.18 66.51 66.92 66.66 67.60 67.09 66.13 65.77 65.27 65.35
46.13 45.68 43.28 42.16 42.76 43.14 48.73 50.59 53.38 52.90 54.41 55.61 56.70 56.09 57.94 64.33 64.83 65.19 65.90 65.01 64.53 63.67 65.36 66.57 67.17 67.52 67.81 67.67 67.58 67.43 67.61 67.61 67.68 68.27 68.49 68.37 68.07 67.80 67.68 67.41 67.27 66.98 66.97 66.85 66.08 66.20 65.84 65.20 65.54
44.39 42.86 38.65 38.71 40.28 41.70 44.11 44.47 50.19 51.19 52.16 52.30 57.55 54.30 58.90 62.92 65.37 65.80 65.76 64.99 64.89 64.95 65.24 66.10 66.52 66.64 66.19 65.79 65.89 66.11 66.73 66.96 66.55 66.56 66.25 66.34 66.36 65.96 66.09 66.31 66.03 65.83 65.12 64.91 64.80 64.45 64.41 63.68 63.02
44.19 43.66 38.82 38.92 38.96 40.39 43.86 45.43 45.95 47.95 50.44 56.00 57.57 53.86 56.68 62.99 65.59 65.89 66.01 64.89 64.90 65.53 65.72 66.00 66.77 66.47 66.53 66.68 64.89 65.14 65.67 66.09 65.89 65.69 64.92 64.48 64.30 64.28 63.66 63.53 64.44 64.33 64.05 63.75 63.33 62.87 62.39 61.71 61.38
44.36 41.78 38.57 39.45 40.40 42.48 44.63 45.09 46.64 48.88 53.31 51.50 54.17 58.39 58.37 65.10 65.48 65.09 65.24 64.19 64.52 64.95 66.01 66.34 66.17 66.04 65.22 64.83 65.03 65.30 65.69 65.72 65.72 65.56 64.30 63.94 66.23 64.76 63.88 63.11 63.31 63.15 62.61 62.17 61.74 61.15 60.34 58.86 58.44
44.50 41.40 40.71 43.14 42.98 44.06 45.13 44.90 45.34 47.76 50.67 52.56 54.66 57.04 61.07 64.39 64.42 63.92 64.24 63.49 64.11 64.73 65.76 66.01 66.49 66.20 65.31 63.49 65.00 66.07 65.93 67.28 67.42 67.31 66.41 66.32 65.46 64.90 63.25 62.29 61.78 61.39 61.19 60.58 60.08 59.52 58.61 58.41 60.92
45.00 43.05 43.98 44.67 44.70 45.97 46.07 46.34 46.41 47.86 47.39 51.39 51.82 56.84 61.16 63.17 63.76 63.90 64.74 65.30 65.18 65.81 66.15 65.98 66.43 66.71 65.99 65.18 65.42 65.68 66.14 66.48 66.60 66.36 66.33 66.15 65.70 65.52 64.80 64.06 63.49 62.96 60.09 60.98 60.42 60.88 61.57 60.65 60.89
44.72 44.79 45.92 46.30 46.12 45.94 45.88 46.94 45.96 46.45 47.98 50.21 54.54 60.07 61.36 61.26 62.38 63.55 64.11 65.14 65.10 65.52 66.59 67.01 66.82 66.43 66.49 66.27 65.92 65.38 65.36 65.94 66.08 66.22 65.49 65.79 64.78 64.33 63.50 62.82 62.69 62.54 62.14 60.91 61.42 61.77 60.67 60.10 59.61
45.98 45.69 46.10 47.03 45.71 46.53 47.07 46.37 46.23 46.72 49.15 48.84 54.32 59.16 60.74 61.43 62.06 63.46 64.73 65.18 64.63 64.73 66.24 66.99 66.51 65.75 64.96 63.26 64.64 65.06 65.22 65.69 66.03 65.57 65.37 64.86 64.02 63.31 62.24 61.89 61.78 61.57 61.42 60.57 60.91 60.20 58.33 56.70 55.75
47.79 47.14 46.70 47.39 47.06 47.31 46.39 46.40 46.70 47.77 48.07 48.60 53.14 57.72 60.50 61.60 61.80 61.23 61.03 62.38 62.67 64.11 64.93 65.19 63.60 63.12 62.36 61.98 63.41 64.41 64.68 64.99 64.86 64.94 64.59 64.18 63.45 62.91 61.98 61.58 61.19 61.00 60.79 60.83 60.72 58.94 56.07 55.00 54.33
46.61 44.70 45.11 45.72 46.21 46.03 46.13 44.79 45.04 47.62 47.33 47.06 49.05 54.12 58.76 60.48 61.46 61.20 61.18 60.80 61.81 62.15 62.24 62.06 61.84 62.40 62.06 60.77 60.46 60.55 61.37 60.56 62.29 62.80 62.83 62.57 62.18 61.89 61.26 61.10 60.97 61.11 61.14 60.61 59.27 56.55 55.68 54.08 52.75
43.58 43.54 41.98 45.05 46.69 46.24 46.44 43.13 47.45 46.64 47.11 47.95 47.83 48.26 54.18 57.92 58.94 58.25 58.14 56.95 58.36 58.77 59.53 60.26 60.19 61.11 61.25 60.41 60.27 59.83 59.03 58.44 58.23 58.21 58.76 59.36 59.64 60.13 60.40 59.89 60.01 60.74 60.25 59.62 58.36 56.81 54.61 52.48 51.73
42.22 38.94 39.93 42.51 45.24 46.07 46.34 43.97 48.03 48.35 46.76 47.72 47.20 46.80 50.71 54.90 54.76 53.51 52.50 53.99 55.82 57.39 58.51 59.03 59.97 59.97 59.88 58.84 58.95 59.18 58.66 58.35 58.11 57.27 56.81 57.48 58.05 58.70 58.89 58.59 58.62 58.82 58.04 58.07 57.68 56.37 53.99 52.32 51.37
38.71 38.86 39.75 40.15 43.98 45.65 43.73 44.16 46.47 44.99 43.62 44.75 45.11 45.28 47.95 51.45 51.16 50.81 51.17 51.82 53.67 56.44 57.51 58.49 58.36 58.12 57.69 56.79 56.12 55.48 55.10 55.37 55.09 55.22 55.15 55.52 56.12 57.06 57.41 57.54 57.31 56.97 55.82 55.74 55.55 54.93 53.79 52.13 51.39
41.37 39.82 39.32 41.47 43.60 44.16 42.56 42.96 44.28 44.56 44.70 44.07 44.80 45.86 47.92 49.39 49.40 49.79 50.00 51.06 52.32 54.04 55.44 56.58 55.70 55.31 55.29 54.26 53.09 53.37 53.02 53.31 53.74 54.00 53.73 53.88 54.17 54.76 55.54 55.64 56.12 56.10 54.94 54.86 54.63 53.64 52.50 50.96 50.69
41.44 39.56 39.24 41.85 43.05 43.63 42.86 43.11 43.28 44.38 43.46 43.85 45.76 46.87 47.99 48.89 49.11 48.92 49.95 50.90 51.31 52.87 53.56 52.37 51.17 51.01 50.90 51.62 52.01 51.97 51.59 52.18 51.77 52.55 53.36 53.67 53.26 53.37 53.24 54.19 54.12 54.57 53.69 54.40 53.86 52.41 51.20 50.43 50.96
41.13 39.93 39.35 39.45 41.98 42.90 41.73 41.39 42.47 43.87 45.01 45.68 46.38 47.12 47.74 49.15 49.42 49.35 49.86 50.72 50.83 50.61 50.15 50.02 50.37 50.88 51.60 51.52 51.99 52.38 52.44 52.76 52.26 52.58 52.34 52.94 53.01 52.68 52.47 52.61 52.78 53.18 53.31 52.18 53.73 53.14 51.25 50.32 50.25
38.80 41.94 41.73 40.25 40.05 38.16 40.76 36.37 41.16 41.61 43.02 44.57 45.65 46.89 47.79 48.14 49.24 49.43 49.66 49.79 49.86 49.71 51.37 51.82 51.96 52.22 51.79 52.20 51.51 50.39 49.17 48.19 49.91 50.23 50.83 51.14 51.95 51.69 51.46 51.10 51.31 51.92 52.38 51.62 51.61 51.91 50.82 49.82 48.38
41.66 42.79 41.27 40.87 39.73 39.17 39.72 38.16 40.51 41.94 41.13 42.73 45.14 46.21 47.86 47.90 47.75 48.06 48.42 49.03 49.11 50.27 50.63 51.34 51.73 51.56 51.31 51.11 49.92 49.25 48.74 49.03 49.27 49.27 48.83 49.49 50.34 50.66 49.71 49.05 49.27 49.84 50.51 50.40 49.52 49.63 48.35 48.32 48.09
44.25 41.94 40.12 39.48 38.77 34.78 36.50 36.65 37.64 39.89 40.42 42.88 45.94 47.25 46.67 47.28 47.37 47.39 48.96 49.60 49.75 51.01 51.13 51.44 51.18 51.12 51.58 51.34 49.41 48.56 48.00 47.67 47.68 47.97 47.66 48.04 48.00 48.11 46.74 46.86 46.97 46.74 46.04 45.70 46.00 45.79 45.09 44.56 44.29
43.61 38.55 33.99 33.93 33.66 33.32 36.98 35.81 37.99 41.62 43.38 44.38 45.11 45.85 46.28 47.25 47.47 47.70 48.07 48.93 49.66 50.08 50.62 50.72 50.67 50.20 50.60 50.27 48.05 47.77 47.72 47.87 47.15 47.16 46.85 46.21 45.61 45.84 44.41 45.14 45.45 45.45 45.78 45.74 45.56 43.91 42.18 40.76 39.42
40.72 39.05 33.93 27.04 29.25 31.85 36.06 33.55 38.11 43.52 45.26 46.38 45.97 45.20 45.88 46.56 47.30 47.66 47.82 48.72 49.25 49.52 49.83 50.37 49.73 49.47 50.00 49.62 48.34 47.20 48.27 47.43 46.71 46.19 45.58 44.30 43.76 43.88 45.01 45.30 45.62 45.72 46.11 45.95 44.15 41.76 40.84 39.62 38.68
40.53 37.69 39.53 32.23 25.96 30.94 34.58 37.91 41.52 43.05 44.15 44.39 44.13 44.99 45.19 46.38 47.02 47.83 48.59 49.23 49.81 49.62 49.51 49.36 49.11 48.95 49.07 48.99 47.38 46.74 46.80 46.62 45.76 45.60 44.51 42.99 43.12 43.94 45.12 46.11 45.92 45.08 44.60 43.68 42.68 41.67 39.11 38.96 38.89
42.52 42.45 36.07 36.04 28.41 26.38 32.83 33.66 36.65 39.43 41.19 42.76 43.39 43.95 45.34 46.19 47.49 48.68 49.48 49.77 49.81 50.00 49.47 49.20 50.21 48.62 48.73 48.69 46.52 45.94 45.98 45.85 45.27 43.64 41.84 41.82 43.04 44.68 44.99 44.77 43.66 43.52 43.28 43.18 42.78 42.81 42.36 41.09 40.68
40.34 38.32 37.73 37.50 34.74 30.02 26.38 32.88 41.42 41.10 41.83 42.66 43.72 44.39 45.63 46.98 47.91 48.66 49.04 49.57 49.54 49.23 49.73 49.47 49.06 48.23 47.99 47.18 45.40 45.50 45.12 44.19 41.60 40.25 40.66 41.57 43.64 43.43 42.15 41.48 41.26 40.97 40.23 40.60 40.66 40.53 39.96 39.58 39.44
41.49 38.70 37.32 32.35 29.64 32.92 31.89 31.85 42.11 43.14 42.82 43.74 44.24 44.32 46.04 47.11 47.78 48.26 48.50 48.66 48.79 48.99 49.01 48.62 48.81 47.77 46.40 44.91 44.94 44.44 42.77 39.98 39.06 39.46 40.46 41.06 40.53 41.02 41.11 41.39 40.46 39.10 40.09 39.46 38.09 37.06 37.35 36.58 35.97

GFSSGP_sfc_wetblb_018.txt.gz
Wetbulb
58.80 57.71 59.22 56.38 50.22 52.44 48.29 48.98 55.94 56.68 56.95 60.71 61.08 59.07 58.94 60.77 57.45 55.57 68.74 69.26 67.38 68.49 71.16 71.72 71.11 71.45 72.28 72.96 72.78 72.30 72.24 71.82 71.48 71.23 71.30 71.08 71.24 70.14 69.42 67.92 67.88 67.87 68.78 68.85 68.94 69.01 69.56 69.54 68.80
58.85 54.77 56.11 55.07 48.50 45.84 47.15 51.93 52.97 57.23 59.93 61.46 60.98 60.23 58.53 56.98 63.37 65.13 66.73 68.46 67.34 68.31 70.06 71.05 69.91 70.72 71.08 71.50 72.01 72.31 72.50 72.09 71.71 71.50 70.97 70.61 70.12 69.65 68.87 68.32 67.32 67.57 67.57 68.13 68.69 69.19 69.41 68.64 67.33
56.10 54.41 53.51 51.42 49.88 46.45 47.19 52.66 57.07 59.37 60.30 60.28 59.40 62.27 60.44 59.37 63.87 65.61 68.05 66.76 66.76 67.86 69.28 70.45 69.25 69.44 69.90 70.18 70.28 70.43 70.66 71.29 71.38 71.31 70.82 70.31 69.80 69.53 68.73 68.45 67.65 66.81 66.77 67.17 68.37 69.05 68.56 67.64 66.67
55.00 53.75 54.49 48.65 46.70 49.46 52.55 55.64 57.82 58.29 60.28 61.29 59.47 57.13 62.54 66.17 65.51 67.40 68.35 66.98 65.13 65.93 67.48 68.14 68.10 68.34 69.10 69.14 68.85 69.25 69.74 69.90 69.85 70.13 70.49 70.53 69.91 69.23 68.69 67.94 67.10 67.09 67.14 67.58 68.26 67.35 66.52 65.60 66.31
54.92 53.96 49.48 47.81 48.54 51.58 55.58 57.93 58.72 56.56 57.88 59.44 59.64 56.81 58.85 65.76 68.63 68.75 68.24 67.21 64.93 65.44 67.11 67.55 67.47 68.18 68.58 68.19 68.24 68.32 68.40 68.65 68.97 68.87 69.29 68.89 68.45 68.13 67.47 66.44 66.30 66.76 66.90 67.65 66.49 66.45 65.16 64.90 64.79
52.14 55.18 48.06 46.16 48.33 52.48 55.47 57.94 56.07 54.91 57.07 58.50 57.40 56.79 59.01 66.62 67.05 67.78 68.31 67.12 65.38 65.50 67.13 67.22 66.92 67.98 67.92 67.59 67.73 67.94 67.86 67.79 68.07 68.27 68.56 68.22 67.91 67.73 67.59 67.68 67.41 67.19 66.83 66.64 66.03 66.19 65.92 65.93 65.29
51.34 51.25 47.55 47.67 48.10 50.08 51.60 54.29 53.66 53.90 54.83 55.00 58.33 54.69 59.78 63.77 66.58 67.59 67.30 66.52 65.82 65.97 66.87 68.02 68.40 67.62 66.35 66.39 66.34 66.76 67.21 66.92 66.76 66.63 66.57 66.44 66.28 66.21 66.03 66.29 66.06 65.59 65.35 65.05 64.79 64.34 63.77 63.39 62.62
51.47 50.01 46.13 46.97 45.30 45.08 48.45 49.90 52.43 52.05 53.81 60.54 60.47 53.56 56.23 63.32 67.33 67.73 67.11 66.08 66.25 67.01 67.21 68.30 68.73 68.69 69.12 68.32 65.16 65.95 66.56 66.44 66.26 65.58 65.10 64.91 65.10 64.45 63.65 64.30 64.73 64.32 63.97 63.52 63.32 62.82 62.26 61.52 61.30
51.02 46.98 43.90 43.99 44.89 46.14 49.06 48.29 50.77 55.19 55.24 55.66 57.48 58.96 61.66 66.33 67.62 66.79 65.87 65.49 66.17 67.02 68.37 69.12 68.84 69.29 69.44 68.58 67.26 65.15 65.66 66.21 65.95 66.13 64.35 64.75 68.91 67.92 65.98 62.94 62.97 62.76 62.40 61.95 61.51 60.80 59.81 58.78 59.23
50.83 47.13 44.88 47.15 48.10 47.96 48.59 48.58 49.58 50.50 50.82 52.49 56.14 60.43 64.16 66.87 66.68 65.94 65.22 64.57 66.04 66.93 68.32 69.67 69.96 69.53 69.39 67.23 68.80 68.96 68.43 69.66 69.43 69.43 69.01 69.02 68.69 68.13 65.24 63.85 61.56 61.05 60.65 60.05 59.55 59.27 59.15 59.65 62.69
49.98 46.54 48.17 47.80 49.08 49.91 48.83 48.58 49.93 48.92 48.40 51.26 51.68 57.99 63.70 65.45 65.88 65.60 65.44 64.08 65.43 67.55 68.49 69.36 70.04 70.03 69.35 68.87 69.00 68.28 68.41 69.16 69.65 69.48 68.94 68.72 68.11 67.98 67.61 66.75 65.80 65.77 61.91 63.49 62.12 62.67 62.30 61.92 62.12
47.01 48.96 48.59 48.38 49.42 49.24 48.34 50.24 48.74 50.02 50.28 53.16 55.29 59.51 62.95 63.67 64.08 63.85 63.56 63.86 64.68 66.46 68.44 69.61 70.05 69.83 69.81 68.69 68.06 68.38 67.30 68.20 67.68 68.47 68.57 68.23 66.99 66.88 66.32 65.19 64.53 64.42 64.04 63.26 62.58 62.64 63.01 62.09 61.03
49.85 50.16 50.55 50.18 49.70 50.07 50.23 49.50 49.54 50.12 52.27 52.94 57.06 60.59 61.18 61.72 62.75 64.13 64.55 64.71 65.87 66.69 68.23 69.86 70.67 70.27 68.78 67.87 68.16 68.20 67.74 67.47 67.83 67.34 67.16 67.86 66.22 65.39 64.88 63.96 63.51 62.94 62.66 62.28 62.04 61.96 61.42 60.34 58.67
51.61 51.12 50.67 51.03 50.51 50.49 49.47 49.98 50.57 50.96 52.90 52.66 54.74 58.13 60.52 61.01 61.61 62.91 64.44 64.81 66.40 67.04 68.36 70.14 70.35 70.11 67.59 66.07 66.94 67.38 67.95 66.95 67.02 66.02 65.75 67.06 66.58 64.84 63.53 62.41 61.68 61.52 61.68 61.57 61.51 61.22 60.77 59.07 58.20
51.46 49.22 50.56 50.26 50.49 49.86 50.11 48.83 48.69 51.54 51.42 51.14 52.82 55.54 59.24 60.75 61.86 62.05 63.18 64.22 65.63 66.43 67.70 69.05 69.70 67.98 66.22 65.36 65.05 65.57 65.97 65.32 64.35 64.15 64.71 65.04 65.30 63.97 63.26 61.78 61.12 61.05 61.69 62.29 62.12 61.54 60.57 59.03 57.90
48.52 49.15 45.88 49.30 50.40 50.75 51.24 46.48 50.50 53.06 52.46 51.68 52.75 53.40 57.50 60.23 61.75 63.05 64.35 64.66 64.93 65.07 65.59 67.53 66.90 65.84 65.61 64.45 64.59 64.37 64.14 63.48 62.90 63.02 62.75 62.69 62.87 62.87 62.31 61.04 60.86 61.40 61.46 60.96 60.33 60.10 58.93 58.43 57.34
47.15 44.06 43.63 46.11 49.78 49.86 49.39 47.04 51.45 52.21 50.63 51.91 53.46 53.53 54.53 58.15 61.57 62.77 61.83 62.54 63.03 63.04 63.75 65.49 66.61 64.77 64.08 63.79 63.45 63.68 63.00 62.73 62.52 62.57 61.57 61.37 61.33 61.46 61.18 60.39 60.54 61.43 60.45 59.89 59.69 59.15 59.01 57.62 56.67
42.62 43.09 44.09 44.00 47.77 48.77 47.46 47.73 49.68 50.80 49.72 51.02 52.50 52.98 53.16 56.50 59.37 59.63 59.30 58.22 58.95 60.91 62.47 64.84 64.68 62.91 62.52 63.19 62.49 61.18 60.30 60.25 60.47 59.82 59.74 59.28 59.05 59.17 59.31 59.25 59.75 60.34 59.49 59.00 58.60 58.47 58.71 57.81 56.85
45.60 44.29 43.55 45.78 47.89 47.84 47.62 47.77 48.11 49.96 50.47 50.82 51.22 51.57 53.23 56.35 56.24 56.02 56.71 57.46 58.28 60.27 60.87 61.26 60.92 59.55 60.84 60.76 58.18 58.34 57.69 58.00 58.23 58.87 58.53 58.90 58.65 58.24 58.43 57.88 58.10 58.46 58.01 58.12 58.56 58.02 57.32 56.82 57.37
45.70 43.79 43.90 46.13 47.31 47.34 47.46 46.43 47.92 49.44 49.61 50.79 51.82 52.63 53.64 54.27 54.90 55.26 56.66 57.64 57.99 58.07 57.96 57.24 56.23 55.89 56.40 57.99 57.81 57.40 56.95 57.82 58.07 58.56 58.02 57.57 56.81 56.70 55.96 56.33 56.03 56.40 56.07 56.55 57.00 57.02 56.09 56.36 56.68
45.81 44.02 43.95 43.67 47.03 47.96 46.92 45.89 46.23 48.20 50.15 51.02 51.78 52.67 53.16 53.35 53.58 54.02 54.76 55.83 56.61 56.19 56.26 55.76 56.22 56.76 57.11 57.05 58.02 57.92 58.09 57.78 55.96 54.58 54.36 55.12 54.99 54.91 55.17 55.04 55.12 55.19 55.17 54.32 55.34 55.63 55.11 53.70 55.55
43.32 46.09 46.18 44.90 44.59 42.63 46.95 41.30 44.56 46.36 47.48 49.12 50.32 51.72 52.49 52.82 53.29 53.64 54.29 54.83 55.41 56.07 57.05 56.72 56.49 56.36 56.27 56.44 55.63 54.77 53.72 52.37 53.28 53.95 54.11 53.86 54.23 53.59 53.65 53.64 53.87 53.96 54.04 53.65 54.06 54.20 54.21 53.97 52.21
45.00 47.46 45.88 45.34 44.90 44.34 44.33 42.62 44.34 46.87 44.95 47.02 50.06 51.18 52.41 52.97 52.87 53.12 53.65 54.43 55.27 56.19 56.42 56.98 56.27 55.91 55.90 55.24 54.28 54.16 53.24 53.94 53.92 53.53 53.00 53.42 53.08 52.83 52.41 52.47 52.38 52.90 53.07 53.10 52.34 51.75 51.91 51.63 49.70
48.43 46.21 45.63 46.30 45.96 40.03 42.24 42.07 42.54 45.51 44.15 46.98 49.99 51.50 52.16 52.69 52.77 52.92 53.86 54.71 55.15 56.48 56.49 56.39 55.34 54.54 55.03 55.18 54.22 53.36 52.58 51.33 51.00 51.52 50.70 50.53 50.78 50.95 51.40 51.12 51.38 51.56 51.23 50.86 49.85 47.10 45.21 44.65 44.31
48.45 44.67 40.51 38.33 38.89 38.29 42.24 41.19 42.66 45.34 47.39 48.26 48.85 50.39 51.98 53.00 53.25 53.05 53.08 53.64 54.29 55.04 55.32 54.98 54.80 53.86 54.48 54.05 52.66 51.23 52.32 52.22 51.14 50.50 49.60 49.02 48.76 49.07 49.70 49.94 50.25 51.41 49.78 47.17 46.36 45.12 43.38 41.49 39.85
45.14 44.57 39.53 30.61 35.09 38.41 41.38 38.59 42.23 47.34 49.24 49.86 49.99 50.61 51.25 51.75 52.51 52.49 52.77 53.86 54.17 54.11 54.36 54.51 54.10 53.18 52.82 52.58 51.96 52.56 52.37 51.97 51.07 50.08 48.95 48.16 48.14 48.59 49.24 49.47 50.09 49.27 47.98 47.14 45.22 43.61 42.16 40.68 40.76
44.56 42.35 44.61 38.02 33.22 36.70 41.29 42.32 45.97 47.41 47.36 48.15 48.42 49.41 49.74 50.69 51.24 52.01 53.16 53.72 54.08 54.19 54.17 54.22 54.10 54.06 53.57 52.82 53.15 52.42 51.96 50.96 49.34 48.88 48.37 47.71 48.14 47.74 48.56 48.30 47.19 47.67 46.63 45.86 45.01 43.84 43.33 43.49 42.60
46.67 46.61 40.88 42.52 32.69 29.19 37.80 38.60 40.78 44.43 46.41 46.88 47.88 48.30 49.31 50.83 51.51 52.44 53.10 53.55 53.86 54.12 54.62 54.97 54.12 53.16 53.28 52.93 52.35 50.94 50.59 49.60 48.44 47.16 46.02 46.17 46.88 47.73 47.29 46.74 45.96 44.42 43.79 43.28 42.65 42.10 42.31 42.17 41.89
45.23 44.03 42.38 42.38 40.14 33.46 30.92 37.09 46.51 45.36 46.30 45.93 48.01 48.24 49.45 50.41 51.40 51.96 52.52 53.11 53.14 53.85 53.82 52.89 52.76 52.54 51.75 51.28 50.57 49.68 48.62 47.20 45.99 45.44 45.44 45.88 46.67 46.13 45.27 44.23 43.71 42.90 42.23 41.98 42.22 41.12 41.03 40.27 40.50
45.80 42.90 41.96 37.60 32.04 37.62 35.95 36.11 46.53 47.23 47.56 47.39 47.86 48.14 49.64 50.62 51.07 51.52 52.18 52.41 52.52 51.94 51.63 51.13 50.83 49.97 49.97 49.77 48.61 47.76 46.67 45.41 45.08 44.30 44.53 45.36 44.58 44.80 44.02 43.53 42.29 42.23 41.50 40.98 39.85 38.76 39.46 38.52 38.07

GFSSGP_sfc_wetblb_021.txt.gz
Wetbulb
62.31 59.75 59.64 57.82 50.52 51.97 50.43 52.49 56.94 55.90 56.94 61.01 60.41 59.47 58.55 60.82 59.65 55.84 68.57 68.43 70.24 71.22 71.89 71.91 71.33 72.15 72.67 72.53 72.43 72.17 72.29 72.02 71.53 71.48 71.32 71.41 70.69 69.98 68.96 68.49 67.96 68.53 68.85 69.26 69.61 69.67 70.35 69.26 68.30
60.31 56.90 57.33 54.82 48.85 47.95 49.26 53.17 54.17 57.08 58.64 59.63 59.22 58.86 58.19 57.74 64.66 65.50 65.98 67.57 69.10 70.28 71.63 71.69 70.43 71.01 71.27 71.82 71.90 72.51 72.28 72.01 71.57 71.13 70.79 70.69 70.48 69.49 68.85 68.10 67.73 68.13 68.03 68.16 68.86 69.34 69.18 68.04 66.97
60.39 57.47 53.46 51.31 50.13 48.38 48.66 52.91 56.33 57.97 59.28 59.01 57.75 60.45 60.25 59.27 64.09 65.80 67.09 67.44 68.38 69.15 70.63 70.37 69.53 69.72 70.27 70.62 70.57 70.96 71.40 71.42 71.36 71.21 70.81 70.27 69.78 69.42 69.22 68.59 67.65 67.16 67.59 68.25 68.56 68.74 68.16 67.49 66.78
56.30 54.72 54.09 49.61 49.70 51.66 52.61 55.58 57.28 56.93 59.27 59.69 58.03 57.11 63.24 66.07 64.88 66.37 66.85 66.76 67.05 67.49 68.82 67.96 68.31 68.87 69.23 68.67 69.14 69.53 69.76 69.96 70.23 70.68 70.78 70.58 70.05 69.55 68.70 68.02 67.65 67.97 67.91 68.38 67.52 66.97 65.73 65.62 66.06
56.38 55.09 50.33 48.95 49.98 52.98 55.72 56.84 57.51 56.56 57.27 57.35 57.47 55.55 60.36 66.53 68.07 67.12 66.15 64.60 64.27 65.10 66.34 66.80 67.60 68.67 68.51 68.29 68.42 68.47 68.50 68.77 69.01 69.34 69.27 68.88 68.65 68.25 67.61 66.93 67.05 67.52 68.06 67.48 66.93 66.78 65.55 65.28 65.64
52.58 55.30 49.09 47.21 49.28 53.16 55.76 57.22 56.11 55.62 56.51 55.83 56.09 57.07 61.13 67.01 66.32 66.66 66.26 64.34 64.44 65.22 66.38 66.02 66.91 68.22 68.12 67.80 67.75 67.74 67.70 67.84 67.97 68.45 68.22 68.11 67.74 67.60 67.65 67.41 67.25 66.82 66.74 66.21 66.25 66.32 65.98 65.45 64.56
51.13 52.35 49.16 48.99 49.19 51.08 53.04 55.86 53.70 54.05 54.39 54.34 56.32 54.73 60.63 63.72 66.20 66.34 65.36 64.51 64.19 65.73 66.41 66.94 67.66 67.48 66.92 66.77 67.05 67.34 67.40 66.81 66.72 66.51 66.60 66.38 66.36 66.16 66.37 66.14 65.84 65.57 65.29 65.05 64.55 64.10 63.77 62.97 62.16
53.72 53.16 48.53 49.16 48.20 47.73 50.82 52.33 54.28 53.07 54.56 57.76 58.52 53.54 56.59 62.85 65.51 65.60 64.74 64.22 64.95 65.87 67.18 67.80 68.12 68.07 68.68 67.90 66.02 66.74 66.73 66.33 66.06 65.50 65.04 65.22 65.46 65.22 64.50 65.44 64.82 64.36 64.01 63.40 63.12 62.63 62.15 61.85 61.52
53.96 48.40 45.92 45.96 46.30 46.75 50.14 49.30 51.34 54.15 53.89 54.99 55.73 58.77 61.09 64.66 65.41 64.66 63.74 63.82 65.06 66.03 68.04 68.21 67.67 67.77 67.42 66.53 66.61 65.47 66.51 66.64 66.08 65.92 65.04 65.31 67.86 67.51 66.55 63.68 63.30 62.81 62.46 62.07 61.75 60.98 60.65 61.05 61.24
50.91 48.63 46.52 49.04 49.45 48.54 49.46 49.83 49.94 51.65 51.64 52.21 55.38 58.66 63.77 64.92 64.14 63.18 62.42 62.60 64.12 65.56 66.70 68.47 69.32 68.46 67.19 65.41 67.15 67.20 66.53 68.06 67.83 68.23 67.90 67.35 67.61 67.36 65.51 64.17 62.89 62.72 62.34 61.91 61.46 61.12 60.77 60.82 62.28
50.73 47.85 49.05 48.57 49.81 50.46 49.25 48.78 50.41 49.84 49.35 52.43 53.39 56.22 61.90 63.20 63.63 63.20 63.13 63.00 63.43 65.75 66.38 67.86 70.09 69.36 68.21 66.95 65.96 66.86 66.78 67.28 67.83 68.23 67.88 67.48 67.05 67.54 66.38 66.04 65.80 66.00 63.09 64.25 62.29 62.44 62.53 62.65 62.30
47.84 49.77 49.45 49.38 49.78 49.77 48.79 50.80 49.14 50.38 51.60 54.01 55.00 58.45 61.06 61.83 62.46 62.96 63.04 62.77 63.42 64.62 65.71 67.53 70.65 69.97 68.65 67.44 66.29 65.96 66.02 66.69 66.68 67.18 67.19 66.60 65.54 65.81 65.33 63.87 63.56 63.51 62.76 62.91 62.67 62.19 62.63 62.91 62.07
49.10 49.43 49.90 50.29 50.13 50.42 51.05 49.77 49.80 50.17 53.03 53.81 56.03 58.60 60.14 61.71 62.48 62.97 63.58 63.86 64.09 64.16 65.48 66.98 69.94 71.05 68.68 67.60 66.75 66.52 66.08 66.47 66.58 66.88 66.04 65.69 64.70 64.51 63.89 63.45 62.57 62.23 62.00 61.82 61.61 61.43 61.09 61.22 60.78
51.92 51.82 51.87 51.94 51.41 51.47 50.58 50.69 51.57 52.00 53.62 53.14 55.06 57.16 59.24 60.13 61.43 62.47 63.25 63.39 63.94 64.70 65.61 67.31 68.95 71.07 68.88 65.72 66.43 65.97 66.69 66.36 66.02 65.50 64.42 64.79 64.84 64.66 63.46 62.64 61.86 61.61 61.31 61.31 61.30 60.99 60.58 60.37 59.82
52.68 49.84 51.66 51.98 52.55 51.38 52.33 49.10 49.71 53.07 53.47 52.97 53.58 55.34 58.19 59.45 60.49 60.83 62.74 63.39 63.90 64.62 65.73 66.99 68.94 70.54 68.41 65.56 65.19 64.44 65.06 63.73 64.04 64.13 64.19 63.69 63.71 63.34 63.09 61.81 61.61 61.35 62.34 63.96 62.02 61.30 60.96 60.21 59.95
50.16 50.80 47.45 50.91 51.66 52.25 52.04 47.73 51.47 53.98 53.72 53.07 54.26 55.04 56.34 58.68 59.67 61.31 62.24 62.91 64.05 64.45 63.88 65.81 68.04 69.15 67.61 65.27 64.93 64.24 64.09 63.30 62.67 62.99 63.18 62.64 62.72 62.80 62.44 61.16 61.19 61.97 62.15 61.24 60.41 59.98 59.26 59.20 58.92
48.84 45.62 45.30 47.80 51.23 50.70 50.69 48.54 52.76 54.22 53.21 52.81 53.73 54.82 55.32 57.17 59.81 61.61 63.46 63.35 63.34 63.52 64.05 64.64 67.83 67.54 66.41 64.91 63.86 63.97 63.47 62.50 62.41 62.97 61.94 61.66 61.74 61.41 61.12 60.55 60.73 62.49 60.79 61.31 60.91 60.03 60.35 58.70 58.57
44.77 44.24 45.30 45.36 49.52 49.11 48.53 48.53 51.76 52.34 52.36 52.84 53.99 54.92 55.13 55.80 58.61 62.10 61.38 61.78 61.13 63.35 63.23 64.52 66.48 66.26 64.52 64.26 63.39 61.68 61.30 60.75 61.35 60.57 60.23 60.61 60.52 60.52 60.03 59.73 60.11 60.23 59.24 59.50 60.05 60.35 59.96 59.34 58.88
46.90 45.75 45.08 47.39 49.60 48.35 48.20 48.79 49.58 51.80 52.85 52.85 53.40 53.84 54.39 56.06 60.15 59.48 59.47 60.11 61.37 62.94 63.73 64.45 64.17 62.41 61.80 61.16 59.12 58.85 58.63 59.23 59.40 59.81 60.18 60.04 59.50 58.99 58.65 57.85 58.01 58.36 56.83 58.21 59.21 58.65 58.21 57.93 59.42
47.52 46.12 46.01 47.86 49.04 48.61 48.74 48.30 49.76 51.13 51.72 53.27 53.78 54.78 55.93 56.59 56.26 57.48 58.68 59.70 59.98 59.74 60.07 59.66 59.23 58.72 58.83 59.30 58.53 58.85 58.68 58.85 59.17 59.74 59.13 58.78 57.61 56.99 56.27 56.50 55.59 56.99 55.55 57.05 57.41 57.55 55.84 56.71 58.12
47.78 46.27 46.31 45.74 48.62 50.07 48.70 47.14 47.80 50.39 51.89 52.58 53.63 54.40 54.87 54.78 54.70 55.73 56.92 58.20 59.12 58.58 58.54 58.33 58.46 58.54 58.56 58.70 58.92 58.50 58.67 58.66 57.34 57.07 57.05 57.52 57.38 56.21 55.34 55.32 54.72 55.19 55.69 54.57 56.04 55.93 54.99 53.39 55.28
45.58 48.43 47.68 47.00 46.01 43.50 49.28 42.91 46.78 49.00 49.39 50.90 52.26 53.40 53.93 54.28 55.16 55.84 56.17 56.80 57.72 58.02 58.77 58.37 58.06 57.83 57.91 58.04 56.75 56.25 55.33 54.50 56.18 56.63 57.05 56.35 56.53 55.52 54.63 53.90 53.64 53.68 53.95 54.19 54.32 53.59 53.61 53.35 51.18
47.01 49.70 48.06 47.84 46.71 46.43 46.11 43.48 45.79 48.80 47.15 48.97 51.39 52.72 53.77 54.53 55.01 55.18 55.80 56.62 57.35 58.25 58.51 58.49 57.79 57.26 57.38 57.04 56.43 55.93 55.09 55.49 55.83 54.78 54.04 54.16 53.87 53.66 52.76 52.84 53.14 52.36 52.40 52.77 52.54 51.92 50.89 50.57 49.13
50.66 49.07 48.24 48.78 47.37 41.08 45.37 44.13 44.85 46.74 47.63 49.11 51.66 52.75 53.66 54.66 54.79 55.16 55.79 56.38 57.04 58.19 58.08 57.83 57.18 56.88 57.09 57.12 56.58 55.21 53.90 53.22 52.41 52.49 51.70 51.45 51.58 51.57 51.98 51.37 51.80 51.77 51.84 51.35 49.84 48.14 46.21 45.17 44.80
50.28 47.35 41.94 39.75 40.28 39.65 45.47 42.56 45.03 48.08 49.55 50.44 50.48 51.75 53.25 54.42 54.68 54.80 54.96 55.46 55.81 56.18 56.85 57.16 56.77 55.91 56.45 55.60 55.06 54.62 53.73 53.28 52.35 51.74 50.86 49.97 49.28 49.26 49.61 50.34 50.66 50.58 50.09 48.19 47.40 46.23 45.65 44.00 41.59
47.00 46.58 41.23 33.08 36.56 39.85 44.64 39.58 45.15 49.90 51.24 51.38 51.61 52.03 52.71 53.12 53.76 53.85 54.41 55.01 55.70 56.04 56.70 56.55 56.15 55.72 55.83 55.86 55.18 54.80 54.74 53.07 52.25 51.41 50.20 48.63 48.06 48.44 49.70 49.92 50.03 48.41 48.01 47.02 46.19 45.64 44.51 44.52 43.70
46.74 44.37 47.01 41.06 38.99 37.95 42.06 45.03 48.53 49.70 49.55 49.92 50.44 51.30 51.62 52.29 52.77 53.70 54.56 55.32 55.58 55.60 55.79 55.99 55.64 54.92 54.81 54.84 54.81 53.89 53.03 52.09 50.74 49.83 48.38 47.64 48.18 47.90 48.80 49.01 47.64 47.22 45.68 45.10 44.44 44.02 43.74 43.61 43.36
48.27 48.92 42.83 44.23 33.37 31.02 38.99 40.12 42.06 45.76 47.52 49.68 49.17 49.96 51.32 52.23 52.86 53.72 54.12 54.63 54.94 54.99 55.42 55.80 54.92 53.88 53.35 52.69 52.58 51.93 51.10 51.04 49.39 47.95 47.06 47.00 47.55 48.11 47.19 46.84 46.12 44.49 44.37 43.92 43.62 43.17 43.29 42.37 42.60
46.63 46.18 44.68 43.81 41.35 34.62 32.88 38.37 47.77 46.74 47.93 47.82 48.96 50.37 51.38 51.97 52.60 52.93 53.01 53.20 54.19 54.27 53.90 53.51 53.07 52.50 51.61 51.57 51.13 50.14 49.25 48.72 47.68 46.79 46.58 46.64 46.79 45.97 45.29 44.99 43.91 43.89 42.80 42.58 41.98 41.43 41.19 40.85 41.18
47.50 45.17 44.67 38.71 35.30 39.15 37.37 37.50 48.56 48.44 48.91 48.89 49.55 50.55 51.03 52.11 52.32 51.80 52.01 52.39 52.22 52.15 52.42 51.78 51.46 50.52 50.36 49.79 48.80 47.92 48.16 47.69 47.00 46.26 45.98 45.82 44.46 45.10 44.93 44.16 42.52 42.10 41.67 41.68 40.73 40.04 39.83 39.01 38.75

GFSSGP_sfc_wetblb_027.txt.gz
Wetbulb
56.85 54.49 53.21 51.32 43.79 42.61 40.12 44.56 52.94 52.03 50.85 57.50 59.67 58.22 56.57 57.80 55.64 51.88 67.06 68.30 68.48 68.97 70.93 71.61 71.51 72.37 72.71 72.88 72.70 72.57 72.53 72.73 72.53 72.09 71.66 71.14 70.50 70.24 70.02 69.49 69.46 69.30 69.26 69.45 69.86 69.89 69.29 68.51 67.74
56.91 55.89 53.21 47.76 41.18 37.58 41.70 51.04 49.62 50.50 53.69 58.81 58.69 58.50 56.95 54.52 60.67 61.47 64.65 68.29 68.38 68.81 69.45 70.36 70.79 71.35 71.95 72.20 72.30 72.28 72.42 72.01 72.01 71.79 71.31 70.91 69.95 69.60 69.21 68.91 69.18 69.41 69.25 69.47 69.49 69.32 68.95 68.19 67.42
57.35 55.87 46.47 43.37 40.74 37.94 41.67 50.54 50.86 51.95 55.32 55.97 55.94 58.55 58.18 56.32 60.43 61.51 68.11 68.08 67.93 67.07 67.76 68.83 69.24 69.90 70.77 71.00 71.18 71.38 71.48 71.59 71.41 71.07 71.17 70.86 70.13 69.97 68.97 68.68 69.12 68.85 68.71 68.51 68.20 67.44 66.63 66.27 66.64
53.55 50.48 46.74 40.81 39.56 47.25 49.75 50.32 52.75 53.90 55.70 58.18 57.31 54.58 59.05 61.47 59.99 62.76 66.40 66.48 65.45 64.21 64.56 66.66 67.66 68.75 69.82 70.09 70.21 70.22 70.32 70.36 70.40 70.52 70.82 70.01 69.19 68.57 68.07 68.19 68.05 68.13 68.13 67.69 67.22 66.42 65.78 66.01 66.31
52.94 47.75 40.40 39.84 45.34 50.38 51.84 52.94 53.72 52.96 55.65 57.65 58.49 54.43 55.47 60.00 62.26 63.63 63.86 64.57 62.76 61.54 63.51 65.79 67.15 68.34 68.98 68.99 68.86 69.12 69.32 69.28 69.36 69.38 69.45 69.00 68.52 68.36 68.09 68.04 67.88 67.44 66.93 66.79 66.79 66.40 66.10 65.64 65.18
46.26 45.96 39.02 37.21 45.57 50.17 51.05 52.29 54.92 53.76 54.41 57.86 57.08 55.84 54.87 59.06 57.92 59.33 62.59 61.86 62.42 61.03 62.87 65.05 67.72 67.80 68.13 68.02 67.96 67.68 67.91 68.25 68.34 68.38 68.48 68.17 67.93 67.87 67.21 66.81 66.36 66.12 65.77 65.53 65.03 64.77 64.57 64.09 63.93
44.84 42.70 39.18 41.11 45.21 47.91 50.39 52.16 50.43 51.02 50.58 52.71 58.91 54.08 55.88 57.49 57.79 58.18 59.44 61.07 60.90 61.05 61.37 63.13 65.03 66.55 66.64 66.15 66.09 66.11 66.42 66.44 66.52 66.66 66.59 66.57 66.75 66.87 66.86 66.31 65.72 65.19 64.77 64.22 63.72 63.42 63.43 63.56 63.63
46.65 44.05 40.18 42.49 44.27 43.28 49.17 48.91 50.59 50.63 47.95 57.63 59.22 52.73 52.72 57.19 58.74 57.76 58.87 59.84 60.17 61.06 62.15 61.58 63.00 63.70 63.68 64.16 65.32 65.22 65.22 65.09 65.14 65.43 65.37 64.97 65.33 65.84 66.06 65.50 65.38 64.85 64.23 63.48 62.68 63.02 62.99 63.15 63.00
47.94 40.35 39.17 42.29 42.79 42.80 45.58 44.66 47.05 50.40 50.33 53.53 55.28 58.09 58.77 59.84 58.70 56.78 56.02 57.12 58.76 60.80 61.05 62.22 61.72 62.56 62.37 62.63 64.95 65.27 65.73 65.35 64.80 64.88 64.62 63.55 63.09 63.53 64.76 64.07 64.43 64.33 63.94 63.55 63.28 62.98 62.62 62.06 61.72
44.53 39.83 40.61 44.47 44.41 42.80 43.48 44.56 46.08 47.15 48.17 53.50 56.47 59.37 60.13 59.04 57.11 55.88 55.76 56.40 58.07 60.59 61.64 62.10 61.43 62.37 62.58 64.31 63.46 63.09 64.39 64.37 63.84 63.97 63.27 62.72 62.32 62.59 63.78 62.91 63.75 64.05 63.90 63.54 63.30 62.99 62.32 61.78 57.96
43.33 40.71 43.40 44.78 45.84 45.04 43.41 44.16 47.62 46.35 44.51 52.66 54.74 56.55 57.10 57.01 56.83 56.65 56.54 58.47 58.89 61.25 62.15 62.66 61.37 61.42 61.73 60.82 61.52 62.63 62.94 63.17 63.13 63.21 61.38 61.32 61.81 61.58 61.35 60.42 60.73 59.85 62.28 60.27 61.10 60.14 59.45 58.60 57.56
42.66 44.85 45.42 45.39 46.24 45.27 43.97 44.11 44.62 45.11 46.73 52.96 57.81 58.18 57.49 56.93 57.15 57.34 56.68 57.72 58.94 60.05 62.48 63.47 62.62 62.28 61.21 60.91 59.48 59.92 60.66 60.71 62.72 61.98 61.01 59.59 59.69 57.79 58.26 57.22 56.94 57.27 58.12 58.38 57.85 57.03 56.91 56.87 57.17
43.36 44.00 45.68 46.09 46.81 46.22 47.49 44.56 45.35 45.94 48.94 52.79 58.63 58.77 57.70 57.51 57.09 58.33 58.45 59.71 59.96 59.55 63.46 63.90 63.60 62.36 62.29 60.76 59.78 59.39 59.75 60.49 60.01 60.58 60.51 59.35 58.96 57.49 57.66 56.90 56.80 56.06 55.83 54.87 54.67 54.71 55.15 55.47 55.83
46.18 45.09 44.80 44.31 45.47 46.76 46.02 46.32 45.59 45.26 48.35 52.11 55.81 56.23 56.24 57.42 57.81 58.04 57.91 59.65 59.86 59.73 63.68 65.09 64.67 63.89 63.33 61.07 59.48 59.46 59.35 59.66 59.63 59.34 59.06 59.70 58.79 57.60 57.48 55.85 56.75 55.64 55.49 55.60 55.17 54.58 54.30 54.51 55.04
47.77 44.33 45.22 45.31 46.26 45.32 44.99 42.90 44.40 46.77 47.99 49.68 51.71 54.12 55.49 57.75 57.71 58.40 57.70 57.76 59.07 59.06 64.15 65.40 63.40 64.63 63.70 60.28 59.02 58.08 60.19 57.42 57.60 57.48 58.35 58.69 58.11 56.50 56.23 55.38 55.64 56.04 56.37 55.65 55.13 55.04 54.79 54.03 54.85
44.66 43.86 39.83 45.43 46.95 46.90 45.67 39.60 45.00 47.47 47.63 46.24 48.39 49.48 52.30 55.68 56.44 57.10 57.45 57.92 59.59 61.35 63.55 64.52 66.00 63.03 64.13 60.03 57.91 57.52 57.04 56.20 55.75 56.28 57.25 57.26 57.65 57.18 55.58 54.65 54.43 55.67 55.72 54.91 54.46 53.95 53.68 53.30 52.92
41.63 37.69 41.02 43.31 47.73 46.81 44.70 41.95 45.64 47.30 47.53 46.31 45.95 47.08 48.46 49.83 52.76 55.50 57.29 58.16 57.85 58.29 58.48 60.47 62.30 63.40 61.60 59.34 58.21 56.79 56.79 55.89 55.37 55.98 55.61 55.90 56.38 56.66 54.38 53.68 53.95 53.70 54.22 53.56 53.25 52.74 52.18 52.20 51.79
38.77 39.97 43.26 40.88 43.00 43.11 40.98 40.77 45.00 47.08 47.96 45.24 45.46 46.41 51.46 52.85 53.98 56.56 57.13 58.00 58.01 58.86 58.72 58.44 58.41 58.23 59.05 57.77 56.87 55.69 54.48 54.40 54.52 54.09 54.54 54.64 54.86 54.35 52.22 52.20 51.99 51.57 50.70 50.48 50.40 49.55 49.81 50.03 50.72
43.38 42.26 40.52 41.90 45.34 42.53 41.20 41.20 44.42 46.49 46.72 45.75 48.61 50.68 51.39 52.11 53.90 54.82 55.05 55.14 55.12 54.73 55.30 54.77 54.31 53.50 53.81 52.44 51.41 51.31 51.07 51.91 52.59 53.71 53.72 53.49 53.52 53.12 52.10 51.60 50.03 49.83 49.24 48.75 48.64 48.12 47.80 48.62 48.85
44.48 42.85 41.90 43.30 46.13 43.75 41.38 40.85 44.17 47.11 46.44 49.11 49.35 49.68 50.24 51.39 52.81 54.05 53.93 53.49 52.94 52.14 52.73 53.19 53.27 53.04 52.78 51.98 51.54 51.90 51.39 52.07 52.48 53.49 52.81 53.51 52.63 52.14 52.15 50.11 49.69 49.08 48.61 47.58 46.88 46.40 45.86 46.34 47.08
44.41 42.48 41.83 41.82 44.42 43.81 41.76 39.73 43.04 46.64 48.34 49.89 48.93 49.37 50.34 50.73 51.29 52.53 52.86 51.13 51.17 51.03 51.22 52.37 52.57 52.74 52.33 51.85 51.69 51.51 51.62 50.73 50.34 50.62 50.55 51.17 51.09 50.27 48.71 48.06 47.58 46.84 47.66 46.22 45.52 45.88 45.02 44.01 44.78
41.92 47.06 45.82 44.01 40.67 35.20 41.91 32.16 39.53 44.07 45.34 47.62 48.03 46.69 47.24 49.79 51.70 52.51 51.58 50.84 51.18 51.07 51.74 52.08 52.50 52.00 52.83 52.01 51.05 49.92 48.42 47.39 48.59 48.59 48.90 48.96 48.78 48.31 48.32 47.41 46.18 45.96 46.74 45.46 46.25 45.21 43.02 42.14 39.87
44.23 47.17 45.07 44.20 40.16 37.65 40.09 35.52 38.03 44.61 43.32 45.13 46.04 47.50 47.70 48.81 49.55 50.06 50.63 51.62 51.72 51.76 51.15 51.36 51.84 52.12 52.16 52.06 51.20 50.13 48.20 48.94 48.98 48.24 47.29 46.54 46.87 46.61 46.24 46.28 45.51 45.01 45.19 45.49 43.54 42.70 44.31 43.86 42.30
47.82 45.91 45.21 43.94 40.37 31.19 40.27 38.57 38.53 40.45 43.79 45.60 47.85 48.51 48.59 48.38 49.13 50.09 51.05 52.03 51.35 51.35 50.89 50.91 51.20 51.82 51.80 51.15 50.61 49.26 48.16 48.28 47.24 46.02 44.54 44.33 44.15 44.26 44.54 44.82 44.14 44.98 44.76 44.28 45.66 44.72 43.67 43.04 42.21
45.43 40.89 31.59 30.50 29.56 29.59 43.21 40.05 41.63 45.01 47.05 47.65 47.24 47.18 47.80 48.20 47.94 48.11 48.78 49.36 50.35 49.23 50.07 50.78 51.02 50.97 51.15 50.52 49.39 48.63 48.22 47.84 47.01 46.15 44.74 43.00 42.07 42.08 41.96 43.98 44.14 44.61 44.87 44.93 44.31 43.69 41.53 41.77 39.55
43.03 41.17 30.27 27.38 26.97 30.76 41.47 35.89 38.73 45.80 47.55 48.80 49.07 48.06 48.70 48.19 48.68 47.84 48.83 48.92 49.32 49.83 49.55 49.71 50.31 50.19 49.82 49.39 48.54 47.42 46.61 45.97 45.10 43.84 42.60 41.77 40.88 41.32 42.24 43.17 42.75 41.77 41.93 42.01 42.36 42.21 42.55 40.88 39.33
42.25 37.66 42.33 35.12 31.84 27.77 34.32 39.09 43.83 45.81 46.90 48.34 47.94 47.53 46.73 47.29 48.16 48.48 49.11 48.59 48.29 48.62 49.34 48.84 47.76 48.21 48.25 47.32 46.23 45.55 45.51 44.78 42.89 41.90 41.30 41.19 41.21 43.16 41.59 41.33 41.13 40.97 40.95 41.28 43.05 41.26 39.14 38.96 38.15
44.01 45.02 34.79 34.88 26.40 26.39 32.24 35.98 37.06 41.75 44.29 47.48 46.42 46.25 46.47 47.48 47.66 47.27 47.51 47.98 48.29 48.27 48.47 47.76 47.17 46.60 45.34 44.54 44.06 43.87 42.91 43.02 42.32 41.65 41.29 41.53 41.38 41.52 40.85 41.08 41.30 41.16 41.19 40.86 39.95 39.31 38.79 38.08 36.91
41.02 39.77 40.52 39.42 33.14 26.29 23.77 29.87 41.86 43.77 45.48 45.32 45.30 46.81 45.71 45.98 45.93 46.60 47.28 47.80 47.80 48.37 47.62 46.36 45.64 44.93 43.36 43.15 42.81 41.83 42.00 42.04 41.40 40.53 40.10 40.88 40.88 41.25 41.11 41.18 41.13 40.64 39.89 39.48 38.61 37.90 38.28 37.94 35.88
42.92 41.48 41.30 29.13 30.80 29.52 27.93 29.72 43.28 43.57 45.00 45.01 44.67 47.22 46.08 46.38 45.73 46.17 46.62 46.34 45.49 45.57 45.52 45.08 44.45 43.75 42.67 42.57 41.62 41.19 41.95 40.90 39.78 39.43 39.54 40.08 39.80 40.90 40.06 38.94 37.61 39.02 39.23 38.59 37.80 36.90 35.38 32.34 30.99

GFSSGP_sfc_wetblb_030.txt.gz
Wetbulb
55.91 53.33 52.58 50.77 43.13 41.95 38.96 42.25 51.59 50.97 52.75 58.15 59.68 56.85 54.58 55.78 54.42 51.01 67.09 68.35 69.69 69.94 70.83 71.15 71.34 72.31 72.38 72.43 72.35 72.44 72.94 72.31 71.79 71.25 71.00 70.57 70.10 69.76 69.25 69.05 69.27 69.55 69.60 69.99 70.02 69.45 68.90 68.25 67.55
55.47 54.54 52.18 46.76 40.38 36.47 40.10 48.31 51.63 54.24 56.96 58.48 58.31 58.28 57.28 55.77 62.08 63.89 64.24 68.21 69.56 69.93 70.42 70.71 71.17 71.75 72.26 72.14 72.12 71.76 72.09 71.71 71.55 71.00 70.32 69.97 69.79 69.35 68.94 68.82 69.62 69.37 69.18 68.94 68.70 68.25 67.51 67.10 66.81
54.79 54.76 46.22 42.38 38.94 35.33 41.77 48.11 50.96 54.79 57.28 56.21 55.18 57.99 57.37 57.48 62.93 63.63 66.64 67.74 68.13 67.67 69.01 69.68 69.89 70.45 71.25 71.23 71.39 71.56 71.37 71.25 71.28 71.08 70.32 70.27 69.79 69.17 68.51 68.40 69.08 68.60 68.25 68.13 67.50 66.82 66.10 65.82 65.68
52.78 48.90 45.58 39.89 37.44 41.95 48.30 49.75 54.43 55.46 56.14 58.15 56.78 53.64 57.87 61.47 60.88 65.89 66.89 66.26 64.95 64.17 65.49 67.42 68.36 69.47 70.38 70.69 70.72 70.93 70.79 70.62 70.57 70.55 70.35 69.67 68.83 68.10 67.74 67.97 68.15 67.98 67.55 66.78 66.48 66.35 66.27 65.63 65.43
52.28 46.41 40.42 38.59 41.29 48.94 50.58 51.67 55.76 54.78 55.03 55.49 56.71 53.38 54.20 62.08 65.78 65.53 64.59 64.10 62.26 61.71 63.89 65.73 67.24 68.45 69.14 69.41 69.29 69.66 69.51 69.34 69.42 69.50 69.35 68.55 68.08 68.00 67.85 67.59 67.11 66.35 66.06 66.06 65.91 65.43 64.95 64.60 64.30
45.59 44.83 38.32 36.25 44.37 49.27 50.00 52.36 56.26 55.52 55.14 55.58 54.77 54.41 53.89 62.38 62.30 62.53 62.65 60.49 62.06 62.10 63.85 65.27 67.59 68.06 68.12 68.25 68.18 68.03 68.13 68.39 68.46 68.53 68.65 68.18 67.83 67.45 66.81 66.39 65.94 65.52 65.21 64.61 64.09 63.64 63.73 63.78 63.87
43.99 41.36 38.06 39.00 41.60 46.90 49.34 50.91 53.17 55.71 55.92 55.30 56.70 52.29 53.96 55.61 60.04 60.42 59.58 59.54 60.73 61.88 62.53 63.55 64.81 66.06 66.40 65.85 65.98 65.96 66.54 66.85 66.96 66.98 66.92 66.81 66.63 66.67 66.75 66.09 65.54 64.91 64.35 63.58 62.93 63.09 63.18 63.25 63.20
46.54 43.26 38.84 39.68 43.85 43.73 48.05 48.82 49.72 52.19 50.87 59.47 58.53 51.45 50.43 54.01 58.25 59.03 59.13 58.01 58.76 59.91 61.94 61.70 62.77 63.26 62.74 63.23 65.12 65.06 65.15 65.32 65.49 65.73 65.47 65.15 65.46 65.63 65.96 65.53 65.50 65.03 64.35 63.49 63.26 62.98 62.67 62.66 62.37
47.45 40.28 36.29 39.22 42.36 45.15 45.38 46.89 47.76 50.35 52.73 52.99 55.09 55.37 56.24 56.25 57.44 56.45 55.27 55.65 57.31 59.42 59.67 60.90 61.29 61.82 62.04 62.62 64.20 64.97 65.28 64.92 64.66 64.60 64.50 63.18 62.91 63.53 64.29 63.60 64.16 64.62 64.05 63.49 63.38 63.15 62.42 61.71 61.40
44.10 38.26 39.63 43.23 45.35 42.85 43.98 45.28 46.36 50.58 52.86 53.28 54.60 57.45 57.29 56.09 55.91 55.40 55.15 55.44 57.03 58.66 59.67 60.27 60.71 60.72 61.41 63.65 63.03 62.59 63.73 63.10 62.77 62.77 62.50 62.07 61.37 61.35 63.69 63.38 63.73 64.17 63.73 63.65 63.57 63.29 62.79 61.72 57.81
42.12 39.34 42.40 44.35 44.13 44.92 44.05 44.70 46.58 49.08 48.58 54.35 53.73 55.10 55.82 54.70 54.25 55.37 56.12 57.14 58.27 59.85 61.21 60.73 61.65 61.42 60.19 61.05 61.24 61.12 61.96 62.11 62.28 62.38 62.21 61.18 61.78 61.71 61.21 59.54 60.60 59.39 61.42 59.59 59.99 59.58 58.70 57.99 56.99
40.52 42.67 44.49 43.45 43.65 43.41 43.35 43.44 44.63 44.91 50.41 57.59 57.55 57.30 55.73 54.47 54.89 55.36 55.73 56.26 58.25 59.86 60.61 60.60 60.19 61.21 59.72 59.38 60.35 61.03 61.26 61.87 61.96 61.97 60.66 58.70 58.74 56.39 57.31 58.72 57.75 57.12 56.08 57.44 57.27 56.88 56.43 55.77 56.25
42.27 42.61 44.28 45.30 45.79 43.24 44.62 43.88 44.86 44.50 53.02 58.08 57.89 57.38 56.46 56.17 56.06 56.88 57.23 58.01 59.31 60.03 61.08 60.48 60.60 59.92 59.40 58.66 58.58 58.73 59.35 61.03 61.37 59.99 59.22 58.61 56.83 55.90 55.97 55.61 55.07 54.75 54.41 53.81 53.32 53.28 53.53 53.64 54.24
44.04 43.85 43.50 43.25 43.95 45.04 44.73 44.13 44.59 44.08 53.97 55.93 56.68 55.87 56.53 56.83 56.95 56.89 55.77 56.58 58.81 60.80 61.19 61.38 61.30 61.16 61.29 59.50 59.01 58.66 59.86 58.75 59.26 58.75 58.31 58.60 57.85 56.29 56.30 54.55 54.96 54.46 54.43 54.84 53.91 53.46 53.39 53.72 54.16
44.64 41.29 42.87 42.41 43.44 42.52 44.88 41.83 41.97 45.78 55.37 55.23 55.74 55.98 56.27 56.86 57.58 57.21 57.02 56.86 59.23 61.23 63.11 62.71 63.60 63.41 62.44 62.22 59.80 58.04 58.82 58.02 58.15 57.59 57.86 58.24 57.16 56.02 54.83 54.24 53.97 53.80 54.62 53.74 53.41 52.91 53.15 52.86 53.80
43.90 42.33 38.51 43.27 44.44 45.07 44.01 38.56 43.91 44.85 50.38 53.12 54.54 55.14 55.44 54.48 55.26 54.76 55.30 56.05 58.96 62.64 63.56 63.64 63.41 61.94 60.47 61.64 60.46 58.26 56.28 54.54 55.57 55.87 55.83 56.34 56.48 55.59 54.04 52.89 52.66 52.95 52.90 52.15 51.34 51.26 50.49 50.14 50.21
40.19 35.93 38.50 41.33 45.49 44.10 42.72 40.38 44.37 44.81 46.20 46.29 45.34 48.07 50.99 52.66 54.02 55.30 56.25 56.47 57.06 59.11 62.27 61.07 61.14 59.82 58.48 60.48 58.84 56.33 55.51 53.93 53.99 53.97 54.43 54.84 55.94 55.07 52.53 51.44 50.83 50.94 49.96 49.58 49.74 48.42 48.44 47.54 47.79
37.10 37.05 40.23 39.08 41.77 42.41 39.78 39.27 43.80 44.25 44.71 44.44 47.85 49.40 50.65 50.85 51.36 53.62 53.97 55.55 56.14 56.82 58.16 58.15 58.63 58.98 59.86 57.12 54.91 53.54 53.02 52.31 53.00 52.61 52.37 52.91 52.17 52.15 50.85 50.60 49.72 49.12 48.46 48.30 47.22 46.32 46.78 46.38 46.35
42.32 39.39 39.44 39.13 42.83 41.09 39.61 40.30 42.43 43.81 46.41 47.10 48.33 49.08 49.40 50.12 51.39 52.65 53.04 53.00 53.40 53.26 53.43 53.98 54.01 52.57 52.16 51.67 51.30 51.08 50.10 50.54 51.26 51.32 51.98 51.61 51.18 51.33 49.22 48.24 47.93 47.86 47.31 46.63 46.40 45.98 45.11 44.66 45.50
43.32 41.20 39.28 42.20 45.04 41.93 39.43 39.88 42.46 44.97 45.78 47.94 48.16 48.26 48.90 49.69 50.59 51.44 51.44 50.70 51.12 52.20 51.70 51.73 51.46 51.00 51.20 50.54 49.80 50.13 49.70 50.31 50.02 49.87 49.87 49.71 48.62 48.42 47.67 45.95 45.89 45.60 46.39 45.63 44.63 44.48 44.50 44.64 43.39
42.48 40.49 39.83 39.94 42.04 41.90 41.01 38.87 41.98 45.16 46.59 48.09 48.26 49.26 50.03 49.51 49.20 50.07 50.73 50.41 50.07 49.42 49.85 50.84 50.81 50.83 50.37 50.75 50.39 49.81 49.34 48.64 47.88 47.69 47.24 47.05 47.15 46.77 46.09 45.23 44.65 44.35 45.16 44.14 43.84 43.27 42.84 41.33 41.40
39.91 44.73 43.68 41.72 38.30 33.80 39.53 29.89 37.36 41.74 43.07 45.29 46.53 46.90 48.11 49.65 50.07 50.39 49.61 49.28 49.41 48.89 49.77 50.12 50.65 50.66 51.07 50.73 49.84 48.80 47.17 46.06 46.57 46.38 45.59 45.33 45.64 45.25 45.42 44.49 43.75 43.23 43.91 44.10 43.87 43.63 41.35 42.40 41.21
42.29 44.78 42.86 42.19 37.77 35.82 37.36 33.08 35.23 42.73 41.21 42.97 43.86 46.15 47.11 48.18 49.11 49.10 49.65 50.18 50.06 49.89 49.15 49.35 50.67 51.07 50.69 50.45 49.54 48.20 47.03 46.90 46.60 45.32 43.90 43.79 44.29 44.68 44.40 44.49 44.21 44.20 44.33 43.33 42.53 41.90 41.71 41.10 39.65
46.07 43.90 43.05 41.38 38.29 29.79 38.18 35.65 34.05 37.71 41.59 44.03 45.88 45.94 46.84 46.88 47.56 49.07 49.57 50.36 49.49 49.17 48.63 48.79 49.52 49.35 49.98 49.16 48.22 47.49 46.37 45.50 44.12 43.49 42.05 42.41 42.26 42.30 42.70 44.28 43.57 43.31 42.77 42.39 41.49 41.13 40.35 39.44 38.94
43.53 39.22 29.87 29.41 28.20 28.18 41.08 37.75 37.19 43.23 46.03 46.89 45.34 45.04 45.88 46.07 46.61 48.00 48.82 48.74 48.82 47.53 48.25 49.09 49.08 48.65 49.16 48.38 47.07 46.19 45.27 44.22 44.15 43.58 41.05 40.63 40.10 39.71 40.60 42.24 42.04 42.39 41.99 41.38 40.77 39.98 39.21 38.71 38.36
40.67 39.70 29.09 27.02 25.66 28.74 38.70 33.13 36.65 44.85 47.49 47.58 47.94 46.56 46.72 45.98 46.58 46.31 46.17 46.87 47.63 47.56 47.38 47.69 47.90 47.93 47.79 47.26 45.55 45.16 45.61 43.86 42.81 41.52 40.60 39.82 39.43 39.56 40.31 41.30 40.74 40.40 40.46 40.26 39.64 39.07 39.36 39.38 37.69
40.64 35.87 40.64 33.25 30.16 26.25 32.80 36.85 41.92 44.16 46.36 47.52 47.26 48.80 47.91 46.83 45.68 46.03 46.53 46.38 46.62 47.15 47.20 45.54 45.83 46.16 45.45 44.83 43.43 42.84 43.41 42.42 41.15 40.46 40.47 39.92 40.08 41.79 40.27 40.10 40.08 40.25 40.23 39.84 39.04 38.12 37.66 37.42 36.83
42.05 42.90 34.56 32.07 25.23 25.70 30.39 33.45 36.15 40.55 42.53 45.05 44.66 44.54 45.35 45.13 45.32 45.61 45.86 46.38 46.51 46.18 46.01 45.01 44.67 43.69 42.98 42.32 42.15 41.97 41.74 41.79 40.74 40.20 40.08 39.95 39.87 40.24 39.70 39.37 40.09 39.89 39.78 39.51 38.23 36.93 36.83 35.82 35.72
39.15 37.65 38.01 36.80 31.03 25.73 22.79 28.50 39.49 41.96 44.19 43.25 43.92 45.07 44.32 45.19 45.00 44.68 44.59 44.67 44.49 44.90 44.06 43.65 43.09 42.30 41.76 41.43 40.96 40.76 40.90 40.78 40.19 39.03 38.92 39.35 39.38 39.40 39.54 39.43 38.82 39.35 38.52 38.01 36.93 36.37 36.29 35.03 32.58
40.84 39.65 38.37 28.17 29.82 27.78 26.34 28.46 42.10 42.64 43.05 43.51 44.26 44.86 44.00 43.31 43.28 43.06 43.38 43.38 43.09 43.00 42.67 43.28 42.57 42.01 41.13 41.13 40.73 39.88 41.02 40.28 39.26 38.49 38.57 38.44 38.19 39.33 39.37 37.63 34.96 34.88 34.95 34.21 33.96 33.33 31.16 29.68 29.08

GFSSGP_sfc_wetblb_033.txt.gz
Wetbulb
57.20 52.83 52.44 50.47 43.05 39.85 35.53 40.09 49.62 50.85 52.65 56.48 58.15 57.05 55.40 57.37 54.81 50.76 65.47 68.03 69.48 69.71 69.98 70.40 70.90 71.62 71.88 72.16 72.55 72.43 72.48 71.77 71.31 70.69 70.13 70.06 69.60 69.24 69.00 69.09 69.56 69.72 69.94 69.31 68.99 68.52 68.31 67.89 67.31
53.47 53.47 50.98 45.99 39.66 33.21 39.11 46.35 49.47 53.78 55.89 57.61 57.88 57.50 57.11 57.32 63.31 64.20 65.20 68.78 69.88 69.98 70.11 70.72 71.05 71.53 71.90 71.73 71.96 71.98 71.99 71.49 70.95 70.39 69.93 69.66 69.27 69.08 68.93 68.87 68.94 68.39 68.38 68.28 67.68 67.02 66.43 65.89 65.80
54.42 53.03 45.66 42.03 38.20 36.33 40.03 47.92 53.06 55.91 57.88 56.58 56.11 57.76 57.28 60.05 63.09 62.91 66.51 69.21 69.67 69.32 69.42 70.41 70.39 70.79 71.43 71.38 71.34 71.60 71.51 71.13 70.98 70.52 69.94 69.72 69.11 68.73 68.08 68.05 68.10 67.79 67.60 66.78 66.57 66.29 66.09 65.57 65.43
52.05 48.18 44.98 39.67 38.39 40.79 44.69 48.68 55.08 54.73 56.59 57.71 57.15 54.27 57.55 62.15 62.52 64.93 67.16 67.32 66.17 65.55 66.91 68.34 69.12 69.82 70.71 71.13 71.15 70.98 70.83 70.48 70.33 70.31 69.93 69.27 68.30 67.55 67.52 67.79 67.57 66.82 66.27 65.96 66.16 65.62 65.04 64.63 64.11
49.79 45.20 39.92 36.81 39.63 45.48 49.10 51.73 54.98 53.58 54.61 55.76 56.47 53.32 54.79 63.02 65.47 65.65 65.32 65.80 64.08 63.42 65.23 66.83 67.71 69.29 70.15 70.26 70.37 70.17 70.10 69.95 69.76 69.61 69.13 67.94 67.51 67.41 67.51 67.28 66.43 65.74 65.61 65.06 64.72 64.22 64.00 63.85 63.75
44.91 43.57 37.05 38.27 44.07 47.82 49.05 55.67 55.50 54.12 54.73 55.62 55.35 53.62 53.48 63.63 63.53 63.28 63.66 61.91 63.27 62.66 63.65 65.20 67.73 68.27 68.55 69.05 68.90 68.41 68.55 68.57 68.52 68.50 68.55 68.16 67.65 67.32 66.59 66.03 65.47 65.01 64.35 63.60 62.95 63.01 62.92 63.07 63.30
42.65 39.73 36.01 38.09 44.97 46.54 49.10 53.84 53.91 54.21 54.59 54.48 56.47 50.37 55.42 59.32 61.47 61.35 59.28 59.59 61.23 62.36 62.22 63.04 64.33 66.11 66.69 66.58 66.76 66.47 66.87 67.20 67.09 67.36 67.36 67.18 66.73 66.37 66.44 65.89 65.05 64.31 63.53 62.94 62.91 62.76 62.34 62.59 62.58
44.45 42.47 39.00 38.66 43.47 45.21 52.19 49.24 53.97 55.28 53.20 57.57 56.22 49.74 51.25 55.43 59.20 57.74 57.75 58.01 59.34 60.21 61.71 61.10 62.05 62.18 62.05 62.92 65.12 65.29 65.45 65.49 65.64 65.82 65.67 65.07 65.16 65.35 65.46 65.10 65.22 64.69 63.87 63.52 63.15 62.72 62.25 62.14 61.99
43.94 39.29 36.90 39.57 43.97 43.69 48.66 46.60 48.26 54.16 54.60 54.21 54.71 53.98 57.50 57.50 57.24 55.46 54.15 55.29 57.05 59.32 60.11 60.74 61.18 61.07 60.84 61.15 63.55 64.54 65.32 64.91 64.85 64.80 64.60 63.21 62.37 62.75 63.45 63.49 63.87 64.50 64.03 63.67 63.54 63.17 62.64 61.86 61.41
42.83 38.47 39.75 42.91 46.79 47.29 44.55 51.78 50.95 52.22 51.84 52.08 51.47 53.57 56.09 55.49 54.97 53.68 52.98 54.17 55.84 57.19 58.77 59.93 59.99 60.07 60.87 63.16 62.28 61.87 63.02 62.44 62.09 62.00 61.84 61.34 60.42 60.31 63.00 63.23 63.88 64.08 63.91 63.87 63.70 63.66 63.13 62.07 57.57
42.24 39.07 42.05 43.42 44.96 44.64 44.03 46.33 48.48 51.77 49.13 52.52 50.91 51.92 53.54 54.34 54.54 54.14 53.82 54.99 55.74 57.77 58.75 59.88 59.52 59.32 59.92 60.69 61.11 60.69 61.42 61.35 61.40 61.37 60.63 60.40 60.90 60.52 60.76 59.73 58.80 58.46 60.15 58.56 59.07 58.07 57.87 56.96 56.16
40.27 42.69 43.42 43.34 44.58 44.03 43.47 43.92 48.50 45.10 52.75 55.56 54.80 54.02 53.60 53.85 54.24 54.88 54.78 55.57 56.02 57.53 58.80 59.61 59.85 59.79 58.65 59.39 60.22 59.78 60.55 61.14 61.24 61.43 61.51 59.96 58.95 58.03 57.29 58.23 56.86 55.35 54.09 53.91 54.38 54.01 54.23 53.22 53.51
41.28 42.20 43.76 44.05 44.02 42.17 44.05 43.74 44.21 43.93 53.48 56.19 55.73 54.63 53.85 54.00 54.44 56.15 56.97 57.05 57.86 58.22 59.69 59.59 59.68 60.05 59.41 58.15 59.03 59.54 60.12 61.44 61.58 61.50 59.84 58.44 56.55 55.15 55.06 54.46 54.16 53.77 53.35 53.31 53.19 52.71 52.78 52.81 53.43
43.23 42.42 42.06 43.06 43.81 43.81 43.82 42.48 43.21 44.67 54.17 55.12 55.24 54.04 53.97 54.18 54.67 55.05 54.61 55.61 58.12 59.44 59.54 58.76 59.24 59.79 59.36 57.43 57.43 58.17 58.84 60.03 60.44 59.83 58.44 58.15 56.44 55.51 55.25 53.62 53.72 53.40 53.54 53.33 52.07 51.68 51.64 50.89 51.44
43.00 40.59 41.37 41.51 41.78 41.54 43.82 40.62 41.58 46.58 54.97 54.45 54.56 55.01 54.84 54.50 53.96 53.67 54.37 54.79 58.85 59.49 59.84 59.47 59.73 60.49 59.91 59.02 58.11 57.41 58.17 57.84 57.96 58.08 56.96 56.99 56.68 55.27 53.70 53.12 52.15 52.40 51.99 50.79 50.45 49.71 49.22 48.63 49.46
41.81 40.53 36.85 41.18 42.68 42.66 42.51 37.47 41.77 49.30 53.38 52.96 53.15 52.22 51.94 52.26 53.57 53.44 54.29 54.88 56.78 59.90 60.22 61.16 63.35 60.44 59.90 60.25 58.79 56.16 54.41 53.64 55.06 55.21 55.24 55.45 55.30 54.16 52.46 51.12 50.38 50.35 49.43 49.06 48.86 47.98 47.16 46.72 46.37
38.85 34.82 36.81 40.41 43.22 41.70 41.16 38.89 41.92 46.03 52.56 47.59 46.83 48.74 50.83 50.39 51.42 53.76 55.67 56.54 58.92 61.34 61.01 60.75 61.12 59.62 60.52 57.59 55.34 53.75 52.24 52.33 52.21 52.54 52.27 52.44 52.15 51.58 49.79 49.06 48.36 48.40 48.15 48.05 47.36 46.51 45.96 44.95 44.78
35.02 36.13 37.65 37.91 40.54 41.34 38.39 38.59 41.22 41.78 43.75 45.80 46.88 47.92 48.82 48.98 49.21 51.43 52.69 55.24 55.68 56.09 57.48 58.13 58.94 59.85 58.92 54.72 52.99 51.33 51.44 51.04 50.86 50.17 49.84 49.74 49.20 48.53 47.17 46.84 46.78 48.31 46.83 46.42 45.70 44.83 45.09 44.25 44.24
40.04 37.31 36.70 37.48 40.98 40.15 37.79 38.44 40.31 43.68 46.06 45.50 46.27 47.35 47.70 48.44 49.51 51.29 51.87 52.30 52.91 53.58 54.88 55.93 55.00 52.54 51.86 52.19 53.15 51.15 48.55 48.23 48.55 48.50 48.45 47.62 47.71 48.65 47.62 46.20 44.91 45.38 45.17 44.64 44.73 44.12 43.57 43.76 42.64
41.70 38.53 37.09 40.07 42.81 40.86 38.85 38.50 41.78 44.02 44.61 46.14 46.79 46.69 47.17 47.24 48.58 49.52 50.68 51.17 52.13 52.88 50.90 50.33 49.91 50.32 50.02 50.01 48.99 49.03 48.35 48.04 47.31 46.79 46.66 46.88 47.42 46.26 45.38 43.75 43.68 44.27 44.66 43.18 42.81 43.62 43.41 43.04 41.53
41.00 38.63 37.96 38.53 40.45 41.01 39.35 36.83 39.83 43.57 45.57 47.13 47.15 47.31 47.80 47.72 47.83 49.29 50.38 50.14 49.18 48.86 48.98 49.34 49.24 49.73 50.03 50.03 49.40 48.71 48.24 47.47 45.93 45.50 44.57 45.03 45.18 45.09 44.04 43.59 43.25 43.00 43.20 42.76 42.48 41.83 40.97 40.29 40.11
38.35 42.89 41.90 40.00 36.60 32.36 37.98 28.57 36.06 39.76 41.85 44.42 45.64 45.43 46.53 47.84 49.57 50.15 48.62 47.05 47.07 47.46 48.10 49.04 49.48 49.22 49.84 49.62 48.89 47.59 46.67 45.27 45.28 44.23 43.79 43.09 44.07 43.47 43.94 44.13 43.80 43.75 43.78 42.59 42.37 42.55 40.01 39.70 37.98
40.70 42.99 41.02 40.29 35.95 34.13 35.59 31.99 33.21 40.48 39.44 41.59 43.07 45.37 47.28 48.62 47.72 48.90 49.48 49.03 48.88 47.72 47.07 47.61 48.75 49.46 49.61 48.97 48.30 47.08 46.63 46.21 45.26 43.72 42.49 42.76 42.61 42.95 44.22 44.21 43.21 42.68 42.75 41.60 40.68 39.74 39.43 39.12 37.78
44.25 42.42 41.15 39.25 36.44 29.06 35.80 33.07 31.69 36.27 39.78 41.72 43.63 45.59 47.60 48.12 48.40 48.34 49.41 49.21 48.12 47.64 47.04 47.03 47.66 48.23 48.53 48.11 48.01 47.30 45.81 44.20 42.82 41.68 42.79 41.95 41.04 40.87 42.14 42.81 42.07 41.76 41.37 40.60 39.95 39.33 38.69 37.43 37.18
42.37 37.66 28.81 28.54 27.18 27.68 37.84 35.13 34.50 40.57 43.07 43.83 43.91 44.84 46.78 47.20 46.78 47.10 48.07 48.96 49.39 48.18 47.03 46.94 47.26 46.97 47.55 46.64 45.67 45.35 44.27 43.19 42.28 41.47 40.11 39.45 38.89 38.79 39.63 40.88 40.65 40.93 40.71 40.08 39.38 38.57 37.58 37.03 36.22
39.04 37.91 28.27 27.83 24.88 27.59 36.84 31.24 35.78 42.51 45.13 45.87 46.06 45.11 45.38 45.13 46.74 48.12 48.60 48.22 47.50 46.66 46.23 45.76 47.08 46.62 46.51 44.88 44.42 44.66 43.92 42.55 41.66 40.81 39.90 39.03 38.69 38.89 39.47 40.07 40.06 39.77 39.61 39.38 38.76 37.86 37.51 37.11 35.66
39.25 34.24 38.58 31.65 29.18 25.55 30.82 34.97 41.21 42.44 43.49 44.48 44.27 45.28 46.52 44.94 44.47 44.97 45.24 45.33 45.46 45.56 44.92 44.19 45.31 44.75 44.77 43.14 42.44 42.83 43.04 41.73 41.00 39.82 39.23 39.15 39.26 40.37 39.40 39.45 39.24 39.01 39.08 38.96 37.97 37.01 36.35 35.62 34.97
39.86 41.93 33.37 30.65 24.49 25.00 28.62 31.46 32.74 38.71 41.30 44.30 45.69 44.88 43.11 43.51 43.81 43.75 43.83 44.35 45.17 44.99 44.39 43.89 43.72 42.91 41.86 41.49 40.93 40.96 40.47 41.31 40.42 39.51 39.42 39.19 38.88 38.98 39.05 38.48 38.88 38.62 38.51 38.05 37.12 35.76 35.59 34.37 33.97
38.13 36.17 35.67 35.04 29.66 24.80 21.83 28.03 37.33 40.75 42.47 42.66 42.30 42.83 42.75 42.42 42.21 42.70 43.02 43.60 43.37 43.06 41.95 41.83 41.41 41.36 40.50 40.23 40.21 39.86 40.24 40.09 39.41 38.90 38.72 38.63 38.37 38.33 38.79 39.39 38.08 38.22 38.43 37.51 36.47 35.18 34.48 32.19 29.26
38.87 37.40 35.93 25.98 28.45 26.56 25.29 27.75 39.64 41.01 43.00 42.55 41.81 42.09 41.00 42.23 42.73 42.34 42.84 42.64 42.20 41.19 41.12 41.75 41.98 40.94 40.47 40.05 39.53 38.42 39.49 39.66 38.88 38.22 38.39 38.27 37.08 38.52 38.55 37.55 35.94 35.38 35.57 34.88 32.34 31.79 30.48 29.13 28.10

GFSSGP_sfc_wetblb_036.txt.gz
Wetbulb
55.34 51.69 50.31 48.76 42.20 40.49 34.80 40.20 47.98 50.06 52.38 56.11 58.91 56.64 56.32 59.15 55.77 50.17 65.43 67.96 69.30 69.34 69.15 70.13 70.71 71.61 72.08 72.26 72.69 72.54 72.11 71.16 70.69 70.19 70.31 69.87 69.54 69.10 69.31 69.60 69.73 69.41 68.80 68.46 67.93 67.44 67.10 66.68 66.32
51.34 51.22 48.78 45.98 39.14 35.26 36.75 43.79 49.49 52.46 55.39 58.20 58.01 58.13 58.21 57.91 63.25 63.74 65.13 69.06 69.41 69.32 69.47 69.63 70.81 71.38 72.17 72.05 72.17 71.91 71.49 70.99 70.45 70.35 69.86 69.38 69.19 69.18 69.25 68.88 68.53 68.26 68.00 67.31 66.54 66.28 66.34 65.88 65.49
54.16 50.54 42.94 40.86 38.22 34.61 39.15 47.93 53.08 55.61 56.65 56.23 54.95 56.97 58.34 59.81 63.23 63.52 67.48 69.30 69.60 69.54 70.12 70.26 70.35 70.54 71.25 71.52 71.53 71.58 71.33 70.86 70.53 70.28 69.62 69.34 68.98 68.46 67.90 68.11 67.94 67.43 66.35 66.05 65.87 65.49 64.91 64.53 64.14
50.01 45.50 42.26 37.51 36.41 40.59 43.36 51.54 55.22 54.67 56.00 57.33 56.90 54.01 58.26 62.67 62.75 65.15 68.18 68.94 68.15 68.21 69.49 68.89 69.27 70.23 70.94 71.20 71.27 70.93 70.71 70.28 70.05 70.18 69.59 69.09 67.95 67.50 67.60 67.66 66.92 66.19 65.73 65.30 64.87 64.31 64.16 63.81 63.73
46.69 41.60 36.58 33.78 36.72 42.31 45.17 53.31 54.72 53.60 54.25 55.07 56.53 53.00 55.98 62.85 65.53 66.30 66.81 67.16 66.55 66.54 67.28 67.51 68.28 69.67 70.60 70.66 70.37 70.36 70.20 69.97 69.86 69.80 69.23 68.10 67.41 67.34 67.29 66.66 65.75 65.48 64.70 64.13 63.75 63.34 63.13 63.13 63.46
42.31 39.97 34.67 35.82 40.69 46.31 51.72 55.02 55.27 54.07 54.52 55.13 55.47 53.56 56.24 63.82 64.18 64.85 65.99 64.59 65.04 64.35 64.54 66.05 68.63 69.08 69.55 70.00 69.65 69.29 69.22 69.06 68.86 68.69 68.29 67.87 67.45 67.22 66.22 65.54 65.03 64.45 63.76 63.34 63.03 62.96 63.02 63.23 63.20
40.35 37.37 33.93 39.59 42.08 45.75 50.71 54.42 53.83 53.83 54.23 53.60 56.45 52.84 58.77 62.07 62.25 61.87 61.41 61.33 61.77 61.86 62.31 63.35 64.60 66.73 67.65 67.22 67.31 67.20 67.33 67.33 67.44 67.39 67.19 67.12 66.56 66.27 65.96 65.43 64.91 63.91 63.76 63.51 63.60 63.21 62.93 63.36 63.24
42.60 41.21 36.82 38.61 43.52 44.93 49.40 53.29 56.57 55.35 52.90 56.44 57.56 53.79 56.84 59.23 59.71 58.71 58.28 57.64 58.82 60.13 60.85 60.64 61.87 62.75 62.59 63.42 65.66 65.62 65.91 65.95 65.99 66.05 65.59 65.22 65.01 65.14 64.99 64.35 64.46 64.16 64.00 64.31 64.29 63.87 63.55 63.16 62.69
44.55 38.86 35.54 38.37 43.79 46.47 50.89 50.19 49.40 54.94 53.81 54.15 53.71 55.74 58.82 58.71 57.29 55.68 54.53 55.73 56.89 59.55 59.79 59.56 60.32 60.23 60.55 61.25 63.56 65.04 65.41 65.06 64.86 64.86 64.53 63.02 61.77 61.68 61.96 63.43 63.49 64.41 64.17 64.16 64.32 64.20 63.34 62.77 61.02
43.10 38.72 39.02 44.01 46.82 49.50 51.99 51.89 52.21 52.70 51.91 50.51 50.80 54.92 57.32 56.39 55.44 53.59 53.08 54.20 55.58 57.22 58.70 59.54 59.10 59.59 59.85 62.15 61.88 61.12 62.67 62.16 62.03 61.97 61.73 60.89 59.94 59.86 62.23 62.89 63.28 64.00 63.43 63.01 62.64 61.81 61.46 59.55 56.59
41.21 40.08 41.98 43.76 47.15 46.10 47.25 47.63 50.53 51.09 48.68 50.65 50.92 52.41 53.85 54.13 52.31 52.32 52.78 54.49 55.66 56.57 58.05 59.48 59.22 58.85 59.16 60.25 60.49 59.92 60.79 60.50 60.50 60.61 60.36 60.46 60.36 59.75 59.94 59.10 58.26 57.51 59.07 55.96 56.98 55.82 55.93 54.53 53.86
40.67 42.50 42.45 42.95 44.90 45.18 47.68 46.40 50.88 47.09 50.43 54.43 54.88 54.49 53.33 52.39 51.99 51.80 52.27 52.96 53.89 56.01 57.63 59.06 58.95 58.46 58.53 58.82 59.68 59.28 60.11 60.29 60.18 60.86 60.98 59.69 58.94 57.95 57.75 57.74 56.42 54.07 53.23 53.15 52.80 52.82 53.05 52.90 53.35
40.14 42.05 42.86 43.16 43.07 44.40 44.31 43.89 49.44 42.20 52.54 53.28 54.61 53.76 52.51 52.21 52.19 53.12 53.60 54.21 54.46 55.65 57.20 58.37 58.91 58.58 58.32 58.05 58.53 58.41 59.37 60.23 60.38 60.61 60.50 59.20 57.93 55.74 55.01 54.05 53.50 52.83 53.16 52.73 51.98 51.79 51.45 50.60 50.79
43.09 42.23 41.71 41.58 41.73 42.27 42.74 41.38 42.22 44.43 52.00 51.64 53.07 52.13 51.95 53.20 53.45 53.03 53.50 53.95 55.07 56.55 57.64 58.54 58.49 59.31 58.67 57.08 57.50 57.86 58.45 59.05 59.80 59.92 58.22 57.67 55.65 54.58 54.28 52.82 52.31 51.88 51.63 50.71 50.28 49.87 48.91 48.02 48.84
41.82 39.64 42.07 42.14 41.65 41.58 42.88 38.82 39.39 48.89 52.74 51.66 51.51 52.03 51.40 51.70 51.54 52.32 52.76 53.85 55.62 57.07 58.25 57.94 59.34 59.62 59.40 57.52 57.14 56.84 57.92 57.71 57.71 56.82 56.23 56.02 55.21 53.36 52.29 50.66 49.77 49.38 49.02 48.87 48.65 47.70 47.42 46.66 47.33
40.75 39.35 35.65 39.93 41.56 41.36 40.67 35.24 39.56 50.76 52.12 50.02 50.92 51.50 51.10 51.81 52.88 53.54 54.15 53.36 55.89 57.65 58.90 60.61 60.77 60.17 59.20 57.04 56.99 55.90 54.26 53.38 54.14 54.07 53.12 52.12 51.91 50.75 49.02 47.88 47.20 47.88 47.95 47.68 47.02 46.71 46.08 45.57 45.07
38.08 35.09 35.14 38.27 41.50 40.62 40.48 37.29 40.28 48.83 50.26 46.85 46.96 48.78 49.64 49.53 50.03 50.77 55.26 54.99 56.09 59.36 59.75 59.46 59.80 60.25 58.32 55.50 54.26 54.89 53.01 50.88 51.55 50.41 49.12 48.67 49.02 48.74 46.94 46.40 46.00 46.52 46.57 47.16 46.24 45.35 44.96 44.05 44.55
34.56 34.63 36.21 35.81 38.70 40.79 38.19 37.18 41.14 42.11 46.76 45.83 46.36 46.77 47.28 47.54 48.12 50.44 52.63 55.74 56.36 57.50 58.83 59.27 59.91 59.20 55.78 54.97 53.73 51.61 50.45 48.76 48.26 47.35 47.34 47.58 48.77 48.89 47.69 45.64 45.33 45.76 44.53 44.06 43.81 43.31 44.15 43.72 43.55
38.14 36.06 34.94 36.01 39.66 38.58 37.93 38.03 40.61 43.50 44.66 44.62 44.90 45.61 46.39 47.09 48.45 50.13 51.07 52.65 54.14 54.71 56.83 58.22 58.56 58.05 55.32 53.41 50.56 48.46 47.87 46.29 46.12 46.03 46.63 47.00 46.81 45.54 43.77 43.17 43.12 43.58 43.17 42.82 43.16 43.00 42.81 42.99 41.84
39.41 36.82 35.48 38.07 40.70 40.17 37.86 37.68 40.72 43.15 43.72 44.35 44.41 44.35 45.10 46.10 47.54 49.60 50.09 51.74 52.70 53.40 53.60 51.99 50.30 50.08 50.31 49.30 48.03 47.64 46.34 45.70 45.35 44.94 44.84 44.78 44.57 44.18 44.16 42.61 42.52 42.78 42.99 43.00 42.40 41.99 41.42 42.03 40.70
39.48 37.54 36.11 36.90 38.72 39.77 37.61 35.31 38.30 42.53 44.83 46.00 45.82 45.64 45.87 46.19 47.43 49.47 50.06 48.73 47.90 46.97 47.36 48.28 48.66 48.88 49.03 49.27 48.20 47.24 46.88 45.86 44.50 43.87 42.94 43.40 43.73 43.44 43.22 43.26 43.09 43.20 43.20 42.50 41.53 40.36 39.32 38.38 39.19
36.54 41.06 40.00 38.23 34.90 32.00 36.40 29.47 34.80 38.98 41.32 43.55 44.88 44.47 44.91 46.30 47.75 48.40 47.37 46.23 46.48 46.71 47.32 48.00 48.42 48.53 48.87 48.37 47.47 45.99 44.97 43.87 43.88 43.14 42.53 41.99 42.69 42.72 43.70 43.62 42.98 42.42 42.42 41.23 40.78 41.49 39.32 38.38 36.74
39.09 42.14 40.17 38.32 35.21 32.72 33.84 31.60 32.83 40.15 39.76 41.79 43.03 44.33 45.17 46.19 46.88 47.07 47.14 47.65 46.41 46.35 46.10 46.60 48.04 48.86 48.70 48.27 47.41 46.12 44.89 44.37 43.18 42.03 41.43 41.51 41.59 42.24 43.58 43.21 42.51 41.60 41.83 40.78 39.97 39.22 38.73 38.44 37.20
42.79 41.26 39.66 37.70 35.08 28.41 33.43 32.10 30.54 35.32 39.33 41.47 43.00 44.69 45.85 46.13 46.06 46.96 47.97 47.66 46.10 46.45 45.94 46.59 47.81 47.45 47.90 47.30 46.92 46.11 44.72 42.68 41.50 40.88 40.70 40.50 40.14 40.12 41.77 41.93 41.23 41.14 40.66 39.92 39.43 38.76 38.09 37.33 36.53
40.93 36.58 28.21 27.78 26.46 27.12 35.64 33.04 33.76 38.52 41.25 43.54 43.20 44.39 45.63 46.10 46.48 46.70 47.76 46.85 47.43 48.23 48.08 46.77 46.71 46.30 46.15 45.90 45.67 45.00 44.14 43.32 42.34 41.26 40.28 39.31 38.74 38.23 38.59 39.22 40.01 40.26 40.14 39.67 38.91 38.02 37.30 36.36 35.30
37.57 36.36 29.26 27.17 24.90 27.40 35.20 30.73 35.22 41.00 43.32 44.76 45.39 45.13 45.18 45.00 46.29 46.52 48.67 48.47 46.58 45.96 45.66 45.91 46.22 45.82 44.84 44.45 44.23 44.04 43.52 42.00 41.50 40.94 39.85 39.17 38.43 38.43 38.73 38.89 39.67 39.03 38.92 38.74 38.30 37.49 37.16 36.33 35.37
37.72 32.79 36.68 30.83 28.38 24.92 29.51 34.35 39.62 41.31 41.62 43.01 43.22 44.07 44.04 45.28 45.48 44.21 44.87 44.82 44.58 44.27 43.89 44.53 45.01 44.79 44.35 43.30 43.40 43.04 42.45 41.44 40.57 39.87 38.48 38.28 38.53 39.66 38.88 38.41 38.32 38.61 38.35 38.33 38.11 37.15 37.53 36.50 35.63
38.23 40.69 32.35 29.66 23.57 24.10 26.86 29.83 32.04 37.32 39.67 41.72 42.09 42.21 42.94 42.75 42.71 42.76 43.00 43.45 43.81 42.85 42.64 43.17 43.38 42.62 42.60 40.76 40.23 40.20 39.69 39.60 39.80 38.98 38.67 38.51 38.58 38.46 37.80 37.83 37.82 37.86 39.12 38.59 38.60 37.44 36.15 35.40 34.91
36.99 34.96 33.86 33.56 28.63 23.78 20.36 27.40 36.31 39.95 41.70 41.69 41.93 43.65 41.58 41.47 40.90 40.92 41.27 41.47 41.41 41.07 41.85 41.56 41.15 40.60 40.33 39.53 39.12 38.46 38.17 38.85 38.85 38.29 38.24 38.22 38.14 37.77 37.45 37.66 37.58 38.33 36.26 37.58 37.33 36.32 35.07 34.18 31.17
37.38 35.96 34.19 25.08 26.98 25.92 24.85 26.37 37.85 39.16 41.88 42.49 41.29 41.54 40.65 40.50 40.42 40.18 40.64 40.69 40.58 40.75 40.90 41.17 41.17 41.49 39.21 38.57 38.16 37.16 37.13 37.50 37.51 37.53 37.95 37.61 36.56 36.95 36.81 36.84 35.84 34.38 34.85 35.10 34.07 32.83 32.17 29.49 28.80

GFSSGP_sfc_wetblb_039.txt.gz
Wetbulb
57.34 54.19 54.54 53.43 46.81 45.68 41.43 43.30 51.10 54.09 54.66 58.90 60.23 58.83 57.60 59.83 56.52 52.54 66.94 69.06 69.99 69.77 70.49 71.15 70.60 71.59 71.71 72.37 72.37 72.30 72.08 71.34 70.73 70.55 70.28 69.94 69.66 69.65 70.11 70.04 69.44 68.89 68.59 67.65 67.02 66.80 66.85 66.55 65.77
55.46 53.92 53.71 50.50 44.62 40.24 40.80 46.20 51.85 54.54 57.86 59.68 59.14 59.75 58.47 57.04 63.60 64.19 65.35 69.68 70.03 69.85 70.59 71.04 70.71 71.61 72.12 72.21 72.05 71.79 71.61 70.85 70.76 70.30 69.79 69.33 69.50 69.61 69.33 68.68 69.25 68.01 66.90 66.46 66.07 65.59 65.02 64.45 64.18
55.72 53.35 49.90 47.03 43.54 40.26 42.36 52.23 54.75 57.46 58.84 57.07 55.78 58.49 57.02 58.60 63.39 64.14 68.45 69.65 69.96 69.95 70.66 71.20 70.46 71.16 71.80 71.72 71.59 71.39 71.37 70.92 70.70 70.21 69.54 69.32 69.11 68.44 68.18 68.09 68.05 66.90 65.90 65.48 65.15 64.70 64.12 63.65 63.72
53.64 51.19 48.22 44.52 42.65 43.74 48.12 55.01 56.40 55.44 57.10 58.40 57.78 54.42 61.04 64.70 64.21 66.40 69.41 69.79 69.44 69.30 70.52 69.88 69.39 70.46 71.38 71.59 71.42 71.24 70.82 70.23 70.16 69.93 69.61 68.77 67.89 67.64 67.77 67.10 67.05 65.84 64.97 64.60 64.17 63.50 63.14 63.09 63.95
50.90 48.23 44.45 42.24 42.53 46.31 50.70 57.21 56.48 54.54 55.32 56.07 56.80 54.00 57.48 63.55 66.90 67.81 68.71 68.76 68.28 68.70 69.92 70.77 68.44 70.01 71.06 71.30 70.75 70.51 70.09 69.86 70.02 69.93 69.32 68.03 67.41 67.34 66.64 66.12 65.82 64.98 64.12 63.90 63.59 63.29 63.16 63.81 63.93
49.09 47.24 42.84 44.38 45.83 49.20 54.46 56.79 56.21 55.21 55.94 56.57 56.23 56.42 58.42 64.95 65.74 66.11 67.13 67.46 68.01 68.49 69.56 70.52 69.40 69.61 69.78 70.23 69.92 69.34 69.31 69.27 69.02 68.62 68.33 67.92 67.56 66.98 65.80 65.42 65.02 64.61 64.13 63.73 63.42 63.21 63.31 63.61 63.31
47.00 44.77 42.27 44.84 46.98 50.75 53.70 58.00 55.54 54.65 55.05 55.32 58.49 56.00 60.16 62.66 64.76 66.34 66.30 67.03 67.99 68.40 68.91 69.27 69.52 69.60 68.67 68.11 67.93 67.70 68.08 67.97 67.65 67.51 67.44 67.06 66.30 65.98 65.97 65.56 64.81 64.09 64.52 64.52 64.00 63.94 63.93 63.51 62.95
48.08 46.12 42.62 46.07 46.70 48.30 53.62 55.60 55.99 55.25 54.16 58.35 60.28 55.45 57.20 61.28 64.23 65.56 65.65 65.00 65.52 65.72 66.32 66.83 67.74 68.43 68.81 68.84 66.43 66.34 66.29 66.18 66.33 66.37 65.80 65.07 65.04 64.87 64.84 63.83 64.78 64.81 64.49 64.46 64.44 64.37 63.94 63.57 61.97
47.99 44.28 41.43 44.63 48.63 49.14 53.28 53.14 53.06 56.77 55.66 55.84 54.60 59.86 62.36 62.15 62.86 62.55 62.03 61.95 62.06 62.37 63.84 64.78 64.98 65.72 66.10 66.44 66.24 65.96 66.00 65.62 65.20 65.39 64.62 63.92 65.76 65.57 65.16 63.84 64.33 64.66 64.61 64.24 63.82 63.48 62.74 61.47 60.60
47.52 43.91 43.57 47.23 53.08 51.21 53.62 54.13 53.09 54.63 54.48 52.51 55.12 59.11 60.99 60.96 61.85 60.54 59.04 58.33 59.17 60.40 61.96 63.26 64.04 63.71 64.22 64.09 65.82 65.98 65.67 65.56 65.65 65.51 65.72 65.57 65.53 66.05 65.76 64.50 62.91 62.91 62.23 61.25 61.30 60.85 60.61 60.75 61.01
46.45 44.68 46.07 46.44 51.96 53.61 51.72 52.07 55.20 54.52 53.07 54.14 55.22 57.74 59.45 59.85 59.15 58.44 57.42 57.19 58.27 60.19 61.28 62.55 62.95 63.31 63.19 63.74 64.50 64.37 64.93 65.13 65.42 64.99 65.36 65.41 65.53 66.22 66.37 66.16 65.19 63.65 59.70 60.86 60.76 60.63 60.12 59.99 59.29
44.77 45.44 45.00 45.57 47.65 49.59 51.48 53.58 54.19 54.96 53.77 57.22 59.05 59.91 59.06 58.47 57.50 56.43 55.81 56.89 57.86 59.44 61.24 62.18 62.70 62.52 62.56 63.26 63.66 64.04 64.20 64.52 64.70 65.44 64.86 65.84 65.45 65.62 65.17 64.06 61.01 60.67 60.51 60.23 59.88 59.64 58.74 57.66 56.96
44.85 44.52 44.48 45.12 46.50 49.59 49.55 52.53 54.07 50.57 54.64 58.08 58.81 58.91 58.28 57.71 56.42 55.94 56.45 57.30 58.57 59.05 60.80 62.14 62.62 62.22 62.17 62.37 62.95 63.37 63.77 64.38 65.07 65.31 65.49 65.31 64.64 62.43 61.14 60.10 59.72 59.41 59.18 58.32 57.71 57.18 56.41 55.79 55.23
45.44 44.57 43.58 43.88 44.99 45.89 46.00 46.01 50.84 50.26 54.86 56.20 56.82 56.46 56.55 55.78 54.81 55.32 55.53 56.22 58.08 59.78 60.97 62.23 62.52 63.06 62.66 61.70 61.64 61.72 62.72 63.05 64.07 64.62 63.31 62.44 61.86 60.95 59.62 58.19 56.98 56.33 56.67 56.61 56.32 55.53 55.01 54.44 54.26
45.08 43.69 44.98 45.23 45.88 45.50 46.97 43.89 44.17 52.57 54.76 54.88 55.29 54.71 54.51 54.84 55.62 55.79 57.07 57.39 58.56 59.77 61.61 61.84 62.84 62.69 61.00 59.70 59.30 59.05 57.76 59.79 61.45 61.25 60.76 59.83 59.29 58.76 57.39 56.21 55.50 55.31 55.52 55.50 55.19 54.47 54.43 53.40 52.81
44.02 43.78 40.90 44.43 45.19 45.02 45.37 40.59 44.40 53.53 53.40 52.92 53.57 53.82 53.93 54.92 55.46 56.82 58.24 58.01 59.55 61.13 62.19 62.79 62.12 60.60 60.44 59.52 59.15 56.62 56.17 57.06 57.22 58.28 57.68 56.68 55.97 55.84 54.79 54.01 53.64 54.04 53.64 53.38 52.87 52.28 51.58 51.32 50.99
42.78 38.91 40.68 42.53 45.51 45.18 44.87 41.31 45.56 50.46 52.86 51.63 52.53 53.19 53.79 53.93 54.22 55.79 58.21 59.40 59.87 62.00 61.57 61.64 61.70 60.73 60.10 57.46 55.00 54.60 54.33 54.82 54.06 53.32 53.26 53.85 53.11 53.38 53.04 52.44 52.24 52.80 52.13 51.54 50.89 50.64 50.57 49.56 50.13
39.61 39.84 40.64 41.24 43.84 45.06 43.02 42.45 45.58 47.93 51.78 50.16 50.87 51.71 51.79 51.96 51.94 54.93 57.82 59.33 60.46 61.06 60.58 60.97 60.40 58.75 56.30 54.26 54.03 54.41 52.40 52.02 52.43 52.16 52.04 52.84 52.58 52.36 52.11 51.48 51.16 51.21 50.71 50.28 50.45 50.08 50.28 50.36 49.73
42.14 41.16 40.72 42.00 43.15 44.30 42.20 42.78 44.49 47.35 49.35 49.12 49.72 50.65 50.88 51.06 53.03 55.82 57.31 59.49 61.04 61.91 61.87 59.54 59.64 58.96 56.56 54.32 53.30 51.71 51.88 50.92 51.20 51.89 51.87 51.73 51.34 51.23 51.46 50.73 50.47 50.63 49.18 49.28 49.55 48.95 48.08 47.67 48.27
42.21 41.36 40.82 42.14 43.49 44.53 42.79 42.54 45.11 46.78 46.91 48.49 49.49 49.83 50.93 52.54 53.86 54.80 56.09 57.66 60.16 60.38 61.21 61.08 58.52 57.77 56.61 55.96 55.39 55.09 53.31 52.55 51.56 51.03 50.82 50.89 50.66 50.41 50.14 50.05 49.61 49.36 48.37 47.99 48.00 47.64 45.72 46.38 47.49
42.67 41.66 41.11 41.31 43.08 43.67 43.05 41.67 43.14 46.10 47.56 47.98 48.87 50.39 51.99 52.91 52.60 52.61 53.16 54.77 56.12 57.04 57.66 59.25 58.32 57.09 56.66 55.50 54.29 53.27 52.72 51.57 50.76 50.39 50.21 49.62 49.40 49.53 49.85 49.66 50.13 49.77 48.65 46.79 47.18 47.16 45.83 43.44 45.80
41.15 44.47 42.82 41.22 40.85 38.85 41.56 37.26 40.90 44.00 45.21 46.85 48.08 49.68 50.68 51.21 51.87 51.82 51.43 51.32 52.46 52.94 53.80 54.68 54.55 54.34 54.09 54.44 54.22 53.70 53.76 52.88 51.84 50.91 50.18 50.12 48.96 49.26 49.54 49.31 49.49 49.14 49.05 47.28 46.93 47.51 46.66 45.74 42.40
42.67 44.88 43.45 41.59 40.35 40.18 39.77 39.04 39.33 43.67 43.74 45.70 47.62 48.91 49.83 50.93 51.73 51.01 51.41 51.96 52.33 52.85 53.27 53.71 53.84 53.83 53.59 54.06 54.28 53.88 51.89 51.07 50.34 49.87 48.90 49.35 49.47 48.27 48.54 48.63 48.77 48.50 48.21 47.72 47.25 46.72 46.19 46.03 43.52
45.63 44.55 43.06 41.77 40.80 36.18 38.11 37.94 38.45 41.33 44.32 46.58 48.01 48.77 49.37 50.34 51.06 51.37 51.87 51.91 51.93 52.58 53.18 53.38 53.05 52.22 53.18 53.42 53.09 52.48 51.41 50.00 49.68 49.66 49.39 49.20 48.18 47.85 47.79 48.01 48.17 48.17 47.68 46.99 46.65 46.50 45.90 45.03 44.10
45.08 42.12 35.65 34.46 35.12 33.63 38.51 37.28 41.17 42.73 44.74 49.07 47.79 48.46 49.75 50.95 51.22 51.15 51.14 51.23 51.65 51.71 51.41 52.44 53.22 51.83 51.94 52.06 52.16 52.10 51.63 50.85 50.00 49.55 48.86 47.83 47.60 47.41 47.72 47.02 47.00 46.82 46.85 46.62 46.21 45.70 44.83 44.21 43.15
41.83 42.13 36.89 29.50 31.15 34.43 38.01 35.64 41.07 44.90 46.50 49.61 49.83 50.18 50.15 50.08 50.91 51.35 51.91 52.02 52.58 52.36 52.06 51.91 51.57 50.56 50.54 50.74 50.59 51.02 50.26 50.84 49.63 48.38 47.87 47.46 46.81 46.71 47.10 46.44 46.09 45.67 45.39 45.25 44.95 44.74 44.33 43.77 43.03
41.42 38.41 41.03 34.77 31.77 32.09 35.49 39.16 43.36 44.03 44.37 46.72 48.02 48.54 49.29 50.09 50.50 51.28 51.75 51.73 50.82 50.52 50.07 51.11 50.92 50.24 49.25 48.54 49.79 49.57 48.99 47.77 47.21 47.15 47.01 46.13 46.11 45.22 45.70 45.99 45.28 45.01 44.99 44.95 44.68 43.89 42.29 42.09 41.95
43.63 43.27 37.55 36.39 28.93 27.50 32.67 34.34 37.85 41.23 42.78 45.47 46.86 47.95 49.07 48.99 48.48 48.75 48.81 48.96 49.19 48.83 48.83 49.25 49.51 47.75 47.64 47.23 46.80 46.27 45.84 45.46 45.70 46.06 45.55 45.48 45.81 45.33 44.94 44.65 44.54 44.25 44.38 44.29 43.20 42.41 41.60 40.81 41.12
41.23 39.38 37.48 37.81 34.35 29.86 28.17 33.90 42.13 43.56 45.03 45.32 47.31 48.28 48.15 47.19 46.75 46.29 46.30 46.73 46.90 46.60 47.50 47.44 46.60 45.30 45.30 45.06 45.24 45.06 44.97 44.74 44.93 44.49 44.23 44.07 44.06 43.74 43.29 43.30 43.10 43.00 42.01 40.87 40.52 40.02 39.18 38.25 38.22
42.42 40.34 39.33 33.60 30.91 31.17 31.82 34.54 41.74 43.74 45.59 46.22 46.61 47.04 46.40 46.02 45.19 45.30 45.46 45.64 45.90 45.83 46.61 44.77 44.83 44.37 44.28 44.76 44.29 43.71 43.91 43.60 43.04 42.92 42.96 43.37 42.59 43.09 42.61 42.52 41.69 40.47 39.63 38.72 38.47 37.74 37.50 35.84 34.99

GFSSGP_sfc_wetblb_042.txt.gz
Wetbulb
60.90 59.06 57.73 57.55 50.35 49.64 47.63 48.82 57.41 57.46 57.22 61.29 62.26 60.76 60.33 62.07 58.63 55.45 68.25 69.90 70.62 71.11 71.46 71.74 70.99 71.64 71.93 72.29 72.29 72.33 72.14 71.38 70.81 70.71 70.31 70.12 70.10 70.27 70.31 69.47 69.11 68.25 67.40 67.06 66.83 66.15 65.18 64.71 64.30
57.46 55.93 56.80 55.97 47.39 45.31 47.47 49.68 54.00 58.62 60.42 61.02 60.83 61.03 59.79 58.31 64.60 64.77 66.88 69.81 70.44 70.35 71.71 72.02 70.53 71.33 72.14 72.10 72.07 72.00 71.72 71.00 70.82 70.31 69.83 69.83 69.94 69.58 68.84 68.76 68.93 67.54 66.37 65.88 65.01 64.60 63.98 63.95 64.07
58.03 56.21 54.01 51.40 48.95 46.34 47.17 54.08 58.52 59.46 60.05 57.89 55.77 59.42 57.58 57.85 64.45 65.13 69.21 70.13 70.04 70.91 72.20 72.04 70.42 70.94 71.53 71.65 71.53 71.47 71.42 71.23 70.95 70.33 69.73 69.60 68.93 68.52 68.34 67.74 67.77 67.01 65.61 64.97 64.43 63.84 63.34 63.62 63.81
55.41 55.04 53.71 47.93 46.52 48.29 51.51 58.35 60.24 58.40 59.22 59.15 56.23 54.45 60.89 64.84 63.93 66.94 69.71 69.98 70.30 70.94 72.25 70.49 69.81 70.35 71.46 71.37 71.45 71.31 71.04 70.51 70.18 70.22 69.52 68.38 68.06 67.91 67.28 66.97 67.29 65.40 64.77 64.49 64.10 63.29 62.86 63.44 63.94
56.58 54.15 47.20 45.83 46.49 49.16 54.92 59.78 59.78 57.60 56.64 56.14 57.06 54.67 58.46 65.06 67.47 69.40 69.54 69.90 69.82 70.53 71.54 71.71 68.73 69.69 71.03 71.69 71.36 70.84 70.41 70.21 69.98 69.97 69.08 68.07 67.74 66.80 66.19 66.04 65.48 65.00 64.52 64.19 63.93 63.76 63.75 63.75 63.77
51.47 52.46 45.36 43.99 47.65 51.56 58.01 59.63 59.09 58.00 57.03 56.41 55.77 57.30 59.66 66.30 67.07 68.40 69.33 69.54 70.01 69.60 70.49 70.83 70.02 70.20 70.56 70.73 70.24 69.55 69.48 69.55 69.29 68.82 68.64 68.01 67.31 66.55 65.40 65.07 64.74 64.24 64.24 64.04 63.80 63.79 63.89 63.97 63.44
50.36 48.46 45.85 47.96 48.85 52.21 56.79 60.26 56.80 55.96 56.64 57.23 60.18 56.37 60.99 64.14 67.07 67.89 68.97 68.84 70.11 70.38 70.41 70.77 71.01 70.38 68.98 68.41 68.30 68.23 68.54 68.20 67.87 67.69 67.60 66.97 66.48 66.13 65.72 65.64 64.86 64.70 64.65 64.26 64.13 64.06 64.02 63.57 62.79
53.39 50.19 47.94 50.38 50.32 52.37 58.03 56.72 57.40 54.06 55.77 61.66 61.98 56.47 58.34 62.73 66.14 67.59 68.83 69.65 70.22 70.30 69.81 68.69 68.71 69.26 69.55 69.59 67.43 67.18 67.02 66.68 66.63 66.65 65.94 65.26 64.91 64.92 64.44 65.04 64.98 64.62 64.38 64.40 64.20 63.78 63.13 61.89 61.31
53.70 47.54 47.39 51.08 52.25 52.35 57.89 55.06 56.93 58.78 57.58 58.85 59.19 61.35 64.55 65.70 66.68 66.95 66.94 67.60 67.56 67.09 67.50 67.16 67.09 67.76 67.83 67.73 67.82 66.36 66.39 65.98 65.67 65.65 64.94 64.56 66.75 66.58 65.82 64.10 64.65 64.34 63.59 63.26 62.98 62.24 61.43 61.80 61.41
50.91 47.53 47.54 54.10 56.55 53.81 53.14 55.27 55.66 55.70 55.87 55.84 58.91 64.24 65.84 66.24 65.90 64.82 64.52 63.94 63.28 63.02 64.02 65.62 65.99 65.99 66.37 65.07 66.76 66.95 65.91 66.67 67.43 67.09 67.06 67.83 68.13 67.95 66.45 65.02 63.00 62.56 61.47 61.35 60.90 61.01 61.71 62.67 63.07
50.70 47.68 50.38 49.72 56.38 55.61 52.65 55.88 58.16 55.70 55.40 57.76 58.27 62.47 64.16 64.77 64.56 64.43 62.90 60.71 60.47 62.16 62.91 64.27 65.31 65.92 65.56 65.57 65.87 65.68 66.63 67.40 67.95 68.21 68.73 68.57 68.73 69.17 68.91 68.55 67.57 67.08 61.71 65.28 64.23 64.77 63.46 62.21 61.47
47.69 49.96 48.80 50.59 56.02 53.87 54.97 57.45 56.59 57.59 56.32 59.56 61.48 64.81 64.58 63.51 63.51 61.47 59.41 59.16 60.40 61.95 62.89 63.86 64.74 65.30 65.63 65.32 65.82 66.55 67.21 68.01 68.35 68.44 68.81 69.18 68.16 69.11 68.27 67.54 66.75 65.73 65.45 64.36 63.74 63.15 61.74 60.74 59.54
48.62 48.58 48.64 54.43 54.13 53.28 56.12 55.67 56.39 55.26 59.16 61.93 64.06 63.91 62.70 61.87 60.08 58.83 58.89 59.99 61.79 62.20 63.28 64.04 64.49 64.79 65.24 65.78 66.53 66.85 67.85 68.19 68.18 69.00 68.45 68.03 67.61 67.10 66.92 66.06 65.65 63.95 63.71 62.76 61.91 61.19 60.27 59.33 58.94
49.64 46.68 47.81 50.19 52.75 52.46 53.37 54.67 56.74 55.68 59.95 61.07 62.37 61.62 60.11 59.21 57.87 58.17 58.11 59.14 61.65 63.40 64.00 65.35 65.21 65.53 65.56 65.43 65.69 65.18 64.84 65.67 67.70 67.38 66.25 64.23 64.70 64.16 65.30 64.80 63.59 62.67 61.13 60.26 59.62 58.63 58.25 57.94 58.00
47.76 44.27 45.82 47.36 50.30 50.26 54.06 51.34 47.96 55.24 58.99 59.07 59.79 59.80 58.69 57.96 57.65 57.20 58.21 58.72 61.72 63.81 64.99 64.98 65.57 65.41 64.92 64.51 63.87 62.97 62.62 63.29 62.52 64.36 64.05 63.63 64.38 64.14 63.32 61.94 60.37 58.74 58.21 58.19 57.59 56.62 57.44 56.67 56.51
46.15 46.82 43.36 47.30 50.82 48.48 49.88 44.68 49.17 56.27 57.36 57.66 58.10 57.85 57.77 57.69 57.65 59.11 59.94 60.13 61.46 63.60 64.73 65.23 64.76 64.36 63.64 62.28 59.95 59.61 59.37 60.57 61.38 62.26 62.07 61.23 60.55 59.89 58.22 57.71 56.43 56.85 56.98 56.17 56.24 55.56 54.85 54.53 54.09
45.97 42.17 43.31 44.28 48.42 49.37 48.54 45.52 49.71 56.34 56.33 56.40 57.43 57.51 57.73 58.18 58.92 60.32 61.87 62.60 63.09 64.44 65.02 63.98 64.65 63.52 62.60 61.65 59.09 58.97 57.34 57.86 57.62 57.77 56.66 56.21 55.75 56.31 55.77 55.72 56.40 56.73 55.88 55.30 53.92 52.85 52.35 50.99 51.03
42.99 41.95 43.88 43.55 46.82 48.23 46.97 47.44 49.59 54.90 56.09 55.77 56.84 57.65 57.71 57.96 57.82 60.19 62.17 63.25 63.93 65.17 65.25 63.99 64.18 59.49 57.99 58.95 58.40 56.33 55.30 54.29 54.65 54.76 55.12 55.57 55.57 56.07 56.48 56.11 55.67 54.84 53.02 51.65 51.59 50.99 51.27 50.77 50.74
46.51 45.54 44.03 45.95 47.53 48.04 47.14 48.09 49.07 54.15 55.99 55.58 56.35 56.81 57.22 57.49 59.28 61.44 62.66 63.52 63.65 62.82 63.55 63.43 62.45 60.89 60.25 61.51 58.22 55.76 54.00 55.37 56.34 56.84 56.23 55.98 55.94 55.89 55.95 54.59 53.35 52.27 51.26 51.21 51.11 50.34 49.45 48.76 50.31
46.13 45.25 45.28 46.26 47.24 48.75 48.66 47.96 49.66 51.90 54.61 56.01 56.44 56.78 57.20 58.01 59.71 60.58 62.23 63.30 63.24 62.60 63.07 63.43 63.99 64.10 63.33 61.81 60.15 59.50 58.43 58.41 57.80 56.66 55.95 55.65 55.50 54.47 53.27 52.73 51.93 51.52 50.57 50.73 50.34 49.67 48.15 48.12 48.94
46.57 45.61 45.48 45.12 47.09 48.98 48.54 46.74 48.33 49.85 52.37 53.70 55.46 57.24 57.79 58.82 59.34 60.20 61.27 62.61 63.24 63.08 63.96 64.01 63.55 62.64 61.33 60.51 59.57 58.93 57.83 56.66 55.56 55.41 55.04 54.65 54.46 53.87 52.56 52.42 51.95 51.38 50.92 49.38 49.86 49.30 48.10 45.84 47.29
44.44 47.57 46.87 46.14 45.59 42.53 47.76 40.77 47.43 49.38 49.43 51.61 53.59 55.67 57.58 58.25 58.35 58.59 58.29 59.76 61.26 62.01 62.50 60.99 60.87 60.41 60.00 59.61 58.52 57.72 57.69 56.64 57.06 57.75 56.12 55.61 53.86 52.41 51.75 51.63 51.67 51.31 51.17 50.21 49.80 48.91 48.56 47.30 44.89
46.10 48.26 47.44 46.30 46.05 45.03 44.86 42.53 46.48 49.14 48.01 49.59 53.04 55.55 56.91 57.21 56.84 55.44 55.91 56.96 57.93 58.71 59.38 59.60 59.33 58.51 58.71 58.69 58.27 58.66 57.24 56.93 56.62 55.98 54.24 54.56 54.48 52.63 51.35 51.30 51.49 51.09 50.80 50.49 49.97 49.06 48.29 47.44 45.50
50.16 48.64 48.18 47.85 46.51 39.92 43.64 42.86 42.65 46.95 48.79 50.86 52.96 55.23 55.86 56.05 55.56 55.41 56.39 56.84 56.83 58.20 58.29 58.40 57.97 57.63 58.03 58.21 57.94 57.34 55.98 54.55 54.60 54.08 52.64 52.68 51.96 51.46 51.35 51.01 51.02 50.79 50.28 49.66 49.19 48.94 47.57 46.52 45.58
49.29 45.99 40.33 37.89 38.32 37.13 43.60 42.07 43.99 47.95 49.38 52.52 52.71 54.50 55.15 55.19 54.90 55.01 55.30 55.64 56.41 56.64 57.46 57.54 57.73 56.81 57.50 57.29 56.63 55.90 54.67 52.94 51.66 50.94 50.80 50.01 49.67 49.86 50.31 50.59 50.04 49.38 49.16 49.24 48.85 47.68 46.74 45.88 44.66
46.42 45.23 40.06 31.17 34.58 39.39 42.87 39.80 45.87 49.46 51.02 52.64 54.96 55.58 55.03 54.38 54.93 55.43 55.79 56.15 56.17 56.48 57.41 56.92 56.71 55.80 55.83 55.51 54.55 53.48 51.98 53.20 51.88 51.26 51.02 50.34 49.71 49.82 50.13 49.90 49.39 48.47 48.13 47.87 47.52 46.91 46.37 45.83 44.66
45.66 43.82 46.40 40.40 37.41 38.03 41.80 44.24 48.21 49.05 49.21 50.77 53.77 54.48 53.34 54.16 54.99 55.52 56.01 56.33 56.61 56.85 56.83 57.03 55.91 54.82 54.12 53.30 52.72 51.47 53.02 51.35 50.70 50.64 50.86 50.41 49.91 48.39 47.24 47.16 46.31 46.31 46.57 46.87 46.84 45.91 45.01 44.69 43.57
48.04 48.50 41.41 42.99 32.27 31.02 38.23 39.27 42.59 45.54 47.37 49.74 52.12 52.63 53.17 54.51 54.93 55.58 55.92 56.02 56.06 56.02 55.42 55.84 54.83 53.16 51.28 50.33 49.82 50.24 50.05 50.22 50.58 51.10 48.90 47.07 46.42 46.03 45.77 45.40 45.16 45.03 45.46 45.90 45.68 44.73 44.40 42.69 42.15
45.10 44.35 43.77 43.92 41.40 34.73 33.63 39.55 47.61 47.19 49.27 49.63 52.33 53.03 53.75 54.39 54.64 54.84 54.96 55.07 54.44 53.89 53.68 53.16 51.70 50.38 49.82 48.55 48.28 49.02 49.81 49.34 49.29 48.07 46.05 45.52 45.60 45.13 44.50 44.40 44.44 44.23 44.08 44.50 43.36 43.02 42.76 40.45 40.45
46.96 45.38 45.16 39.10 36.21 39.43 38.55 39.06 47.01 49.22 50.77 51.60 52.04 53.27 54.56 54.93 54.10 53.60 53.06 52.57 51.70 51.49 51.68 51.04 50.69 49.72 48.71 47.35 47.85 47.33 47.72 47.31 46.22 45.02 44.72 45.67 44.54 44.78 44.11 43.57 43.32 43.69 43.31 42.47 41.54 40.36 40.38 39.48 38.62

GFSSGP_sfc_wetblb_045.txt.gz
Wetbulb
63.21 61.18 59.91 56.26 49.71 49.48 47.53 50.50 54.17 56.75 59.27 62.99 64.25 61.65 61.60 62.38 59.66 56.78 68.74 69.82 70.46 70.90 71.61 70.86 71.26 71.90 72.32 72.31 72.50 72.44 72.07 71.54 71.17 70.66 70.51 70.53 70.60 70.31 69.61 69.15 68.90 67.72 67.10 66.59 65.39 64.58 64.36 64.66 64.96
60.35 57.12 55.52 54.24 47.74 45.93 48.21 52.68 51.59 59.48 61.36 63.03 61.53 62.19 60.89 59.40 65.62 66.24 66.69 69.69 70.68 70.81 71.00 70.61 70.95 71.55 72.20 72.18 72.08 71.95 71.44 70.93 70.63 70.26 70.19 70.36 69.77 69.07 68.83 67.93 68.37 67.27 65.74 65.11 64.40 64.30 64.63 64.51 64.44
58.14 56.94 52.42 50.26 48.67 46.01 48.20 53.48 59.84 60.70 61.95 60.15 58.32 61.38 59.60 59.34 64.93 65.26 68.83 70.48 71.06 70.13 70.90 71.13 70.62 71.28 72.06 71.91 71.74 71.35 71.38 71.21 70.54 70.27 70.01 69.29 68.61 68.59 67.59 67.25 67.76 66.44 65.05 64.45 63.66 64.01 64.08 64.15 64.30
56.02 53.71 53.12 48.65 47.51 51.04 50.88 58.51 60.38 59.06 59.97 60.29 59.10 54.95 60.48 64.11 61.06 67.29 69.30 69.89 69.65 70.36 71.48 70.05 69.98 71.03 71.40 71.63 71.30 70.99 71.01 70.69 70.49 70.25 69.16 68.44 68.22 67.38 66.94 66.84 66.70 65.24 65.16 64.51 63.75 63.98 64.15 64.18 64.25
55.48 53.80 47.93 46.66 47.58 50.73 52.75 60.28 59.26 57.49 58.39 58.81 58.42 53.41 56.25 63.27 63.78 67.65 69.00 69.38 68.97 69.27 70.73 71.49 69.45 70.39 70.73 71.13 70.76 70.70 70.38 70.30 70.24 69.55 68.90 68.12 67.08 66.43 66.28 65.57 65.16 64.85 64.63 64.51 64.33 64.06 64.17 64.11 63.95
51.09 52.28 47.20 45.63 47.92 51.70 55.79 60.51 58.18 57.21 58.29 57.90 57.25 57.05 58.00 66.13 64.42 66.93 68.86 68.46 68.80 69.74 70.21 70.84 69.88 69.91 70.33 70.62 70.25 69.84 70.05 69.91 69.35 68.96 68.58 67.54 66.48 65.98 65.16 64.90 64.73 64.54 64.25 64.13 64.10 64.19 64.24 63.77 63.34
50.76 50.64 47.62 48.57 48.80 51.39 55.24 59.93 58.10 54.07 56.28 56.71 58.99 55.56 61.58 64.65 66.92 67.83 67.19 67.33 68.50 69.87 70.12 70.70 70.70 70.22 69.25 68.73 68.62 68.48 68.75 68.40 68.05 68.06 67.54 66.88 66.66 66.30 65.98 65.60 64.84 64.65 64.41 64.29 64.17 64.09 63.78 62.57 62.10
53.26 51.88 48.38 49.19 48.80 51.20 57.89 57.52 58.52 57.12 54.73 61.54 62.49 57.12 58.18 65.09 66.88 60.68 66.88 67.62 69.05 69.46 69.50 68.42 68.91 68.96 68.99 69.10 67.70 67.75 67.45 67.02 67.12 66.83 65.87 65.21 64.94 65.12 65.50 65.53 65.21 64.73 64.65 64.30 63.96 63.12 62.44 61.39 61.48
54.95 48.79 47.12 49.51 50.88 51.98 58.08 55.15 58.32 58.49 56.45 58.19 60.38 62.07 64.66 66.97 67.79 64.82 66.17 67.16 68.91 67.31 66.72 67.42 66.83 67.41 67.50 68.08 68.20 66.91 66.97 66.50 66.05 65.28 65.28 64.04 65.60 65.46 65.67 64.62 64.97 63.85 62.85 62.87 62.65 61.81 61.40 61.90 61.71
51.12 48.93 48.80 54.12 54.24 54.84 57.67 55.52 56.01 54.25 54.13 56.88 60.57 65.36 66.31 66.53 66.55 65.22 65.31 65.50 64.85 64.39 65.23 66.34 66.57 66.61 66.51 65.05 66.61 66.49 65.54 66.04 66.78 66.55 66.62 67.42 67.28 67.35 66.16 65.27 64.34 62.58 62.03 62.09 61.94 61.48 62.07 62.71 62.87
51.87 48.70 51.75 55.47 53.57 56.64 53.72 54.29 56.76 55.26 52.39 56.05 56.65 62.22 65.48 65.87 65.18 65.07 65.82 65.32 62.04 62.85 63.31 64.04 65.29 66.30 65.39 65.46 65.73 65.29 65.86 67.09 67.64 67.89 68.16 68.13 67.61 67.52 66.64 66.84 65.68 66.36 63.17 64.48 63.65 63.89 63.48 62.90 61.99
49.28 51.49 51.45 51.99 56.68 54.22 53.46 56.29 55.21 56.11 55.42 60.06 62.37 65.05 65.10 64.55 64.73 65.13 62.92 60.08 61.00 61.78 62.64 63.94 65.18 65.72 65.82 64.96 64.89 66.07 66.32 67.01 67.08 68.36 68.14 68.12 67.37 67.61 67.03 65.85 65.26 64.82 64.78 64.34 63.86 62.91 62.55 61.89 61.41
49.45 51.05 50.99 54.97 54.56 53.92 56.23 54.11 52.64 54.50 57.69 59.28 64.58 64.29 64.03 64.13 64.57 61.38 59.78 60.91 62.46 61.94 62.99 63.45 64.66 65.34 66.21 66.61 66.91 67.22 67.12 67.57 68.40 68.74 68.30 68.29 67.94 67.01 66.12 65.28 64.81 64.21 63.44 62.73 62.15 61.70 61.02 60.54 60.52
51.53 52.10 52.50 54.02 53.91 54.28 54.07 55.54 54.80 56.38 59.41 61.13 62.43 62.24 62.09 61.50 59.14 58.69 59.66 61.44 62.40 63.19 63.82 64.33 64.78 65.94 67.00 67.01 67.19 66.47 66.50 66.84 67.64 67.80 66.81 65.68 66.31 65.42 65.23 65.41 63.98 63.09 61.74 60.97 60.21 59.24 58.40 58.41 58.89
50.96 49.86 50.35 51.23 53.85 53.20 55.44 51.72 51.80 57.49 58.83 59.42 59.76 59.65 58.80 57.65 58.33 58.34 60.22 62.04 63.87 64.43 64.98 65.42 65.91 66.52 66.37 65.24 64.23 64.09 64.00 64.16 64.05 64.44 65.19 64.92 65.19 65.01 64.22 62.43 60.56 59.19 59.01 58.60 57.64 57.91 57.90 56.79 56.70
47.52 47.15 44.42 49.82 52.57 53.30 52.96 46.51 52.14 57.29 57.43 56.66 57.39 56.75 56.46 56.73 57.85 59.25 59.84 61.69 64.46 65.57 65.51 65.91 65.61 66.21 65.10 63.58 62.21 61.81 61.27 60.56 61.13 62.74 62.69 61.68 61.04 61.15 60.56 58.68 57.53 57.51 57.58 57.24 56.39 54.85 53.37 52.86 52.60
46.86 41.59 44.18 46.48 51.91 51.27 51.19 46.60 52.42 56.77 57.23 56.75 56.84 56.96 56.58 56.68 57.86 60.16 61.22 61.69 63.15 65.90 66.21 65.33 65.98 65.15 62.50 60.98 59.91 58.90 58.56 57.56 58.50 59.36 59.09 57.81 58.27 58.18 57.40 56.90 57.31 57.68 56.27 55.02 53.54 52.59 52.08 51.03 50.83
42.57 43.38 45.35 45.57 49.20 49.72 47.74 48.18 52.32 55.75 55.99 56.87 57.29 57.30 57.04 57.54 58.67 61.39 62.60 63.26 63.41 65.55 66.53 65.70 64.57 63.21 61.82 62.01 61.56 60.31 58.68 57.40 57.39 56.56 56.57 57.03 57.57 58.02 57.95 57.21 56.43 55.21 54.00 53.27 52.57 51.63 51.36 50.38 49.76
47.00 44.82 44.53 46.66 48.38 47.37 46.87 48.20 51.03 54.48 55.04 55.71 57.26 57.64 58.13 58.92 60.73 62.32 63.53 64.14 64.09 65.84 65.59 64.04 62.56 62.02 63.75 63.77 60.89 59.87 57.87 57.94 57.86 57.97 57.98 57.98 57.78 57.48 57.02 55.61 54.62 54.01 52.82 52.05 52.30 51.18 50.01 49.19 50.01
46.44 45.49 44.69 47.41 48.36 48.81 47.44 47.67 50.96 54.07 54.85 55.66 56.42 57.72 58.57 59.34 60.34 62.07 63.47 64.43 64.97 64.21 64.14 63.16 63.21 63.78 64.71 64.12 62.57 61.24 59.56 58.81 58.70 58.39 58.21 58.01 57.30 56.01 55.57 54.43 53.63 53.15 51.82 51.76 51.42 50.52 48.69 48.56 49.71
46.40 45.42 45.64 45.84 48.04 48.65 48.78 47.25 49.90 52.88 55.50 56.63 57.72 58.56 59.21 59.41 60.48 61.66 62.81 63.50 62.80 61.93 62.59 63.38 64.33 64.14 63.37 61.82 60.75 60.28 59.61 58.81 57.41 57.15 56.84 56.80 56.13 55.41 54.62 53.68 53.16 52.63 51.83 50.33 50.68 50.32 48.57 45.97 47.71
44.93 49.14 47.86 46.75 46.50 42.14 49.40 40.56 47.96 51.31 52.17 54.21 56.23 57.87 58.86 60.13 61.69 62.22 62.94 62.64 63.17 64.12 64.83 64.88 62.93 61.55 60.93 60.88 59.41 58.58 57.04 55.35 57.14 58.62 58.00 56.70 55.44 54.62 53.52 52.96 52.76 52.32 51.76 50.67 50.24 49.84 49.13 48.36 45.23
47.06 49.77 48.44 47.81 46.10 45.40 46.13 42.87 45.42 51.52 49.66 51.93 55.22 57.07 59.11 60.59 61.03 60.65 61.33 62.22 62.61 63.02 62.16 61.37 60.90 60.45 60.42 60.11 59.86 59.00 58.05 58.73 58.53 57.87 56.17 55.69 55.57 54.00 52.48 52.40 52.21 51.56 50.89 50.64 50.25 50.19 49.22 47.96 45.39
51.24 49.06 48.85 48.48 46.61 40.91 44.67 43.99 43.90 48.06 50.09 52.30 54.78 56.85 58.65 59.10 59.36 58.69 59.55 59.86 59.76 61.33 61.04 60.75 60.04 59.22 59.86 59.74 59.71 58.75 57.53 56.29 55.76 54.95 54.30 53.52 53.14 52.18 52.24 51.80 51.76 51.35 50.39 49.29 48.92 49.42 48.16 46.87 46.18
49.93 47.17 40.48 39.02 39.40 38.30 46.03 43.36 44.86 49.54 51.44 52.94 54.26 56.21 58.02 58.66 57.49 56.75 56.62 56.73 57.76 58.58 59.27 59.42 58.97 58.10 59.10 59.25 58.87 57.94 56.51 55.03 53.22 52.70 52.02 50.80 50.47 50.58 51.09 51.33 50.53 49.71 49.16 48.27 48.26 47.82 47.58 46.33 45.23
48.01 46.88 41.17 33.06 35.42 39.23 45.58 39.77 46.09 52.14 53.17 54.08 56.29 57.21 57.87 57.65 57.03 56.45 56.89 57.15 57.57 58.34 58.86 58.95 58.53 57.76 58.42 58.07 56.92 56.41 54.84 54.22 53.44 51.62 51.30 50.84 50.46 50.52 51.08 50.19 49.00 47.70 47.09 46.72 47.47 47.15 46.71 46.56 46.01
47.48 43.94 48.82 42.32 42.60 38.60 41.37 45.73 50.36 51.34 51.65 52.76 55.21 56.38 56.67 56.66 56.56 56.41 57.26 57.63 58.11 58.22 58.45 58.88 58.25 57.01 56.86 55.92 55.23 54.05 53.34 52.09 50.88 51.11 51.59 50.94 51.00 49.34 48.12 47.51 46.52 46.43 46.08 45.85 45.91 46.28 45.81 45.70 44.95
49.07 50.38 42.72 43.47 33.83 33.08 39.52 40.50 43.51 47.00 48.61 51.23 53.86 55.32 56.27 56.46 56.14 56.79 57.29 57.87 58.51 58.66 59.10 59.24 58.61 56.70 55.50 54.45 53.42 52.37 50.79 50.49 51.13 50.89 49.91 48.85 47.93 47.05 46.30 45.90 45.72 45.31 45.46 45.48 45.23 44.86 44.80 43.69 43.40
47.22 45.48 45.61 45.18 43.68 36.40 34.69 41.33 47.78 47.44 49.74 50.81 53.39 55.64 56.24 56.10 56.31 56.96 57.60 58.25 58.57 58.75 58.04 57.86 56.95 55.00 53.23 52.39 51.45 50.28 49.85 50.32 50.23 49.12 47.54 46.66 46.49 46.09 45.26 44.99 44.61 44.17 44.21 44.62 44.39 43.68 42.67 41.93 41.64
49.46 47.04 46.89 40.94 39.14 41.09 40.72 40.16 49.08 49.93 50.72 52.00 53.13 55.14 56.38 56.65 57.02 57.40 57.73 57.85 57.21 56.57 56.21 55.55 54.36 53.02 52.00 50.71 48.65 49.17 49.84 49.29 48.18 46.86 46.02 46.58 45.61 45.75 45.00 44.29 43.90 43.82 43.76 43.92 42.44 40.25 41.32 40.90 40.24

GFSSGP_sfc_wetblb_048.txt.gz
Wetbulb
62.10 61.08 59.90 55.79 46.73 47.65 44.46 47.26 52.26 55.43 56.52 62.34 63.35 62.42 60.54 61.55 59.42 54.79 68.00 69.39 69.06 68.56 69.39 70.29 71.29 72.02 72.19 72.35 72.45 72.26 72.11 71.87 71.00 71.38 71.35 71.15 70.60 70.04 69.61 69.06 68.52 67.84 65.77 65.52 65.24 65.71 65.65 65.44 65.21
59.89 59.28 56.57 50.56 44.38 41.94 44.67 54.46 54.51 58.05 59.46 61.34 61.01 60.89 60.38 59.26 64.69 64.94 66.54 69.74 69.91 69.14 68.86 69.51 71.09 71.90 72.22 71.96 71.91 71.86 71.62 71.35 71.00 70.88 70.81 70.04 69.63 69.10 67.94 68.25 67.57 67.12 65.37 64.96 65.66 65.48 65.22 64.81 64.78
57.81 56.71 50.41 46.82 44.92 43.45 45.18 56.48 56.35 59.92 61.50 60.22 58.14 60.50 60.06 59.24 62.96 65.45 69.02 69.52 70.17 69.45 69.53 70.17 70.73 71.19 71.62 71.64 71.45 71.55 71.37 71.04 70.80 70.60 69.73 69.00 68.33 67.40 67.04 67.72 66.87 66.69 65.14 64.65 65.25 65.01 64.83 64.54 64.64
55.74 53.53 50.35 44.51 44.60 47.85 50.71 54.22 59.69 58.68 59.67 60.20 59.51 55.61 60.17 63.95 61.91 67.35 69.01 69.35 69.54 69.43 69.59 69.49 69.82 70.79 71.13 71.37 71.34 71.32 70.87 70.65 70.31 69.37 69.18 68.28 67.06 66.99 66.63 67.10 66.92 65.93 65.28 65.28 65.04 64.88 64.57 64.71 65.00
55.28 51.52 44.95 44.67 45.71 48.80 51.73 59.24 59.39 57.37 57.68 58.30 58.62 54.74 55.35 62.43 66.70 67.71 67.88 68.20 68.48 68.11 68.37 69.83 68.43 70.11 70.78 71.16 71.15 70.62 70.26 69.94 69.25 69.13 68.76 67.83 66.75 66.27 66.37 66.62 66.29 65.73 65.14 64.86 64.76 64.51 64.38 64.40 64.66
50.24 50.08 44.01 43.79 46.39 49.26 56.05 58.32 57.03 56.37 57.27 57.09 56.62 55.10 56.65 62.98 64.26 66.33 67.04 67.17 68.33 66.58 68.82 69.15 69.77 69.85 70.08 70.20 69.94 69.72 69.60 69.07 68.73 68.64 67.98 67.26 66.83 66.37 66.20 66.10 65.81 65.51 65.18 64.50 64.61 64.65 64.13 63.92 63.66
48.52 47.94 45.11 46.58 47.41 49.61 55.45 58.11 54.07 55.11 55.70 54.08 57.60 55.11 60.17 62.40 64.00 67.06 66.90 67.53 67.20 67.93 68.48 68.91 69.47 69.46 68.72 68.43 68.31 68.27 68.17 67.78 68.01 67.78 67.06 66.58 66.24 66.01 65.92 65.95 65.78 65.65 65.50 64.87 64.46 64.05 63.78 62.96 62.38
50.83 49.36 46.14 47.38 47.08 47.89 55.61 55.61 58.47 54.80 53.73 57.94 58.65 55.37 57.48 63.46 66.44 64.41 65.70 66.41 66.41 67.26 67.42 68.24 68.77 68.99 68.23 67.82 67.49 67.01 66.43 66.72 66.62 66.12 65.45 64.88 64.60 65.33 65.56 65.43 65.61 65.32 64.84 64.36 63.56 63.63 63.45 62.72 62.24
53.51 46.35 44.83 47.20 50.12 50.87 55.47 52.42 55.56 59.32 57.22 57.98 59.61 59.52 63.48 64.47 65.11 62.17 62.11 63.95 64.83 65.63 66.77 67.12 66.74 67.43 67.48 67.48 67.25 66.54 66.54 66.29 65.55 65.20 64.89 63.31 62.71 63.13 64.29 64.55 65.06 64.69 63.91 63.58 63.13 63.11 62.55 62.85 62.75
49.66 46.54 47.06 53.91 54.14 50.59 51.68 53.14 53.96 54.98 55.34 55.07 60.96 64.64 65.97 64.69 61.19 62.09 60.18 61.51 62.69 63.12 64.12 65.36 65.75 65.54 66.05 65.62 65.70 64.90 64.73 64.33 64.35 64.13 63.86 64.02 65.60 64.65 64.35 64.15 64.59 64.03 63.41 63.45 63.24 62.60 62.45 62.32 59.61
49.99 47.07 50.95 54.66 53.48 53.08 51.58 51.93 56.61 54.01 52.25 54.96 59.03 61.84 63.71 64.54 62.83 63.48 62.73 62.05 62.35 62.63 63.19 63.98 65.00 65.44 64.48 63.29 64.88 63.64 64.11 65.84 66.44 66.32 66.19 66.30 66.05 64.68 63.79 64.26 63.38 62.64 62.65 62.05 60.58 61.35 61.41 60.18 59.14
47.67 51.59 51.66 56.12 54.94 53.30 50.63 54.07 51.64 53.66 54.02 56.88 60.18 63.79 63.45 62.86 62.99 62.94 62.57 60.44 60.06 60.99 62.12 63.54 64.84 65.60 64.68 63.77 63.69 63.84 65.09 66.17 65.59 66.61 66.51 66.06 65.59 65.20 64.93 64.50 63.87 62.79 61.30 61.43 60.67 59.97 59.78 59.32 58.90
49.24 50.47 51.76 52.52 56.09 54.73 54.57 53.16 51.93 52.89 57.06 58.01 61.45 62.62 62.43 62.48 63.29 62.90 60.12 60.34 60.49 60.24 61.66 62.64 64.33 64.58 64.54 65.84 65.98 65.50 65.40 65.74 65.73 65.79 66.26 65.50 65.74 64.54 64.49 63.18 63.02 61.61 60.56 58.84 58.05 57.32 57.00 56.19 56.00
51.02 51.62 52.25 53.84 53.59 53.50 51.32 50.45 49.86 54.75 61.66 61.57 60.87 60.55 61.11 62.29 61.62 58.70 58.95 60.07 60.41 60.79 61.37 62.64 63.55 65.26 66.48 65.33 64.95 63.89 63.79 64.87 65.61 65.45 64.98 65.22 64.76 63.73 63.49 62.19 59.69 57.80 57.21 56.74 55.39 54.51 54.56 54.56 54.77
52.41 48.81 50.53 51.64 52.93 52.45 54.85 48.18 49.17 56.01 59.63 58.80 58.97 59.76 60.73 58.86 57.52 57.85 60.01 60.76 61.38 61.86 62.13 62.99 64.18 65.95 64.57 62.79 61.83 61.16 61.71 62.27 62.57 62.99 63.18 61.90 61.78 60.82 59.94 58.58 56.55 56.26 56.04 55.48 55.11 53.81 51.93 50.77 51.62
48.29 48.63 43.84 49.18 51.64 53.01 52.21 45.44 52.71 56.45 56.69 56.55 57.13 57.39 56.59 56.01 56.40 58.65 60.94 62.14 62.70 62.88 62.90 64.04 65.17 64.21 62.25 61.04 60.59 60.38 59.88 59.56 60.88 60.92 60.16 59.50 59.73 59.55 57.83 55.79 55.20 55.27 54.87 54.15 52.21 50.63 49.00 48.43 48.23
46.26 40.19 42.91 46.11 50.76 50.90 50.29 46.98 52.33 56.06 55.64 54.87 55.10 55.24 54.72 55.43 56.91 58.52 60.51 62.64 63.62 63.87 63.88 63.85 64.55 62.68 62.06 60.85 60.51 59.29 59.76 59.14 58.65 58.34 57.48 56.71 56.90 57.12 55.77 55.27 54.95 54.28 52.75 51.78 50.23 49.16 48.27 46.61 46.22
41.70 41.93 44.27 44.52 48.34 49.56 48.67 47.38 50.89 54.39 55.18 54.38 54.64 54.14 54.38 54.69 55.67 58.36 59.87 61.31 64.48 65.19 64.70 64.66 63.18 62.07 61.13 61.26 61.32 60.61 59.22 57.22 56.68 55.83 55.49 56.17 56.13 56.74 56.39 55.13 53.51 52.11 50.99 49.80 48.83 47.97 47.92 46.86 46.02
46.45 44.93 44.04 46.52 49.15 47.37 46.36 47.28 48.36 52.36 54.06 54.88 54.98 54.80 55.06 55.27 58.80 60.89 61.17 61.56 62.73 65.15 64.32 63.37 61.74 61.79 61.09 62.06 60.11 58.26 56.93 55.92 56.01 56.18 56.56 56.70 56.27 56.20 54.28 53.49 52.04 50.99 49.87 48.97 48.66 47.24 46.07 45.21 45.90
46.21 45.10 44.57 46.40 47.71 46.69 46.30 45.68 49.23 50.99 52.51 55.05 55.66 55.56 55.84 56.86 58.64 60.54 61.78 62.85 63.26 63.95 63.22 63.01 62.66 61.83 62.31 63.06 60.83 59.99 57.61 56.50 56.49 56.63 56.65 56.77 56.02 54.47 54.14 51.79 51.09 50.49 48.91 48.62 48.25 46.90 45.50 44.56 45.18
46.11 44.73 44.81 45.13 47.21 47.43 46.97 44.30 47.59 51.08 52.55 54.08 56.01 57.52 57.89 58.01 58.31 59.95 61.30 62.25 64.11 63.30 62.41 62.20 62.76 62.26 63.19 62.07 60.69 59.16 58.39 56.76 55.36 55.52 55.11 55.25 55.01 54.05 52.68 51.62 50.77 49.57 48.58 47.02 47.14 46.46 45.33 42.54 43.34
43.80 48.84 47.77 46.28 43.73 39.91 47.58 38.02 45.98 48.75 50.44 52.69 54.32 55.75 57.05 58.25 59.61 60.89 61.34 61.33 62.21 61.69 62.82 63.02 63.14 63.25 62.23 60.15 58.44 56.77 55.12 53.71 55.14 54.73 55.43 54.53 54.20 53.07 52.23 50.99 49.94 49.12 48.57 47.35 46.51 46.67 45.31 44.20 41.49
45.36 48.93 47.91 47.21 45.01 43.92 42.65 40.09 44.30 48.41 47.90 51.00 54.48 56.10 57.53 59.00 59.80 60.57 60.76 61.49 61.66 62.61 62.60 63.36 63.04 60.89 59.65 59.55 58.50 57.21 56.93 54.72 56.25 55.26 54.54 54.45 54.18 53.38 51.66 50.40 49.47 48.47 47.74 47.40 46.70 45.67 44.26 43.63 41.86
51.01 48.59 48.02 47.60 45.69 38.26 41.61 41.67 41.93 44.79 47.43 51.13 53.84 55.92 57.74 58.81 60.45 60.42 61.73 61.93 61.62 63.17 62.50 60.29 59.12 58.54 59.15 58.99 59.01 58.08 57.32 55.25 53.99 53.26 52.68 52.29 52.43 50.89 50.58 50.36 49.02 48.31 47.46 46.29 44.99 44.43 43.67 42.96 42.29
48.56 45.62 39.06 34.31 35.50 36.71 44.57 42.39 44.56 47.40 51.94 52.60 53.65 55.57 57.79 59.25 59.25 58.87 59.50 59.53 59.18 59.07 59.30 59.22 58.67 57.54 58.40 58.51 58.25 57.71 56.03 54.46 52.77 51.24 50.66 49.09 48.86 48.16 48.39 48.69 47.58 46.42 45.43 44.50 44.13 43.14 42.58 42.71 41.45
45.59 44.99 37.64 31.82 34.32 38.43 44.72 39.85 44.86 51.35 52.57 54.77 55.86 56.45 58.23 57.84 57.84 57.14 57.48 57.13 57.53 58.15 58.37 58.23 57.77 56.90 57.94 58.14 57.39 56.18 55.14 52.94 51.58 50.16 49.86 49.08 48.15 48.03 48.60 46.81 45.64 44.93 44.51 43.55 43.00 41.98 41.91 42.05 41.64
45.75 43.84 48.20 42.04 43.19 39.72 40.23 42.55 49.79 51.14 51.18 52.75 54.15 55.57 56.35 57.02 56.44 56.01 56.21 56.50 56.78 57.21 57.92 58.43 57.36 57.21 57.34 56.59 55.51 53.53 52.62 50.96 49.42 49.74 49.71 48.81 48.57 47.36 45.50 44.40 43.96 43.61 43.46 43.18 42.57 41.40 41.23 42.10 40.40
47.53 49.19 42.56 43.35 33.90 32.13 38.29 40.47 42.40 46.36 48.04 50.56 53.03 54.60 56.25 57.00 56.56 55.98 55.98 56.58 57.01 57.57 57.89 58.37 58.33 55.92 56.09 54.99 53.58 52.29 51.29 50.12 50.45 49.29 48.33 47.10 45.39 44.96 44.07 43.41 43.12 42.72 42.45 42.11 41.69 40.92 41.17 39.38 39.50
46.33 44.67 44.60 43.90 43.55 36.27 34.37 38.69 47.78 47.38 49.39 49.73 51.98 55.17 56.18 56.42 56.21 56.03 56.29 56.91 57.54 57.64 57.51 57.90 57.55 54.87 53.75 53.04 51.94 49.87 48.78 49.89 48.73 48.55 46.24 44.67 44.25 43.96 43.45 43.06 42.40 41.89 41.48 41.55 40.88 40.57 39.24 37.95 38.19
48.46 46.18 46.21 41.74 38.63 41.99 40.69 39.45 49.50 50.01 50.94 51.52 52.16 54.91 56.68 57.02 56.51 56.32 56.71 56.85 56.50 56.96 56.23 56.86 56.56 54.00 52.67 51.10 49.10 48.37 48.80 48.90 48.17 46.22 44.94 44.41 43.38 43.97 43.30 42.83 42.25 42.19 41.55 40.93 40.31 38.48 38.57 38.14 37.38

GFSSGP_sfc_wetblb_051.txt.gz
Wetbulb
59.29 57.44 55.18 50.23 39.45 37.67 35.46 40.28 46.77 55.36 55.76 58.95 61.65 60.36 58.82 59.72 57.80 53.19 66.98 66.51 67.46 69.14 70.97 71.52 71.39 71.87 72.08 72.04 72.13 72.09 72.00 71.80 71.45 71.65 70.94 70.51 69.73 69.25 68.96 68.14 67.55 67.07 65.84 66.33 66.15 65.90 65.46 65.21 64.86
54.71 56.19 52.48 45.80 35.44 30.64 35.47 47.85 52.29 53.94 58.58 59.14 59.32 60.70 59.75 58.63 63.32 64.05 65.06 66.97 67.96 69.12 70.21 71.06 70.73 71.37 71.69 71.75 71.66 71.48 71.60 71.44 71.40 70.68 70.10 69.63 68.57 68.36 67.19 67.05 67.10 66.61 65.95 66.10 65.90 65.56 65.15 64.62 64.52
56.60 54.52 43.82 38.41 34.25 33.87 36.28 49.63 54.89 56.93 59.19 58.65 56.64 58.45 59.18 59.11 63.32 65.04 67.70 67.75 67.72 67.78 69.85 70.73 70.49 70.89 71.09 70.97 71.19 71.12 70.96 70.64 70.04 69.67 69.38 68.69 67.97 66.61 66.34 67.19 66.81 66.48 65.82 65.77 65.54 65.28 64.70 64.49 64.86
50.91 46.96 44.40 36.56 35.63 40.68 43.09 51.58 56.04 55.51 56.91 57.94 56.68 53.78 58.95 61.63 62.51 66.60 68.25 68.26 66.88 67.99 69.74 69.13 69.62 70.32 70.85 71.24 70.97 70.65 70.40 69.55 69.23 69.03 68.53 67.85 66.83 66.40 66.30 67.07 66.78 65.96 65.49 65.30 65.23 64.70 64.42 64.72 64.53
47.72 43.84 36.74 35.04 37.83 43.40 54.41 54.74 56.33 53.89 55.11 55.20 56.02 52.43 54.77 61.06 66.25 66.68 67.01 67.90 67.42 67.69 68.40 68.68 68.55 69.90 70.66 71.14 70.59 70.21 69.55 68.96 68.81 68.34 67.88 67.59 66.23 66.03 66.02 66.67 66.42 65.69 64.93 64.91 64.86 64.47 64.10 64.08 63.72
44.02 42.23 34.28 34.01 39.66 51.57 54.23 54.49 54.88 53.82 54.64 54.14 54.05 53.01 53.70 61.98 63.95 65.60 66.34 65.48 66.60 66.40 67.43 68.36 69.02 69.36 69.55 70.04 69.62 68.88 68.35 68.46 68.03 67.37 67.25 66.94 66.79 66.54 66.36 66.32 66.14 65.70 65.28 64.97 64.64 64.58 63.76 63.22 62.91
41.65 38.58 36.48 38.43 41.60 49.27 53.06 57.24 53.25 53.98 52.16 51.79 56.26 53.43 56.35 58.77 63.81 65.65 64.98 64.50 65.40 67.03 66.54 67.84 68.27 68.63 68.44 67.86 67.82 67.21 67.45 67.41 67.09 66.63 66.07 65.86 65.70 65.59 66.13 66.15 66.14 65.69 65.54 65.36 64.70 63.82 62.94 62.36 62.26
44.51 40.38 37.86 40.55 45.07 46.03 54.09 54.91 55.98 53.08 51.77 57.77 58.08 54.16 54.78 58.79 64.50 65.42 64.69 64.12 64.45 66.18 66.41 66.90 66.88 67.65 67.12 67.03 66.36 66.03 66.07 65.87 65.33 65.25 64.77 64.53 64.58 64.91 65.32 65.14 65.48 65.40 65.06 64.62 64.30 63.77 63.29 62.64 61.87
45.28 37.72 36.75 40.02 47.28 49.64 54.26 51.84 55.96 55.87 55.58 55.37 56.12 56.29 61.60 62.40 62.35 62.40 62.55 62.87 63.68 64.83 65.49 66.54 66.56 66.65 66.52 66.07 66.02 65.76 66.05 65.02 64.53 64.25 64.05 62.54 62.06 62.55 63.65 63.61 64.63 64.82 64.21 63.74 63.76 63.21 62.79 62.08 61.56
41.92 36.46 39.87 49.94 50.80 50.01 52.12 51.90 53.62 53.43 52.89 53.87 58.74 60.70 62.11 60.02 59.90 59.90 60.40 59.89 61.55 63.44 64.11 64.60 66.08 65.78 65.54 65.79 63.86 63.66 64.55 62.80 62.38 62.05 61.80 60.97 60.70 61.15 63.29 63.40 64.07 64.27 63.81 63.35 63.20 63.20 62.07 61.01 57.00
43.00 39.89 47.81 51.35 52.81 51.76 50.65 51.96 54.42 51.89 50.00 53.58 56.54 58.75 60.02 59.24 57.85 59.81 58.06 59.79 60.05 62.45 63.16 64.83 64.87 64.78 63.27 63.70 62.43 62.02 61.72 61.41 61.39 61.31 61.47 61.65 63.36 61.65 62.83 61.83 62.50 61.19 62.50 59.77 61.04 59.50 58.21 57.13 56.41
41.22 46.59 50.11 53.01 52.69 52.22 50.50 52.07 51.61 52.58 51.85 56.25 60.18 61.69 58.07 57.78 58.80 59.21 58.45 58.72 60.65 61.26 61.25 61.64 62.37 62.94 61.14 63.41 61.64 60.84 61.91 62.96 62.50 63.79 64.54 63.87 63.40 62.68 62.57 61.87 61.76 61.81 59.86 56.82 55.68 54.52 54.43 54.34 54.60
44.56 46.66 49.31 54.56 53.13 52.83 53.99 50.21 51.61 52.12 55.36 57.19 63.04 62.53 59.73 58.96 59.68 61.26 61.80 60.37 60.06 59.86 60.26 60.40 61.19 60.56 60.37 62.48 63.29 63.77 63.33 63.75 63.87 64.03 64.12 63.74 63.06 61.47 61.23 59.37 57.72 56.44 54.89 53.44 52.45 52.39 52.71 52.59 52.71
49.39 49.24 49.15 50.99 51.71 51.43 50.99 51.29 48.67 54.60 55.51 56.52 59.81 60.24 58.67 57.92 60.07 60.80 60.37 58.09 58.91 59.67 59.54 60.08 60.56 61.52 63.38 62.01 60.95 61.17 62.58 63.13 63.17 62.39 62.48 62.07 61.47 60.30 57.52 56.65 54.96 53.66 53.25 52.83 52.12 50.71 49.42 48.25 49.02
48.73 45.26 47.49 49.11 49.97 48.73 49.51 47.31 46.61 51.99 55.85 57.23 57.91 58.74 57.12 55.16 58.61 59.07 57.77 57.73 58.83 59.59 60.25 59.80 60.99 61.84 60.17 59.41 59.67 59.51 60.30 60.96 61.67 60.20 59.54 59.10 59.06 57.33 55.78 54.19 53.01 52.89 52.53 51.72 49.65 47.61 47.24 46.60 47.62
45.64 45.30 40.61 48.03 50.87 51.42 49.80 43.41 49.59 52.47 53.79 53.29 55.53 56.77 58.03 54.04 55.82 57.20 58.41 58.42 59.09 59.40 59.72 60.66 63.43 59.49 58.44 57.77 57.78 57.67 57.55 59.01 58.64 57.35 56.17 56.29 56.58 55.05 53.30 52.52 51.76 52.15 50.52 48.56 47.64 46.52 45.72 44.90 44.49
43.25 38.74 40.51 43.48 51.29 49.95 48.64 44.65 49.52 51.84 53.16 51.57 51.13 50.49 52.12 52.68 54.66 57.35 58.70 59.19 59.32 59.97 60.60 61.13 59.71 58.56 58.46 57.64 57.00 56.88 56.54 56.21 56.11 54.95 53.68 53.80 53.96 53.87 52.62 51.54 50.01 49.80 48.81 47.53 47.11 45.61 44.98 43.54 43.43
39.24 39.52 41.17 40.62 46.39 48.86 46.77 44.03 47.65 51.05 52.16 50.48 49.51 49.23 50.10 51.48 52.97 56.68 59.28 60.32 60.42 60.91 61.99 60.39 60.32 59.15 57.88 57.81 57.83 57.07 55.96 54.38 52.92 52.17 52.19 52.92 53.28 53.84 52.49 50.94 48.47 48.65 47.19 46.23 45.75 44.85 44.60 43.70 43.04
44.07 42.93 40.24 42.96 46.29 45.05 46.01 44.76 47.09 49.34 50.68 49.10 48.21 48.22 48.91 50.73 52.97 54.25 56.29 60.60 60.84 61.35 61.45 60.48 59.48 58.80 58.68 57.89 56.91 55.36 53.18 51.86 51.35 51.72 52.84 53.01 53.26 52.28 50.25 49.37 48.42 47.37 46.30 45.51 45.77 44.36 43.15 42.76 42.57
44.34 42.53 42.42 45.20 46.34 44.02 41.60 42.40 45.79 48.23 50.38 51.20 50.10 48.99 49.64 51.27 54.67 56.42 56.81 60.84 61.06 60.88 60.80 59.80 59.44 58.57 58.58 60.05 57.92 55.52 53.31 51.70 51.77 52.25 52.63 52.94 51.69 51.16 50.19 48.23 47.13 46.44 45.34 44.73 44.26 43.37 42.65 41.90 42.38
45.04 43.69 42.29 42.50 45.13 44.15 43.36 40.05 42.20 46.92 48.96 52.17 52.56 52.23 52.42 53.48 54.59 56.16 57.65 58.06 60.61 60.12 59.90 60.06 59.76 59.39 59.51 60.92 57.41 55.12 52.93 51.78 50.89 50.94 51.19 51.54 51.59 50.80 49.51 48.40 47.21 45.93 45.36 43.87 43.39 42.86 41.57 40.07 40.80
41.92 47.33 46.57 44.43 41.54 35.57 43.21 32.94 41.10 45.17 46.64 48.82 51.64 51.50 51.96 53.33 56.38 56.91 57.48 58.99 59.78 59.60 60.58 60.95 60.66 59.58 59.99 60.65 56.35 53.28 50.29 50.09 50.11 50.72 50.89 50.68 51.19 49.97 49.21 47.85 46.80 45.91 45.30 43.87 43.49 44.50 42.11 40.68 38.46
44.27 47.70 46.05 45.73 42.06 39.82 39.92 36.53 40.16 45.53 45.08 46.76 48.24 50.79 53.11 54.96 56.17 57.00 58.11 59.63 60.11 60.21 60.57 59.39 59.81 59.79 59.95 56.85 54.89 52.44 50.67 51.03 51.64 52.09 51.87 50.65 50.32 49.49 49.10 47.38 45.59 45.17 44.76 43.84 42.63 41.16 41.04 40.56 38.91
48.53 45.98 45.75 43.79 41.59 32.96 40.53 38.70 36.44 40.92 45.68 48.60 50.81 51.47 52.40 53.31 56.59 58.20 59.61 60.12 59.60 59.22 58.74 58.96 59.50 58.87 55.06 54.09 53.65 52.53 51.19 51.85 51.83 51.36 51.18 50.40 50.13 48.27 46.95 46.91 44.79 44.33 43.01 41.44 40.66 40.30 39.53 38.97 39.14
45.91 41.45 32.93 30.79 30.38 30.71 43.49 39.75 39.73 46.34 48.05 49.76 49.76 50.85 52.21 54.57 56.10 57.94 58.72 58.08 58.85 57.82 58.72 59.31 57.63 53.75 53.93 53.89 53.59 52.54 50.70 49.79 49.45 48.03 46.45 45.17 45.65 46.06 45.44 44.30 43.12 42.00 41.25 41.01 40.35 39.44 38.70 38.44 38.06
43.91 42.36 33.15 28.13 29.43 32.22 42.65 37.39 40.87 47.90 49.62 51.53 52.18 50.77 53.57 53.73 54.39 56.36 57.75 57.96 58.81 56.01 53.94 56.10 53.44 53.38 53.95 53.98 52.76 51.36 50.07 48.25 46.69 46.55 47.42 46.68 46.15 46.37 42.72 41.62 41.18 40.91 41.11 40.55 39.80 38.70 38.48 38.50 37.93
43.72 39.30 45.33 37.28 35.45 29.10 35.27 40.01 45.50 47.98 48.27 50.20 49.96 51.96 51.94 52.46 52.17 53.10 52.94 54.42 53.43 53.24 53.29 52.73 52.66 53.14 53.92 53.72 51.44 49.52 47.05 46.25 46.50 46.69 46.59 46.64 45.08 44.82 42.07 40.40 39.90 40.03 39.98 40.15 39.28 38.47 37.80 37.54 36.87
45.33 46.83 37.01 36.25 27.73 25.98 33.17 35.30 37.66 43.70 46.28 48.25 49.16 50.53 51.57 52.19 51.53 51.35 51.80 53.13 53.65 53.46 53.98 53.72 53.08 53.65 53.86 52.95 51.16 49.76 46.30 46.92 46.76 47.15 46.91 45.37 43.43 42.92 42.04 40.37 39.78 39.75 39.81 39.37 38.92 37.57 37.83 36.14 35.74
42.39 40.40 41.10 39.97 36.51 28.35 25.94 32.31 42.47 44.08 45.92 45.79 48.05 51.63 52.06 51.74 51.04 50.62 50.66 53.13 53.39 53.58 53.70 53.48 52.97 53.59 52.18 50.84 49.01 46.74 46.95 47.95 47.48 47.00 45.15 43.18 42.78 42.24 40.79 40.42 40.43 40.07 39.33 38.86 38.10 37.51 37.04 36.50 35.80
44.97 42.71 42.39 30.69 33.05 33.95 29.30 32.32 44.39 45.10 46.63 47.01 47.11 52.23 52.95 53.05 52.31 51.41 51.02 51.89 53.15 54.23 55.42 55.26 53.42 51.95 50.22 47.69 47.33 48.34 48.10 47.65 47.14 46.11 43.47 43.06 42.01 41.73 40.77 40.42 40.32 39.71 39.21 38.93 37.89 35.85 36.88 35.99 35.67

GFSSGP_sfc_wetblb_054.txt.gz
Wetbulb
58.07 56.62 53.05 48.97 39.01 36.05 33.05 37.35 43.21 46.96 53.58 57.50 61.30 60.08 58.33 59.10 56.69 50.70 64.81 66.15 68.89 69.84 71.14 71.16 71.39 71.79 71.82 71.96 71.89 71.85 71.85 71.61 70.52 70.15 70.04 69.51 68.70 68.25 67.81 67.54 67.59 67.42 66.42 66.06 65.57 65.20 64.98 65.10 64.97
54.60 54.81 50.61 43.01 34.20 30.03 33.13 42.61 50.88 53.26 57.46 58.21 58.87 60.15 59.34 58.66 63.46 63.67 63.31 67.49 69.19 69.72 70.90 70.66 71.08 71.26 71.58 71.48 71.47 71.29 71.37 70.82 70.63 69.50 68.85 68.75 67.62 67.47 66.03 66.40 67.30 67.30 66.04 65.67 65.20 65.04 64.58 64.54 65.26
54.84 53.02 43.46 38.48 31.66 31.25 33.33 47.08 52.70 55.36 58.26 56.75 55.12 58.16 58.64 58.34 62.71 65.10 65.87 66.86 69.32 69.42 70.27 70.65 70.29 70.58 71.29 71.11 70.69 70.93 70.89 70.39 69.94 68.97 68.62 68.15 67.01 66.23 66.11 66.87 67.15 67.06 65.74 65.34 65.05 64.67 64.32 64.28 65.15
49.20 45.06 41.86 35.06 33.01 37.71 41.01 49.97 55.70 54.11 54.98 56.26 55.39 53.64 58.54 63.07 64.36 66.83 66.90 67.86 68.27 69.53 70.23 69.52 69.56 70.26 70.76 70.62 70.73 70.57 69.94 69.44 68.78 68.31 67.99 67.45 66.36 66.48 66.27 67.14 66.93 66.14 65.43 65.04 64.72 64.27 64.02 64.62 64.28
45.90 40.99 35.34 31.70 36.16 42.93 52.20 53.39 54.58 53.04 52.97 54.16 53.70 50.96 55.07 64.02 66.46 65.92 66.77 67.62 67.28 67.93 68.71 68.54 68.25 69.69 70.10 70.46 70.49 69.77 69.19 68.68 68.10 67.89 67.54 67.12 66.43 66.19 66.32 66.80 66.44 66.25 65.14 64.68 64.11 63.73 64.33 63.91 64.01
42.70 39.75 32.67 32.03 37.49 50.07 52.17 54.20 54.71 53.53 53.80 53.60 52.80 52.19 53.47 64.13 64.39 64.81 65.83 66.48 65.81 65.80 66.64 67.23 68.27 68.45 68.90 69.63 69.23 68.56 68.32 67.83 67.47 67.19 66.90 66.98 66.78 66.28 66.04 66.26 66.00 65.89 65.36 65.08 64.48 64.12 63.61 63.41 63.88
40.34 37.38 33.65 37.28 38.47 45.88 51.13 55.98 53.44 53.07 53.29 53.01 53.99 51.86 55.66 61.59 63.82 64.31 64.81 65.29 65.52 66.07 65.89 66.37 66.63 67.42 67.73 67.62 67.28 67.13 67.30 66.82 66.59 66.31 66.00 66.00 65.76 65.75 65.97 65.97 65.98 65.71 65.40 64.88 64.36 63.64 62.82 62.88 63.14
42.51 39.25 34.20 36.45 42.67 45.07 53.19 54.30 54.95 52.81 51.77 57.13 56.34 52.97 51.82 60.93 63.29 63.21 63.29 64.68 64.37 64.05 64.52 65.85 66.93 66.72 66.66 66.34 66.14 65.99 65.90 65.45 65.33 65.10 64.73 64.32 64.49 64.88 65.24 65.13 65.47 65.42 64.93 64.04 63.71 62.94 62.27 62.13 62.34
43.98 36.52 33.76 36.97 45.60 47.77 52.69 49.88 54.34 55.37 53.94 54.47 56.56 57.72 59.88 62.84 62.69 61.03 60.93 62.64 62.85 64.11 63.71 65.76 65.09 65.58 65.91 65.08 65.58 65.61 65.54 64.78 64.36 64.29 63.97 62.53 61.40 61.87 62.84 63.23 64.51 64.53 63.86 63.21 63.22 62.47 61.82 61.03 61.61
40.73 34.84 37.15 42.73 49.25 48.75 50.67 49.79 52.59 51.81 51.32 54.89 57.11 61.06 61.80 62.27 60.95 59.83 60.16 60.29 60.94 61.95 63.73 64.86 64.69 65.25 65.05 64.83 63.57 63.05 63.11 62.13 61.55 61.14 60.70 60.16 60.22 60.74 62.66 62.73 63.71 63.83 62.88 62.93 62.63 62.31 61.06 58.69 55.54
41.17 38.57 45.28 49.59 50.43 50.71 50.31 50.35 52.77 51.01 48.27 53.86 55.40 57.70 59.26 59.99 59.17 58.87 59.72 60.39 60.77 62.31 62.45 63.94 64.59 64.96 63.28 62.53 61.74 61.50 60.73 60.47 60.07 60.29 59.71 60.20 61.07 61.12 60.59 60.62 60.95 59.80 61.09 58.64 57.78 55.73 54.79 53.52 53.10
40.07 43.97 48.46 50.19 51.03 50.07 48.67 51.10 50.83 50.66 50.37 58.35 59.45 59.33 57.88 58.44 57.40 57.85 58.07 58.31 58.97 60.85 61.96 64.24 64.61 63.20 61.65 61.24 60.22 60.39 60.18 60.75 60.74 60.58 61.46 61.10 61.41 60.58 60.67 60.48 59.59 57.39 55.21 53.36 52.70 52.19 52.21 50.87 50.87
42.21 44.21 50.62 51.84 51.82 50.97 52.06 48.78 50.31 50.63 54.97 58.83 57.87 58.92 57.68 57.35 56.80 58.35 58.51 58.81 59.28 60.70 61.08 62.96 63.52 60.77 60.68 60.73 60.37 61.12 61.95 62.57 62.77 62.75 62.86 62.68 61.13 59.69 57.31 55.69 54.99 53.69 52.89 51.87 50.41 49.33 48.47 48.07 47.70
46.85 50.36 50.40 50.31 50.20 51.44 49.99 49.79 48.25 51.77 55.12 58.54 58.64 57.33 57.57 57.69 57.33 58.09 58.21 57.81 59.88 60.12 59.45 61.08 61.70 60.19 62.00 61.00 61.73 61.73 62.56 62.16 61.41 61.19 60.95 61.55 59.14 56.19 55.23 53.95 52.68 51.70 51.54 49.83 47.96 46.44 45.72 45.13 45.76
46.92 43.85 47.04 47.10 46.75 47.46 49.39 45.05 46.31 52.41 55.14 57.22 58.26 57.00 58.21 57.55 58.56 58.34 59.23 58.34 59.35 59.57 59.95 59.56 61.14 61.29 60.51 60.47 60.22 59.80 60.86 60.61 59.17 58.24 58.31 57.88 57.52 55.68 54.05 52.96 51.87 51.00 49.83 47.75 46.69 45.77 45.21 44.65 45.41
42.54 41.67 37.79 46.83 49.24 49.99 47.07 41.94 48.16 51.81 54.33 55.19 56.94 56.45 58.18 56.83 57.55 59.41 60.32 59.92 59.64 59.60 59.25 61.30 61.53 59.69 58.53 57.90 58.10 58.84 58.97 58.45 57.44 56.45 55.75 56.65 55.28 53.58 51.69 51.12 50.46 49.15 47.52 46.39 45.58 44.67 43.80 43.13 42.70
42.43 37.79 39.29 44.27 50.11 48.62 46.80 42.50 48.12 51.25 52.14 53.55 55.50 54.73 54.83 56.63 57.81 59.08 59.02 58.59 58.94 59.16 59.04 59.46 58.72 57.93 57.57 56.64 56.56 56.32 56.50 55.56 54.81 53.35 53.05 53.46 53.53 52.92 50.83 48.83 48.03 47.75 46.55 45.41 45.90 44.05 43.33 41.96 42.15
38.67 39.36 41.27 40.15 46.48 47.13 45.13 43.68 45.58 49.47 51.58 51.06 53.51 53.90 51.07 53.41 55.21 57.08 57.35 58.32 58.67 59.03 60.31 58.75 58.20 57.45 56.50 56.20 55.90 55.08 54.20 53.43 52.54 51.67 51.63 52.13 52.39 52.52 50.60 47.74 47.17 46.60 45.39 45.07 44.21 42.88 43.00 42.18 41.36
44.23 42.26 38.86 42.42 45.58 44.98 45.07 44.23 45.26 48.17 49.51 47.27 47.99 51.80 51.11 52.38 54.66 56.53 57.03 57.60 57.98 59.09 59.22 58.53 57.49 56.76 56.66 56.02 56.10 54.91 52.07 51.65 50.60 50.77 51.71 52.00 51.64 51.93 48.89 47.24 46.13 45.51 45.16 44.27 43.96 42.86 42.09 41.36 41.31
44.21 41.38 40.16 43.26 44.86 45.94 41.59 42.57 44.76 47.78 49.97 49.38 48.84 48.81 49.37 49.97 52.17 55.87 56.82 57.09 57.79 59.46 59.09 58.44 57.79 57.06 56.85 57.70 56.12 55.05 52.90 50.86 50.35 50.66 51.15 51.91 50.60 49.08 48.32 46.67 45.47 45.07 44.20 43.56 42.89 42.22 41.31 40.42 40.67
42.93 40.81 40.95 40.73 42.88 42.10 40.22 38.49 41.75 46.09 49.39 50.09 50.39 49.96 50.49 51.06 51.14 54.62 56.70 57.07 58.39 58.89 58.82 58.38 58.15 57.56 57.52 58.57 57.16 53.37 51.48 50.18 49.59 49.56 49.69 49.66 50.00 49.81 48.23 46.82 45.67 44.76 44.09 42.64 42.14 41.30 40.27 38.82 39.22
39.98 45.70 44.67 42.82 38.16 33.63 40.17 31.16 38.30 42.88 46.25 48.80 49.25 47.81 48.30 51.64 53.25 55.85 57.12 57.63 58.20 58.94 59.23 59.10 58.75 58.19 58.05 59.25 56.80 52.34 50.21 49.40 49.22 49.38 49.61 49.33 49.94 49.03 48.21 47.15 45.69 44.52 43.97 42.77 42.48 42.38 39.97 38.80 36.73
42.36 45.58 44.44 43.72 39.29 37.38 39.28 34.89 37.77 42.80 42.77 44.87 48.46 48.65 49.16 52.62 53.77 55.47 57.79 58.70 59.44 59.34 59.17 59.25 59.27 59.28 58.66 59.24 56.51 52.88 49.66 49.69 49.35 49.74 49.14 48.98 48.42 48.21 47.05 45.75 44.61 43.78 43.39 41.72 40.17 39.05 38.67 38.44 37.24
47.05 43.95 43.47 41.59 39.11 32.26 39.79 35.88 35.36 39.55 43.45 47.12 47.95 50.21 50.15 52.43 54.08 55.61 58.47 59.50 59.10 59.66 59.58 59.47 59.32 58.73 58.34 57.88 54.51 53.07 50.55 49.73 49.55 49.45 48.72 48.56 48.36 46.49 46.44 44.98 43.67 42.46 40.97 39.85 39.20 38.29 37.46 36.75 36.55
44.03 38.59 30.20 28.28 28.53 28.97 40.56 36.49 38.67 43.62 46.57 46.76 47.44 48.53 49.66 52.15 53.19 55.82 57.74 58.36 58.73 58.86 59.24 59.24 58.48 57.77 55.46 54.08 53.33 51.79 50.51 50.04 49.94 49.47 48.23 46.40 44.99 45.36 44.52 43.55 43.35 42.05 41.06 40.64 39.14 37.60 36.97 36.41 35.60
42.71 39.76 30.36 26.60 26.40 29.36 40.28 34.47 39.14 46.28 48.35 48.80 48.97 48.23 51.52 52.11 55.23 56.41 57.19 57.86 57.94 58.14 57.77 58.82 58.11 54.43 52.30 52.28 51.40 50.02 49.21 47.99 47.33 48.00 47.11 46.49 45.99 44.07 43.22 41.78 42.37 41.41 41.40 40.36 37.85 37.09 36.61 37.11 36.17
42.13 37.91 42.40 35.25 32.22 28.23 34.23 37.50 43.94 46.60 47.70 48.52 47.57 49.06 50.58 51.90 55.27 56.02 56.55 56.82 57.07 56.42 56.10 56.16 54.51 52.59 52.18 51.34 49.55 47.69 47.46 46.46 47.66 47.27 46.64 45.16 43.98 43.48 42.38 42.06 41.43 40.03 38.63 38.20 37.85 36.82 36.49 35.78 34.80
43.27 45.16 36.57 35.05 26.84 25.24 30.76 33.20 36.37 41.72 44.13 46.63 46.05 47.72 50.37 51.11 52.17 53.76 55.42 55.27 54.93 54.71 51.89 51.52 53.23 53.33 52.68 50.50 49.44 48.45 47.63 46.75 47.66 47.84 46.14 43.99 43.46 43.01 42.54 41.00 40.04 39.15 38.66 38.61 38.54 37.26 36.51 35.73 35.16
40.40 38.82 39.23 38.35 33.79 27.75 25.13 30.86 39.97 43.35 45.18 46.52 47.24 49.79 50.56 50.69 51.00 52.36 53.65 54.41 54.11 53.23 52.34 51.56 51.78 52.15 51.61 49.78 47.27 46.91 47.76 47.72 47.49 46.05 44.33 43.18 43.07 42.34 41.49 41.19 39.37 39.16 38.93 39.77 38.02 36.50 36.93 36.80 35.49
43.26 40.70 40.68 30.08 31.19 31.35 27.66 30.92 42.62 44.23 45.79 45.81 46.78 50.41 51.34 51.97 51.15 51.73 52.33 52.90 52.20 52.72 52.67 52.34 52.74 52.82 49.20 47.07 46.86 47.64 47.73 48.43 47.43 44.96 43.82 43.81 41.98 42.16 41.13 39.90 39.09 39.32 38.87 39.17 37.38 35.59 35.39 35.29 34.59

GFSSGP_sfc_wetblb_057.txt.gz
Wetbulb
56.93 53.89 51.61 47.84 38.60 35.27 31.58 36.24 40.87 41.81 51.05 57.95 60.75 59.26 57.36 58.02 55.29 48.73 63.18 65.32 68.99 69.83 70.75 71.01 70.98 71.50 71.37 71.51 71.49 71.64 71.35 70.34 69.33 68.81 69.00 68.59 68.07 67.78 68.02 68.02 67.94 67.36 65.75 65.54 65.67 65.48 66.23 67.61 68.29
53.38 53.84 48.12 40.76 33.70 28.94 31.76 38.44 49.69 50.85 55.87 58.66 58.15 58.68 58.60 57.70 62.99 62.47 62.02 67.56 69.62 70.44 70.67 70.71 70.83 70.98 71.33 71.17 71.19 71.35 71.15 69.93 69.13 68.55 68.16 67.68 67.29 67.07 67.02 67.27 67.39 67.08 65.85 65.60 65.28 65.33 65.27 65.71 66.89
52.91 50.02 43.37 38.15 30.31 30.13 32.24 42.42 47.51 54.62 57.19 55.91 54.32 58.01 57.95 57.77 63.57 62.68 65.91 68.20 69.49 69.88 70.03 70.40 69.98 70.31 70.87 70.84 70.92 70.90 70.60 69.81 68.83 68.41 67.97 67.05 66.88 66.27 66.78 67.57 66.86 66.72 65.66 65.20 65.09 64.66 64.47 64.84 65.23
47.91 43.96 40.60 35.10 32.42 36.07 38.80 49.28 51.25 52.89 54.24 55.30 54.43 52.56 59.05 64.05 64.49 65.28 67.43 68.85 68.65 69.66 70.00 68.96 68.84 69.56 70.40 70.79 70.77 70.39 69.84 68.74 68.30 67.90 67.72 67.07 66.27 66.27 66.69 66.98 66.73 66.59 65.23 64.89 64.83 64.62 64.67 64.63 64.79
44.20 40.11 34.41 31.36 33.44 40.14 50.78 52.10 53.82 51.92 52.09 52.96 52.78 51.10 55.60 63.58 65.89 65.66 66.89 68.24 68.04 68.87 69.25 68.02 67.66 69.07 70.22 70.60 70.37 69.68 69.13 68.28 67.93 67.67 67.49 67.43 67.19 66.90 66.94 66.76 66.63 66.20 65.39 64.40 64.34 65.05 64.75 64.00 63.82
41.40 38.71 32.42 31.55 34.38 46.96 51.10 53.29 53.68 52.87 53.01 53.50 52.26 52.03 56.06 63.96 63.94 65.67 66.81 65.86 66.47 65.88 66.71 67.67 68.37 68.23 68.83 68.88 69.02 68.49 68.16 67.81 67.30 67.05 66.99 67.27 67.16 66.81 66.71 66.56 66.28 66.10 65.57 65.05 64.37 64.44 64.61 64.19 63.45
39.71 37.16 33.88 33.11 36.35 40.70 49.90 54.27 51.97 52.31 51.55 51.97 55.24 51.32 56.92 61.48 63.56 64.47 64.83 64.68 65.04 65.17 65.21 65.95 66.25 66.44 66.48 66.70 67.57 67.23 67.18 67.02 66.79 66.67 66.53 66.15 65.88 65.72 66.01 66.01 65.84 65.61 65.25 64.99 64.46 63.89 63.96 64.14 63.51
42.09 38.87 32.84 34.30 36.31 41.11 51.71 52.66 53.09 51.00 49.79 56.35 56.97 51.55 53.27 60.80 63.66 64.26 64.13 64.23 64.45 64.96 65.16 64.62 64.70 65.67 65.90 65.84 66.34 66.07 65.94 65.78 65.82 65.91 65.42 64.80 64.87 65.19 65.44 65.26 65.48 65.29 65.01 64.54 64.06 63.51 63.14 63.49 62.85
41.20 35.63 32.99 35.10 40.72 45.36 51.26 48.69 52.92 53.67 52.93 57.28 58.84 57.40 59.41 62.11 62.24 61.03 60.61 61.00 61.45 62.75 62.77 62.97 64.57 65.08 64.19 64.83 65.87 65.72 65.65 65.02 64.62 64.36 64.12 61.98 61.07 61.31 61.45 63.56 64.25 64.48 64.27 64.12 63.82 62.90 61.33 59.93 59.80
38.91 34.00 36.10 40.31 46.39 47.95 49.85 48.48 50.89 49.98 50.77 54.36 56.68 60.23 61.15 60.68 60.23 59.44 58.89 58.25 59.09 59.75 61.08 62.22 63.76 63.89 64.41 64.85 63.81 62.73 62.91 61.73 61.16 61.01 60.27 59.24 59.49 60.42 61.66 62.91 63.55 63.65 63.41 62.91 61.65 60.08 58.48 55.46 52.03
38.43 37.27 40.22 48.01 50.30 50.36 49.51 48.62 51.00 48.80 46.05 53.79 55.31 57.55 59.15 59.07 58.57 58.88 60.14 60.10 59.21 60.79 62.60 63.59 63.78 64.17 63.17 62.62 61.88 61.44 60.49 59.91 59.69 59.53 59.28 59.31 60.23 60.64 59.97 59.81 59.55 57.92 58.72 54.56 54.21 52.41 51.23 50.08 49.35
38.23 42.26 46.40 48.77 50.92 49.46 48.58 49.93 49.30 48.78 49.22 57.85 58.74 59.78 58.92 58.35 58.41 59.22 59.31 59.38 59.44 59.99 61.51 63.11 63.74 63.77 62.07 60.96 60.49 60.11 59.22 59.17 59.13 59.17 59.69 59.89 59.37 59.62 59.38 58.34 57.23 53.80 52.42 51.27 50.34 49.29 48.61 47.46 47.52
40.07 44.45 46.28 50.53 50.16 48.47 50.16 47.53 48.23 48.81 56.53 59.01 58.25 59.22 58.08 57.82 58.01 59.42 59.53 59.66 60.37 59.94 61.08 61.96 63.07 61.53 60.74 59.39 58.17 58.79 59.75 59.99 61.56 62.03 61.99 61.42 59.91 58.27 56.60 54.09 52.80 51.76 50.60 48.64 47.68 48.30 46.44 45.76 45.45
47.91 48.87 48.81 48.80 49.50 49.68 47.36 47.72 46.63 50.46 55.92 57.64 57.11 57.25 57.44 57.20 57.04 56.33 56.90 57.43 59.17 60.30 60.39 62.93 62.83 59.55 60.18 59.62 59.61 60.22 61.35 61.90 61.52 61.09 61.26 60.37 57.45 55.27 53.81 52.49 51.38 49.89 48.38 47.11 46.79 45.47 44.55 43.74 43.99
46.68 43.94 45.69 46.16 47.32 46.80 47.79 43.72 44.98 52.20 56.83 56.42 55.75 56.89 56.20 56.96 56.69 56.69 57.31 57.32 58.79 60.35 59.91 61.25 59.83 60.28 60.78 60.39 60.50 60.11 60.66 60.22 58.93 58.82 59.13 57.22 55.69 54.07 52.38 51.33 49.87 48.54 47.07 46.21 45.34 44.36 43.92 43.34 43.89
42.69 41.41 38.30 45.87 47.13 47.79 45.93 39.81 48.24 53.76 55.90 54.89 55.31 55.80 55.82 55.81 57.07 57.23 58.01 57.30 59.27 58.56 59.09 60.24 61.66 60.21 59.36 59.29 59.11 59.63 59.01 58.16 57.50 57.05 56.72 55.77 54.53 53.25 51.66 50.74 49.42 47.62 46.47 45.21 44.12 43.48 42.60 41.99 41.52
38.57 34.83 37.25 42.33 48.37 47.28 44.93 42.06 47.26 51.76 54.95 55.05 54.89 55.38 55.84 55.95 56.71 57.18 59.50 57.92 59.45 58.22 59.01 59.68 59.25 58.34 57.62 56.94 56.98 56.90 56.66 55.94 54.89 54.18 54.10 53.27 52.41 51.97 49.63 48.64 46.91 46.34 45.20 44.74 44.87 43.08 42.33 40.99 40.97
35.93 36.42 38.64 37.77 44.61 46.84 44.22 43.49 45.53 49.13 53.16 54.06 54.68 54.93 56.13 55.69 55.63 57.17 59.25 59.15 57.98 57.55 59.47 58.63 57.97 56.70 55.98 55.80 55.16 54.27 53.80 52.97 52.11 51.67 51.86 52.09 51.76 50.57 47.99 47.04 46.07 45.52 44.89 44.06 43.03 41.68 41.78 41.34 40.65
42.59 40.85 39.07 40.86 44.18 44.77 43.27 42.09 43.26 46.69 49.23 49.16 53.08 52.97 54.52 55.73 57.32 57.77 58.79 56.42 56.35 57.41 57.74 57.01 56.56 55.64 55.90 54.98 53.54 52.19 51.68 50.92 50.40 50.37 51.38 51.73 51.52 50.06 46.87 45.94 44.91 44.92 44.09 42.96 42.83 41.88 41.12 39.66 39.63
42.30 40.35 39.95 42.05 43.49 43.85 40.76 41.62 43.08 46.15 47.82 49.91 51.14 52.49 51.08 53.43 54.13 55.85 55.87 55.10 55.95 57.64 57.58 56.91 56.88 55.94 55.75 55.61 54.63 54.12 51.84 50.71 49.96 50.24 50.61 51.11 50.71 48.76 47.13 45.47 44.35 44.63 43.82 42.70 42.00 41.35 40.31 39.29 39.33
40.73 40.12 39.39 39.57 41.57 42.17 39.40 37.72 40.51 45.07 48.14 48.87 51.19 53.95 51.68 51.60 52.24 53.79 53.81 54.41 55.37 57.15 57.21 57.42 57.16 56.42 56.00 56.55 54.69 51.76 50.26 49.48 48.62 48.72 48.96 49.64 48.93 48.17 47.06 45.63 44.56 43.58 43.24 41.92 41.07 40.32 39.55 37.91 38.06
37.86 43.68 42.85 41.05 37.75 32.60 38.83 30.41 37.44 42.13 46.09 47.67 48.51 49.23 49.99 51.04 52.41 53.86 54.02 54.10 55.24 57.27 58.20 58.28 57.57 56.54 56.48 57.37 54.60 51.79 50.03 48.13 48.38 48.54 48.92 48.68 48.89 48.08 46.96 45.94 44.51 43.58 42.83 41.89 41.24 41.24 39.68 37.97 35.85
40.69 44.05 42.72 41.72 38.23 35.49 36.58 33.35 36.50 41.01 42.20 45.61 47.46 47.32 48.29 49.71 51.34 53.38 54.32 55.04 56.07 57.79 58.00 57.96 57.63 57.19 57.46 57.69 56.30 52.61 49.21 48.72 48.80 48.76 48.48 47.66 47.48 47.24 46.21 45.10 43.90 42.93 42.63 40.22 38.95 38.26 37.72 37.96 37.66
45.53 42.84 40.98 38.96 37.22 30.38 36.24 34.51 33.89 37.67 42.56 45.88 48.98 48.78 48.15 48.59 50.54 53.66 55.65 56.07 56.71 58.03 58.12 57.48 57.57 57.46 57.83 57.93 55.94 53.10 50.33 48.82 48.50 47.77 47.45 47.14 46.02 44.79 44.60 44.41 43.56 42.80 39.83 38.97 38.61 37.59 37.18 35.71 35.15
42.40 36.85 29.06 28.19 27.39 28.49 37.88 34.71 37.38 41.28 43.86 44.52 46.29 48.53 47.63 49.21 50.11 53.15 55.32 56.31 57.35 57.72 58.16 58.04 57.86 57.78 57.77 57.87 55.84 53.44 50.85 49.69 49.13 48.48 48.28 45.81 43.72 43.90 43.65 43.75 42.95 42.38 40.40 39.75 40.31 37.71 36.37 35.41 34.50
40.06 37.52 29.50 25.90 25.61 27.93 37.81 32.76 37.73 44.53 46.66 46.24 46.84 47.52 47.60 49.61 52.02 54.73 56.42 57.18 57.53 58.45 58.68 58.28 58.27 57.96 57.26 56.04 54.50 52.38 50.63 49.72 48.43 47.83 46.97 45.45 45.00 43.11 43.37 43.70 42.19 42.19 42.20 40.79 38.94 37.28 35.94 36.23 35.03
40.10 36.50 39.93 32.97 31.50 28.02 32.15 35.97 42.52 44.48 45.10 46.00 45.11 47.52 47.73 49.34 52.11 54.95 56.86 57.57 57.64 58.87 58.09 57.96 57.78 57.20 54.38 53.72 51.36 49.38 49.34 47.36 46.03 46.86 46.18 43.93 43.75 44.90 43.97 42.37 42.27 41.68 40.52 39.54 38.20 36.55 35.95 35.29 34.37
41.93 43.55 34.55 33.24 26.58 25.17 29.09 31.10 34.15 40.76 43.03 45.00 43.78 45.41 48.75 50.43 52.64 54.42 56.20 56.46 57.32 57.93 57.79 56.92 56.76 54.98 52.30 50.63 49.52 47.84 46.80 47.35 46.76 45.76 43.79 44.12 44.30 44.13 42.48 41.78 41.44 40.30 39.56 38.52 38.28 37.42 35.79 35.50 34.72
39.08 37.34 36.98 36.72 31.59 26.89 24.78 30.32 38.07 41.77 43.67 44.74 44.66 46.52 48.76 50.33 52.97 54.43 55.70 56.49 57.03 56.60 54.30 55.13 53.15 52.17 50.27 48.41 46.08 45.53 45.75 46.25 45.35 44.44 44.29 44.38 43.67 43.51 42.98 42.20 40.90 39.99 38.40 37.88 36.98 36.34 35.72 35.03 34.63
40.96 39.67 38.28 29.78 30.44 30.15 27.28 29.68 40.54 42.27 44.66 44.82 46.90 47.81 49.02 50.45 52.19 54.16 55.15 55.01 53.91 53.42 53.13 52.86 52.93 51.61 49.84 45.84 45.63 45.92 46.30 46.15 45.93 44.65 43.33 44.08 43.62 43.39 42.46 41.68 39.13 37.88 38.30 37.99 36.07 34.86 34.61 34.24 33.74

GFSSGP_sfc_wetblb_060.txt.gz
Wetbulb
55.96 51.31 50.26 45.65 38.12 34.90 30.66 34.51 38.73 43.49 47.29 59.15 60.27 59.03 56.08 58.87 54.57 48.13 62.79 64.88 69.39 69.95 70.35 70.50 70.55 71.14 71.33 71.52 71.43 71.16 70.94 70.18 69.02 68.19 68.45 68.22 68.29 68.48 68.41 68.07 67.55 67.62 66.88 67.02 68.26 69.07 69.22 68.58 67.42
52.37 52.55 46.87 39.48 33.07 28.90 31.55 35.87 41.60 49.68 55.11 56.88 56.91 57.59 58.21 57.80 62.66 61.38 60.99 67.72 69.73 70.07 70.02 70.19 70.36 70.85 71.26 71.24 71.15 70.78 70.21 69.50 69.01 68.53 67.93 68.00 68.10 68.39 67.86 67.71 67.04 67.48 67.56 66.46 67.56 67.92 68.68 68.35 68.76
51.21 48.10 42.63 35.37 29.43 29.03 31.52 37.79 44.79 50.63 55.93 55.05 54.49 57.57 57.39 57.81 62.35 62.33 65.37 68.56 69.48 69.81 70.02 69.94 70.05 70.25 70.80 70.99 70.74 70.21 69.64 68.89 68.37 67.92 67.66 67.40 68.07 67.88 66.88 67.23 66.83 67.14 66.98 65.49 65.96 66.18 66.26 66.61 66.22
46.04 42.60 39.16 33.70 30.10 35.77 36.58 42.79 50.45 51.23 52.42 54.67 54.09 52.14 59.42 63.52 64.12 65.06 67.36 69.43 68.59 69.01 69.37 68.80 68.97 69.51 70.57 70.93 70.73 69.93 69.05 68.43 67.84 67.79 67.80 67.40 67.90 67.35 67.25 67.22 66.72 66.99 66.82 64.94 65.36 65.22 65.14 65.14 64.61
42.66 38.93 33.07 29.91 31.49 36.62 48.84 51.34 52.62 51.35 51.17 52.16 52.52 52.19 56.29 63.03 64.80 66.49 66.75 68.47 67.85 68.28 68.53 68.11 67.82 68.99 70.43 70.75 70.08 69.20 68.65 67.97 67.73 67.61 67.48 67.63 67.80 67.51 67.41 66.76 66.56 66.43 66.55 65.31 64.91 64.85 65.32 64.95 64.13
40.55 37.34 31.16 29.40 33.29 39.61 50.65 52.31 52.45 51.75 52.30 52.96 51.95 52.07 56.82 63.96 64.26 65.64 66.32 66.25 67.13 66.79 67.00 67.40 68.34 68.14 68.30 68.16 68.74 68.30 68.01 67.69 67.60 67.40 67.42 67.58 67.35 66.94 66.82 66.46 66.11 65.86 65.67 65.47 65.08 64.44 63.93 63.80 64.04
38.72 35.32 31.58 34.34 36.55 39.25 48.34 53.45 50.62 50.85 50.17 50.36 54.04 51.03 58.03 61.84 64.47 64.68 64.65 65.02 65.42 65.90 65.67 66.05 66.64 66.80 66.13 66.82 67.49 67.02 67.08 67.07 66.76 66.88 66.92 66.66 66.31 66.03 66.25 65.81 65.79 65.46 65.15 65.24 65.26 64.58 63.79 63.52 62.74
39.98 37.14 31.68 34.70 35.77 39.20 50.76 52.33 52.42 49.34 48.42 54.94 56.66 51.09 54.76 61.06 63.93 64.08 64.20 64.25 64.24 64.62 64.81 64.67 65.04 64.76 65.02 65.52 65.90 66.00 66.08 65.86 65.95 66.10 65.41 64.77 64.86 65.25 65.28 65.17 65.39 65.19 65.08 64.81 63.79 63.37 63.09 62.61 61.83
39.48 34.38 31.82 35.49 36.84 42.05 50.96 47.92 51.93 52.72 53.07 55.96 57.99 56.26 59.91 62.32 62.55 61.62 61.25 62.28 62.62 62.78 62.69 63.33 63.68 64.11 64.32 64.22 65.80 65.44 65.95 65.50 65.15 64.80 64.20 61.92 61.25 61.22 60.71 63.97 64.42 64.53 64.41 63.33 61.97 60.43 58.79 57.63 58.47
38.21 32.58 35.25 39.26 41.42 46.94 49.96 47.91 49.46 49.08 51.53 54.28 57.09 60.06 61.16 60.92 60.31 59.40 58.92 58.34 58.86 58.51 59.17 60.02 62.39 62.90 63.61 64.76 63.72 62.75 63.37 61.75 61.40 61.13 59.73 59.58 59.20 58.89 61.64 62.69 63.73 63.81 62.27 61.05 59.33 57.32 55.80 52.27 49.18
37.11 36.70 39.75 42.44 48.75 49.75 49.21 48.08 50.04 47.68 45.85 53.09 55.07 56.52 59.47 59.66 59.22 58.64 58.38 58.34 57.54 58.44 59.41 61.11 62.39 62.99 63.48 62.83 61.84 60.81 59.98 59.75 59.68 59.32 58.91 58.73 60.56 59.73 59.72 58.84 58.30 56.13 55.63 51.74 51.07 49.51 48.46 47.65 47.68
36.66 40.64 41.23 46.87 50.23 49.30 47.98 48.95 48.04 47.92 48.53 56.64 57.93 59.15 59.38 58.28 58.49 58.44 57.59 57.91 58.51 58.50 59.17 60.42 61.95 63.31 62.55 61.74 60.85 59.65 58.50 58.59 58.63 58.39 59.16 59.31 58.99 58.50 58.46 57.44 53.46 52.35 50.42 48.75 47.93 47.27 46.58 46.21 46.68
38.20 43.60 47.81 49.18 49.20 48.35 49.48 45.52 47.46 49.67 55.58 58.41 59.01 58.55 57.98 57.82 58.60 60.13 59.57 59.01 59.21 59.47 59.73 60.77 62.76 62.17 61.28 60.40 59.33 58.80 58.54 58.68 59.05 59.08 59.94 60.63 58.98 58.60 55.34 52.78 51.25 49.51 48.24 46.93 46.40 47.18 47.16 45.66 44.52
47.19 46.04 46.86 47.24 47.57 49.12 46.30 46.51 46.05 51.39 57.41 57.47 57.31 57.25 57.05 57.38 57.91 57.51 58.25 58.47 58.97 59.67 59.66 60.88 61.68 61.15 60.13 58.39 57.59 58.09 59.35 60.21 60.76 60.84 60.95 60.38 58.26 55.44 53.23 51.45 49.32 47.53 46.54 46.22 47.67 46.54 45.35 42.67 43.07
45.74 43.47 45.04 45.07 46.57 45.75 46.10 41.86 43.58 52.95 56.55 55.30 55.64 56.85 56.85 57.03 56.13 56.75 57.79 58.03 58.99 59.88 60.67 61.31 61.30 59.72 59.27 58.28 58.24 59.48 60.45 60.77 60.33 60.09 59.66 57.49 55.94 54.43 52.17 50.60 47.33 46.16 45.63 45.83 46.73 44.56 43.10 42.59 43.15
42.37 39.60 37.20 42.79 45.46 45.59 44.06 37.95 46.02 54.08 55.38 54.42 54.95 55.73 56.26 56.25 55.38 55.51 56.40 58.20 58.24 58.87 58.94 61.34 61.99 60.15 59.51 58.83 58.82 59.29 58.97 58.87 58.26 58.08 57.08 56.04 54.69 53.13 50.44 48.96 47.08 46.47 45.52 45.31 43.59 43.12 42.06 41.49 41.26
37.48 32.79 36.22 39.61 47.30 44.01 43.87 39.13 47.53 54.89 54.57 53.57 54.20 54.79 54.92 54.83 55.11 55.73 56.72 55.45 57.61 58.09 58.22 58.73 59.20 58.63 58.13 57.48 57.42 57.66 57.48 56.62 56.24 56.06 55.66 53.32 52.34 51.80 50.55 48.77 46.42 45.94 44.89 44.27 44.17 42.32 42.04 40.71 40.91
33.77 34.67 38.68 37.35 43.59 44.40 41.02 41.97 45.12 52.39 54.32 53.57 53.63 54.17 54.63 53.84 55.05 56.53 57.88 57.18 57.39 56.65 58.04 58.66 57.82 56.46 55.80 55.39 55.23 54.47 54.39 54.11 53.96 54.02 52.77 51.70 51.01 50.26 49.04 46.94 45.49 44.96 44.20 43.07 42.29 41.67 41.58 40.91 40.42
41.18 40.21 38.65 40.08 44.43 40.66 40.27 41.01 43.10 47.33 51.72 52.46 52.64 52.80 53.95 54.54 56.28 56.18 57.60 57.49 56.36 56.35 57.36 57.26 56.14 55.18 56.06 55.19 53.26 52.26 51.93 51.64 51.40 51.43 51.60 51.17 50.77 48.61 46.97 45.56 44.45 44.42 43.47 42.41 41.99 41.41 40.79 39.83 39.74
41.26 40.43 38.83 41.69 42.18 41.58 39.71 39.58 42.24 45.75 49.11 52.13 53.00 52.78 53.90 55.31 55.58 55.84 56.36 56.06 55.30 56.57 57.52 56.62 56.85 55.68 56.50 56.75 53.47 53.18 51.83 50.72 50.23 50.10 50.52 51.01 49.53 47.20 46.36 44.59 43.76 43.67 42.90 42.23 41.59 41.52 39.99 39.37 39.06
39.53 38.80 37.52 38.67 40.18 40.59 38.39 37.37 40.49 43.77 47.27 49.62 52.71 54.61 54.18 54.49 54.79 55.32 55.78 55.43 55.14 55.92 56.83 56.86 56.93 56.16 56.27 55.66 54.07 50.80 50.03 49.80 48.61 48.42 48.67 49.49 49.64 47.61 46.09 44.62 44.06 43.37 42.58 41.38 40.54 39.90 39.26 37.45 37.95
36.34 42.52 41.88 40.34 36.72 32.13 36.81 29.95 35.90 39.91 44.43 47.44 49.84 51.96 53.13 52.52 54.13 54.69 54.56 53.61 54.05 55.40 56.77 57.00 56.93 56.04 55.48 55.64 53.47 51.51 50.85 48.65 48.40 48.86 48.65 48.67 48.45 47.16 45.69 44.65 43.75 42.68 42.33 40.96 40.52 40.67 39.13 37.43 35.69
39.54 43.02 41.66 41.16 37.20 33.97 34.15 31.49 35.42 39.83 41.50 45.37 47.65 48.53 52.11 52.01 52.15 52.46 53.83 53.97 54.18 55.13 55.94 56.38 56.54 56.04 55.72 56.07 54.91 53.01 50.70 50.63 50.27 48.50 48.72 47.64 46.44 46.34 45.45 44.28 42.99 42.27 42.07 40.72 40.95 40.08 39.40 38.19 36.63
43.87 41.19 38.96 37.33 35.66 29.58 34.22 33.00 32.74 36.27 40.79 44.31 46.50 46.95 49.01 50.18 50.58 51.49 52.53 52.75 52.80 54.98 55.26 56.00 56.12 56.22 56.24 56.46 55.64 54.00 53.27 50.69 49.66 47.76 48.01 46.36 44.73 43.98 43.59 43.27 42.39 40.80 40.45 41.45 40.37 38.10 38.05 36.54 36.18
40.08 35.60 28.32 27.04 26.83 28.00 36.01 33.60 36.22 39.19 42.41 44.06 45.82 47.72 47.89 48.53 47.83 48.93 50.49 52.20 53.78 55.46 56.18 56.76 56.56 56.28 56.74 56.58 55.92 54.82 53.94 51.67 49.67 47.99 47.61 45.14 42.89 42.02 41.97 41.28 41.81 42.78 42.28 41.98 40.89 39.52 38.41 37.74 36.23
38.33 36.89 29.36 25.20 24.61 27.23 35.55 32.08 36.89 42.84 44.93 45.67 45.14 45.81 47.66 45.91 47.35 49.28 51.79 53.39 54.56 56.00 56.60 57.41 56.90 57.44 57.25 57.10 56.78 55.94 54.29 50.76 48.85 48.61 48.67 44.61 43.31 42.22 42.41 44.17 43.46 43.49 42.67 41.43 40.30 39.45 38.38 37.71 35.55
38.26 34.95 38.06 31.54 30.37 27.08 30.98 35.53 39.80 41.99 43.35 45.57 43.89 44.68 44.72 45.28 47.59 49.98 52.43 54.53 55.42 56.16 56.77 57.88 57.84 58.04 57.49 57.58 56.36 54.52 52.53 50.44 47.77 46.36 45.62 44.23 43.60 43.50 44.26 41.96 42.40 42.63 41.67 40.89 40.17 37.57 36.11 35.46 34.69
40.05 42.22 33.55 31.88 26.70 25.26 27.95 29.90 32.44 38.42 40.71 43.50 44.12 44.29 45.81 46.10 48.29 50.49 53.44 55.42 56.36 56.97 57.84 58.38 57.96 57.73 56.93 56.04 54.30 53.65 50.70 48.03 46.77 46.59 44.21 43.01 44.42 44.26 42.75 42.93 42.78 41.30 41.15 40.03 38.99 36.36 35.98 35.02 34.32
37.99 36.25 35.46 35.31 30.50 26.52 23.83 29.20 37.47 39.10 41.54 41.30 42.32 45.22 45.20 48.65 49.67 51.42 53.76 55.34 56.06 56.70 57.08 57.10 57.14 56.86 53.18 52.84 50.76 47.53 45.63 45.21 45.26 44.88 44.09 44.82 43.96 43.46 43.59 42.45 42.49 41.14 40.52 37.46 36.91 35.85 35.46 34.79 34.61
39.65 38.49 37.08 29.57 29.64 29.29 26.70 28.52 39.72 40.03 41.13 42.62 43.97 45.79 46.03 49.04 50.61 52.00 53.00 53.96 54.61 55.58 55.66 55.66 55.08 54.50 51.26 46.51 44.93 44.97 45.10 44.80 45.12 43.94 44.75 44.97 43.81 44.18 43.58 43.39 41.71 40.49 37.85 36.65 35.93 34.92 35.14 34.17 33.24

GFSSGP_sfc_wetblb_063.txt.gz
Wetbulb
60.38 55.37 55.53 51.94 45.05 43.79 39.74 40.86 44.73 47.04 51.19 58.83 61.09 59.15 57.58 59.23 56.03 53.41 64.44 66.89 69.91 69.30 69.90 70.74 70.50 71.18 71.20 71.35 71.33 71.46 71.23 70.36 69.25 68.88 68.66 68.74 69.03 68.67 68.45 68.25 68.39 68.97 68.86 69.81 69.82 69.02 68.01 69.35 68.82
56.60 55.11 52.77 47.62 42.25 38.36 39.80 41.96 42.62 51.80 55.78 58.57 58.50 58.91 58.73 57.89 62.35 61.91 62.50 67.87 69.69 69.81 69.76 70.40 70.20 70.75 71.14 71.10 70.99 70.65 70.37 69.69 68.88 68.74 68.81 68.96 68.84 68.33 68.23 68.23 67.99 69.25 70.21 69.98 69.85 68.98 68.66 69.01 67.64
54.51 50.78 50.29 44.11 39.67 38.28 38.71 41.72 47.58 53.28 57.70 57.73 57.13 58.98 58.58 57.93 61.98 62.72 66.49 69.14 69.53 69.65 69.60 70.17 69.93 70.22 70.65 70.48 70.10 69.71 69.37 68.72 68.27 68.27 68.76 68.84 68.50 68.21 68.11 67.75 67.53 68.19 68.92 68.89 69.47 69.40 68.71 67.35 66.77
50.93 49.30 46.05 42.59 39.33 41.26 41.29 44.17 53.00 53.61 55.60 57.07 56.99 55.26 60.42 64.37 64.45 65.70 67.21 69.61 69.16 69.51 69.48 69.26 68.88 69.73 70.39 70.38 69.90 69.38 68.75 67.93 67.68 67.78 68.54 68.60 68.31 68.16 67.70 67.24 66.92 67.44 67.90 67.20 68.11 67.31 65.95 65.80 65.78
48.88 46.87 42.49 39.81 39.29 41.26 45.47 52.97 54.27 53.31 54.06 54.69 55.35 54.37 57.46 63.46 66.42 67.11 68.46 69.26 68.80 68.76 69.37 70.04 67.95 68.92 70.45 70.47 69.77 68.76 68.23 67.84 67.49 67.80 68.17 68.18 68.18 68.05 67.52 67.11 66.64 66.64 66.81 66.42 66.01 65.45 65.39 64.96 64.91
47.78 45.27 40.96 38.38 39.49 42.86 49.05 54.40 54.54 53.64 54.27 55.12 55.60 55.29 57.10 64.23 65.43 66.98 68.18 68.36 69.53 68.70 68.44 68.77 68.33 68.74 68.43 68.78 68.51 67.90 67.63 67.42 67.47 67.42 67.72 67.90 67.69 67.42 67.07 66.66 66.31 66.08 65.75 65.49 65.57 65.17 65.08 64.50 64.09
46.30 44.20 40.49 39.55 40.67 42.31 48.83 55.53 53.15 53.08 52.83 53.15 56.92 53.79 58.74 62.40 64.71 65.52 66.07 67.01 67.26 66.72 66.31 66.78 66.92 66.92 66.76 67.30 67.07 66.78 66.85 66.78 66.98 67.21 67.15 66.84 66.47 66.26 66.22 65.93 65.72 65.83 65.66 65.08 64.71 64.36 63.76 63.57 63.16
46.61 45.02 39.64 40.74 40.38 41.81 51.80 54.42 54.85 53.20 52.29 58.40 58.55 53.94 55.88 61.38 64.24 64.81 65.24 65.15 64.99 65.42 65.43 65.17 64.71 63.22 64.27 66.13 66.12 65.89 65.85 65.87 66.07 66.05 65.45 65.00 64.95 65.32 65.49 65.16 65.32 65.51 65.51 65.31 64.00 63.54 62.86 61.66 60.87
45.83 43.47 39.89 40.77 40.28 44.31 53.34 51.86 54.53 56.07 56.32 57.38 58.45 57.39 60.98 63.18 63.76 63.16 62.80 62.16 62.52 63.44 64.37 64.29 62.03 63.57 63.33 64.28 65.58 65.76 65.78 65.51 65.20 65.04 64.45 63.20 63.93 63.46 63.71 64.24 64.94 64.59 63.74 62.55 60.72 59.31 58.93 58.93 58.06
45.51 42.20 42.01 44.43 44.34 48.65 51.96 51.79 52.67 53.05 54.72 55.01 56.70 60.36 62.20 62.30 61.97 60.99 60.08 58.69 58.65 59.01 60.80 61.94 61.85 61.52 62.24 64.39 64.64 65.33 64.99 64.79 64.43 63.94 63.48 62.80 63.36 63.52 62.98 63.57 63.50 62.74 61.62 60.38 58.31 56.64 55.85 55.50 54.10
43.09 42.97 44.41 44.88 45.73 52.49 51.71 51.82 53.44 51.91 51.12 55.53 55.69 58.04 60.05 59.88 60.36 59.34 58.48 58.73 58.89 58.23 58.53 58.61 59.72 62.47 62.19 62.45 63.50 63.34 63.29 63.50 63.36 63.00 62.41 62.66 62.82 63.57 63.04 62.91 61.47 59.58 57.28 54.74 53.81 53.98 54.09 53.77 53.60
42.82 44.28 44.42 46.82 51.85 52.22 51.41 52.39 51.40 52.37 52.57 57.57 59.29 59.99 59.10 57.99 58.79 58.63 57.63 56.88 56.94 57.55 58.90 58.25 58.76 58.98 64.09 63.69 63.01 62.33 61.46 61.92 61.70 61.37 62.41 63.41 62.53 63.06 62.83 61.42 58.71 56.43 55.01 54.41 53.62 53.57 53.52 52.96 52.50
42.81 46.27 50.50 51.02 51.78 51.58 51.61 49.61 50.58 54.21 57.93 59.51 59.51 59.64 58.35 58.38 58.61 59.06 58.33 58.04 57.52 57.93 58.05 58.01 59.62 63.18 63.94 63.57 63.04 61.72 61.44 61.77 62.69 62.49 63.30 64.03 62.93 63.00 61.02 57.64 55.77 54.09 54.19 53.42 53.13 52.57 51.56 51.92 51.56
49.87 49.32 49.99 51.15 50.88 51.49 49.41 49.80 50.38 54.24 58.80 57.94 58.23 57.40 57.80 58.17 58.80 58.30 57.98 57.85 57.58 58.56 59.38 60.23 62.35 64.31 63.89 62.96 62.69 61.57 61.56 62.42 62.30 63.09 63.34 64.41 63.26 61.06 57.23 55.63 54.02 53.08 53.55 53.40 52.76 51.47 50.54 51.03 51.01
49.57 48.03 48.56 49.67 51.37 49.86 50.80 47.66 48.13 54.62 57.48 55.45 56.87 57.68 58.35 59.00 59.72 57.94 58.64 58.19 58.76 59.69 60.05 60.24 62.98 64.46 63.73 62.63 61.94 61.67 61.70 62.48 62.20 62.69 63.53 63.37 61.91 59.18 57.39 55.43 53.64 53.08 53.42 52.61 49.85 51.25 51.58 50.77 50.23
47.16 44.76 42.74 47.91 49.79 49.24 49.78 44.38 49.64 56.51 56.02 54.87 55.56 57.02 57.66 57.52 58.83 59.31 59.84 60.29 60.12 60.56 60.95 62.13 62.80 63.57 63.02 61.87 61.69 61.84 62.29 63.50 64.06 64.30 63.21 62.13 60.39 58.68 56.84 54.36 52.86 52.96 52.93 51.87 51.55 51.40 50.45 50.34 50.17
42.99 40.58 40.86 43.27 49.88 48.27 47.81 45.15 50.94 56.37 55.74 54.75 55.36 56.09 57.05 57.17 57.28 58.31 59.82 60.68 61.25 61.54 61.87 62.35 63.74 63.45 63.46 62.40 62.02 62.67 63.46 63.68 63.33 62.72 61.98 60.08 58.95 57.53 55.76 53.86 52.75 53.41 52.73 52.62 51.62 50.56 50.62 49.79 49.82
39.82 39.56 41.52 42.39 46.24 48.28 46.23 46.20 51.19 54.32 54.82 54.72 55.13 55.85 56.11 56.20 56.31 58.26 59.34 60.07 61.24 62.06 62.43 63.20 63.64 63.37 62.30 61.75 61.69 62.30 62.46 62.08 61.80 62.14 60.93 59.04 57.95 56.61 55.27 53.57 53.00 52.89 52.07 51.21 51.04 50.58 50.32 50.02 49.74
43.06 42.33 41.48 44.39 46.62 45.13 44.26 44.48 46.52 53.78 54.39 54.23 54.56 54.89 55.83 56.23 58.45 58.93 59.49 59.95 60.30 61.60 61.67 62.26 62.02 62.04 60.78 59.69 59.02 58.84 59.83 59.86 59.42 59.98 58.85 57.71 56.69 55.80 53.40 53.47 52.47 52.68 52.07 50.96 51.14 50.18 49.59 48.85 49.71
44.13 42.65 42.48 44.56 45.95 45.04 44.49 44.22 46.01 51.29 53.59 55.30 55.18 55.55 56.27 57.29 57.43 57.97 59.24 60.18 59.55 59.91 61.04 61.34 61.49 60.61 60.89 61.10 60.67 60.55 60.18 58.95 58.60 58.06 57.70 57.01 55.89 54.24 52.83 52.74 51.73 51.95 50.50 50.39 50.55 50.44 48.72 49.00 48.72
43.47 42.01 41.39 41.81 43.71 43.87 42.47 41.65 43.94 46.84 51.76 54.14 56.21 56.90 56.92 56.97 57.28 57.56 57.68 58.99 59.59 59.21 60.19 60.66 61.19 60.83 61.25 61.48 60.07 57.53 56.92 56.35 55.58 55.90 55.56 54.68 53.75 52.51 52.83 52.21 51.72 51.45 51.34 50.16 50.41 50.03 48.42 46.52 46.62
40.34 44.74 43.95 42.86 41.50 38.07 41.67 35.47 40.61 44.28 46.28 49.78 52.99 55.60 56.49 56.94 57.89 58.73 58.42 58.62 59.47 59.53 60.77 60.90 61.03 60.68 60.75 60.56 59.85 58.40 58.69 56.79 56.64 55.95 54.15 52.95 52.77 52.26 52.27 51.70 51.71 50.97 50.58 50.07 49.59 48.60 48.25 46.56 43.66
43.19 45.05 43.99 43.44 41.91 40.16 39.15 38.30 42.02 42.91 43.00 46.81 50.23 53.51 56.23 57.45 58.04 58.51 58.82 59.49 59.91 60.01 60.22 61.03 60.83 60.40 60.28 59.79 59.99 59.15 58.27 57.79 56.02 54.94 53.12 52.92 52.81 53.06 51.61 51.39 50.72 50.36 50.29 49.53 49.13 47.11 44.76 43.84 43.13
45.97 44.58 42.06 41.35 40.46 36.46 38.70 38.98 40.79 42.26 44.04 46.53 49.39 51.74 54.23 57.02 57.21 58.58 59.82 59.77 58.96 59.53 60.11 60.35 60.13 59.75 59.66 59.47 59.14 58.61 57.37 55.37 53.82 54.22 52.88 52.74 52.91 51.98 51.15 50.26 50.48 50.31 48.73 47.71 44.88 46.45 43.07 43.12 42.82
44.52 41.03 35.37 33.57 34.37 34.20 39.52 37.31 41.61 45.05 46.56 47.14 48.19 50.65 52.52 55.37 56.72 56.47 56.73 57.00 57.25 57.87 59.15 59.94 59.62 59.24 59.05 58.40 58.57 57.99 57.50 55.86 54.85 54.79 52.69 51.98 51.19 50.02 49.34 49.61 48.64 47.66 47.71 46.58 44.47 45.15 44.12 41.19 41.80
42.59 41.53 36.79 29.12 30.52 34.19 37.94 36.41 42.45 46.61 48.37 49.16 49.68 49.40 51.08 52.03 54.53 55.37 55.93 56.77 56.86 57.42 58.55 58.78 58.96 59.17 59.01 57.99 58.14 57.80 57.01 56.71 55.59 52.81 53.33 52.73 51.07 49.07 49.11 48.40 47.80 47.59 46.94 44.10 43.43 44.37 42.63 43.17 44.00
42.06 39.57 42.21 35.57 34.11 33.32 36.57 40.26 43.99 45.63 46.43 48.70 49.59 49.31 49.54 50.27 51.68 53.26 54.61 56.05 56.77 57.47 58.36 58.92 59.26 59.16 59.51 58.71 58.55 58.31 58.28 57.07 54.68 53.40 54.82 53.26 51.25 48.60 47.77 47.68 47.78 46.04 45.68 43.64 42.72 42.52 41.46 44.07 44.17
44.34 44.83 38.41 37.49 30.49 28.78 33.49 34.65 38.47 43.58 44.52 46.62 47.86 49.28 50.20 50.75 49.87 50.97 53.06 55.30 57.00 58.16 59.03 59.60 59.92 59.59 59.53 59.53 59.22 58.93 58.36 57.09 55.07 53.54 52.94 51.27 48.62 47.96 47.45 46.51 44.39 45.21 43.92 43.20 43.47 41.57 43.46 43.05 43.16
41.97 40.95 39.30 39.93 36.67 32.50 30.20 35.29 43.51 44.72 45.31 47.07 48.40 49.44 50.75 51.89 52.41 52.66 54.18 56.39 57.65 58.75 59.07 59.46 59.76 59.85 59.54 59.81 59.07 58.27 58.53 56.19 53.76 52.02 51.08 49.04 48.22 46.34 44.46 45.64 45.29 43.13 42.62 42.28 41.03 42.58 43.18 42.01 42.21
44.03 42.62 41.52 37.39 34.41 34.51 33.59 35.38 45.48 45.87 45.15 45.54 48.40 49.23 51.73 52.47 54.41 54.84 55.62 57.13 57.85 58.55 59.14 59.48 59.58 59.47 59.79 59.35 57.95 56.79 54.07 51.40 50.00 48.39 47.71 47.85 46.30 45.67 45.82 44.13 44.06 43.69 41.98 41.55 41.79 42.20 41.97 41.65 41.21

GFSSGP_sfc_wetblb_066.txt.gz
Wetbulb
62.38 59.64 59.27 56.57 47.41 46.44 44.00 44.89 48.01 47.42 53.95 57.32 57.47 57.39 58.57 61.28 59.06 55.50 68.28 68.80 70.48 70.57 70.60 71.92 70.71 71.33 71.43 71.69 71.89 71.63 71.52 70.94 70.13 69.35 69.13 69.16 69.23 69.18 68.84 69.23 69.37 69.76 69.26 68.99 69.47 69.96 69.45 67.99 67.46
58.89 57.81 58.55 54.40 44.80 42.15 43.95 46.78 46.94 52.16 55.56 60.77 60.51 59.09 56.89 57.41 62.97 63.59 65.21 69.66 70.95 70.54 70.37 70.72 70.32 70.71 71.12 71.14 71.23 70.97 70.70 69.93 69.39 69.32 69.42 69.23 69.06 68.99 69.40 69.53 70.18 70.77 70.72 69.39 69.40 70.14 68.45 67.12 67.17
57.75 57.17 53.24 49.55 45.78 41.94 43.58 46.85 49.85 55.66 59.05 60.09 59.08 61.38 59.02 59.12 62.93 64.13 68.89 70.67 70.24 70.05 69.69 70.84 70.05 70.44 70.89 70.84 70.49 70.09 69.52 68.80 68.80 69.07 69.25 68.92 68.75 68.97 69.06 69.30 69.98 70.70 70.90 70.25 70.05 69.62 66.88 66.88 67.16
56.05 54.00 52.75 45.29 43.35 45.33 46.06 49.01 53.74 56.69 59.04 60.53 60.39 57.53 62.20 64.90 65.00 67.44 69.35 71.30 69.69 71.05 69.86 69.46 69.12 69.98 70.50 70.36 70.00 69.42 68.57 68.27 68.34 68.62 68.71 68.70 68.89 68.75 68.53 68.23 68.82 69.92 70.65 70.48 69.62 67.36 66.44 66.80 66.43
55.95 52.93 46.23 43.91 43.59 45.96 48.89 54.45 56.64 55.94 57.16 58.17 59.14 57.07 59.16 63.76 67.78 68.20 68.50 69.69 69.16 69.49 70.26 70.83 68.32 69.50 70.14 70.27 69.66 68.62 68.19 67.99 68.12 68.28 68.10 68.45 68.55 68.28 67.79 67.63 67.81 68.03 69.25 68.52 66.56 65.78 65.91 65.93 65.52
51.44 51.64 44.47 43.42 43.82 47.39 49.52 56.29 56.97 56.41 57.33 58.08 58.63 58.50 59.56 65.48 66.33 67.67 69.25 68.72 68.17 67.69 69.03 70.76 68.77 69.14 69.24 69.07 68.37 67.56 67.31 67.53 67.70 67.78 67.72 68.00 67.82 67.67 67.56 67.04 66.85 67.26 67.03 66.43 65.89 65.44 65.17 64.79 64.35
49.40 48.42 44.55 43.77 44.82 46.82 50.63 57.82 55.51 56.09 55.96 56.63 60.28 56.43 61.00 62.87 65.54 68.04 68.38 69.45 68.56 68.63 68.86 67.68 67.91 68.49 67.57 66.85 66.78 66.64 66.87 66.97 67.39 67.24 67.05 66.65 66.20 66.12 66.39 66.24 66.32 65.99 65.74 65.57 65.40 65.11 64.56 63.80 62.74
51.97 49.36 44.30 45.08 44.86 45.28 53.90 56.88 57.32 56.31 54.86 60.41 60.97 57.20 57.90 62.11 65.18 67.07 66.28 66.50 67.01 67.08 66.61 64.08 63.59 63.37 61.68 62.20 64.81 65.90 66.16 66.30 66.36 65.84 65.42 64.89 64.95 65.50 65.56 65.46 66.11 65.87 65.34 64.82 63.67 63.19 62.82 61.77 60.95
52.45 46.99 44.70 44.26 44.97 46.77 54.95 54.52 57.55 58.78 58.37 59.32 60.66 60.65 63.11 64.36 64.61 64.04 63.46 63.47 64.03 64.25 61.92 61.66 62.17 61.39 62.01 62.98 64.80 65.89 66.21 65.87 65.11 64.83 64.11 63.14 63.00 62.88 63.41 64.57 65.17 65.14 64.06 63.18 61.87 61.23 59.86 58.83 57.26
49.73 46.96 45.26 48.37 48.74 48.27 52.67 55.10 55.92 56.30 56.31 57.45 58.84 61.31 63.74 63.57 62.82 60.46 60.81 59.92 61.52 60.81 60.14 61.36 61.61 61.72 61.28 61.39 61.43 64.57 64.92 64.42 64.00 63.18 63.93 63.96 64.46 64.51 64.11 63.77 63.35 62.66 61.45 60.25 58.32 58.04 58.37 59.92 59.27
49.97 46.81 49.42 49.71 50.32 50.37 52.25 54.78 57.29 55.19 53.51 56.84 57.38 59.30 61.80 61.58 62.10 60.56 59.49 59.44 59.02 60.63 61.40 60.94 61.27 61.54 60.36 60.28 62.41 63.18 62.98 64.23 64.16 64.36 63.71 64.81 64.89 64.19 64.71 63.18 62.28 61.27 60.17 58.71 58.45 59.15 59.67 59.20 58.34
47.95 50.49 50.35 50.12 53.32 52.79 52.52 55.62 54.46 55.44 56.50 59.89 61.35 62.00 61.56 59.25 59.77 60.40 59.49 58.33 57.95 58.08 58.87 60.18 60.53 60.31 60.53 61.25 63.06 63.97 62.95 63.40 63.07 63.65 64.59 64.08 63.73 63.99 64.45 63.77 63.22 61.69 60.94 60.13 59.83 58.38 58.01 56.72 56.39
48.62 51.12 53.20 52.81 53.86 54.78 55.16 53.23 53.41 56.39 60.23 61.90 62.09 61.12 58.90 59.15 58.95 59.48 58.42 58.20 57.95 57.10 57.95 58.44 60.17 59.59 60.54 60.79 62.69 62.68 62.82 62.71 62.71 63.63 64.06 64.01 63.52 63.97 64.47 63.55 62.43 61.34 60.42 59.37 58.37 57.42 56.14 55.78 55.13
53.34 52.97 52.70 53.83 54.30 55.01 52.91 52.68 54.48 57.82 60.86 60.63 59.98 59.70 59.34 59.13 58.55 57.83 57.33 57.07 57.75 57.48 57.21 57.40 58.24 58.90 60.14 63.31 63.80 62.74 62.94 64.10 63.62 63.83 64.72 65.34 64.60 64.73 63.64 62.30 60.60 59.47 59.51 59.10 57.92 57.00 56.39 55.13 54.35
53.77 51.42 53.21 54.23 54.72 53.07 54.83 51.29 51.56 57.24 60.00 58.98 59.15 58.46 60.07 60.39 58.48 57.00 57.42 57.40 58.30 59.56 60.21 58.18 60.05 62.90 63.90 64.89 64.43 63.04 63.00 62.97 62.64 63.03 65.69 66.32 65.70 64.45 63.33 60.61 58.10 59.21 59.63 58.42 56.58 55.96 55.64 54.30 53.32
50.14 49.99 45.70 51.74 53.49 53.14 53.27 46.50 52.66 58.41 59.01 57.32 58.40 59.49 58.89 59.60 60.18 60.83 60.52 60.51 61.31 60.10 59.18 60.99 62.50 64.64 65.62 65.53 64.19 62.79 62.94 63.00 63.06 64.00 65.52 66.65 65.72 64.17 61.26 60.48 59.55 59.16 58.01 56.73 55.79 55.63 54.09 53.89 53.99
48.03 43.80 44.23 46.60 52.90 51.58 51.25 47.67 53.79 58.83 58.16 57.46 58.23 58.85 59.15 58.56 59.50 60.91 61.73 61.20 61.24 60.25 60.43 61.77 64.39 65.39 65.87 64.98 64.02 63.62 63.61 63.28 65.15 66.14 65.98 66.08 65.48 63.59 62.11 60.47 59.14 58.55 57.19 56.84 55.73 55.10 54.71 53.43 54.10
42.96 43.45 44.70 45.06 49.29 50.70 49.48 49.13 51.39 56.67 57.75 57.55 58.27 57.55 58.15 58.07 58.01 60.66 62.25 62.34 61.86 62.60 63.63 64.02 64.63 65.64 66.07 66.38 64.84 63.63 63.48 64.09 66.22 66.14 65.44 64.63 64.06 62.74 61.89 60.15 58.83 58.51 57.33 56.39 55.25 54.40 54.31 54.70 55.29
46.91 45.13 44.24 47.07 49.72 48.59 48.23 48.64 49.77 54.26 56.46 55.86 57.86 57.42 57.40 58.19 60.42 61.58 61.82 63.72 62.46 63.06 63.40 63.80 64.03 65.39 65.59 64.95 62.79 61.87 62.01 64.08 65.15 65.20 65.63 64.58 63.80 62.67 61.37 59.66 58.37 58.34 56.97 55.98 55.78 54.46 53.41 53.20 54.79
47.00 45.11 45.12 47.50 49.09 48.79 48.41 47.46 49.48 51.91 55.23 56.99 57.37 58.03 58.04 59.23 59.80 59.83 61.14 62.46 63.12 63.33 63.89 64.11 64.68 65.85 65.91 64.88 63.49 62.53 62.78 63.64 65.00 64.55 64.43 63.84 62.44 61.60 60.16 59.18 57.99 57.70 56.36 55.55 54.85 54.35 53.01 53.62 53.42
47.08 45.48 45.11 44.84 48.22 49.36 47.44 46.17 47.84 50.93 55.07 57.48 58.49 59.02 59.69 60.13 60.02 60.49 60.35 61.59 62.52 62.49 63.44 64.09 65.29 65.61 65.80 65.06 63.65 63.31 64.46 64.34 63.38 62.45 62.55 62.65 60.49 60.98 58.91 57.68 58.37 57.17 56.24 54.83 54.99 54.76 53.53 51.63 51.18
44.21 48.27 47.31 46.01 45.22 42.39 46.57 40.38 45.29 48.85 50.57 53.71 56.69 58.84 59.40 60.04 61.07 61.30 61.35 61.33 62.43 62.53 63.45 64.68 65.37 65.46 65.46 65.19 63.56 62.16 61.56 61.20 62.79 62.72 62.85 59.59 59.63 58.22 56.89 57.57 57.62 56.72 56.30 55.55 54.82 54.39 53.55 51.51 48.13
45.67 48.44 47.23 47.16 46.02 45.04 44.68 42.44 45.72 48.23 47.79 50.44 54.01 57.10 59.56 60.46 61.09 60.95 61.56 62.20 62.91 63.39 63.77 63.80 64.48 65.14 65.61 65.58 64.93 63.42 62.60 63.56 64.13 62.80 61.69 59.86 58.07 56.89 56.21 56.83 56.92 56.30 55.94 55.70 54.58 53.38 51.21 48.56 49.24
50.01 47.91 47.10 47.32 45.93 39.60 43.05 42.58 44.66 46.42 47.59 50.00 52.44 54.42 57.45 60.27 61.40 62.06 62.52 62.97 63.13 64.75 64.58 64.50 63.84 64.07 65.14 65.29 65.05 64.46 63.85 63.39 61.50 60.89 59.44 56.56 56.53 54.66 55.56 56.14 56.31 56.27 55.61 54.58 53.38 52.08 49.63 47.97 46.99
48.80 46.30 40.00 38.01 38.33 37.86 44.02 41.79 44.16 48.12 50.32 51.28 52.44 54.55 56.21 58.18 61.36 61.92 62.13 62.77 62.78 63.57 64.18 64.42 64.15 63.34 64.71 64.58 64.32 64.22 64.21 63.76 61.49 60.38 58.69 57.13 55.37 54.98 55.66 55.97 55.56 55.18 54.85 53.82 50.72 50.23 46.41 46.19 45.24
47.16 46.40 40.94 32.23 34.12 38.07 42.49 38.81 44.75 50.03 51.81 53.02 54.07 55.54 55.30 56.95 58.76 61.14 62.59 63.22 63.48 63.08 63.66 63.79 63.58 63.32 63.73 62.86 63.81 63.65 62.30 61.53 60.87 60.11 59.08 55.83 53.95 56.36 57.10 55.85 55.30 54.63 53.07 51.28 46.36 49.23 48.51 44.55 44.42
46.16 43.37 47.25 40.98 40.48 39.45 41.72 44.07 48.38 49.38 49.85 51.59 51.40 53.59 55.07 55.22 57.66 59.35 61.52 62.87 63.34 63.44 63.12 63.76 63.61 63.74 64.10 62.56 63.36 61.94 61.51 59.46 59.26 60.17 58.13 54.55 55.01 56.31 55.68 54.81 54.01 52.69 50.28 46.35 46.75 45.46 44.26 43.93 46.01
48.22 49.48 41.73 43.67 33.60 32.34 39.20 39.96 42.32 45.49 47.09 49.18 50.24 51.98 54.58 56.65 55.87 57.11 58.65 60.99 61.97 63.08 63.74 64.08 64.04 63.25 63.77 63.69 62.04 62.16 61.41 61.57 60.57 59.65 57.04 54.87 56.45 56.79 54.57 53.70 51.41 45.60 46.28 46.12 45.45 44.22 43.63 44.25 45.97
45.84 44.88 45.41 45.10 42.60 36.19 34.76 39.79 48.09 47.17 48.64 49.69 51.12 52.56 54.11 56.03 57.35 57.42 57.78 58.72 60.15 61.88 62.55 62.85 63.03 62.97 63.03 63.47 62.94 61.43 60.59 60.31 60.15 58.52 56.39 55.38 55.03 54.57 52.61 50.24 46.21 46.10 44.23 43.97 43.50 42.00 42.75 43.64 45.66
48.98 46.96 46.93 40.60 38.86 41.36 40.44 40.00 49.80 50.44 51.15 50.96 51.92 53.66 54.68 56.38 57.38 58.97 59.13 59.56 60.00 60.39 61.40 61.80 62.35 62.43 62.93 63.36 62.46 59.66 59.37 58.60 54.88 53.20 51.79 52.06 49.79 48.49 46.00 46.31 44.61 44.52 42.78 42.34 41.79 42.97 44.87 45.20 44.39

GFSSGP_sfc_wetblb_069.txt.gz
Wetbulb
63.47 62.74 59.60 56.51 48.50 48.24 44.58 46.09 49.79 48.52 49.83 58.09 56.88 54.97 52.81 55.09 55.52 49.04 69.38 71.72 71.98 69.31 71.31 72.55 71.33 72.10 72.19 72.18 72.06 71.97 71.84 71.26 70.61 69.96 69.66 69.62 69.45 69.84 70.06 70.14 70.36 70.77 71.38 70.45 69.60 68.19 67.66 67.27 66.81
62.68 57.99 57.70 53.86 46.17 43.00 44.31 48.51 46.86 50.09 54.80 57.33 60.62 58.81 55.46 54.63 61.51 61.99 66.29 69.50 71.89 70.01 70.86 72.37 70.85 71.48 71.82 71.50 71.60 71.41 71.19 70.36 69.66 69.69 69.60 69.60 69.53 69.94 70.09 70.19 69.99 70.11 70.97 70.23 69.25 67.68 67.17 66.93 67.00
60.35 58.01 53.75 50.77 47.26 43.76 43.57 48.41 49.31 52.18 58.08 58.21 58.51 61.11 57.66 57.10 63.24 64.64 68.05 70.03 70.93 69.47 69.92 71.89 70.36 70.61 71.22 71.16 70.90 70.58 69.88 69.36 69.14 69.29 69.60 69.50 69.67 70.01 70.88 70.82 70.66 70.33 70.67 70.39 68.21 67.31 66.83 66.91 67.17
57.06 55.39 53.28 46.24 44.43 46.76 47.32 50.82 54.02 55.15 59.02 60.68 60.45 56.94 63.40 66.00 65.01 67.35 69.41 70.43 69.86 67.86 70.03 69.76 69.36 70.03 70.77 70.82 70.46 69.65 69.05 68.76 68.79 68.58 69.08 69.55 69.79 70.25 70.43 70.42 70.55 70.46 70.65 69.75 66.98 66.78 66.52 66.63 66.45
56.62 53.65 47.35 45.95 45.69 47.49 51.15 53.18 56.50 55.92 57.27 58.05 59.71 57.03 59.74 61.63 67.40 69.03 69.51 71.15 70.33 67.86 70.28 70.91 68.69 69.76 70.21 70.50 69.56 68.69 68.56 68.48 68.41 68.34 68.54 68.83 68.83 68.94 68.93 69.23 69.96 69.99 70.08 67.84 66.32 66.22 65.75 65.89 65.25
52.07 53.05 45.73 43.24 44.81 48.77 51.29 55.67 56.61 56.06 57.61 58.51 58.50 59.09 61.12 66.46 66.64 68.20 70.30 70.96 69.77 66.97 68.81 69.64 69.36 69.49 69.43 68.99 68.32 67.91 68.11 68.10 67.78 68.05 67.96 68.13 67.84 67.84 67.96 68.05 68.50 68.14 67.32 66.96 66.44 65.93 65.29 64.75 63.65
50.57 49.66 46.12 45.82 45.37 47.53 50.98 57.50 55.66 56.06 55.91 57.69 60.89 57.01 62.37 64.57 66.45 68.90 69.52 69.96 67.85 67.76 67.67 67.33 68.38 68.42 67.08 66.58 66.60 66.76 67.37 67.27 67.33 67.53 67.26 66.97 66.57 66.44 66.53 66.79 67.04 66.60 66.20 65.88 65.44 64.78 64.24 63.38 62.14
51.92 50.22 46.51 46.35 44.72 45.97 53.21 54.31 58.16 57.09 57.02 61.03 62.08 57.08 58.27 65.17 66.56 67.68 68.99 68.27 64.45 66.99 66.36 65.06 63.43 65.01 63.86 64.92 65.88 66.17 66.55 66.73 66.55 66.25 65.77 65.32 65.33 65.48 65.87 65.43 65.74 65.76 65.41 64.86 63.90 63.74 63.13 61.70 60.69
53.97 47.60 44.66 46.05 45.91 47.77 52.92 52.26 58.51 59.93 58.08 59.61 61.74 61.79 65.34 65.09 64.48 63.67 64.78 64.60 63.20 62.77 62.81 60.62 60.41 61.26 62.40 62.79 64.61 66.10 66.17 65.68 65.04 64.89 64.40 63.48 63.16 63.30 63.95 64.79 64.97 64.84 64.20 63.69 62.84 61.89 60.70 59.43 58.13
50.86 47.66 46.66 49.68 50.21 49.08 50.83 53.17 55.85 55.96 56.35 56.78 59.92 63.04 64.63 64.86 62.90 61.59 60.90 61.32 59.77 60.37 60.53 59.45 58.70 58.41 59.05 60.66 62.14 64.70 65.52 64.34 64.04 63.68 63.64 62.67 64.71 64.62 63.86 63.81 63.36 63.27 62.58 61.66 61.47 60.77 60.18 60.75 59.35
51.49 47.37 50.02 50.50 51.46 52.48 50.93 52.78 57.33 55.50 52.90 57.73 57.90 61.27 62.48 62.85 61.68 59.99 60.00 60.24 59.04 60.44 59.76 59.59 58.65 58.25 58.35 60.66 62.65 61.92 63.10 62.89 63.19 64.32 64.59 64.41 64.94 64.97 64.25 62.85 61.66 61.27 61.18 59.67 58.87 58.44 60.64 61.25 60.24
48.67 51.67 51.79 52.03 52.59 53.85 52.23 55.99 55.09 55.62 57.73 60.60 62.16 62.55 62.28 61.00 60.18 59.69 57.66 58.00 59.15 59.29 59.05 59.67 59.37 59.18 59.42 61.53 61.30 62.04 61.31 61.80 62.98 63.93 66.20 65.55 64.68 64.62 63.44 62.49 62.39 61.72 61.41 60.61 61.49 60.79 60.21 58.96 57.65
50.32 52.26 53.52 54.10 54.29 54.70 55.23 54.26 54.28 55.58 60.11 62.35 62.30 61.84 61.11 60.03 60.21 59.77 59.10 58.61 58.49 58.16 58.63 58.67 59.12 58.86 58.50 59.60 58.93 59.15 61.44 62.78 63.61 64.25 65.56 64.78 64.57 65.73 64.20 64.10 62.80 62.35 62.27 61.65 61.08 59.58 58.15 57.49 56.80
53.92 53.75 53.72 54.42 53.97 54.98 53.68 54.13 55.41 58.51 60.78 60.83 60.50 60.48 60.81 59.75 58.43 57.50 57.46 57.18 57.28 57.29 57.05 57.81 58.42 59.14 58.90 58.05 57.05 57.72 62.21 61.93 63.12 63.95 64.05 66.20 65.56 65.84 64.58 64.12 63.16 62.42 62.09 61.54 60.82 59.38 58.34 57.36 56.18
53.74 50.75 52.43 52.86 54.28 52.53 54.28 51.07 51.47 59.14 60.19 59.83 59.41 60.04 60.70 60.28 57.89 56.54 57.29 56.91 57.17 57.32 58.16 57.89 57.96 58.13 58.28 59.03 60.68 62.07 62.47 63.29 62.57 62.86 65.74 65.07 65.66 65.34 64.85 63.60 62.30 61.85 62.21 61.55 60.52 59.27 58.33 57.01 55.20
49.75 50.88 45.88 49.41 53.50 53.30 52.97 45.68 49.44 59.41 59.29 58.52 59.32 59.35 59.39 57.76 58.85 57.69 58.08 57.71 58.27 56.16 56.29 57.08 57.69 58.65 60.16 61.58 62.78 63.24 62.96 63.61 63.53 63.67 64.38 65.53 66.19 65.94 64.81 62.42 61.24 61.66 61.38 60.21 59.12 58.36 57.06 55.48 54.67
48.79 43.95 46.06 48.28 52.64 51.87 51.19 48.10 52.08 58.37 58.54 57.58 58.59 58.28 58.69 58.74 59.76 60.75 61.12 60.83 60.83 59.94 58.70 57.82 59.32 60.73 63.05 64.07 64.64 63.92 64.71 62.85 62.51 63.91 65.10 66.19 66.23 65.51 64.14 62.80 62.76 61.71 60.35 59.25 58.46 57.75 56.94 54.80 54.63
43.18 44.86 45.30 45.54 50.40 51.28 49.45 49.48 51.82 56.08 57.58 57.82 58.20 58.81 58.50 58.56 59.11 60.96 61.34 61.17 59.24 60.60 60.48 61.67 62.93 63.87 64.89 65.65 64.31 62.96 62.81 62.86 63.63 64.94 65.61 66.24 65.88 64.72 63.69 63.49 62.47 60.86 59.54 58.97 58.50 57.49 56.10 55.75 55.50
47.82 46.59 45.91 48.38 50.81 48.79 47.97 49.70 50.55 55.32 56.50 55.77 57.03 57.48 57.84 58.16 59.53 61.23 60.67 61.70 59.85 60.67 60.54 62.14 63.23 64.26 64.68 64.10 62.61 61.53 60.49 61.87 63.22 65.38 65.52 65.67 65.55 64.78 64.42 62.95 61.22 60.54 59.73 59.36 57.95 56.40 55.20 54.36 55.26
47.35 46.10 46.32 49.01 49.89 49.10 48.79 47.85 50.13 54.10 55.90 56.92 57.25 57.37 56.94 58.71 58.87 59.89 61.18 60.65 61.31 61.59 62.92 63.23 63.49 64.44 64.70 64.36 63.34 62.09 61.71 62.05 63.38 65.87 65.36 65.53 65.07 64.45 63.50 62.76 61.06 60.39 59.77 58.84 57.32 56.23 54.68 55.33 55.17
47.86 46.70 46.94 46.13 49.41 50.16 48.63 45.92 48.33 52.09 55.59 56.85 57.66 58.46 58.46 57.72 59.05 59.77 60.43 61.87 61.70 62.06 62.88 63.29 63.85 64.21 64.98 65.10 63.92 62.74 62.59 62.59 62.53 64.39 63.59 64.05 64.48 64.47 63.72 62.70 61.53 60.67 60.05 57.69 56.87 56.17 55.57 53.60 53.95
45.47 49.97 48.13 47.38 46.57 39.92 49.52 40.21 47.31 49.84 51.55 55.11 56.19 57.82 58.76 59.14 59.88 60.61 60.24 61.17 62.69 63.31 64.55 64.85 64.79 64.82 65.48 65.24 63.93 62.26 60.76 60.11 62.23 63.53 63.65 62.78 63.81 63.17 61.68 61.63 61.21 60.86 59.84 58.32 56.89 56.65 56.48 55.25 52.57
46.90 49.85 48.44 48.48 47.12 46.51 45.39 42.54 45.61 48.81 47.82 51.30 55.25 57.53 58.41 59.84 60.51 60.29 61.44 61.34 62.49 63.69 64.11 64.90 64.89 65.18 65.54 65.74 65.20 62.98 61.97 62.68 63.63 64.12 63.27 63.34 62.56 61.75 60.77 60.23 60.36 60.13 58.82 58.64 58.45 57.09 55.74 53.93 52.00
51.09 48.64 48.85 48.98 47.45 41.01 44.96 43.59 43.78 46.34 47.79 50.21 53.48 56.02 58.29 59.48 60.51 60.81 61.80 62.82 62.64 65.38 65.11 64.39 64.47 64.85 65.55 65.80 65.55 64.75 63.41 63.29 62.63 63.95 62.06 61.96 61.29 60.06 58.26 58.30 59.61 59.35 57.12 57.88 57.20 56.21 54.69 51.97 50.76
49.67 47.17 40.96 38.85 39.30 38.68 45.98 43.01 45.30 48.83 50.63 51.10 52.11 54.66 56.59 59.00 60.68 61.05 60.76 61.28 62.16 63.18 63.97 64.48 64.05 63.61 64.95 65.54 65.70 65.50 65.13 64.70 64.22 63.19 62.08 60.97 59.56 58.05 57.63 57.88 57.02 57.49 56.37 57.68 56.49 55.05 51.68 48.71 48.72
47.60 47.40 41.52 34.09 36.12 39.66 44.91 39.73 44.93 50.19 51.39 52.25 53.32 55.17 57.05 57.94 59.08 61.20 61.97 62.15 62.10 62.86 64.00 64.69 64.23 63.85 64.29 64.92 65.92 66.22 65.95 65.19 65.45 63.97 62.79 61.06 59.37 59.69 58.58 56.11 55.29 55.49 55.61 56.76 55.40 51.34 48.94 47.43 48.13
47.79 44.87 49.61 43.71 43.51 40.05 43.05 45.90 48.89 49.71 49.55 51.59 51.53 52.94 55.20 57.07 58.66 59.41 61.89 63.02 63.59 63.67 64.53 65.90 64.78 64.69 64.83 65.40 66.19 65.63 66.18 65.26 64.23 63.77 62.59 61.03 60.13 58.11 56.91 55.66 54.35 54.06 53.76 52.84 49.31 46.12 44.67 45.11 45.53
49.21 51.18 43.23 44.20 35.46 34.09 40.72 42.48 43.63 46.69 48.20 49.77 50.66 51.68 54.18 57.42 57.65 59.48 60.40 62.38 64.02 64.92 65.22 66.01 65.39 64.45 64.74 65.14 65.34 64.84 64.95 64.02 63.16 61.16 60.84 60.11 58.79 56.75 55.51 54.89 53.54 51.76 47.85 47.28 46.26 45.25 45.13 43.84 44.42
46.52 46.01 46.95 46.69 43.80 37.65 36.31 41.04 49.56 48.08 49.01 49.41 51.23 52.27 53.43 55.24 58.08 58.49 59.50 61.51 63.27 64.78 65.21 65.20 65.06 64.89 64.47 65.04 65.47 64.69 64.11 62.60 62.33 60.58 60.40 59.26 57.28 55.62 53.41 50.89 48.27 46.94 45.23 44.63 44.36 43.29 42.83 42.19 42.79
49.92 47.22 47.34 41.94 40.27 43.17 41.73 41.81 51.15 51.07 51.60 51.79 52.04 53.07 54.37 55.79 56.89 59.37 59.87 60.13 60.68 62.16 63.53 64.32 64.87 64.74 64.78 64.76 64.55 63.58 62.37 61.14 59.92 58.60 55.36 52.53 48.39 48.69 46.79 46.30 45.00 44.85 44.39 43.49 42.36 41.70 43.46 42.94 43.55

GFSSGP_sfc_wetblb_072.txt.gz
Wetbulb
62.28 60.45 60.66 56.61 46.62 46.52 43.09 44.90 49.19 48.06 49.71 55.46 55.51 55.09 54.48 54.79 53.97 50.78 61.79 63.50 62.48 63.24 71.51 72.18 71.53 72.06 71.93 71.97 71.98 72.04 71.86 71.51 70.87 70.48 70.19 70.12 70.37 70.38 71.11 71.26 71.22 71.09 70.46 69.02 68.20 67.52 66.91 66.57 66.63
61.40 62.05 58.40 51.74 44.39 41.18 42.55 48.17 47.34 49.39 55.16 56.81 55.49 53.70 53.21 54.12 56.73 57.77 61.96 63.32 62.24 68.77 71.14 72.05 71.10 71.64 71.67 71.53 71.64 71.60 71.53 70.83 70.29 70.12 69.81 69.86 70.35 70.50 70.87 70.82 70.62 70.70 70.13 67.98 67.86 67.35 66.91 66.42 66.48
61.61 60.30 51.80 48.95 46.03 42.08 42.81 47.94 49.98 52.42 56.31 55.66 54.89 57.22 56.72 57.56 58.22 60.07 65.26 66.98 68.63 68.52 70.78 71.71 70.48 70.88 71.22 71.33 71.26 70.74 70.41 69.81 69.64 69.24 69.56 70.03 70.18 70.37 70.64 70.07 70.17 70.41 69.86 67.77 67.58 67.09 66.61 66.23 66.49
56.59 55.09 51.92 45.01 42.77 45.84 46.99 49.91 52.32 52.60 55.06 53.69 53.63 53.55 60.46 65.73 63.71 67.03 69.28 69.84 68.91 68.36 70.67 69.63 69.79 70.33 70.86 71.01 70.66 70.02 69.35 68.99 68.92 68.89 69.51 70.15 70.83 71.03 70.92 69.89 70.00 70.28 68.94 67.33 67.09 66.85 65.98 66.15 65.12
57.07 52.46 46.03 44.49 44.59 47.45 49.59 52.49 52.63 51.52 51.21 52.60 54.27 53.19 54.60 57.24 65.87 68.51 69.22 69.96 67.91 67.45 69.92 69.89 68.19 70.10 70.42 70.61 69.99 69.19 68.77 68.68 68.47 69.00 69.26 70.25 70.64 70.74 70.44 69.87 69.73 69.07 68.09 67.24 66.51 65.96 65.26 65.09 64.24
51.03 51.67 44.29 42.57 45.20 48.44 50.93 53.38 54.26 53.88 55.99 53.89 53.63 53.34 51.01 59.74 66.33 68.18 69.71 69.62 67.18 66.60 66.42 68.53 68.66 69.13 68.97 69.15 68.55 68.16 68.16 68.14 68.10 68.48 68.40 68.80 68.96 69.37 69.76 69.48 68.89 67.57 67.46 67.22 66.49 65.77 64.75 64.37 63.59
49.23 47.65 44.53 44.96 44.89 47.21 51.14 54.12 53.84 53.99 52.97 52.74 56.03 51.53 57.42 61.47 66.63 68.81 68.40 67.79 66.33 66.42 63.27 63.11 65.55 67.81 67.61 67.13 67.11 67.17 67.40 67.44 67.55 67.50 67.13 67.13 67.27 67.58 68.02 67.70 67.51 67.26 66.72 66.27 65.60 64.80 64.14 63.12 62.12
51.18 48.24 44.58 45.62 45.29 45.33 51.66 52.65 55.07 54.39 53.08 56.57 59.90 54.72 53.13 57.39 66.52 67.50 67.49 64.25 66.00 66.38 65.46 63.83 65.40 64.68 65.13 65.84 66.25 66.22 66.49 66.45 66.36 66.13 65.73 65.24 65.55 66.24 66.27 65.97 66.18 66.08 65.69 65.05 64.41 63.76 62.90 61.95 60.43
52.43 45.30 43.56 45.71 46.44 47.38 51.73 50.53 53.75 54.05 52.47 57.37 60.56 61.54 62.52 63.39 64.78 64.29 62.76 61.86 61.75 61.41 63.24 64.61 63.41 63.32 63.49 63.84 65.60 66.05 66.16 65.53 65.11 64.81 64.28 63.07 63.14 63.52 63.80 64.74 65.12 65.20 64.85 64.28 63.33 62.49 61.38 59.82 58.97
49.54 45.58 45.95 50.36 49.67 48.40 50.20 49.79 53.36 52.18 52.11 51.07 52.32 62.68 63.42 63.26 62.60 60.83 60.03 59.08 58.98 58.44 59.55 60.88 60.24 60.19 60.89 62.46 63.42 64.33 65.02 63.99 63.57 62.62 62.60 61.43 61.79 62.52 63.23 63.63 63.92 64.07 63.78 63.54 62.75 61.88 60.67 59.35 54.52
50.72 46.50 49.54 49.58 51.06 51.49 50.77 50.87 55.58 53.96 51.17 50.80 51.86 59.74 62.08 61.67 60.38 58.97 59.27 58.91 58.38 58.06 58.66 59.21 58.94 58.54 57.98 57.93 58.57 59.48 62.29 62.09 62.36 62.92 61.94 62.91 62.24 61.93 61.36 60.26 59.95 59.30 60.39 57.81 58.93 58.42 56.98 58.07 56.55
48.38 50.03 50.79 51.89 52.46 51.68 50.11 53.09 53.21 53.56 56.05 59.39 60.64 62.30 61.45 60.15 59.32 58.99 58.32 58.33 57.36 57.67 57.10 57.46 58.46 59.31 58.94 59.16 60.66 61.60 60.91 61.01 60.91 62.29 62.74 63.31 61.96 61.82 60.79 59.81 59.51 58.82 58.61 56.59 56.73 58.31 57.71 55.42 54.76
49.48 50.39 52.33 52.52 52.39 52.32 52.49 51.71 51.96 53.24 59.33 61.04 61.17 61.07 59.82 59.78 59.07 59.13 58.73 59.19 57.93 57.38 57.19 57.66 58.71 58.98 59.69 59.07 59.54 60.34 60.68 59.94 60.93 61.48 62.98 63.20 62.53 61.56 61.36 60.67 59.81 58.78 58.74 58.65 58.68 56.98 55.64 54.70 53.63
51.63 52.75 52.36 53.17 53.30 53.87 51.52 51.57 53.93 54.80 58.66 59.81 60.18 59.58 59.63 58.70 57.52 57.17 56.85 56.82 57.57 56.57 56.92 57.55 57.53 57.67 57.14 56.49 57.27 58.20 59.18 60.15 61.41 62.17 62.18 63.52 63.40 62.67 62.25 61.54 60.59 59.93 59.55 59.36 58.32 56.48 55.30 54.54 52.66
52.27 48.59 51.03 51.70 51.92 50.78 54.04 49.36 48.89 52.18 57.48 58.34 58.51 59.26 58.78 57.59 57.46 56.47 56.58 55.80 55.98 56.14 56.33 55.90 55.81 56.51 55.79 55.71 56.38 57.54 58.59 59.06 59.22 60.88 62.43 63.16 63.36 62.88 62.63 62.10 60.99 59.92 59.67 59.54 58.35 56.72 55.89 53.28 52.73
49.15 48.80 44.43 50.33 51.37 51.98 52.35 45.73 49.82 52.26 51.97 54.27 57.34 56.27 56.32 56.70 56.74 56.58 56.81 56.81 56.73 56.16 55.68 56.80 56.45 55.41 55.72 56.30 56.63 57.38 58.90 59.86 60.53 61.39 61.91 63.35 63.46 63.22 62.56 61.41 60.25 60.04 59.59 58.16 56.49 55.29 53.79 52.59 50.84
47.21 42.73 45.05 47.61 52.31 51.98 50.84 47.24 51.55 52.29 51.70 54.00 56.68 55.56 55.05 56.30 56.62 57.40 57.71 56.33 56.79 57.09 56.47 56.40 56.23 56.00 56.31 57.75 57.83 59.22 60.49 60.72 61.51 61.64 62.25 63.00 63.45 63.60 62.25 60.41 59.47 59.64 58.75 57.23 56.63 55.41 53.83 51.10 50.70
43.06 44.33 45.89 45.33 49.77 50.92 48.97 48.35 51.63 54.58 54.26 55.72 56.26 56.39 55.84 56.10 56.82 58.98 58.31 58.05 57.27 57.22 57.29 56.73 56.79 57.55 58.17 58.55 60.62 60.75 61.20 60.93 61.47 62.65 63.12 63.88 64.08 63.96 62.78 61.13 60.13 59.36 57.97 56.48 55.26 54.43 53.66 51.77 51.46
47.82 45.90 44.83 47.12 50.64 49.11 47.75 48.21 50.14 53.13 54.30 54.83 55.78 56.09 56.17 56.66 58.93 59.27 59.22 59.35 58.25 57.93 57.36 56.73 57.14 57.89 59.83 60.02 59.32 59.43 59.12 59.82 60.32 61.71 63.34 63.93 63.90 64.08 61.79 61.94 60.62 58.48 57.13 55.85 56.32 54.10 51.93 50.18 50.82
46.85 45.02 44.86 48.48 50.71 48.52 47.52 47.46 50.41 52.08 53.56 54.79 55.67 55.81 56.46 56.66 57.70 58.68 58.09 58.23 57.83 57.49 57.22 57.16 58.12 61.38 62.11 61.99 61.52 60.55 59.92 60.11 60.58 62.39 63.50 64.08 63.90 63.83 62.89 61.86 59.36 58.17 57.32 57.40 54.76 53.10 50.85 51.34 51.85
46.54 45.52 45.91 46.07 48.91 50.21 48.07 45.76 47.25 51.41 53.86 55.12 57.01 57.30 57.65 57.17 56.87 57.76 58.15 57.10 57.75 57.72 58.24 59.55 61.13 62.34 62.70 62.85 62.28 60.89 60.31 60.01 59.56 62.57 62.94 63.34 63.90 63.53 62.34 61.69 59.70 58.40 58.29 56.05 54.64 53.60 52.00 49.90 49.94
44.33 49.40 48.64 46.74 45.24 41.07 48.14 38.94 46.22 48.75 50.27 53.28 55.35 56.62 55.24 56.60 57.73 58.42 58.43 58.51 57.66 57.71 59.88 61.28 62.13 62.98 63.39 63.24 61.56 59.67 58.36 57.24 58.94 61.88 62.89 62.74 63.02 63.01 62.62 61.64 60.41 59.29 58.31 56.55 54.89 55.19 52.48 51.90 48.53
46.44 50.00 48.57 47.64 45.34 44.87 44.45 41.59 44.91 48.87 47.47 51.02 53.87 56.27 56.94 57.79 57.52 58.12 58.80 59.86 59.76 60.66 61.27 62.22 62.69 62.67 62.24 63.09 62.65 60.83 59.33 59.11 59.80 61.03 61.95 61.75 62.03 62.17 61.88 60.37 59.30 58.97 58.31 57.14 55.40 53.82 53.72 52.33 47.69
50.41 48.40 48.08 47.40 45.73 39.23 44.28 43.11 42.87 45.21 47.67 50.11 53.70 55.68 57.41 58.33 58.51 59.43 59.97 60.38 61.09 61.62 62.33 63.16 63.11 62.77 63.06 63.52 62.52 62.46 59.94 60.42 60.14 61.56 60.97 61.04 60.95 60.39 60.16 59.49 58.59 57.82 57.50 55.66 55.01 54.40 53.81 48.67 47.11
48.69 45.66 38.92 37.73 37.98 37.81 45.09 43.43 44.69 48.63 51.02 50.79 51.98 54.89 57.04 58.37 59.06 59.13 59.58 59.21 59.90 60.95 61.96 62.93 62.96 62.11 63.17 63.78 62.98 63.03 62.95 61.12 60.79 61.52 60.80 60.51 59.28 58.36 58.67 57.85 57.16 57.40 56.46 55.35 54.72 53.89 50.91 47.07 44.93
46.65 45.79 40.51 31.97 35.25 38.96 44.24 39.73 42.88 50.42 51.52 52.22 52.99 54.56 56.88 57.39 59.26 58.96 59.39 60.80 60.56 60.88 62.10 62.33 62.50 62.12 62.95 63.55 63.69 64.02 63.52 63.17 62.31 62.45 61.63 60.82 59.65 58.10 57.26 57.02 56.54 56.28 55.30 54.61 53.63 49.59 48.37 46.61 46.56
46.69 43.26 48.49 43.20 43.75 39.95 42.15 45.42 48.65 50.02 49.48 50.40 51.24 53.36 55.29 56.83 57.82 59.18 60.49 60.25 61.23 61.48 62.04 62.60 62.56 62.47 62.79 63.48 63.82 64.00 64.17 63.86 63.04 62.79 62.36 60.74 60.06 58.93 57.73 56.53 55.48 53.83 53.00 50.84 48.60 47.14 44.98 45.15 44.68
47.76 50.17 42.48 44.04 35.23 33.20 39.28 41.11 41.28 46.34 47.84 49.76 50.18 52.11 54.44 57.42 57.93 58.46 59.59 61.49 61.33 62.02 62.87 63.24 63.34 63.29 63.23 63.41 63.65 64.02 64.29 64.28 63.91 62.95 60.61 59.51 59.61 57.59 56.33 54.18 53.16 49.68 48.36 47.25 45.95 44.93 44.62 43.85 43.76
45.35 44.39 46.73 45.80 42.91 36.02 34.98 39.57 48.88 48.30 49.02 49.59 51.14 52.56 54.39 56.08 57.30 58.16 59.31 60.57 62.61 62.62 61.52 63.45 63.99 63.80 63.62 63.78 63.83 63.74 63.75 62.01 60.74 59.81 59.70 58.59 57.84 55.78 53.57 49.62 47.55 46.08 45.16 44.54 44.07 43.57 43.38 42.60 42.98
48.00 46.08 46.70 41.15 39.54 43.17 40.34 40.99 51.88 51.56 52.41 52.48 52.64 53.20 54.56 55.58 56.78 58.23 58.92 59.58 60.28 62.71 63.41 62.77 63.54 63.83 63.88 63.53 63.68 63.36 62.34 60.50 59.14 58.08 56.00 54.66 53.43 50.69 48.67 47.08 45.30 44.94 44.88 44.80 43.24 42.46 42.78 41.99 41.90

GFSSGP_sfc_wetblb_075.txt.gz
Wetbulb
58.15 57.66 54.74 51.53 40.28 36.81 34.72 39.18 44.57 44.96 49.98 52.92 52.89 51.33 50.81 52.52 53.14 46.54 60.06 63.92 64.98 63.88 64.00 67.85 71.00 71.89 72.08 71.94 72.05 71.67 71.67 71.50 71.45 70.98 70.93 70.87 71.14 71.51 71.54 71.32 70.57 69.90 69.36 68.08 67.36 67.30 67.32 67.20 67.06
57.15 57.43 53.75 47.21 35.96 31.09 36.59 43.31 43.10 51.02 53.78 54.63 55.36 55.44 53.79 51.35 56.62 57.78 59.45 63.30 63.60 63.80 65.62 66.53 69.92 71.13 71.74 71.60 71.55 71.40 71.35 71.05 70.66 70.49 70.57 70.77 71.34 71.46 71.34 70.63 69.61 69.29 69.22 67.50 66.96 66.56 66.58 66.50 66.49
59.28 59.30 46.52 40.21 36.28 35.34 36.10 44.34 46.69 51.51 53.53 52.93 52.24 55.70 53.67 57.02 59.80 59.39 62.76 62.10 63.46 62.33 63.72 63.81 69.65 70.57 71.43 71.34 71.25 70.71 70.39 69.95 69.82 69.88 70.42 70.99 71.20 71.34 71.14 69.97 68.61 69.00 69.03 67.32 66.68 66.27 65.95 65.60 65.52
51.75 48.95 46.18 37.47 36.40 40.85 44.10 47.83 48.38 49.98 52.94 54.59 53.81 50.79 55.33 59.53 58.63 64.34 65.97 64.98 62.24 64.29 68.04 68.15 69.08 70.14 71.08 71.31 70.78 70.18 69.84 69.11 69.05 69.47 70.17 70.79 70.94 70.89 70.73 69.69 68.61 68.73 68.56 66.95 66.13 65.63 64.78 64.91 64.61
50.75 45.78 37.30 36.04 39.12 43.99 47.09 49.90 51.74 51.18 51.91 53.90 53.54 50.73 52.18 58.21 59.45 66.01 66.62 67.90 66.58 66.49 68.14 69.11 68.53 70.06 70.90 70.93 70.24 69.43 68.96 68.61 68.84 69.22 69.61 70.26 70.41 70.29 70.17 68.95 68.16 68.02 67.98 66.82 65.62 64.70 64.63 64.26 63.59
44.12 43.95 36.21 36.88 40.41 45.39 48.04 50.16 51.61 52.67 53.17 53.58 52.37 52.29 53.61 58.90 56.16 60.48 67.23 65.88 65.03 64.84 66.06 66.10 67.93 68.42 69.56 69.68 68.89 68.32 68.20 68.26 68.62 69.33 69.77 70.04 69.92 69.71 69.63 68.10 67.67 67.66 67.43 66.84 65.89 65.11 64.42 63.35 62.97
42.61 38.87 36.08 38.47 40.56 44.83 47.86 51.54 50.66 52.62 52.12 52.28 54.54 51.84 55.90 55.25 59.11 64.51 66.20 65.39 64.63 64.45 65.34 64.84 63.73 65.13 67.57 67.37 67.27 67.07 67.56 67.86 68.09 68.18 68.43 68.85 68.71 68.69 68.44 67.63 67.62 67.45 66.88 66.04 65.21 64.26 63.24 62.63 61.91
45.38 40.97 37.16 38.38 40.28 41.20 48.77 49.71 52.61 51.45 49.44 56.80 57.23 49.54 51.18 55.03 59.03 64.31 64.13 64.44 64.43 63.15 62.48 63.92 64.87 64.71 65.58 66.42 66.40 66.29 66.54 66.45 66.56 66.69 66.63 66.41 66.72 67.09 66.99 66.81 66.82 66.68 65.95 65.24 64.25 63.30 62.36 61.44 60.40
46.95 37.18 35.77 39.60 42.31 44.15 50.74 46.95 52.33 51.60 50.94 53.66 54.18 52.35 56.60 63.26 64.18 61.92 61.50 61.00 61.63 63.64 63.20 63.50 63.32 63.43 63.65 64.50 65.58 65.63 66.03 65.56 65.27 65.20 64.87 64.14 64.58 64.26 64.06 65.21 65.54 65.49 64.89 64.38 63.70 62.73 61.46 60.41 59.09
42.34 36.01 39.19 45.72 46.51 45.28 48.29 46.04 51.56 50.44 50.72 51.84 52.85 55.29 61.99 62.64 61.73 60.23 59.44 58.70 59.37 60.57 61.17 62.20 62.50 62.81 62.81 63.37 64.18 63.41 63.73 62.48 62.27 61.75 60.56 61.22 61.89 62.91 63.56 64.19 64.58 64.75 64.26 63.76 63.25 61.87 60.88 57.20 52.68
44.90 40.68 45.01 46.46 48.64 47.17 47.16 46.90 52.47 49.82 48.47 53.13 52.17 55.31 61.02 60.10 59.32 58.57 58.98 58.21 57.74 59.28 59.54 59.78 60.28 61.29 61.71 61.55 61.57 62.42 62.25 61.27 61.21 60.62 60.60 61.57 61.76 61.23 60.86 60.40 59.97 59.98 61.30 58.78 59.15 57.36 54.82 55.05 52.76
43.99 47.35 46.78 46.95 50.05 49.98 47.32 48.28 48.67 53.59 52.51 55.78 58.66 61.15 60.31 58.59 58.24 58.05 57.49 57.11 56.47 56.41 57.81 57.71 57.92 58.37 58.98 59.24 59.46 60.36 60.88 60.24 60.39 60.81 61.68 60.73 60.07 58.68 58.53 57.85 57.15 55.86 55.75 54.66 53.76 54.58 52.99 51.61 51.24
46.63 47.83 49.09 50.68 50.90 50.59 52.35 47.64 48.72 51.41 54.86 59.49 60.64 59.89 58.54 58.23 58.37 58.78 58.83 57.93 56.31 55.41 57.09 57.19 57.33 57.11 57.14 57.06 57.83 57.67 60.39 59.92 60.31 61.37 62.28 61.60 60.11 58.55 58.72 57.56 57.66 56.29 54.91 54.32 55.08 53.57 52.66 51.34 50.55
48.36 48.15 48.24 49.44 49.87 51.16 49.99 49.60 49.54 50.96 54.84 55.33 58.12 57.24 57.24 56.37 56.74 56.97 57.21 56.81 55.97 56.17 56.53 57.35 57.69 58.16 58.98 58.18 58.40 58.83 59.38 59.47 60.58 60.91 61.50 61.50 60.85 59.66 58.86 58.11 57.32 56.54 55.62 55.88 54.62 53.44 52.36 50.82 49.42
49.59 45.37 46.51 48.07 48.02 47.89 47.92 46.39 46.14 51.83 54.77 52.39 53.37 56.67 56.11 56.72 56.26 56.01 56.95 55.70 56.39 56.51 56.63 55.74 56.07 57.40 57.31 56.89 56.51 56.55 57.26 58.42 58.68 59.96 60.50 61.41 61.32 60.11 60.06 58.46 57.79 57.66 56.86 56.40 54.54 53.59 52.41 50.20 50.06
45.81 44.01 39.25 45.04 49.19 49.84 48.28 41.14 50.25 52.91 52.12 51.34 54.73 55.05 54.43 54.43 55.93 55.75 55.89 56.01 55.60 55.42 55.20 56.36 56.71 55.59 55.57 55.17 54.99 55.68 55.86 56.59 56.75 58.56 59.42 60.63 61.72 61.00 60.57 59.27 58.51 57.74 57.54 56.00 54.86 53.45 51.21 49.69 47.21
42.82 37.88 39.97 43.82 49.28 48.40 46.87 43.51 49.77 52.40 52.36 51.16 52.17 52.92 52.69 53.16 54.57 55.86 55.84 55.64 55.53 55.79 55.55 55.08 54.50 54.45 54.59 54.92 55.09 55.20 55.79 56.25 55.33 57.30 58.94 60.50 61.34 61.24 59.96 58.94 57.77 57.07 56.01 55.36 54.60 52.86 51.50 48.70 47.71
38.84 39.87 43.83 42.19 46.67 47.88 45.18 45.89 48.47 50.73 51.45 50.78 51.42 51.28 52.21 52.99 53.55 55.66 55.88 55.42 55.33 55.04 55.56 54.41 53.77 53.75 54.21 54.43 54.22 54.53 55.91 56.77 56.47 58.04 59.05 60.21 60.57 61.28 60.14 58.34 56.91 56.77 55.59 54.88 53.83 52.45 51.59 49.44 48.52
44.90 44.24 40.67 43.29 47.11 45.63 44.17 44.19 46.25 48.78 49.63 49.65 50.12 51.11 52.35 52.74 55.13 55.61 55.16 55.22 55.08 54.90 55.08 54.17 53.27 53.75 55.04 54.49 54.41 55.39 56.31 57.34 57.91 58.79 60.15 61.21 62.58 62.25 60.34 59.03 57.32 57.13 55.82 54.45 53.14 52.82 50.12 48.59 48.48
45.98 41.71 40.56 43.97 48.64 46.21 42.43 42.18 45.59 47.72 49.51 50.80 51.67 51.81 52.51 53.68 54.57 54.89 54.53 54.35 54.27 54.47 54.84 54.54 54.27 54.60 55.50 55.65 56.24 56.76 57.15 57.94 58.07 58.61 60.93 61.69 61.72 61.83 60.42 59.71 58.50 57.02 55.63 54.00 53.32 51.07 48.77 48.26 48.34
43.60 41.92 41.60 42.59 46.08 45.09 42.93 40.47 43.41 47.93 50.58 52.58 53.40 53.99 54.35 53.45 53.89 54.52 54.55 53.83 54.43 54.30 54.03 54.24 54.64 55.58 56.27 57.62 58.47 58.29 56.27 56.34 55.61 56.22 59.06 60.94 62.03 61.89 61.40 60.04 58.31 56.74 55.86 54.77 52.62 50.50 48.89 47.00 48.03
40.86 46.88 46.57 45.29 41.17 35.16 43.44 33.13 42.14 46.55 47.84 50.82 52.96 52.98 53.37 54.45 54.93 54.95 55.05 54.30 54.16 54.47 55.12 54.83 55.49 56.14 57.39 59.68 59.36 58.11 56.28 55.05 56.61 57.82 59.98 60.87 61.69 62.03 62.01 60.76 59.29 56.65 56.33 54.69 53.41 52.99 50.99 49.22 48.09
43.91 48.47 46.72 45.43 41.11 38.69 39.81 38.15 39.88 45.64 45.52 47.89 52.18 52.77 53.82 54.34 54.84 53.87 54.48 54.89 54.04 54.81 54.71 55.29 55.93 56.99 60.51 60.65 60.27 58.91 56.14 56.30 55.83 59.22 60.39 60.88 61.25 61.44 61.48 61.65 59.46 56.97 56.31 55.67 54.23 52.35 51.39 52.12 49.60
48.95 46.05 44.66 43.50 40.15 32.71 40.28 39.92 37.54 40.73 45.22 48.14 51.57 53.49 54.22 54.27 55.58 55.93 55.65 55.86 54.46 55.44 56.14 56.84 57.31 58.95 60.90 60.73 60.55 59.18 55.96 55.91 55.32 56.96 59.47 60.04 60.39 61.13 60.75 60.24 58.89 57.54 57.01 56.40 55.48 54.14 53.05 50.46 48.83
45.60 41.11 32.83 30.75 29.93 30.32 42.97 40.11 40.69 45.54 47.61 48.16 50.81 53.71 53.53 54.76 55.15 55.69 55.81 55.70 55.41 55.36 55.77 56.60 58.08 58.94 60.53 60.97 61.13 59.07 57.62 56.69 56.18 57.53 59.57 59.22 58.21 57.83 58.55 57.57 56.47 55.62 55.62 55.80 55.12 53.78 51.78 47.13 46.79
42.22 41.41 34.02 29.03 28.89 35.01 42.99 37.68 39.82 48.16 48.98 48.85 49.65 53.60 54.95 54.96 55.31 55.91 56.54 56.90 56.90 56.90 57.39 58.24 59.04 59.16 60.09 60.38 60.39 59.81 58.94 58.48 58.40 58.52 59.67 59.63 59.18 58.98 57.23 56.11 55.24 55.06 55.26 54.57 53.53 50.46 48.15 47.49 46.30
43.30 39.30 44.83 39.52 39.18 34.83 37.46 41.45 46.82 47.87 46.29 48.16 46.92 48.59 51.79 55.21 55.61 55.68 57.18 57.63 57.82 58.51 57.94 58.56 60.21 60.18 60.46 59.53 60.62 59.57 60.24 59.32 58.57 57.93 59.50 59.31 58.27 57.50 56.79 56.01 54.80 53.63 53.33 51.11 49.23 47.65 46.95 46.25 45.41
44.88 47.19 37.94 39.06 30.54 29.42 35.51 36.14 37.58 43.52 46.42 46.45 45.37 47.16 49.46 51.56 53.10 56.20 57.35 57.77 58.00 58.88 59.68 59.84 60.51 60.77 60.86 60.63 60.79 61.23 60.61 60.70 60.31 59.87 58.81 58.13 58.52 57.25 55.82 55.18 53.30 51.10 49.30 48.53 47.11 45.79 45.28 44.60 44.25
42.29 41.25 42.68 42.52 38.71 29.67 27.58 33.16 43.86 45.02 46.15 45.40 45.98 48.49 49.19 50.69 51.48 52.20 53.35 57.67 58.97 58.89 58.89 59.87 60.10 60.45 60.52 60.86 60.29 60.87 61.39 61.37 60.94 59.22 58.09 57.21 56.25 55.46 54.14 51.70 50.80 48.15 46.48 46.03 45.16 44.66 44.63 43.85 43.34
45.93 42.33 42.67 35.82 35.74 36.77 32.64 33.47 47.41 46.92 47.04 47.17 46.94 48.65 48.84 51.65 51.96 52.57 53.16 54.07 57.56 57.87 59.21 59.77 60.35 61.11 61.01 61.13 60.07 60.73 60.64 59.53 58.65 58.70 58.09 56.45 54.15 53.03 50.92 50.44 47.78 45.84 45.43 45.52 44.86 43.95 43.93 43.24 42.41

GFSSGP_sfc_wetblb_078.txt.gz
Wetbulb
57.04 56.68 53.01 49.77 38.68 35.23 31.93 36.82 41.68 43.17 48.14 51.98 52.49 51.69 50.14 50.81 51.14 45.04 59.38 61.96 64.71 63.85 67.28 69.51 71.10 71.77 71.72 71.59 71.59 71.62 71.69 71.62 71.38 71.25 71.28 71.50 71.48 71.46 70.73 69.93 69.64 69.33 69.19 68.25 68.61 68.32 68.19 68.13 67.73
55.72 55.79 51.99 44.66 34.66 29.22 32.54 38.87 44.57 47.95 51.93 53.94 54.43 54.01 53.56 50.65 56.23 57.34 57.68 62.26 64.63 64.46 65.06 69.06 69.49 69.75 71.19 71.35 71.25 71.23 71.70 71.42 70.96 70.96 71.06 71.43 71.48 71.04 70.10 69.66 68.78 68.58 68.83 68.16 67.98 67.78 67.10 66.16 66.16
56.06 57.19 46.02 39.78 32.57 31.03 32.90 40.92 46.52 50.11 53.45 51.92 50.33 54.63 52.84 55.89 58.13 58.75 61.46 62.41 64.03 64.05 64.82 68.98 68.63 67.94 70.20 71.33 71.10 70.76 70.63 70.21 70.14 70.37 71.18 71.33 71.02 70.51 69.66 68.93 68.32 68.34 68.38 67.32 67.37 66.72 65.51 65.15 65.47
49.71 46.88 43.76 36.30 33.68 38.54 40.48 44.29 47.47 50.15 51.90 53.50 52.75 50.84 54.28 58.34 57.56 60.13 64.18 61.91 61.77 62.36 63.96 66.59 68.81 69.54 70.41 71.23 70.94 70.39 69.93 69.48 69.54 69.85 70.76 71.18 70.89 69.87 69.14 68.51 68.32 68.22 67.90 66.53 66.06 65.12 64.75 64.53 64.86
48.68 42.78 36.30 33.09 35.72 40.26 45.20 47.13 50.06 50.41 50.90 53.90 52.52 50.99 52.60 57.64 57.93 61.96 66.04 63.24 62.20 65.01 65.92 64.33 67.75 68.99 70.07 71.14 70.79 69.80 69.30 69.10 69.13 69.93 70.27 70.62 70.14 69.21 68.66 68.23 68.00 67.57 67.18 65.78 64.65 64.49 64.80 63.94 64.00
44.49 41.43 33.74 31.20 36.71 41.82 46.02 49.87 52.36 52.52 52.90 53.17 51.32 52.68 53.73 57.88 57.92 61.83 65.41 65.35 65.92 65.64 66.14 65.59 66.66 67.48 68.57 69.89 69.40 68.57 68.56 68.65 68.96 69.36 69.61 69.93 69.47 68.47 68.20 67.93 67.49 67.15 66.66 65.95 65.27 64.61 64.00 63.53 63.08
42.01 37.88 33.65 34.09 38.48 40.57 45.95 49.53 49.91 52.15 51.26 51.13 54.26 50.67 53.68 55.01 59.00 63.99 64.81 64.21 64.56 65.39 65.39 65.13 65.14 64.40 64.50 68.38 67.79 67.13 67.72 68.10 68.24 68.64 68.58 68.76 68.17 67.41 67.51 67.52 67.39 66.70 65.81 65.09 64.34 63.74 63.24 62.98 62.14
43.32 40.13 34.05 36.32 37.69 38.78 46.41 48.11 50.95 50.08 48.87 56.04 55.98 49.88 49.45 54.19 62.75 63.57 63.12 63.83 62.59 63.42 63.45 63.85 63.35 62.25 62.96 67.10 66.42 66.75 67.24 67.44 67.78 68.05 67.65 67.29 66.72 66.78 66.83 66.69 66.50 66.03 65.31 64.72 63.78 62.81 62.12 61.73 60.83
44.49 36.84 33.66 36.42 37.44 41.89 47.99 45.44 50.70 49.66 51.94 52.84 54.57 53.93 55.42 62.62 62.68 61.60 61.28 61.60 62.10 62.70 63.22 63.37 62.43 62.07 62.39 63.54 65.47 65.46 66.39 66.57 66.42 66.80 66.42 65.71 65.86 65.30 64.59 65.18 65.35 65.40 64.63 63.97 63.22 62.57 60.65 58.56 59.58
41.75 34.68 38.00 42.28 42.56 44.35 46.45 42.97 49.45 49.11 49.24 51.26 53.11 55.73 59.97 62.27 61.68 60.06 59.68 59.65 60.41 60.69 61.24 62.16 62.09 62.05 61.78 61.38 61.53 62.41 62.78 64.57 64.73 64.40 62.97 63.21 62.83 63.12 63.71 64.13 64.52 64.44 63.91 63.54 62.55 61.61 59.36 56.53 50.98
41.09 39.16 45.18 45.67 46.00 46.72 46.65 47.00 50.61 49.53 47.72 51.99 51.20 54.20 60.83 59.92 59.26 58.89 58.94 58.56 59.17 60.22 61.00 61.83 61.45 61.41 60.59 59.46 60.02 62.22 61.00 60.94 60.88 61.10 62.07 62.46 62.57 62.26 61.96 61.77 60.96 60.61 61.18 58.47 57.56 54.49 53.87 52.61 49.36
40.28 45.05 45.76 45.07 48.96 48.09 46.42 48.00 52.18 51.74 51.98 56.82 57.30 60.72 59.30 58.00 58.25 58.60 57.67 57.01 57.29 58.20 58.94 60.93 61.50 60.97 60.17 59.65 58.94 61.32 60.52 60.30 60.10 61.22 61.03 60.23 59.59 58.14 58.05 58.10 57.51 57.08 55.69 54.68 52.92 53.18 50.52 49.55 49.20
43.17 45.43 47.59 48.55 49.57 47.70 50.10 47.92 51.32 50.44 56.27 56.80 59.73 59.39 58.40 58.07 58.17 58.77 57.90 56.95 56.75 56.31 56.71 57.83 59.36 59.86 60.04 59.60 59.87 60.31 59.97 60.14 60.64 60.69 60.59 59.61 57.60 56.76 55.72 56.05 55.54 54.90 53.52 52.58 53.51 51.39 50.29 48.91 48.68
47.02 46.63 47.08 47.55 48.20 47.81 47.61 48.73 50.41 53.14 56.04 54.12 55.59 56.28 56.31 57.12 57.44 57.91 56.79 55.57 56.13 56.49 55.89 56.71 57.29 57.89 58.58 58.50 58.51 58.94 59.74 60.07 61.01 60.94 60.61 59.19 57.93 57.29 56.00 55.48 54.95 54.87 53.44 54.10 53.19 51.60 50.33 48.98 47.32
47.86 43.60 44.66 44.68 45.60 45.64 46.45 44.30 44.96 52.60 53.98 53.44 55.05 56.83 54.97 55.51 56.75 56.53 57.08 55.68 56.07 56.21 56.65 56.69 57.18 57.84 57.05 56.62 57.28 59.04 59.31 60.72 60.62 60.73 60.99 59.52 59.11 57.81 56.35 54.78 55.10 54.84 53.47 54.78 53.01 51.46 50.94 48.56 48.29
44.10 41.94 37.28 44.35 45.26 47.64 46.71 39.76 48.41 52.03 52.73 51.39 55.06 55.25 53.98 54.43 56.17 56.51 56.23 56.39 56.60 55.81 55.79 57.17 57.93 57.34 56.93 56.47 56.86 56.88 57.72 59.36 59.51 60.07 60.58 60.49 59.61 58.98 57.34 56.02 55.69 55.86 54.63 54.49 52.88 52.02 50.85 48.62 47.53
39.42 35.70 38.24 41.91 45.95 46.24 45.13 41.29 47.42 51.53 52.84 52.93 53.18 52.32 51.57 52.43 54.51 55.77 56.41 55.65 55.87 56.05 56.09 55.89 56.42 55.77 55.37 54.98 55.28 54.93 55.48 55.92 56.25 58.30 58.78 59.44 59.97 59.42 59.17 57.37 56.74 56.20 55.57 54.44 54.10 52.05 50.75 47.85 45.94
35.48 36.89 40.69 39.87 43.96 45.52 42.27 42.54 46.90 49.74 50.35 50.80 50.14 50.62 50.95 51.49 52.04 54.69 55.60 55.68 55.70 55.86 55.46 55.07 55.53 55.22 54.83 55.10 55.11 54.51 55.42 55.73 55.28 55.38 56.79 58.00 59.10 59.61 58.67 57.71 56.35 55.77 54.44 53.38 52.25 51.51 50.69 48.61 47.08
41.88 40.83 39.49 42.89 45.47 45.09 43.45 42.20 44.27 47.96 48.58 47.65 48.74 50.13 50.47 51.78 52.78 54.09 54.66 55.09 54.76 55.36 54.46 53.34 53.47 54.07 54.50 54.14 53.03 53.23 53.14 53.74 54.30 54.43 56.75 58.13 58.72 59.42 58.36 57.20 55.52 55.46 54.35 53.87 52.58 51.09 50.08 48.24 47.35
42.22 40.40 40.41 43.62 46.01 44.58 41.93 40.22 42.91 47.78 48.78 49.09 49.52 50.29 50.24 51.69 53.07 53.63 53.60 53.51 53.28 53.96 53.44 52.48 52.26 52.75 53.33 53.45 53.23 52.84 53.18 55.14 54.92 55.21 56.44 58.20 59.39 59.80 58.73 57.50 56.19 55.75 54.31 53.12 52.29 51.45 48.56 48.15 47.59
42.18 40.15 40.56 40.48 43.59 42.77 40.47 38.99 41.51 46.31 48.47 50.56 51.51 51.63 52.11 51.96 52.03 52.95 53.25 52.69 53.06 53.12 53.46 52.92 52.37 52.50 53.68 53.64 53.37 54.59 54.69 54.94 54.55 54.99 55.54 58.21 59.70 60.75 60.05 58.82 57.99 56.29 55.37 53.63 51.96 50.70 49.11 47.86 47.95
38.53 44.83 44.74 43.38 40.00 34.34 40.47 31.64 39.45 43.64 46.63 49.40 50.57 50.79 51.92 52.86 53.76 53.47 52.85 52.41 52.71 53.15 53.93 53.92 53.80 52.89 53.82 54.86 54.25 54.23 54.33 53.11 55.15 55.65 56.64 59.08 59.91 60.35 60.59 59.88 58.97 56.67 56.32 54.18 52.97 51.49 49.71 49.75 48.65
41.88 46.45 44.89 44.00 39.88 36.33 37.32 34.67 38.34 42.82 43.86 47.75 49.91 51.46 52.00 53.49 53.51 53.18 53.26 53.26 53.61 54.00 53.74 53.45 53.74 53.87 54.34 55.28 55.32 55.31 54.90 56.01 55.58 55.00 55.90 58.80 59.76 60.30 60.76 60.43 59.35 57.13 55.56 55.08 53.99 52.93 51.93 51.86 50.34
47.60 44.37 42.75 41.42 38.52 31.48 37.44 36.91 36.06 38.58 43.28 47.97 50.66 51.99 52.42 53.00 54.11 54.24 54.51 54.18 53.66 54.32 54.10 53.20 53.18 53.94 54.74 55.09 56.28 57.10 56.34 56.21 54.80 54.42 55.90 57.61 59.18 60.06 60.52 60.54 59.14 58.64 56.53 55.44 54.33 52.95 52.79 51.98 49.56
43.98 39.07 30.81 29.34 29.03 29.26 40.76 37.48 39.82 44.27 45.40 48.64 50.62 51.38 52.65 53.51 53.52 53.73 53.83 53.44 53.36 53.20 53.43 53.65 53.43 53.63 55.07 56.57 57.64 58.36 58.23 57.17 55.67 54.91 56.33 57.18 58.32 59.09 59.73 60.14 59.41 58.35 57.02 55.54 55.30 53.84 53.56 51.10 49.36
40.75 39.72 31.65 27.54 27.51 31.88 40.99 35.33 39.05 45.77 47.70 48.61 50.79 53.32 53.34 53.34 53.89 52.97 54.05 54.04 52.59 53.04 53.17 53.27 53.58 53.89 55.67 56.05 58.96 59.59 59.35 58.39 57.12 56.12 57.36 58.20 58.89 59.44 59.87 60.04 59.78 56.47 55.22 54.66 54.30 51.08 48.59 48.23 48.43
41.11 37.07 43.04 36.64 36.20 31.51 35.98 39.67 44.26 44.42 44.89 45.67 47.38 52.32 52.20 52.92 53.93 54.26 54.01 54.21 54.39 52.46 53.14 53.78 54.64 55.49 56.48 57.35 59.00 59.63 59.52 58.47 57.66 56.85 56.80 59.26 59.29 59.16 58.94 58.73 56.97 55.05 53.60 51.98 49.94 48.76 47.82 48.72 47.26
43.92 45.51 36.26 36.85 29.73 28.39 33.83 34.93 36.53 41.76 43.09 44.09 45.07 48.76 51.89 52.95 53.61 54.78 55.52 55.26 55.02 55.16 54.84 55.11 55.36 55.95 57.16 58.39 59.11 59.60 59.54 59.20 58.49 57.16 57.18 58.10 58.72 57.76 56.99 56.37 55.33 53.85 52.42 50.43 49.31 48.11 47.32 46.23 45.89
40.59 39.74 40.16 40.07 36.92 29.59 27.30 32.40 41.63 43.70 44.92 43.86 44.29 46.94 49.55 52.39 53.60 54.32 55.28 56.68 56.89 56.97 56.59 56.23 56.44 56.95 58.22 59.18 59.18 59.63 59.12 59.09 58.63 57.15 57.39 56.61 56.85 56.89 56.49 55.45 54.07 52.04 51.08 49.19 47.44 46.83 45.88 44.84 44.58
44.64 42.33 41.25 33.31 33.45 34.91 31.88 35.30 44.60 44.87 44.89 44.48 44.76 47.58 47.21 49.46 51.94 54.32 55.70 56.13 56.90 57.18 57.59 57.82 57.64 58.16 59.43 60.03 59.81 59.39 59.75 58.60 58.42 57.82 57.52 57.59 56.13 56.59 56.03 53.27 52.79 50.90 48.70 46.83 45.93 44.78 45.03 44.33 43.90

GFSSGP_sfc_wetblb_081.txt.gz
Wetbulb
56.03 55.92 51.76 47.68 37.59 34.89 31.28 35.66 38.67 41.57 46.33 50.52 51.88 50.54 48.61 50.55 49.74 43.51 58.20 60.27 64.48 64.77 67.02 70.92 70.81 71.37 71.35 71.54 71.54 71.73 72.07 71.93 71.76 71.46 71.16 70.94 70.63 70.36 69.93 69.30 69.42 69.81 69.83 68.78 68.55 68.41 67.93 67.41 67.41
54.77 54.12 49.90 41.74 33.61 28.74 31.80 37.30 42.01 47.04 50.66 52.60 53.19 53.02 52.62 51.13 55.27 56.38 56.64 61.15 64.02 64.24 65.68 70.14 70.38 70.65 71.03 71.16 71.37 71.41 71.85 71.83 71.43 71.40 70.99 70.92 70.39 70.17 69.57 69.08 68.86 69.52 69.76 68.79 68.63 68.10 67.33 66.73 67.01
54.15 53.92 44.50 37.77 30.48 30.30 32.28 39.16 42.92 48.16 52.36 50.83 49.23 53.13 52.14 54.49 56.83 58.08 60.70 61.76 63.73 63.54 64.08 68.80 69.74 69.47 70.03 70.35 70.91 70.99 71.02 70.95 70.88 70.83 71.04 70.65 70.20 69.88 69.28 68.55 68.47 69.20 69.35 67.91 67.20 65.99 65.91 66.24 65.39
48.95 46.07 41.95 35.55 31.83 36.72 38.90 42.64 42.59 47.06 50.44 52.17 51.14 49.08 52.62 57.61 56.89 59.44 61.61 63.96 62.72 63.22 63.39 67.16 68.09 68.40 68.50 69.06 70.23 70.62 70.37 70.07 70.18 70.35 70.81 70.43 69.85 69.49 68.69 67.96 68.04 68.64 68.81 66.76 65.42 65.31 65.64 65.84 64.69
46.84 41.51 35.10 31.66 34.15 38.52 41.52 43.23 43.83 47.56 49.16 52.56 51.16 49.50 50.67 56.70 58.15 63.67 65.73 65.21 61.52 61.68 62.94 64.11 67.62 67.13 68.60 69.77 70.62 70.18 69.85 69.57 70.06 70.12 70.21 69.69 69.48 68.85 68.24 67.43 67.33 67.65 67.36 65.98 64.54 64.94 66.30 64.89 63.46
42.40 39.67 32.93 30.47 34.48 40.13 42.01 45.69 50.60 51.08 51.44 51.97 49.92 51.15 51.90 57.11 59.36 63.29 64.97 64.28 63.80 63.44 63.49 64.88 66.37 67.52 68.05 69.52 69.17 68.85 68.98 69.03 69.47 69.75 69.50 68.88 68.60 68.21 67.83 67.23 67.01 66.55 65.97 65.22 64.53 64.59 65.16 64.25 63.40
40.13 36.76 32.77 32.22 36.30 38.97 41.86 48.08 49.69 50.59 49.66 50.14 52.82 49.08 52.31 55.50 60.85 64.47 64.08 63.45 65.35 65.15 63.14 62.96 64.03 64.32 64.64 66.57 67.00 67.50 67.66 68.35 68.89 69.02 68.26 67.63 67.34 67.23 67.22 66.93 66.52 65.47 64.89 64.12 63.74 62.93 63.90 64.01 63.04
41.77 38.98 33.60 34.25 35.01 36.53 42.50 46.64 48.94 49.80 48.51 54.88 54.45 48.97 48.01 55.40 62.87 63.15 63.48 62.35 63.18 63.36 62.48 62.22 63.49 62.62 62.94 63.16 66.10 66.02 66.77 67.40 68.01 68.06 67.23 66.32 66.36 66.62 66.37 65.78 65.39 65.11 64.37 63.58 62.78 62.24 62.82 63.33 62.90
41.65 36.33 32.39 35.36 35.90 39.86 45.60 44.48 49.12 49.38 51.00 52.25 54.28 54.16 54.23 62.01 61.99 61.04 61.22 61.12 61.99 62.74 62.72 63.33 62.13 61.57 61.55 61.94 62.74 64.96 66.77 66.80 67.09 67.42 66.37 64.82 65.33 64.91 64.04 64.20 64.61 64.72 64.04 63.45 62.00 60.71 62.38 62.62 61.84
39.56 34.31 36.65 41.25 40.80 42.50 44.65 41.45 48.41 48.46 49.16 50.03 52.04 55.97 56.70 61.47 59.32 58.47 59.09 59.19 60.22 60.63 61.61 61.54 61.48 60.20 60.71 61.32 63.58 63.42 64.57 65.95 66.70 66.62 65.51 64.58 63.90 63.03 63.40 63.69 63.95 63.86 63.44 62.74 61.67 60.02 58.42 56.74 54.93
39.56 38.06 41.56 43.92 44.22 44.13 44.24 44.09 49.67 47.94 45.21 50.73 50.91 52.09 59.53 58.55 57.63 58.03 58.80 59.09 59.58 60.40 61.10 60.99 60.67 60.54 59.76 58.89 60.03 61.26 61.60 62.43 63.95 64.09 64.02 62.70 62.65 62.92 61.90 61.34 60.78 59.78 59.55 56.03 54.16 53.36 50.22 48.16 50.29
38.58 42.94 42.74 44.10 46.17 45.36 44.05 48.11 51.20 49.36 51.06 54.98 54.73 56.95 58.86 56.57 56.63 57.33 57.73 57.77 58.43 59.54 60.16 60.77 60.81 60.00 58.76 58.78 58.33 60.16 59.91 61.18 62.51 62.37 62.34 61.77 60.37 58.65 59.03 58.32 56.95 56.60 55.11 53.27 52.09 49.85 48.56 47.40 48.90
41.54 43.24 44.82 46.67 46.56 46.66 48.02 46.88 50.65 50.55 54.59 58.20 59.91 59.41 58.21 57.06 56.37 56.89 57.45 57.21 57.83 56.97 59.42 60.25 60.17 58.81 58.01 57.83 57.69 59.70 60.41 60.48 61.12 61.61 61.49 60.58 59.15 57.76 56.76 55.58 54.65 55.19 53.18 53.46 50.98 49.17 47.94 47.08 46.60
44.55 44.73 45.36 45.27 46.05 46.23 47.48 49.33 47.73 50.55 55.41 53.21 55.34 55.23 56.01 55.59 55.32 57.05 56.01 55.93 56.81 56.61 56.85 58.87 59.71 59.15 58.22 57.76 59.08 58.91 60.78 61.05 61.02 60.55 59.88 58.98 58.04 56.65 55.87 53.80 53.18 53.16 52.53 53.85 51.15 49.16 47.60 46.69 46.11
45.29 42.11 43.37 43.43 43.35 44.75 46.19 42.96 44.82 49.48 55.21 53.50 53.90 55.65 54.32 54.54 55.01 56.25 56.17 55.47 56.57 56.43 56.75 57.19 58.01 59.55 58.68 57.56 58.35 59.49 59.53 60.54 60.53 60.28 59.02 58.10 57.29 55.33 54.61 53.47 52.83 52.27 52.64 53.02 51.21 49.53 47.94 45.80 45.91
42.17 39.74 35.76 41.46 44.53 45.83 44.45 38.62 45.16 52.00 50.95 49.95 54.15 53.91 52.33 52.45 55.02 57.14 56.80 55.94 56.39 56.41 56.73 57.50 58.07 58.04 57.56 57.14 58.52 58.86 59.72 60.02 60.08 59.74 58.45 57.64 57.62 56.62 55.39 54.08 53.35 53.31 53.37 53.23 51.12 49.93 48.21 46.39 45.33
37.39 32.84 35.97 40.46 44.33 43.49 42.84 39.97 44.50 49.63 50.29 50.38 53.04 51.18 50.31 51.63 54.22 56.08 56.53 56.16 55.91 56.35 56.45 57.01 56.93 56.25 55.98 55.88 55.55 56.32 57.99 59.29 59.61 59.65 58.54 58.03 58.18 57.74 56.00 54.63 54.35 54.64 53.64 53.10 52.24 50.52 49.54 46.97 45.67
33.21 34.51 38.18 37.76 41.05 42.95 41.33 42.13 45.18 48.17 50.26 50.81 50.74 50.20 49.36 50.68 51.56 55.39 55.78 56.04 55.94 56.15 56.40 56.48 56.03 55.21 55.47 55.51 54.82 54.70 54.81 55.21 56.90 57.68 59.07 59.22 58.67 58.36 56.95 55.55 54.96 54.74 53.66 52.75 51.74 50.43 49.16 47.69 45.95
39.57 37.91 36.33 40.62 44.12 41.41 41.54 42.73 42.62 46.54 47.01 47.26 48.53 48.95 48.71 49.73 52.64 54.85 55.56 55.47 55.29 55.13 54.78 55.16 54.60 54.51 54.84 54.24 53.65 54.38 55.64 54.04 54.63 55.61 57.83 58.97 58.68 58.45 57.60 56.53 55.29 54.98 54.29 53.43 52.04 50.00 49.17 47.14 45.81
40.05 37.67 37.65 40.83 43.64 42.32 40.68 41.05 41.25 45.49 46.87 47.84 48.73 48.80 48.96 48.71 50.93 53.92 53.45 54.54 54.56 54.60 54.00 53.99 54.18 54.19 54.37 54.46 54.23 55.49 55.34 55.21 54.99 54.77 56.25 56.32 57.25 58.12 57.76 56.71 55.45 54.86 53.41 52.15 51.13 50.55 48.58 48.49 46.59
39.55 37.80 38.25 37.93 42.04 42.20 39.70 38.01 39.80 45.24 47.02 48.75 49.24 50.41 50.32 50.10 50.86 51.69 52.46 52.48 53.27 53.10 52.97 52.73 53.84 53.88 54.41 54.71 53.33 54.22 54.07 54.68 54.08 53.62 52.96 55.37 57.13 58.09 58.31 57.02 55.71 54.90 53.90 52.65 51.70 50.62 49.25 47.54 46.36
36.93 42.92 42.19 40.64 37.86 33.56 38.98 30.91 37.76 41.50 45.05 47.88 49.21 49.00 49.61 50.43 52.05 51.89 51.63 51.24 51.94 52.77 53.89 52.21 52.27 53.50 54.24 54.14 51.68 51.27 52.03 51.35 50.25 50.83 52.71 54.09 57.14 58.06 58.72 58.07 56.56 55.43 54.86 53.00 52.23 52.54 50.06 50.66 47.21
40.35 44.34 42.28 41.29 38.72 34.46 35.57 33.38 35.93 41.18 41.98 44.96 48.42 49.71 50.09 51.14 51.89 51.89 52.19 52.24 52.73 53.37 53.04 52.65 52.42 52.08 53.03 53.10 52.59 51.92 51.08 50.76 51.14 52.81 53.18 53.53 55.25 57.36 58.40 58.56 57.58 56.41 55.65 55.10 53.34 51.72 51.00 50.77 50.25
45.94 42.01 40.78 39.01 36.56 30.15 35.99 34.98 34.35 36.43 41.74 46.10 48.55 50.14 50.64 51.39 52.44 52.73 52.87 52.68 52.05 52.63 52.83 52.63 52.19 52.21 52.37 52.92 52.92 52.42 52.27 52.50 53.08 52.77 53.53 54.20 54.80 56.82 57.80 58.79 58.74 58.33 57.16 55.71 54.36 54.52 51.89 50.55 50.82
42.03 37.04 29.45 27.79 27.67 28.34 38.15 35.43 38.14 41.97 44.03 46.93 48.82 50.25 51.26 51.80 52.60 52.46 52.19 51.78 52.16 51.74 52.34 52.56 52.20 52.02 52.60 52.67 53.26 53.17 53.19 53.70 53.99 54.32 53.99 54.44 55.24 56.82 58.19 58.24 58.37 58.63 58.45 56.67 54.83 54.61 53.21 51.36 50.61
39.09 38.15 30.16 26.62 26.08 29.67 38.64 33.94 39.00 44.90 45.81 47.13 51.10 51.84 52.18 51.36 52.87 52.96 53.06 52.58 52.41 52.68 52.36 52.67 52.29 51.94 52.63 52.80 53.10 53.70 54.74 55.53 55.65 55.43 55.47 55.34 55.88 56.71 57.42 58.96 59.56 59.00 58.14 56.61 55.87 53.77 50.93 49.54 49.45
38.84 34.82 41.43 33.94 33.84 29.99 34.09 38.33 43.51 43.95 43.55 45.03 47.16 49.60 50.40 51.31 52.24 53.26 53.99 53.89 52.85 52.70 52.66 52.59 52.53 52.38 52.75 53.22 53.51 54.01 54.81 55.74 56.68 57.06 56.34 55.69 56.23 56.96 57.22 58.81 59.07 56.97 55.87 55.12 53.68 52.22 50.70 49.54 49.25
41.92 43.39 34.57 34.67 28.07 27.17 31.40 32.92 35.69 40.95 42.00 42.57 44.27 48.65 50.36 51.56 52.47 53.13 53.43 54.45 54.25 53.46 53.71 53.22 53.14 52.60 52.97 53.40 54.11 54.51 56.57 58.08 58.39 58.17 56.75 55.21 56.84 57.71 56.67 55.69 54.78 54.58 54.30 53.09 52.45 50.69 49.62 48.73 47.92
38.53 37.95 38.00 38.44 34.11 28.44 26.84 30.78 40.29 42.52 43.84 42.90 43.65 49.01 50.46 51.68 52.17 53.35 53.71 53.97 54.97 54.67 52.89 53.12 53.25 53.12 53.58 54.34 55.17 55.99 56.82 58.42 58.97 58.49 57.32 55.85 57.19 57.05 56.55 55.80 54.58 54.04 52.95 51.68 50.76 49.51 48.52 47.31 45.86
41.99 40.42 40.32 32.56 31.69 33.05 31.21 33.95 43.18 43.83 44.13 44.58 43.82 46.23 50.36 52.35 52.87 53.43 54.41 54.68 54.02 54.24 54.09 52.60 53.28 54.09 55.01 56.30 56.57 56.66 57.76 58.18 58.03 58.13 56.10 57.31 57.18 56.75 57.17 55.99 55.00 53.09 51.75 50.13 48.84 47.45 46.80 46.12 45.01

GFSSGP_sfc_wetblb_084.txt.gz
Wetbulb
55.43 53.73 50.71 45.90 37.08 33.95 30.48 34.71 37.46 40.23 43.42 49.11 50.92 49.61 47.74 48.46 48.48 41.92 56.96 59.71 64.63 67.50 70.67 70.43 70.64 71.55 71.38 71.70 71.67 71.75 72.03 72.29 72.14 71.91 71.56 71.51 71.20 70.77 70.10 70.03 69.86 70.07 69.84 68.65 68.27 67.60 66.78 66.72 66.21
52.70 52.72 48.26 40.38 32.98 28.68 31.97 35.69 37.82 44.27 49.34 51.91 51.65 51.25 51.14 50.01 54.48 55.74 56.71 59.60 64.19 65.47 68.91 70.01 70.44 71.01 71.43 71.38 71.32 71.35 71.78 71.83 71.59 71.59 71.22 71.12 70.72 69.88 70.22 70.07 69.42 69.56 69.92 68.45 68.57 68.51 67.59 65.47 64.96
53.06 51.53 43.08 35.59 29.68 30.14 31.57 37.77 40.37 44.39 50.77 49.95 47.99 51.87 51.27 53.36 56.08 57.28 60.16 61.65 63.48 64.40 65.45 69.97 69.99 70.40 71.13 70.81 71.33 71.08 70.93 70.88 70.92 70.72 70.85 70.66 70.19 69.78 70.05 69.46 69.02 69.37 69.73 68.93 68.51 67.93 66.74 65.30 64.78
47.81 45.29 40.46 34.98 31.31 35.83 37.85 40.80 41.67 42.40 49.13 51.03 49.66 48.01 51.27 56.29 55.35 57.39 62.12 64.41 63.02 63.26 63.98 66.63 68.67 69.81 70.68 71.15 71.25 71.09 70.70 70.31 70.07 70.03 70.17 70.40 70.00 69.73 69.53 69.13 68.77 69.00 68.93 67.25 67.44 67.15 65.27 64.89 63.99
44.88 40.30 33.85 30.90 32.56 37.04 39.57 41.93 42.25 44.41 47.02 50.95 50.19 47.99 49.13 55.68 57.94 62.10 64.45 64.00 61.76 62.49 62.84 64.14 66.94 68.00 70.05 70.94 70.91 70.51 70.07 69.85 69.82 69.68 69.47 69.64 69.53 69.07 68.74 68.45 68.28 67.64 67.16 66.74 66.89 65.69 64.81 64.29 63.63
41.29 38.60 31.68 29.55 33.06 38.47 40.49 42.69 47.06 47.59 49.11 50.72 49.05 48.94 50.55 56.03 59.04 61.37 64.12 63.92 62.66 62.41 63.03 63.96 65.69 67.55 67.81 69.10 69.94 69.54 69.52 69.42 69.57 69.13 68.97 68.92 68.37 68.10 68.03 67.95 67.26 66.45 65.95 66.96 66.96 65.63 64.45 63.77 62.93
39.44 35.74 31.40 31.32 34.47 37.67 40.15 45.33 48.01 49.13 48.38 49.20 51.27 48.03 50.97 54.02 60.00 63.63 63.82 64.01 62.75 63.78 63.22 63.45 63.93 64.54 66.61 65.73 67.33 67.96 68.57 68.74 68.80 68.35 67.75 67.44 67.30 67.02 67.22 66.83 66.24 65.46 65.58 66.37 65.66 64.26 63.54 63.11 62.46
40.60 38.02 31.58 32.21 33.83 35.78 41.38 44.13 47.47 49.09 47.98 53.59 53.26 48.49 47.23 53.15 62.14 63.52 62.79 63.23 64.32 63.29 62.36 61.61 62.82 63.04 63.59 63.73 65.49 65.96 67.07 67.60 67.90 67.52 66.95 66.25 66.44 66.36 66.24 65.23 64.98 64.84 64.31 65.43 65.36 63.88 63.23 62.64 61.82
40.60 35.09 31.17 34.23 35.01 39.88 43.29 41.77 47.11 48.83 49.17 51.63 53.37 53.62 53.80 59.03 62.47 61.71 60.98 61.60 62.30 61.94 60.74 61.61 62.08 61.94 61.85 62.80 64.06 65.86 66.35 66.85 66.51 66.63 66.09 65.12 65.18 64.23 63.07 63.48 63.93 63.74 63.20 63.64 64.41 63.93 63.06 61.80 61.43
39.05 33.54 35.82 40.15 40.19 41.01 43.99 41.04 43.30 46.99 47.04 49.61 51.25 55.24 55.40 61.50 60.61 59.05 59.15 59.30 60.25 60.52 61.00 61.89 61.11 60.64 60.50 62.10 62.02 64.19 63.45 64.63 65.85 65.72 65.10 64.63 63.94 61.72 62.13 63.42 63.40 62.79 62.10 62.84 63.94 63.81 62.39 60.39 58.00
38.36 37.10 39.84 42.34 43.14 42.08 41.67 42.13 48.27 46.32 44.75 49.49 49.50 52.12 55.43 59.29 58.91 57.77 58.27 59.54 59.86 60.89 61.13 60.98 59.88 59.92 59.53 60.06 60.54 62.30 63.22 63.79 65.09 64.89 64.03 63.63 62.31 61.75 60.61 60.64 60.05 58.38 58.88 55.72 55.85 54.81 53.90 54.69 54.54
37.01 41.78 41.58 42.90 43.52 43.25 42.30 44.69 48.73 47.16 48.23 54.17 53.63 55.15 58.70 57.49 56.41 56.89 57.06 58.28 59.28 60.03 60.39 60.55 59.94 59.42 59.09 60.07 62.36 62.25 62.52 63.19 63.84 63.57 62.99 62.35 61.21 59.45 58.56 57.72 56.47 54.29 52.85 51.32 49.80 49.36 49.87 51.20 52.76
39.48 41.66 43.34 44.67 44.86 44.02 45.44 45.20 47.46 49.60 51.81 57.99 59.37 58.57 57.85 57.65 55.53 57.40 57.46 57.67 58.54 58.98 59.89 59.96 59.45 58.37 57.76 58.65 59.93 60.84 61.90 62.52 62.30 62.99 62.15 61.70 60.15 58.62 57.60 55.77 54.62 53.83 52.64 51.21 48.77 48.02 48.87 50.16 50.60
43.08 42.74 43.75 44.04 43.59 44.15 45.08 46.01 47.86 48.25 54.48 53.13 56.11 55.77 57.28 57.01 55.99 55.63 56.17 56.57 57.38 57.09 59.36 59.40 58.31 57.90 57.35 57.83 58.65 60.03 60.52 61.16 61.87 61.74 61.02 60.45 59.33 57.58 56.55 54.27 53.81 53.02 53.13 50.83 49.66 48.41 47.81 48.10 48.61
43.64 40.13 41.72 41.89 41.23 43.27 44.29 41.70 44.96 48.84 54.90 53.02 52.81 54.04 54.67 54.45 54.55 54.69 56.17 56.31 56.81 57.01 57.76 59.08 58.23 57.77 57.38 56.97 57.26 59.12 61.14 61.24 60.79 60.56 59.83 58.78 58.21 57.04 55.84 54.29 53.27 53.01 53.27 50.95 49.28 48.07 47.35 46.48 46.75
40.17 38.96 34.37 39.25 41.84 43.17 43.54 37.79 43.36 50.65 52.66 51.77 52.28 53.05 52.40 52.55 54.09 55.42 56.17 56.45 56.65 56.71 56.91 58.18 59.01 58.31 57.50 57.77 57.45 58.40 59.75 60.54 60.61 59.70 59.23 58.04 57.26 56.23 54.84 54.26 53.28 52.98 53.43 51.47 49.62 48.19 46.08 45.51 45.02
36.59 31.90 33.31 38.69 42.95 41.62 40.97 39.17 41.07 49.45 49.64 48.53 49.44 51.61 50.24 52.97 53.78 55.40 56.19 56.25 56.17 56.85 57.19 56.99 57.47 57.31 56.57 57.27 58.00 58.99 58.97 59.50 59.42 58.83 58.11 57.62 57.26 56.17 55.24 54.50 54.07 53.46 53.80 52.14 50.82 49.33 48.09 46.15 44.98
32.71 33.43 35.96 36.03 39.55 40.60 38.60 40.09 43.23 47.31 48.37 47.40 49.22 49.91 48.98 49.60 52.03 55.51 56.07 56.20 56.19 56.71 57.17 56.31 55.85 55.89 55.99 55.42 55.85 57.13 56.87 57.24 59.36 58.14 57.87 57.52 57.24 56.31 55.35 54.49 54.37 53.85 53.36 52.13 50.83 49.82 49.14 47.55 46.47
37.74 36.59 34.87 38.02 41.14 39.75 38.75 37.77 41.96 43.82 46.47 46.75 48.33 48.55 48.08 48.50 52.61 55.46 55.45 55.93 55.44 55.74 56.15 55.36 54.88 55.17 55.64 55.18 55.26 55.88 56.08 55.69 56.86 57.48 57.84 57.72 57.65 57.00 55.61 54.98 54.92 54.45 52.76 52.51 51.21 50.11 49.03 47.51 45.99
38.35 36.53 35.99 39.04 41.59 40.46 39.56 39.22 42.06 42.07 45.10 46.77 47.59 48.40 47.81 47.99 51.01 52.99 54.33 54.28 54.59 54.35 55.22 55.04 54.74 54.86 55.93 55.81 55.81 56.78 56.16 54.68 55.23 56.05 57.61 58.24 57.93 57.52 56.93 56.18 54.71 54.27 53.34 52.20 51.41 50.52 49.09 48.77 46.22
37.35 36.72 36.15 36.50 39.32 39.93 37.38 36.48 38.94 42.27 45.30 46.94 48.04 49.48 49.41 48.20 49.45 51.24 52.23 53.32 54.29 53.79 53.84 54.39 54.21 54.56 55.39 56.03 54.13 53.44 53.96 54.56 54.33 54.33 54.71 56.42 57.71 58.27 58.19 56.85 55.87 54.58 54.14 52.98 51.97 50.38 49.43 48.05 46.36
34.87 40.56 40.20 38.99 35.91 31.37 37.81 29.55 36.01 40.44 41.72 45.88 46.91 48.25 49.21 48.86 50.15 50.83 52.35 52.22 52.87 53.43 53.77 54.27 54.24 54.02 54.73 55.22 54.02 52.34 54.10 53.59 54.49 53.01 54.26 54.93 56.84 57.22 57.50 57.20 56.09 54.72 54.63 52.71 52.79 52.04 49.87 49.27 47.01
38.82 42.47 40.31 39.54 35.91 33.45 33.88 31.28 35.29 38.76 40.19 42.81 45.68 47.50 49.31 50.03 50.21 50.00 51.34 51.61 53.13 53.53 53.57 52.99 53.53 53.18 53.55 54.10 53.81 51.30 53.49 54.35 49.65 50.88 51.17 52.07 54.35 56.05 57.28 57.01 55.89 54.94 54.52 54.23 52.57 51.30 49.62 49.72 48.98
44.58 40.44 39.59 37.54 35.22 28.36 34.26 33.67 32.71 35.54 40.11 43.36 45.23 47.76 48.86 49.88 50.52 51.10 51.73 52.66 52.82 53.23 53.34 53.07 51.72 52.08 53.14 53.16 52.12 50.90 50.19 50.00 50.06 50.16 50.91 51.68 52.53 54.26 55.56 56.93 56.99 56.79 55.84 54.80 53.83 52.97 51.86 51.92 51.37
41.01 35.94 28.41 27.11 27.19 27.63 35.59 33.38 37.17 40.30 42.63 43.78 45.11 47.19 49.32 50.24 50.57 50.99 51.07 51.79 52.18 51.79 51.85 52.43 52.01 51.39 52.15 52.37 52.37 51.81 51.49 51.04 51.34 51.80 51.62 51.18 51.44 52.47 54.72 56.25 56.65 56.93 57.05 56.89 56.11 54.24 53.15 51.70 51.00
37.85 36.67 28.89 26.04 25.78 28.80 36.06 31.60 36.96 44.14 45.06 45.56 45.89 47.70 49.26 49.73 51.39 51.44 51.68 51.74 51.64 51.57 51.58 51.66 51.92 51.82 52.08 51.79 52.06 52.54 52.28 52.33 52.58 52.62 53.23 52.55 52.95 53.34 54.65 56.39 58.09 58.15 58.43 58.09 56.15 55.60 54.95 54.23 52.67
37.13 34.70 39.78 32.14 31.40 29.32 32.37 36.42 42.04 44.18 43.41 43.47 43.45 47.90 48.53 49.51 51.03 51.97 52.60 52.31 52.02 51.94 51.85 51.88 52.09 52.06 52.10 51.73 51.95 51.83 52.27 52.35 52.40 53.22 53.07 53.45 53.44 54.39 54.23 55.24 56.87 56.77 55.93 55.67 55.75 55.69 53.88 52.72 52.97
39.49 41.80 33.50 32.19 26.66 26.09 29.50 31.55 34.78 40.43 42.37 42.19 42.44 46.26 47.81 49.24 50.51 52.03 52.77 52.87 52.62 52.68 52.70 52.56 52.52 51.95 51.97 51.95 51.97 52.17 52.39 52.93 53.55 54.06 54.75 54.94 54.17 54.11 55.28 56.05 56.67 55.85 55.27 55.49 54.68 53.64 52.72 51.47 50.62
36.52 36.31 35.95 36.55 32.49 27.85 26.17 29.86 39.04 42.19 43.40 43.20 42.22 45.19 47.33 48.44 50.03 51.56 53.09 53.95 53.79 53.15 52.74 52.73 52.45 52.08 51.62 51.96 52.25 52.32 52.40 53.33 53.72 54.23 55.15 55.95 55.54 55.53 56.53 56.73 56.39 55.65 55.17 54.30 53.74 53.22 51.72 50.87 50.11
39.18 37.51 38.30 32.64 29.92 31.03 29.96 32.95 41.85 42.70 43.59 43.70 43.96 44.10 46.71 49.01 49.85 51.33 51.84 52.29 53.50 53.19 52.51 52.36 52.50 52.39 52.45 52.59 52.63 52.99 53.57 53.55 54.45 55.83 56.97 57.10 56.17 56.07 57.06 57.01 56.67 56.19 55.65 53.81 52.26 50.83 50.29 49.75 47.40

GFSSGP_sfc_wetblb_087.txt.gz
Wetbulb
60.46 56.33 56.27 52.20 45.71 44.12 41.13 42.24 44.07 44.58 46.94 53.57 53.87 53.27 52.15 53.43 51.88 48.07 61.25 64.26 67.40 70.38 71.58 71.51 71.02 71.46 71.73 72.33 72.57 72.44 72.62 72.55 72.31 71.94 71.81 71.65 71.66 71.45 70.99 70.48 70.24 70.11 69.70 68.49 68.06 67.83 67.65 67.75 67.18
56.82 55.48 53.66 47.87 43.63 40.71 42.12 42.59 43.27 46.92 51.48 54.14 53.72 54.02 54.09 52.92 58.18 59.50 61.58 62.89 65.80 70.37 71.61 71.38 70.34 70.83 71.61 71.68 72.12 72.28 72.57 72.28 71.89 71.88 71.73 71.43 71.03 70.55 70.28 70.09 69.60 69.55 69.51 68.07 67.78 67.53 66.87 66.44 66.08
56.84 53.73 51.16 45.45 41.13 41.01 41.49 43.60 46.05 46.83 51.08 51.97 52.21 55.20 54.21 56.10 59.43 60.15 62.75 63.78 64.50 68.37 70.20 71.13 70.14 69.84 71.06 71.26 71.86 71.95 71.77 71.40 71.31 71.25 71.26 70.85 70.52 70.52 70.35 69.79 69.11 69.40 69.54 68.91 67.82 66.83 65.84 65.21 65.41
53.54 52.09 47.19 44.51 40.79 42.72 43.63 46.47 46.39 45.95 50.80 53.97 53.49 51.71 55.31 58.35 58.56 59.73 64.35 66.76 65.81 67.34 65.93 65.38 68.15 68.92 70.63 71.27 71.43 71.46 71.12 70.67 70.62 70.70 70.57 70.27 70.57 70.49 69.81 69.24 69.11 69.26 69.34 68.74 67.72 65.93 64.71 64.85 64.37
50.72 48.49 43.81 41.46 40.88 42.66 44.70 46.26 45.92 46.10 49.45 52.92 53.68 51.66 52.98 58.02 61.10 61.82 65.39 65.85 66.04 66.59 65.75 65.29 66.20 68.17 69.26 71.26 71.21 70.88 70.55 70.13 70.01 70.18 69.76 69.68 70.09 69.90 69.33 68.75 68.88 68.62 68.79 68.67 66.67 64.96 64.04 64.25 63.77
48.60 46.87 41.90 39.65 40.36 43.05 45.40 47.43 46.57 48.58 50.53 53.23 52.60 52.16 54.44 59.18 60.21 63.07 65.20 65.16 65.50 65.73 65.99 64.96 66.14 67.59 67.62 68.90 69.90 69.66 69.57 69.34 69.29 69.11 68.86 69.28 69.20 68.97 68.72 68.45 67.99 67.57 67.67 67.54 66.17 64.93 63.99 63.46 63.07
47.09 44.95 40.74 39.49 40.58 42.62 45.30 48.52 50.28 50.82 52.15 52.80 55.16 51.59 55.71 57.06 61.12 64.57 64.87 65.28 65.66 64.64 65.77 66.26 65.85 66.23 64.74 66.30 67.22 67.73 68.52 68.58 68.54 68.17 67.78 68.05 67.76 67.62 67.84 67.33 66.69 67.06 67.12 66.63 65.54 64.45 63.69 63.29 62.55
47.55 46.64 40.14 40.73 40.75 42.16 46.21 47.99 50.92 51.26 50.44 56.00 56.97 52.52 52.86 55.89 62.91 64.51 64.36 64.43 64.94 64.27 64.61 65.35 65.94 66.63 65.76 64.72 65.14 65.73 67.21 67.65 67.62 67.36 66.96 66.45 66.59 66.83 66.39 65.62 65.96 67.05 67.17 66.04 64.52 63.80 63.32 62.88 62.11
47.03 44.01 40.46 41.37 40.80 44.67 46.48 46.35 49.85 53.62 53.35 54.74 56.09 55.59 56.32 61.03 63.26 62.37 62.26 62.76 62.87 63.57 63.55 63.55 64.20 65.25 66.05 64.57 65.53 66.27 66.96 66.79 66.80 66.98 66.09 65.51 67.65 66.84 65.33 64.42 65.00 66.46 65.87 64.73 64.21 63.43 62.54 61.85 61.24
46.51 42.60 42.45 45.15 45.25 45.59 47.23 46.10 47.16 49.98 51.38 52.48 54.09 56.93 58.41 61.69 61.08 60.02 60.05 60.41 60.94 61.33 62.51 63.04 62.66 63.09 62.84 65.01 64.67 65.79 66.40 66.90 66.77 66.51 67.19 66.90 66.95 65.75 64.36 63.90 63.53 64.86 65.19 64.33 63.72 62.96 62.00 60.71 60.31
44.53 43.42 44.68 45.98 46.95 46.82 45.89 46.47 48.36 49.88 49.20 52.19 52.90 54.81 56.88 60.25 60.34 59.61 59.36 60.33 60.98 62.02 61.94 62.50 61.91 62.07 61.21 61.81 62.71 65.04 64.77 65.51 65.82 65.24 66.49 65.60 64.72 64.04 63.43 63.42 62.10 63.90 64.38 63.55 62.96 61.63 60.86 60.55 59.87
43.42 45.76 45.95 46.73 46.86 47.00 46.16 49.26 50.57 50.98 52.19 56.11 55.60 56.28 58.09 59.20 59.12 58.18 58.30 59.62 60.23 61.70 61.94 61.65 60.76 60.54 60.67 60.77 61.06 62.99 63.49 64.08 64.36 64.23 64.54 64.64 62.94 62.35 61.42 61.14 60.26 60.77 62.25 63.43 62.58 60.57 60.82 60.05 59.38
43.35 45.61 46.13 46.92 46.52 47.49 47.86 47.64 48.84 51.08 54.99 58.07 58.00 58.16 59.29 59.02 58.58 58.48 58.30 59.13 59.83 59.87 60.30 59.98 59.46 59.79 59.29 59.64 61.41 62.18 62.40 63.49 63.66 63.63 64.42 63.78 61.74 60.88 60.72 60.02 58.72 58.47 58.33 59.25 59.32 58.93 59.39 58.87 58.64
46.75 45.48 46.41 47.64 47.84 47.50 46.81 48.25 50.42 52.33 56.70 58.55 58.83 58.83 58.79 58.26 58.00 56.92 57.11 57.21 58.04 58.24 59.92 59.11 58.30 58.83 58.17 59.74 61.65 62.17 62.44 63.10 62.58 63.21 63.97 62.53 61.56 60.34 59.05 58.52 57.60 56.86 56.90 57.81 58.20 58.47 58.64 58.43 58.33
47.05 44.59 46.11 46.66 46.54 46.75 47.97 46.37 47.90 52.48 56.37 54.62 55.91 56.19 56.71 56.56 57.42 55.54 57.06 56.71 57.55 57.62 59.27 58.15 57.92 58.12 57.92 58.32 60.64 61.69 62.22 62.40 61.81 61.91 62.68 61.20 60.03 59.15 58.04 57.54 57.44 57.29 56.15 55.57 54.35 55.84 57.15 56.95 56.96
44.42 43.54 40.74 44.06 46.26 46.90 47.85 43.89 47.83 51.38 54.83 54.09 54.11 54.64 54.66 56.01 56.51 56.19 57.09 57.06 57.97 57.40 58.09 58.44 58.30 58.06 58.49 58.24 59.39 60.42 60.91 60.94 61.34 61.08 61.17 60.25 59.84 59.02 58.15 56.96 57.41 57.78 56.09 54.72 54.38 53.75 54.65 54.65 54.67
41.54 38.07 38.94 41.90 46.14 47.03 46.47 44.25 48.41 52.51 53.28 53.42 54.17 53.96 54.26 54.83 55.51 55.88 56.95 57.27 57.30 57.59 57.61 57.83 57.99 57.54 58.27 58.33 59.84 60.08 60.12 60.80 60.52 60.25 59.94 59.53 58.69 58.38 57.76 56.92 57.21 58.06 56.62 55.84 54.79 53.24 53.36 52.36 52.24
37.11 37.95 39.25 40.33 44.53 44.66 43.76 44.09 47.35 48.98 51.55 51.83 52.23 54.12 53.94 53.85 54.14 56.21 56.76 57.09 57.30 57.71 57.39 57.33 57.58 57.40 57.23 57.69 58.63 58.97 59.15 59.71 59.64 59.12 59.61 59.73 59.20 58.94 58.68 58.18 57.10 57.31 56.82 55.88 54.92 54.04 54.07 52.89 52.31
41.32 39.60 39.56 42.30 44.68 43.29 43.86 43.23 46.20 47.96 49.60 50.21 51.56 53.15 53.48 53.25 54.34 56.22 56.58 56.54 56.88 57.44 56.74 55.91 56.13 56.69 56.77 57.75 57.31 57.07 56.63 58.25 58.04 58.65 58.64 59.30 59.53 58.87 59.21 58.04 57.38 57.62 56.96 56.83 56.43 54.77 54.14 52.82 52.48
41.69 39.89 39.74 42.62 43.92 43.21 44.03 43.65 46.94 46.78 48.80 50.22 51.34 52.76 53.30 52.35 52.85 54.66 55.20 56.04 55.88 56.13 56.11 55.85 55.63 55.95 56.59 57.69 57.50 57.23 56.64 57.37 57.85 58.30 58.38 58.26 58.27 58.60 59.20 58.86 58.03 57.45 57.13 57.53 56.65 56.42 55.09 55.41 53.09
40.87 39.80 40.07 39.85 42.57 43.83 42.62 42.16 44.82 47.03 48.37 50.35 51.30 53.37 54.09 52.97 52.42 53.25 53.10 54.85 55.32 55.33 55.61 55.66 55.62 56.19 56.54 56.82 56.38 55.61 55.66 55.93 56.16 56.89 57.25 58.31 58.97 59.61 59.06 59.10 58.77 58.78 58.39 57.24 57.86 57.55 56.83 55.56 53.70
37.65 42.83 42.25 40.79 39.68 35.48 43.15 35.38 42.45 46.62 46.51 48.21 50.70 51.47 52.95 52.66 52.86 53.63 52.62 53.18 54.85 55.44 56.11 56.03 55.79 55.87 56.73 56.83 56.36 55.29 54.70 55.18 56.31 56.33 57.26 57.81 58.97 59.74 59.65 59.68 59.69 59.60 59.11 59.01 58.98 58.16 57.78 57.25 54.64
40.42 44.18 42.29 42.00 39.59 38.56 39.63 36.96 41.44 43.19 44.76 47.31 49.02 51.17 52.57 53.55 53.19 53.08 53.79 54.13 53.96 55.42 55.32 56.52 55.35 55.39 56.34 56.90 57.16 56.49 56.29 57.34 56.78 56.57 56.86 57.77 59.91 60.66 60.36 60.73 60.95 60.54 60.42 60.09 59.60 58.16 57.32 57.11 57.63
45.28 42.77 41.93 40.84 39.79 33.53 38.66 37.72 39.78 43.03 45.35 47.14 49.16 51.07 52.33 53.28 53.49 54.00 55.28 55.08 54.70 54.80 55.11 54.89 55.12 55.49 55.75 56.74 57.39 55.78 57.55 57.15 54.75 56.75 56.17 56.55 57.68 58.85 59.96 60.82 61.15 61.15 60.38 60.05 59.72 59.41 58.87 58.25 57.36
43.56 39.77 33.19 31.89 32.02 32.04 39.50 36.78 41.16 45.40 46.68 47.43 49.52 50.48 52.67 53.82 54.11 53.80 53.59 53.89 54.49 53.98 54.09 54.25 54.17 55.31 55.82 55.57 56.94 56.21 56.23 56.25 55.93 55.55 56.11 55.69 56.02 56.65 57.73 59.30 59.86 60.18 60.55 60.44 60.61 60.16 59.34 58.66 57.97
40.54 40.39 34.13 27.58 30.02 34.03 38.22 35.49 41.24 47.72 49.36 49.70 49.68 49.95 52.75 53.13 54.24 54.65 54.31 54.79 54.43 54.33 53.51 53.45 53.67 54.07 55.63 55.80 55.96 56.42 56.72 56.30 55.90 56.52 56.96 55.81 55.99 56.82 57.96 58.57 59.16 59.91 60.40 60.50 60.59 60.87 60.62 59.82 58.92
39.56 36.26 42.43 35.31 35.69 34.38 37.38 40.87 45.14 47.93 48.17 47.88 48.20 50.07 51.75 52.86 53.90 54.49 55.29 55.23 55.12 54.59 53.88 53.22 52.92 53.40 55.45 55.48 55.78 56.08 56.50 56.14 56.24 56.74 57.03 57.46 57.85 57.77 58.22 58.86 59.20 59.96 60.48 60.61 60.91 60.87 60.02 59.44 59.00
42.48 43.81 35.72 36.52 28.83 27.95 33.90 35.97 38.81 43.80 46.29 47.94 48.22 49.43 51.97 52.90 53.51 54.79 55.41 55.29 55.81 55.58 55.00 53.84 53.71 53.96 55.93 56.14 56.27 56.15 56.10 56.69 57.04 57.49 57.18 57.81 58.31 58.51 58.82 58.86 59.06 59.69 60.31 60.81 60.45 59.63 59.21 57.78 56.41
38.78 37.97 39.38 39.45 36.54 31.65 30.38 35.17 44.67 45.95 48.03 47.38 49.46 48.81 51.18 52.90 53.68 54.76 55.87 56.44 56.35 56.31 55.74 55.29 55.30 55.49 55.43 55.79 56.14 56.35 56.36 56.69 57.18 57.30 57.68 58.25 58.80 58.89 58.50 58.62 58.75 58.91 58.20 56.39 55.75 56.65 57.25 54.90 54.56
41.31 39.02 39.35 33.82 33.01 35.84 35.07 36.49 45.76 48.16 47.93 48.81 49.20 49.66 49.70 52.67 54.00 55.04 55.91 56.44 56.24 55.68 55.54 55.37 55.52 55.48 55.79 55.87 55.73 55.53 56.29 56.67 56.52 56.21 57.22 58.26 58.28 59.17 58.62 58.97 58.08 57.98 57.18 57.08 56.05 56.01 55.15 54.20 53.82

GFSSGP_sfc_wetblb_090.txt.gz
Wetbulb
62.14 60.64 61.28 57.84 49.14 49.02 47.12 46.37 49.63 48.69 49.70 53.79 55.23 54.84 54.61 56.22 52.55 49.62 65.16 66.38 69.71 71.42 73.02 72.02 71.39 71.98 72.52 72.48 72.34 72.24 72.57 72.65 72.48 71.88 71.83 71.87 72.12 72.18 71.83 71.49 71.13 70.93 70.65 69.29 68.87 68.83 68.47 68.20 67.41
60.78 59.21 60.06 55.68 47.13 44.00 46.06 48.51 47.58 49.80 51.47 54.99 54.87 55.72 56.07 54.17 59.93 62.03 64.02 67.62 66.97 70.49 72.26 72.62 71.04 71.05 71.35 71.77 72.14 72.34 72.65 72.73 71.85 71.83 71.95 71.85 71.95 71.61 71.42 70.76 70.07 69.85 69.74 68.45 68.25 68.62 67.90 67.46 66.93
60.90 60.29 55.14 51.07 48.66 44.40 45.99 48.36 49.43 51.10 52.28 52.99 53.63 57.98 56.83 55.09 61.96 63.33 66.70 67.21 68.07 68.41 71.75 72.15 70.30 70.29 71.09 71.55 71.95 71.43 72.16 71.76 71.43 71.57 71.92 71.83 71.58 71.02 70.61 69.75 69.12 69.19 69.20 67.76 67.55 67.33 67.12 66.41 66.32
58.92 56.48 54.14 47.47 45.22 47.26 47.51 49.97 51.04 51.08 53.47 53.78 55.35 54.03 58.58 61.47 61.72 64.41 65.87 67.58 67.85 68.76 70.95 69.30 67.31 69.26 70.49 71.48 71.45 70.59 71.01 70.91 70.78 70.86 71.17 71.21 70.92 70.73 69.85 69.01 68.70 68.83 68.82 67.62 66.93 66.33 65.59 65.55 65.34
57.78 54.78 47.61 45.43 45.81 47.93 49.56 50.51 51.15 50.64 51.55 54.46 56.43 54.09 56.49 61.02 63.53 64.14 65.52 67.17 67.73 68.72 70.73 68.97 65.16 68.05 68.14 68.89 70.03 70.69 70.79 70.49 70.52 70.54 70.34 70.37 70.45 70.03 69.20 68.74 68.73 68.80 68.63 67.08 65.76 65.09 64.63 64.83 64.53
52.82 53.10 45.23 43.36 45.36 48.13 49.66 51.48 51.17 51.99 52.95 53.81 55.17 55.63 57.43 63.08 62.69 64.97 66.63 67.25 68.28 68.69 69.66 69.51 66.25 68.14 67.57 66.77 65.99 69.35 70.14 69.95 69.81 69.69 69.69 69.82 69.62 69.09 68.78 68.54 68.71 68.57 67.86 66.55 65.22 64.62 63.90 63.81 63.44
50.54 48.58 45.05 44.68 44.37 46.99 48.94 51.90 51.41 51.80 52.12 52.55 57.51 53.47 57.49 61.08 63.59 66.79 66.77 67.62 66.20 67.68 67.81 68.30 69.11 68.93 65.50 63.49 62.89 63.97 69.00 68.99 69.00 68.59 68.65 68.49 68.19 67.87 68.38 68.17 68.12 68.02 66.93 65.67 64.90 64.25 63.80 63.27 62.75
52.61 49.81 45.48 45.90 44.56 45.57 50.14 50.94 52.88 52.52 52.12 58.89 58.78 53.24 54.63 60.98 64.97 66.44 66.86 66.89 66.30 65.61 66.75 67.44 68.11 66.98 67.86 66.80 65.48 65.90 67.53 67.35 67.74 67.77 67.51 66.99 67.13 67.40 66.95 66.79 67.44 67.07 66.11 65.42 64.81 63.86 63.37 62.78 62.27
53.42 46.75 44.58 45.42 45.59 47.21 50.83 49.66 53.10 55.77 55.00 56.68 58.45 58.95 60.33 63.12 64.70 64.25 64.93 64.85 66.10 64.95 65.25 65.21 66.80 66.18 65.59 66.11 67.02 65.89 66.51 66.94 66.83 67.36 66.69 65.89 68.72 67.88 67.20 66.33 66.59 66.53 65.53 64.79 64.20 63.64 62.75 62.09 61.57
49.85 46.71 46.50 48.98 49.38 48.91 50.83 51.03 51.89 51.73 52.56 53.92 56.19 60.37 61.22 63.40 63.03 62.26 62.29 63.43 64.01 64.53 64.99 65.14 65.79 66.87 65.52 66.06 66.64 66.46 66.16 66.99 68.14 68.63 68.39 67.88 67.89 67.80 66.78 66.23 66.32 65.76 64.49 64.19 63.60 63.05 62.03 61.25 61.16
49.38 46.14 48.98 49.40 50.73 51.37 50.55 51.09 52.72 51.62 50.80 54.00 53.93 56.78 60.70 62.07 62.17 62.37 61.94 63.02 63.10 64.82 64.46 64.59 63.88 65.28 64.19 66.18 66.64 67.22 65.21 65.67 66.15 66.92 67.71 67.40 67.26 67.28 65.67 66.46 66.95 66.21 63.89 63.18 62.70 61.90 62.11 62.41 61.11
46.60 49.36 49.34 50.24 51.04 50.69 49.96 52.45 51.16 52.36 53.09 56.54 59.04 59.55 60.37 61.29 61.57 61.84 61.70 62.15 62.54 63.22 64.20 63.67 63.19 63.77 63.54 62.82 63.84 64.68 64.28 64.50 64.06 64.35 64.97 67.73 65.42 65.47 64.98 65.33 65.99 65.31 64.64 63.48 63.20 62.34 63.50 62.69 61.57
48.42 49.18 50.25 50.81 50.76 50.82 51.56 50.53 51.00 51.68 54.26 56.64 59.54 59.23 59.90 61.32 61.69 60.93 61.48 61.72 62.39 61.85 62.78 62.50 61.71 62.10 62.27 60.66 61.57 62.64 63.73 64.53 64.09 63.69 63.91 64.43 65.04 64.54 63.53 64.46 65.13 65.13 65.14 64.43 63.49 63.53 63.02 61.90 60.86
49.82 49.63 49.77 50.56 50.44 51.18 49.62 50.21 51.71 52.88 57.31 57.42 59.14 59.76 61.69 61.27 60.67 59.09 59.68 59.71 60.45 61.06 60.61 61.12 59.95 60.46 61.18 60.27 61.06 61.60 62.94 64.21 63.55 63.51 63.27 63.16 64.28 64.28 62.84 62.90 62.88 64.13 65.15 64.99 63.89 63.12 61.98 60.91 60.54
50.17 46.98 48.69 49.36 50.23 49.58 50.92 47.65 48.99 54.60 57.04 57.22 59.18 60.40 60.57 60.26 60.28 58.43 58.85 58.90 59.79 60.19 59.78 59.45 59.05 59.63 59.11 60.17 60.70 62.57 61.78 63.69 63.00 62.23 62.03 61.71 64.21 63.16 62.39 61.39 61.45 62.02 63.00 63.26 62.77 62.56 61.58 60.48 60.15
47.34 48.04 44.34 47.98 48.78 50.01 50.49 45.99 52.04 54.37 55.26 55.96 57.65 58.80 59.06 59.39 59.90 58.68 59.70 59.77 59.89 59.28 59.49 58.80 59.03 58.36 59.11 59.67 60.32 61.78 63.21 62.78 62.56 61.49 60.68 60.57 61.73 62.11 61.13 59.62 59.20 60.04 60.87 60.43 60.71 60.09 59.57 59.45 59.08
46.33 42.64 44.71 46.11 49.33 48.46 49.62 47.67 52.22 55.13 54.41 54.93 57.00 58.42 58.86 58.99 59.87 58.83 59.83 60.43 59.44 58.83 58.62 58.58 58.41 58.53 58.89 59.80 60.60 60.99 60.91 60.89 61.22 61.30 59.99 60.06 60.85 60.78 60.23 59.45 59.01 58.44 57.83 57.97 58.81 58.63 59.34 57.94 57.74
42.66 43.12 44.07 44.07 47.45 48.55 47.99 48.33 51.71 53.21 53.49 54.90 56.62 58.26 58.66 58.64 59.07 59.22 58.84 59.45 59.18 58.72 59.25 58.65 59.00 58.32 58.95 59.91 59.29 59.96 59.69 59.96 60.36 60.55 60.01 60.89 60.47 60.35 59.43 59.11 59.53 58.75 57.71 58.23 58.41 57.34 58.40 57.73 56.77
45.32 44.29 43.34 45.89 47.79 46.25 45.91 46.98 50.30 52.83 52.81 54.14 55.58 56.81 58.23 58.45 59.54 59.41 59.28 58.44 58.70 57.73 58.11 58.54 58.96 58.43 58.44 58.12 57.51 57.66 57.65 58.58 58.85 59.59 60.17 60.61 60.06 59.87 60.38 59.18 59.39 59.15 58.88 59.50 59.40 58.44 56.88 55.32 56.33
44.85 42.82 42.95 45.92 47.55 46.20 46.17 46.49 50.30 52.09 52.55 54.05 55.23 56.83 57.75 58.69 58.26 58.19 58.73 58.42 57.69 56.99 57.09 57.87 59.33 58.59 59.22 58.82 58.19 58.41 58.33 58.54 58.49 59.04 59.82 61.16 60.80 60.67 61.46 61.11 59.84 60.55 59.35 59.61 58.68 57.62 56.72 57.44 56.56
43.86 42.94 43.40 42.97 46.31 47.46 45.72 44.57 47.38 51.12 52.53 54.07 55.69 56.89 58.29 58.66 57.86 57.69 57.58 57.92 57.20 57.36 57.80 56.93 57.58 58.20 59.17 59.97 58.21 57.28 57.48 57.30 56.96 57.69 58.49 59.81 61.69 61.69 61.71 61.53 61.14 60.75 60.75 59.39 59.35 59.84 59.99 58.24 58.78
40.55 46.01 44.92 43.81 43.05 39.73 45.45 37.91 46.19 49.03 49.93 51.78 53.43 56.23 57.47 58.71 58.81 58.22 57.85 57.57 58.09 58.24 58.82 59.37 57.61 57.61 58.79 58.63 58.04 57.06 56.36 56.33 57.22 56.90 57.99 59.15 61.46 61.67 61.31 61.68 61.63 61.28 60.67 60.39 60.88 60.94 61.07 60.64 59.16
42.01 46.09 44.44 44.57 43.29 42.71 42.14 39.52 45.05 48.13 47.39 49.88 52.62 54.82 57.17 58.98 59.04 58.28 58.16 58.13 57.77 57.89 58.89 59.18 58.37 57.61 57.78 58.94 58.09 56.43 55.66 59.34 58.56 57.77 57.08 57.90 59.09 59.56 60.41 61.31 61.25 61.29 61.38 61.48 61.85 61.09 61.04 61.26 60.34
46.77 45.10 44.57 44.81 43.45 36.31 40.65 40.75 42.83 46.14 47.75 49.81 52.42 54.16 56.63 58.44 59.04 59.28 59.44 59.13 58.50 57.59 58.14 59.47 59.13 57.44 57.50 57.98 57.95 56.40 55.47 56.31 56.74 56.47 56.78 57.19 57.00 58.24 59.32 61.32 61.87 61.93 61.44 61.24 61.79 62.52 61.99 61.34 61.20
44.95 41.67 36.52 34.66 35.42 34.76 42.21 40.98 43.52 48.49 50.26 51.37 51.83 53.61 56.89 58.64 58.84 59.16 58.52 58.38 58.26 57.37 57.19 58.49 58.18 57.43 57.62 57.87 57.98 58.45 58.61 58.35 59.06 58.10 57.52 57.47 58.46 58.66 59.36 61.37 61.43 61.77 62.55 63.31 63.63 63.11 62.74 62.52 61.84
41.57 41.45 37.93 31.07 33.82 37.17 43.17 38.18 43.95 50.29 51.93 53.19 54.19 54.95 56.31 58.06 59.14 59.59 59.33 59.47 58.78 57.99 57.49 56.53 56.69 56.88 58.49 58.97 58.49 60.01 60.82 59.93 59.90 60.53 60.36 59.72 60.08 60.99 61.56 61.85 62.08 62.49 62.96 63.21 63.06 62.61 62.28 62.49 62.11
42.38 39.88 45.12 39.72 40.12 36.59 41.09 44.27 48.52 50.61 50.81 52.13 52.78 53.16 55.10 57.35 58.90 59.75 60.04 59.98 59.76 58.74 58.46 58.00 57.86 58.44 58.20 58.11 59.39 59.58 60.15 60.42 59.73 60.16 61.23 61.50 61.03 61.08 62.33 61.46 61.42 61.40 61.44 61.45 61.66 61.18 61.36 61.98 62.39
43.05 45.73 38.14 40.06 30.93 30.76 38.33 40.30 42.22 45.83 48.19 50.11 51.40 52.86 55.52 57.76 58.85 59.81 60.59 60.17 60.61 60.11 59.33 59.02 58.78 58.30 59.60 60.14 59.87 59.74 60.08 60.28 60.35 60.40 59.68 60.33 60.95 60.39 60.23 60.69 61.05 60.65 60.73 61.08 61.36 61.73 61.98 61.37 61.89
41.22 40.24 41.87 42.40 39.90 34.37 33.81 39.03 47.60 47.21 49.78 50.33 51.76 53.22 55.06 57.62 58.64 59.50 60.43 61.26 61.10 60.93 59.97 58.93 58.21 58.33 58.71 59.84 60.28 60.40 60.28 60.26 60.09 60.15 60.55 60.18 60.47 60.46 60.32 60.45 60.98 60.85 60.50 61.43 61.47 61.60 61.42 59.19 57.81
44.29 42.01 42.52 37.30 36.82 39.93 39.06 39.38 49.53 49.52 52.03 52.22 52.63 53.55 54.23 57.41 58.95 59.88 60.16 60.67 60.83 60.66 60.01 58.85 58.32 58.44 59.12 60.06 60.25 60.29 60.57 60.59 60.29 59.91 60.71 61.37 60.76 61.26 60.75 60.51 60.09 60.18 60.65 61.47 60.86 58.85 56.31 55.79 56.03

GFSSGP_sfc_wetblb_093.txt.gz
Wetbulb
62.56 61.55 60.97 58.37 50.17 50.01 47.77 48.70 51.17 49.60 50.40 53.89 55.43 54.18 53.84 55.24 52.44 50.00 66.60 68.28 69.49 70.21 73.02 72.46 71.78 72.48 73.12 72.83 72.05 72.55 72.91 72.93 72.68 72.16 72.18 72.08 72.28 71.98 71.81 71.69 71.40 71.30 70.90 69.48 68.79 68.90 68.72 68.49 67.91
62.15 59.51 59.98 56.33 47.59 46.40 48.11 50.87 48.97 50.97 52.56 54.44 55.74 55.07 54.16 53.35 57.75 59.83 64.44 69.55 68.99 69.72 72.71 72.98 71.11 71.78 72.46 71.56 72.17 72.40 72.89 72.83 72.36 71.99 72.26 72.36 71.97 71.90 71.86 71.40 70.49 70.47 70.36 69.27 69.16 68.77 68.20 67.63 67.60
61.91 59.83 56.00 52.43 49.23 46.36 47.25 50.43 50.85 51.98 53.37 53.17 53.13 56.68 55.74 54.07 59.27 61.79 68.52 68.25 68.56 69.27 71.31 72.71 70.31 70.77 71.40 71.16 71.28 71.60 72.00 71.56 71.69 71.67 72.14 72.28 72.19 71.73 71.37 70.26 69.70 69.76 69.95 69.39 69.00 68.39 67.65 66.59 66.82
58.97 57.47 55.08 47.15 46.68 50.02 49.21 50.89 51.66 51.79 53.42 54.51 54.02 52.59 57.60 61.19 61.65 64.81 67.44 67.89 68.29 68.23 69.78 70.00 67.59 70.10 70.76 70.79 71.75 71.67 71.19 70.11 70.86 71.06 71.64 72.01 71.67 71.24 70.38 69.16 69.02 69.29 69.26 69.08 68.14 67.65 66.53 66.19 65.94
58.63 55.45 49.06 47.96 48.08 49.86 51.22 51.85 52.10 51.17 52.04 53.06 55.45 53.54 55.66 61.51 64.28 65.47 66.11 67.82 68.20 69.17 69.64 72.06 66.25 66.91 68.58 69.85 68.04 68.53 69.82 69.73 70.55 70.93 71.11 71.17 71.08 70.18 69.40 68.62 68.49 68.32 68.49 67.95 66.79 66.22 65.60 65.47 65.23
53.11 53.45 47.16 46.09 48.08 49.28 51.42 52.55 52.41 51.96 52.88 53.65 54.14 54.48 56.16 64.48 64.28 65.58 67.74 68.05 69.19 69.00 70.41 70.95 68.59 67.02 68.51 68.42 63.51 63.10 65.96 68.52 69.61 70.34 70.25 70.25 69.67 69.11 68.78 68.27 68.25 67.71 67.29 66.77 66.09 65.34 64.93 64.63 64.43
51.89 51.06 47.77 47.77 47.49 47.90 50.26 53.62 51.89 52.36 52.28 52.36 56.10 52.97 56.69 61.64 65.25 67.65 67.79 68.60 68.55 68.87 68.92 69.12 70.21 69.95 67.66 65.88 64.89 64.06 64.89 64.66 67.54 69.22 69.08 68.92 68.14 67.84 68.23 68.47 68.07 66.90 66.26 65.83 65.28 64.97 64.53 64.07 63.40
54.15 51.85 47.64 48.42 47.05 47.38 51.21 52.04 53.44 52.56 52.36 56.22 56.67 52.51 53.85 62.82 66.21 67.49 67.53 67.65 67.75 68.12 68.47 68.88 68.57 70.09 70.04 68.84 63.22 64.15 64.29 63.86 66.66 68.17 68.12 67.27 67.12 67.47 67.91 67.48 66.99 66.19 65.66 65.16 64.61 64.08 63.66 63.33 62.59
55.19 47.90 46.37 47.97 48.04 48.94 51.78 50.61 53.61 55.10 53.82 54.54 55.79 57.65 60.28 62.71 65.79 65.59 65.53 66.75 67.45 66.41 66.96 67.68 67.72 69.19 68.53 67.16 64.43 64.39 63.59 63.07 65.18 67.82 67.23 66.43 68.93 68.86 68.12 67.12 66.04 65.60 65.17 64.66 64.03 63.77 62.96 62.31 61.85
51.14 47.83 48.08 51.55 50.96 49.50 51.48 51.55 52.34 52.27 52.26 52.97 54.93 58.65 61.49 62.87 64.12 63.71 63.74 64.26 64.63 66.19 65.76 65.69 66.84 67.99 67.64 65.05 65.72 64.67 62.71 61.91 62.94 69.65 68.55 69.60 69.55 68.80 67.88 66.50 65.45 65.08 64.58 64.08 63.71 62.75 61.89 61.30 60.74
51.23 47.59 50.95 51.48 51.60 51.78 50.98 51.31 53.07 51.80 50.60 53.69 54.06 56.46 59.43 61.93 62.97 63.71 63.57 64.32 64.26 65.58 65.73 65.35 65.88 66.87 66.57 65.54 65.72 64.62 63.40 64.22 66.03 69.34 68.41 69.16 69.34 68.35 67.98 67.16 65.75 64.34 63.29 62.03 61.97 60.90 60.86 60.90 60.23
48.31 50.52 51.18 51.79 51.76 51.19 50.58 52.32 51.18 52.12 52.74 55.69 56.25 58.93 60.12 60.72 62.68 63.41 63.62 63.17 63.90 64.02 65.10 65.80 65.06 65.40 66.21 66.01 65.94 64.96 64.55 62.21 65.93 67.08 68.07 67.86 68.03 67.47 67.06 66.68 65.36 63.99 62.87 62.12 61.26 61.25 63.14 62.03 61.19
49.80 50.59 51.88 52.55 52.15 51.75 51.92 50.16 50.42 51.23 54.24 56.08 57.60 59.73 59.65 60.90 62.88 64.29 63.96 63.30 63.77 62.82 63.42 64.51 64.67 64.67 64.82 64.87 64.35 65.25 64.06 64.29 63.81 64.51 66.26 67.34 66.67 66.55 65.83 66.36 65.91 64.37 64.16 63.18 62.44 62.74 62.57 61.83 61.34
51.88 51.59 51.51 52.57 52.12 52.07 50.26 50.58 51.19 51.85 54.78 56.16 58.31 59.65 60.63 62.06 63.03 63.40 62.39 62.71 60.75 62.28 62.96 62.96 62.83 63.22 62.80 64.60 63.96 62.84 65.29 64.23 63.58 63.42 64.36 64.80 64.81 64.61 64.94 66.15 65.85 64.94 64.51 64.18 63.37 63.41 62.50 61.44 60.90
51.45 48.73 50.51 51.19 51.74 51.00 52.00 48.44 49.07 52.62 54.99 55.98 57.59 60.44 61.29 62.18 62.86 62.14 62.16 61.80 61.85 61.55 61.89 61.50 61.11 61.10 61.06 62.67 62.72 64.08 64.63 63.85 63.36 63.15 64.41 64.22 62.94 64.09 64.75 65.64 65.68 65.40 65.75 66.35 64.38 63.45 62.17 60.44 60.23
48.28 48.97 45.03 50.48 51.94 51.81 50.87 45.09 51.61 54.87 55.24 55.10 57.92 59.82 60.63 61.12 61.69 62.60 62.38 62.11 62.30 61.55 61.15 60.63 60.45 59.73 60.77 61.37 62.65 62.77 63.17 64.01 63.19 62.95 63.23 62.90 63.11 64.43 65.03 64.38 64.50 65.63 65.71 64.02 62.91 62.11 60.07 59.77 59.63
46.98 42.70 45.60 48.40 51.61 50.37 49.72 47.55 52.46 56.24 55.44 54.65 56.69 58.41 59.75 60.61 62.15 62.67 62.81 62.17 61.56 61.04 60.68 60.11 59.25 60.33 61.20 61.41 62.08 62.36 62.71 63.04 62.52 62.14 61.55 61.20 61.60 62.76 63.97 63.18 63.42 64.13 63.11 63.10 62.42 60.96 60.45 59.84 58.88
41.34 43.30 46.01 46.19 50.23 49.58 48.12 47.90 51.52 53.28 54.33 54.40 55.57 57.19 59.32 60.23 60.92 62.48 62.00 61.42 61.08 60.67 60.01 59.37 59.81 60.66 60.44 60.12 60.13 60.13 61.50 61.57 61.12 60.45 59.77 59.54 59.99 61.20 63.00 61.17 60.47 60.64 59.16 59.63 59.85 59.65 61.17 59.40 58.91
46.55 45.77 45.74 48.45 50.55 47.68 47.82 48.24 49.50 51.88 53.20 53.82 54.40 55.85 57.99 60.01 61.95 62.16 61.84 61.14 60.01 59.99 59.61 60.14 58.52 59.28 59.54 59.51 58.16 57.74 57.63 59.11 58.83 59.02 59.09 58.83 58.98 59.66 61.11 60.25 59.43 59.32 59.10 58.29 59.04 59.24 59.20 58.95 58.78
46.05 44.74 45.02 47.66 49.68 48.38 47.74 47.22 49.37 50.77 51.57 53.84 54.15 55.91 57.37 59.83 60.96 60.69 61.15 60.17 58.82 58.62 58.68 59.50 59.82 59.47 59.80 59.62 60.09 58.46 57.75 58.48 58.45 58.84 58.75 58.91 59.03 59.36 59.34 59.21 59.16 59.29 59.29 58.92 59.57 59.49 58.18 58.15 57.91
45.34 44.03 44.53 44.54 48.39 48.83 47.18 45.60 47.41 50.45 51.78 53.38 54.70 55.80 56.83 59.17 60.20 60.10 60.14 59.77 58.51 58.45 58.78 59.22 59.43 59.67 60.02 59.58 59.84 59.71 59.15 58.27 57.45 57.86 57.84 58.13 59.27 59.89 59.99 60.25 60.02 59.79 59.40 60.13 61.18 60.54 59.54 57.39 57.40
42.96 47.14 45.14 45.11 44.87 41.25 48.46 39.38 46.01 49.38 50.76 52.70 53.85 55.18 56.29 58.30 60.68 60.59 60.19 59.95 58.92 59.71 60.02 59.11 59.51 59.04 59.95 61.43 59.84 57.82 57.15 56.08 57.55 57.38 58.40 59.00 59.81 59.73 59.62 60.78 60.54 60.75 61.93 61.60 59.28 60.43 60.30 61.39 58.64
44.43 46.99 45.39 45.36 44.58 44.01 44.09 41.67 44.67 49.07 47.95 50.18 52.74 54.42 56.19 58.57 60.61 60.17 60.44 60.19 60.68 59.31 60.43 60.37 58.90 58.54 59.80 59.78 60.15 59.15 57.47 56.51 57.48 57.57 57.81 59.05 57.40 58.19 58.93 61.05 62.21 61.03 61.62 62.02 61.41 61.86 62.23 62.00 60.69
47.55 45.36 45.13 45.17 44.45 38.30 43.03 42.72 42.70 46.46 49.21 51.08 52.65 54.45 56.41 58.34 60.45 61.00 61.32 60.58 60.83 60.11 59.37 60.78 59.03 58.49 58.98 59.83 59.75 59.21 57.00 56.52 56.75 56.31 55.92 57.17 57.54 56.84 58.41 61.35 61.95 63.02 62.37 62.02 62.68 62.90 62.54 61.75 61.77
46.05 43.09 36.20 33.03 35.25 36.13 44.84 42.01 43.90 49.71 50.50 51.56 52.43 53.63 56.99 58.88 60.36 60.65 60.44 59.49 59.83 59.62 58.54 59.34 58.86 57.83 58.42 59.28 59.55 59.54 58.69 58.58 57.37 56.75 55.76 55.95 56.37 57.10 58.05 59.50 60.47 61.88 62.68 62.67 62.68 62.57 62.91 62.80 61.95
43.46 43.14 37.39 29.52 33.23 37.90 45.26 39.37 43.86 51.29 52.73 53.50 53.67 54.50 57.27 58.74 60.36 60.77 60.78 60.45 59.80 59.67 59.63 59.85 58.41 57.90 58.85 58.27 59.03 59.67 58.80 57.28 57.22 59.18 58.67 56.86 56.54 56.41 57.49 58.12 58.60 61.66 62.58 62.66 63.13 63.09 63.90 63.60 62.68
42.67 39.94 45.51 39.69 41.72 38.31 41.74 44.72 48.49 50.96 51.74 52.12 52.60 54.67 55.94 58.28 59.94 60.62 61.29 61.60 60.52 60.09 59.98 60.39 59.80 59.72 59.07 59.37 59.45 58.94 58.70 58.19 57.99 59.40 61.28 60.26 59.26 58.66 59.29 59.32 60.53 61.47 62.86 62.82 63.39 63.05 62.82 62.78 62.70
42.94 45.77 38.90 40.74 32.60 31.17 39.02 40.73 41.75 46.22 49.49 51.41 51.53 52.64 54.57 57.43 59.49 60.57 61.39 61.90 61.78 60.95 60.64 60.65 60.45 60.13 60.02 60.49 60.33 60.18 59.58 60.51 60.64 60.08 60.15 61.62 61.20 61.53 61.87 61.99 62.44 62.58 62.77 63.03 63.16 62.12 62.70 62.02 62.25
40.98 40.06 41.84 42.87 40.97 35.02 34.21 39.16 48.71 47.99 49.92 51.08 52.54 53.83 55.16 57.18 59.26 60.39 61.46 62.31 62.71 62.05 61.05 60.57 60.37 60.23 60.66 60.49 60.59 60.53 60.12 60.60 60.92 60.97 62.29 61.52 61.57 61.30 61.19 62.08 61.76 61.94 62.08 62.78 62.33 62.38 62.44 61.74 61.91
45.37 42.74 42.29 37.59 37.03 40.59 39.62 39.86 50.72 49.92 50.71 53.25 53.20 54.20 55.39 57.79 59.79 60.47 61.34 62.14 62.15 62.13 61.31 60.55 60.52 60.32 60.65 61.33 61.16 60.59 61.39 61.63 61.54 62.02 61.32 62.80 62.49 63.02 62.38 62.15 61.74 61.50 61.99 62.36 61.76 61.04 61.31 61.15 60.80

GFSSGP_sfc_wetblb_096.txt.gz
Wetbulb
61.87 60.96 59.06 57.18 48.38 48.48 45.96 48.21 51.26 49.59 49.98 54.06 54.74 53.06 51.65 52.56 50.90 49.13 66.34 68.81 69.92 70.84 71.88 71.77 71.86 73.01 72.98 72.64 72.47 72.70 72.88 72.96 72.45 72.68 72.48 72.39 72.17 72.08 71.85 71.68 71.49 71.62 71.41 70.64 70.47 70.01 69.62 69.21 69.13
59.79 59.50 57.77 54.24 46.99 43.52 46.13 50.67 49.26 50.76 52.81 54.28 53.71 53.70 52.57 51.60 57.39 60.79 66.61 69.02 69.46 69.41 72.47 72.21 71.46 72.29 72.85 72.34 72.07 72.27 72.83 73.00 72.31 72.43 72.27 72.29 72.25 71.84 71.95 71.38 70.70 70.75 70.85 69.89 69.90 69.57 68.92 68.26 68.50
60.66 60.96 52.73 51.08 48.23 44.39 46.04 49.90 50.41 52.10 53.33 52.57 51.86 54.65 54.77 53.58 58.23 61.50 67.78 68.10 68.62 69.17 70.76 72.34 70.52 71.34 72.44 72.05 72.02 71.88 72.04 72.12 71.83 72.06 72.19 72.15 72.06 71.94 71.77 70.81 70.03 70.07 70.45 69.43 69.10 68.89 67.90 67.63 67.31
58.40 56.32 53.98 47.24 44.82 48.09 48.93 50.93 51.63 51.32 52.65 53.97 53.65 51.16 55.47 60.20 59.81 64.78 67.82 67.85 68.68 69.62 70.52 69.71 69.94 70.31 71.22 72.09 71.86 70.71 70.68 70.03 70.74 71.38 71.65 71.91 72.13 71.77 71.15 70.04 69.76 70.02 70.31 69.45 68.43 67.61 66.84 66.66 66.57
56.98 54.48 48.11 46.90 47.02 49.74 51.29 51.92 51.96 50.38 51.36 52.65 53.44 52.32 54.70 59.04 63.93 65.80 66.64 68.15 68.75 69.69 70.56 70.56 68.58 68.46 68.33 71.11 70.67 68.80 66.65 66.37 69.14 70.29 70.00 70.78 70.95 70.84 69.80 69.35 69.25 69.35 69.23 68.96 67.78 66.61 66.05 66.02 65.34
51.55 52.41 45.26 43.90 47.22 50.16 51.05 52.75 51.70 51.25 51.95 52.65 52.36 53.08 55.00 63.06 63.69 66.27 68.34 69.09 70.33 70.50 71.36 69.73 68.15 67.55 67.21 69.16 67.22 66.47 66.32 63.72 66.29 68.13 69.21 70.35 70.15 69.57 69.02 68.81 68.63 68.39 68.24 67.73 67.18 66.46 65.88 65.55 64.96
49.78 48.79 46.13 47.01 47.25 48.57 50.26 53.81 51.63 51.05 51.49 51.38 54.41 51.65 56.06 61.99 66.15 68.12 68.04 69.23 68.90 70.18 69.85 70.50 70.85 69.19 67.45 67.49 65.58 65.24 65.64 64.55 64.37 63.19 65.47 69.04 68.45 68.03 68.28 68.08 68.03 67.53 67.03 66.77 66.20 65.61 65.08 64.80 63.87
51.60 49.99 46.64 47.43 46.47 47.23 51.73 51.81 52.99 51.23 50.89 55.26 55.21 51.01 53.34 63.30 66.78 67.73 67.99 68.91 68.27 68.64 69.23 68.70 68.94 69.44 69.17 66.62 64.44 63.83 64.82 63.81 62.99 63.39 63.86 67.00 66.70 67.24 67.53 66.94 66.82 66.72 66.14 65.46 64.94 64.91 64.40 63.67 62.65
54.51 47.33 44.55 46.06 47.28 49.16 52.14 50.35 53.17 54.30 52.30 53.70 54.54 55.47 57.78 63.28 65.83 65.32 65.62 66.81 67.61 66.59 67.65 67.80 67.34 68.58 69.08 68.26 65.13 64.29 65.15 63.08 61.62 63.38 61.92 65.93 66.87 66.84 67.12 65.90 65.72 65.82 65.27 64.86 64.31 63.76 63.08 62.25 61.54
50.62 46.85 46.45 49.96 50.84 49.72 50.84 50.49 51.80 50.97 51.09 51.85 53.52 59.33 59.41 61.14 63.17 62.93 63.54 64.33 65.99 66.25 66.34 65.36 66.58 66.71 67.31 66.72 65.64 63.82 63.66 63.94 62.72 62.56 61.51 66.76 66.51 66.98 66.65 65.01 64.95 65.04 64.55 64.05 63.57 62.84 61.84 60.71 58.11
50.43 46.94 49.94 50.55 51.62 51.96 50.48 50.38 52.30 50.36 48.92 52.56 52.44 55.10 57.28 60.85 62.02 62.85 63.23 65.45 65.18 65.55 65.04 65.17 65.32 66.34 66.44 65.19 65.08 63.23 62.98 62.51 61.88 61.58 60.17 66.44 66.84 66.31 65.53 63.76 63.41 62.80 63.24 61.27 60.73 59.73 57.97 56.87 56.92
47.88 50.26 50.63 50.78 51.33 50.99 49.73 51.49 50.55 50.79 51.14 54.03 54.89 56.80 58.42 59.33 61.43 61.98 64.05 63.93 64.03 64.55 65.40 65.31 65.90 65.49 65.48 65.79 64.33 63.45 62.19 60.73 62.68 62.79 64.00 66.11 65.79 65.42 64.42 62.85 61.83 60.06 59.85 58.41 57.24 57.34 57.72 56.82 57.26
49.13 49.84 50.93 51.67 51.45 51.72 52.18 50.34 50.18 50.22 52.36 53.83 54.92 56.87 58.34 59.23 60.75 64.47 64.66 64.50 65.07 64.01 64.31 65.11 64.54 64.76 64.55 64.11 64.60 64.04 62.80 62.26 62.93 63.96 64.86 66.22 65.10 64.84 64.44 62.80 60.21 58.96 59.26 58.13 57.09 58.41 58.36 57.99 57.24
50.95 50.95 50.84 51.58 51.56 51.91 50.58 50.90 51.12 51.65 53.15 52.95 54.88 56.72 58.61 59.62 61.13 63.63 63.76 62.51 62.60 63.28 63.24 64.02 63.84 64.21 63.71 63.84 63.75 63.96 63.36 62.22 63.55 64.77 65.51 65.45 64.98 64.27 63.89 62.27 60.14 60.14 59.74 59.47 58.87 59.55 58.61 57.46 57.88
51.72 47.99 49.55 50.32 50.80 50.30 51.75 48.30 48.70 52.49 53.77 52.59 54.22 56.06 58.98 59.76 62.52 62.44 63.34 62.11 62.28 62.13 62.01 62.19 61.95 61.82 62.15 62.93 63.21 63.00 63.83 63.31 62.54 62.81 63.42 64.74 64.62 63.88 63.20 62.86 60.96 61.82 60.74 59.84 60.05 59.84 58.84 57.09 57.39
47.70 48.04 43.78 49.19 50.64 51.44 50.79 44.74 50.69 53.80 52.82 51.83 54.84 56.45 58.59 60.01 61.17 62.50 62.86 62.17 62.18 61.55 60.71 61.26 60.89 60.64 60.76 62.82 62.31 61.92 63.84 62.71 61.99 62.46 62.95 62.56 62.53 63.51 63.03 62.58 61.79 62.02 61.72 60.60 61.01 59.05 57.10 56.09 55.87
45.87 41.35 43.43 45.69 51.17 50.79 49.55 45.84 50.28 54.06 53.87 53.53 54.25 55.55 57.72 59.47 60.98 62.57 62.37 62.35 61.71 61.40 60.51 60.22 60.22 60.08 60.72 61.69 62.44 62.38 62.43 63.10 62.24 62.16 62.71 62.24 61.70 62.12 62.61 62.52 62.07 62.51 62.26 61.44 60.19 58.04 56.73 55.61 55.46
41.17 42.33 44.15 43.53 48.01 50.13 48.21 47.17 50.26 51.88 53.72 53.71 54.17 54.85 56.48 58.79 60.03 62.51 62.24 61.80 61.16 60.42 60.13 60.15 59.38 60.62 60.71 60.75 60.76 61.88 62.32 62.44 62.86 61.49 61.96 61.76 60.96 61.32 61.48 60.72 61.04 61.18 60.53 59.10 58.35 56.93 57.07 55.87 55.73
45.09 44.49 43.75 46.66 50.05 49.01 48.16 47.55 49.14 51.59 51.58 52.14 53.22 54.15 55.12 58.18 61.12 62.14 62.07 61.21 60.12 59.10 59.37 59.26 59.27 59.54 59.52 58.45 57.91 59.44 59.66 61.04 60.94 61.51 61.47 61.02 60.00 59.35 59.07 58.35 58.63 57.98 57.23 56.98 57.93 56.51 54.86 54.68 54.80
44.36 42.60 43.26 47.12 48.81 48.57 47.60 46.49 49.21 50.80 51.22 51.40 51.30 53.22 55.45 57.86 60.47 60.26 60.39 59.92 59.21 58.52 59.02 59.07 58.58 59.21 59.39 58.92 58.54 58.49 58.96 59.19 58.92 58.92 58.87 59.16 58.32 58.76 57.93 57.10 57.10 57.52 57.21 56.59 56.71 55.79 55.06 54.46 54.68
44.60 43.51 43.83 43.97 46.99 48.74 47.09 45.00 46.76 49.93 51.59 52.07 52.44 54.34 55.39 57.35 59.35 59.46 59.60 59.19 58.94 57.67 58.12 58.92 59.42 59.52 59.08 59.34 58.41 57.92 58.04 57.89 57.25 57.03 57.10 57.77 58.04 58.20 58.12 57.89 57.15 57.85 57.42 56.90 57.40 56.84 55.72 53.98 54.65
40.28 46.58 45.85 45.02 43.10 38.33 46.62 38.70 45.88 48.66 49.45 51.12 51.69 53.06 55.32 55.42 60.34 59.75 59.64 58.43 58.21 57.59 58.76 58.95 59.71 59.85 58.93 59.63 58.28 57.07 55.99 54.98 55.92 56.30 56.58 57.36 57.52 58.14 58.54 59.10 58.89 58.17 58.53 57.98 57.85 58.35 57.09 56.77 53.72
42.64 46.75 45.45 45.70 42.44 41.54 41.84 40.42 43.68 48.33 47.02 49.09 52.04 54.12 55.02 56.18 60.11 59.40 59.33 59.40 58.89 59.18 59.44 58.90 59.35 59.57 59.46 59.20 58.93 57.53 56.43 56.33 55.79 55.03 55.01 56.50 57.24 57.51 58.29 59.00 58.91 58.74 58.64 58.62 58.69 58.08 57.60 57.78 57.76
47.11 45.36 45.04 44.22 42.55 35.13 40.29 40.80 41.56 44.69 47.83 50.08 52.06 53.78 56.90 56.36 59.73 60.06 60.40 60.14 59.16 59.45 58.76 59.31 58.44 58.72 59.48 59.81 58.68 57.90 56.73 55.83 54.96 54.48 53.83 54.91 56.34 57.19 57.68 58.25 58.85 58.91 58.43 58.75 58.85 58.75 58.59 58.56 58.46
44.87 41.84 34.72 33.42 33.60 32.63 43.13 40.82 43.66 48.37 50.56 51.49 52.20 53.88 56.96 57.43 59.32 59.36 59.02 58.49 59.02 58.32 58.08 58.54 58.39 57.31 58.90 59.08 59.39 58.65 57.41 56.80 55.72 55.39 54.99 55.29 55.13 55.53 56.01 55.84 56.07 57.92 58.72 58.69 58.87 58.95 58.94 58.81 58.06
42.39 41.79 36.10 29.17 31.58 35.51 43.94 38.54 43.74 49.88 51.60 52.71 54.05 55.50 56.38 57.39 59.45 59.38 59.42 58.46 59.26 58.47 58.04 57.89 58.25 57.38 58.11 59.14 58.90 58.87 57.97 57.23 57.06 56.71 56.32 56.28 55.42 54.99 55.92 56.43 56.81 58.57 58.76 59.42 59.97 59.43 59.36 59.29 59.21
42.39 39.29 44.42 38.78 40.15 34.59 38.84 43.65 49.27 50.18 50.76 52.10 52.35 53.63 55.73 57.04 58.64 59.32 60.06 59.07 58.82 58.82 58.34 58.54 58.35 58.13 57.53 58.73 59.21 58.82 58.44 58.03 57.34 57.19 56.81 56.86 56.68 56.80 56.37 56.48 56.80 57.72 58.60 59.38 59.29 59.20 58.68 59.27 58.79
43.25 45.82 38.11 39.57 30.49 29.02 36.51 37.95 40.45 46.75 48.71 51.14 51.36 52.60 55.07 56.94 58.39 59.28 60.07 59.98 59.49 59.51 59.17 59.32 59.02 58.46 58.18 57.93 58.95 58.82 58.21 57.97 57.76 57.27 56.81 56.87 56.83 57.16 56.83 56.83 56.85 57.04 57.12 59.31 59.10 58.60 58.86 58.52 58.07
39.51 38.62 40.09 40.47 38.99 32.53 31.49 36.56 47.20 47.24 49.11 50.60 52.10 54.27 55.07 57.55 57.75 59.11 60.00 60.85 60.22 59.95 59.61 59.67 59.31 58.95 58.47 58.66 58.63 58.84 58.29 57.76 57.82 57.82 58.02 58.20 57.14 56.95 56.75 56.69 56.72 57.29 57.82 57.93 58.40 58.20 58.65 58.22 58.07
44.73 40.72 40.47 35.00 34.66 38.92 37.08 37.57 48.60 50.13 49.64 50.98 51.58 52.72 56.18 56.80 58.27 59.18 59.95 61.06 60.72 59.54 59.41 59.07 59.19 58.93 59.36 59.66 59.09 58.72 58.84 58.65 58.25 58.22 58.52 58.89 58.73 58.37 57.23 57.53 58.41 58.08 57.97 58.83 58.43 58.10 58.29 57.95 57.21

GFSSGP_sfc_wetblb_099.txt.gz
Wetbulb
59.48 58.18 54.39 50.65 41.56 38.72 36.09 41.23 45.59 45.03 47.17 50.15 51.68 50.59 48.54 48.21 48.52 44.30 62.67 66.23 69.98 70.23 71.04 72.20 71.91 72.08 72.12 72.36 72.38 72.58 72.73 72.60 73.06 72.85 72.53 72.12 71.97 71.83 71.54 71.38 71.46 72.03 72.28 71.13 70.55 70.30 70.68 70.43 70.33
54.93 56.39 51.48 46.56 38.46 33.66 38.55 44.23 43.67 47.61 50.95 51.92 51.99 51.92 49.83 48.54 60.86 62.91 63.77 66.80 68.38 70.63 70.41 70.89 71.65 71.87 72.13 72.04 72.27 72.42 72.88 72.68 72.76 72.61 72.59 72.20 72.02 71.73 71.84 71.62 71.23 71.53 71.31 70.36 70.35 70.30 70.26 69.90 69.61
57.58 57.77 45.67 42.23 38.52 36.50 37.52 44.77 45.37 47.81 50.94 50.05 48.94 51.66 52.09 51.56 60.02 63.45 65.29 66.82 66.05 68.29 70.74 70.79 70.81 71.63 71.98 71.87 71.82 72.02 72.43 71.84 71.96 72.01 72.40 72.31 71.95 72.03 71.66 70.85 70.46 70.65 70.90 70.00 69.67 69.65 69.01 68.86 68.43
54.27 50.45 46.67 39.42 38.31 43.51 44.86 45.41 47.00 48.05 49.55 50.94 50.99 50.57 52.71 57.09 58.20 64.40 65.32 65.98 64.65 66.68 70.46 69.32 69.69 70.88 71.87 72.02 71.83 71.96 71.95 71.42 71.45 71.46 71.87 71.99 71.80 71.85 71.13 70.32 69.90 70.09 70.29 69.96 68.57 68.43 68.24 67.32 66.98
49.32 46.30 39.55 37.85 40.74 45.41 48.96 47.89 49.01 48.06 48.50 52.22 50.11 50.03 51.66 58.17 64.32 64.20 64.56 66.11 65.42 66.96 68.84 69.13 68.80 70.04 71.31 72.23 71.96 70.85 70.32 70.85 70.03 69.63 70.13 70.04 69.87 70.86 70.39 69.73 69.53 69.35 69.33 68.80 68.36 67.94 67.20 66.51 66.30
44.83 44.48 35.91 34.60 40.75 45.93 47.99 48.62 49.50 49.57 49.48 50.53 49.39 50.54 52.06 60.78 62.17 64.10 65.55 65.77 66.32 65.94 68.62 68.22 68.99 68.72 69.05 70.02 70.96 68.71 67.63 68.35 68.12 68.13 68.40 68.17 69.17 69.52 69.74 69.47 69.26 68.94 68.55 67.93 67.62 66.92 66.53 65.94 65.49
42.57 39.54 36.79 39.28 42.35 44.94 47.49 50.20 49.39 48.90 47.27 48.25 49.09 46.77 54.52 60.84 63.35 64.59 65.34 65.41 65.35 65.54 66.07 67.23 66.97 67.67 67.86 67.93 67.57 66.52 66.34 67.60 67.14 67.21 64.64 65.24 67.37 67.90 68.94 68.82 68.81 68.40 67.87 67.31 66.76 66.17 65.73 65.26 64.28
45.65 41.51 38.33 40.35 41.88 42.78 48.66 48.21 49.91 47.88 46.20 52.02 51.43 47.78 47.91 60.67 64.16 63.81 64.67 64.42 64.27 65.03 65.57 65.80 66.27 66.38 65.75 65.81 65.67 65.78 65.00 65.72 65.92 65.63 65.05 64.08 62.76 66.70 67.54 67.55 67.76 67.57 67.28 66.68 65.78 65.27 64.73 64.01 62.62
46.26 38.70 38.38 40.24 42.77 45.45 49.25 46.28 49.69 49.62 47.79 49.08 51.16 51.77 56.13 64.10 64.16 62.08 61.52 62.22 62.84 63.70 64.30 63.96 64.92 66.31 66.21 63.84 63.69 64.41 65.52 64.74 64.65 64.43 64.10 62.40 61.35 66.16 66.31 66.30 66.48 66.71 66.11 65.84 65.27 64.50 63.57 62.47 61.68
44.43 37.75 41.45 46.66 47.73 46.73 49.09 46.05 48.12 45.67 45.44 47.88 50.44 56.35 62.53 62.96 61.41 59.77 59.73 60.53 62.73 62.33 62.98 63.35 63.92 64.85 66.16 65.65 63.47 61.88 62.70 62.08 60.93 62.37 61.44 60.42 62.65 65.03 65.21 65.38 65.45 65.53 65.18 64.72 64.23 63.53 62.65 59.96 56.52
43.74 41.91 46.11 47.74 49.20 49.14 47.38 46.12 47.62 45.75 43.79 48.38 48.42 51.10 54.81 59.70 58.98 58.69 58.97 60.41 62.47 63.49 62.75 62.16 62.92 64.60 64.34 63.54 63.00 62.18 62.54 62.99 61.06 61.36 61.13 60.35 64.11 65.38 64.08 63.61 63.39 62.77 63.48 61.66 61.10 60.33 56.58 56.12 55.89
42.96 46.66 47.65 48.15 49.66 48.35 46.37 47.74 47.50 46.08 46.96 50.17 50.25 52.18 54.66 55.31 56.79 58.10 58.77 59.31 61.90 62.53 61.96 62.18 62.27 63.35 63.11 62.81 61.95 61.77 61.05 62.59 61.94 61.51 60.93 61.44 64.01 64.04 62.94 61.88 61.06 60.89 59.81 58.05 56.64 54.88 54.48 54.76 56.16
45.47 46.72 48.49 49.21 48.59 47.40 48.47 47.30 47.76 46.90 48.79 50.57 51.30 51.58 54.73 55.15 56.53 58.83 59.83 59.61 60.56 62.05 62.05 61.61 61.74 61.39 62.09 62.23 62.50 62.23 61.33 60.84 61.82 60.92 60.75 60.58 64.44 63.21 61.85 60.26 59.53 58.41 57.65 56.05 54.28 54.54 54.67 53.85 54.78
47.78 47.78 47.77 47.33 46.98 47.30 47.60 47.65 46.11 49.13 49.74 50.41 51.83 50.18 53.54 55.68 56.62 59.63 59.35 58.78 59.28 61.54 61.15 61.04 61.25 60.93 61.13 61.09 61.83 62.48 61.83 60.66 60.99 61.95 61.97 61.58 64.76 63.00 60.52 58.77 56.98 56.84 56.78 54.88 54.27 54.89 54.46 53.67 55.18
48.64 44.53 47.01 47.54 46.57 46.51 47.68 45.04 45.60 49.53 51.31 50.85 49.95 51.02 54.03 55.30 57.65 59.86 59.23 58.37 58.08 59.84 60.14 59.38 60.30 61.03 59.60 62.07 61.01 62.55 61.85 62.20 63.02 63.02 62.31 64.49 64.81 63.16 59.67 57.05 57.11 56.85 56.23 55.58 56.07 55.77 55.11 54.40 55.39
44.43 43.21 38.24 44.73 46.98 48.57 46.56 41.34 48.46 51.26 50.18 49.17 50.19 51.70 53.15 55.68 58.04 59.77 58.98 57.78 58.57 58.10 58.74 58.90 60.78 59.49 60.11 61.71 60.35 61.67 61.85 61.71 62.54 63.75 63.15 64.55 64.28 62.63 59.64 57.18 58.08 57.90 57.67 56.82 58.00 56.67 54.13 53.53 53.92
40.04 36.30 38.55 42.02 47.45 47.03 45.05 42.98 48.11 50.16 49.58 49.67 50.20 50.27 51.71 54.26 57.13 58.77 58.60 58.19 58.18 58.41 58.19 58.55 59.50 58.99 59.76 60.65 59.80 59.90 62.30 61.15 61.93 63.11 62.62 63.33 62.54 62.45 60.58 58.39 59.40 58.56 58.70 57.61 58.48 55.47 54.86 52.68 52.70
35.16 37.30 40.39 40.20 45.15 46.95 44.00 43.78 46.60 48.28 47.49 49.17 49.61 49.22 50.35 53.79 57.23 58.86 57.80 58.38 58.03 57.44 58.38 59.17 58.26 58.34 60.10 59.38 59.38 59.13 60.28 61.28 60.83 62.06 61.89 61.50 61.31 61.96 61.23 60.09 59.88 59.59 58.46 58.17 57.32 54.78 53.80 53.56 53.48
41.40 40.27 39.34 42.34 45.84 45.75 43.39 44.12 46.57 46.99 45.11 45.81 48.66 48.39 48.99 53.47 58.57 57.95 57.68 57.42 56.59 56.90 58.72 57.81 58.35 59.18 58.31 58.35 58.25 58.39 59.57 60.96 60.57 60.88 61.55 61.10 60.33 59.19 59.75 60.01 59.14 58.36 58.76 58.36 57.10 53.95 53.84 52.56 52.93
40.74 38.79 38.20 42.05 45.11 45.60 44.00 42.95 46.26 47.30 46.80 46.92 46.48 46.24 48.89 56.01 56.69 56.75 56.25 56.26 55.53 57.41 58.18 58.42 58.87 58.31 58.90 58.20 58.28 59.19 60.25 61.02 60.56 60.97 61.10 60.67 59.11 57.86 58.27 58.55 57.09 57.62 56.73 56.19 54.38 54.22 52.70 52.16 51.70
38.65 38.23 38.66 39.37 43.79 46.45 43.46 41.23 42.99 47.66 47.88 48.57 49.91 48.92 50.86 55.89 55.47 55.75 55.72 55.23 55.37 57.37 57.93 57.87 58.17 57.81 58.96 58.35 58.48 58.35 58.69 58.91 58.89 59.87 59.65 58.62 58.67 57.56 57.12 57.68 57.61 56.77 56.21 55.03 54.66 54.45 53.28 51.71 52.26
35.69 41.14 41.89 42.13 41.27 35.07 44.23 33.04 41.11 45.21 46.89 48.18 49.25 49.91 48.48 55.69 56.48 56.15 55.51 54.72 54.99 56.73 58.27 58.70 58.53 58.46 58.72 57.10 57.55 57.06 56.44 55.83 57.44 58.18 59.16 57.82 58.07 57.59 57.25 57.85 57.45 56.90 56.73 56.25 55.28 55.45 54.26 53.60 51.47
38.97 42.45 42.04 42.04 39.99 37.12 38.57 36.07 37.46 44.92 44.92 47.09 46.26 47.68 49.04 56.22 55.89 55.58 55.43 55.49 55.53 56.56 57.21 58.24 58.86 58.25 58.62 57.96 56.97 57.03 56.30 56.60 57.18 56.66 56.58 56.82 57.31 58.04 58.14 58.41 57.67 57.07 57.08 57.12 56.95 56.46 56.47 55.80 53.51
44.86 42.09 41.80 41.85 38.18 31.94 37.99 37.09 34.18 40.34 44.89 47.90 49.35 49.64 50.03 55.81 55.89 56.40 56.11 56.15 55.14 56.35 57.11 58.21 58.34 57.67 58.27 58.28 57.77 57.03 55.52 55.05 54.33 55.27 55.29 55.43 56.26 56.87 57.28 57.73 57.69 57.50 57.36 57.64 58.18 57.72 57.18 56.67 56.35
41.38 37.39 30.08 29.65 27.41 27.73 39.95 37.35 38.16 44.45 47.89 48.92 49.34 49.82 50.42 56.06 55.51 55.50 54.99 55.04 55.18 55.90 56.91 57.72 57.49 57.68 57.89 58.19 57.07 56.31 55.03 54.85 54.03 54.38 54.80 54.50 54.54 55.75 56.22 56.13 56.79 57.09 57.86 58.22 58.42 57.98 57.39 56.79 55.51
39.37 38.13 31.09 25.06 26.62 30.26 40.69 35.15 38.97 48.09 50.12 50.94 51.50 50.62 54.34 55.30 55.94 55.68 55.55 55.32 55.65 55.94 55.92 57.17 56.90 57.31 58.06 58.20 57.45 57.10 55.93 54.79 54.70 54.96 54.59 54.29 54.53 55.20 56.40 56.07 56.63 57.50 58.28 57.86 57.97 57.66 57.63 57.56 57.15
39.52 35.73 40.75 36.11 37.11 31.80 35.76 39.13 44.66 48.38 49.05 50.58 49.42 50.75 52.53 54.97 55.34 55.35 55.57 55.99 55.69 55.80 56.00 55.96 55.97 56.84 57.90 58.28 58.15 57.31 56.63 55.29 54.77 54.61 54.35 54.44 54.95 55.71 56.33 55.96 55.79 55.99 57.55 57.94 58.09 57.68 57.55 57.23 56.62
41.51 43.51 35.27 36.72 27.47 25.01 32.97 36.06 37.72 43.23 45.93 49.19 49.80 49.21 51.95 55.46 55.22 55.76 55.20 56.29 56.33 56.31 56.01 55.76 56.50 56.44 57.28 58.15 58.42 57.84 56.88 56.42 55.56 55.25 54.62 55.47 54.88 55.31 55.52 55.53 55.48 56.06 56.87 57.57 57.49 57.41 57.80 57.35 56.78
38.00 37.63 38.43 38.91 35.31 27.44 26.05 32.74 44.27 45.12 46.61 46.32 48.63 49.83 50.75 53.08 55.59 56.07 55.86 56.38 56.82 56.65 56.33 56.12 56.15 56.04 55.72 57.07 58.41 58.12 57.20 56.37 56.63 55.56 55.58 56.30 56.05 55.63 55.26 55.58 55.60 55.41 55.58 55.36 56.42 56.75 56.86 56.14 56.12
41.77 38.53 38.04 31.77 30.14 33.59 33.00 33.29 47.41 46.85 48.28 47.91 48.84 50.14 50.45 50.87 54.31 56.46 56.77 56.36 56.59 56.33 56.47 56.24 56.17 56.33 56.40 56.34 57.43 57.81 57.28 56.37 55.75 55.80 55.71 56.51 56.10 55.91 55.67 55.34 55.20 55.01 54.82 54.75 54.56 54.50 56.51 55.82 55.45

GFSSGP_sfc_wetblb_102.txt.gz
Wetbulb
57.71 55.84 52.45 49.23 40.49 36.78 33.74 38.79 43.00 44.20 45.21 48.87 50.24 49.38 47.66 47.16 47.32 42.26 60.51 67.33 69.59 69.81 71.76 71.32 71.12 71.97 72.12 72.37 72.54 72.60 72.60 72.86 73.07 72.54 72.27 72.01 71.78 71.77 71.58 71.67 71.65 72.28 72.53 71.36 71.51 71.77 71.42 70.83 70.87
53.34 54.77 49.65 43.90 36.76 32.05 35.52 41.49 42.84 45.80 49.62 50.37 50.79 50.13 48.16 50.28 60.16 61.17 61.80 68.44 69.82 69.69 71.17 71.47 70.92 71.48 72.02 72.11 72.37 72.43 72.77 72.96 72.74 72.54 72.20 71.92 71.83 71.52 71.52 71.60 71.26 71.52 71.96 70.38 70.76 71.18 70.93 70.60 69.88
54.50 55.74 45.50 39.87 35.16 33.72 36.12 42.48 42.88 46.90 49.93 48.55 47.79 50.25 50.51 52.78 61.70 62.42 64.65 67.77 70.15 69.22 70.16 71.33 70.50 70.73 71.64 71.82 72.05 72.28 72.10 72.24 72.11 72.05 72.00 71.92 71.83 71.74 71.79 71.37 71.00 70.59 70.74 69.68 70.90 70.56 70.25 69.63 68.87
52.35 48.52 44.79 37.41 36.23 40.24 41.88 45.56 47.10 46.32 47.27 48.83 48.99 48.27 51.37 59.11 62.85 64.45 65.70 65.51 68.41 68.88 69.64 69.58 69.98 70.48 71.45 71.66 72.00 72.08 72.03 71.72 71.52 71.59 71.79 71.71 71.95 71.83 71.47 70.82 70.51 70.58 70.83 70.44 70.29 70.30 69.60 68.53 67.94
47.21 43.14 37.34 34.69 36.78 41.78 45.46 46.48 48.42 46.74 46.98 50.72 48.91 48.38 49.82 60.55 63.22 64.10 63.95 65.54 66.47 67.98 68.85 68.92 68.93 70.36 71.44 71.82 71.82 71.67 71.48 71.15 71.15 70.83 70.21 69.88 69.81 69.66 70.02 70.13 69.98 69.88 69.79 69.70 69.52 69.07 67.85 67.23 67.04
43.44 41.56 33.82 32.60 37.78 43.11 45.52 48.51 47.54 48.06 47.86 48.98 48.09 49.10 52.44 61.08 62.43 63.14 64.92 64.66 66.24 67.15 67.83 67.98 69.37 69.95 70.91 71.36 71.03 70.38 70.09 69.96 69.71 68.94 67.48 66.29 67.48 67.18 68.24 69.46 69.18 68.84 68.57 68.03 68.35 67.58 67.01 66.28 65.44
40.96 38.01 33.87 34.83 39.24 42.01 45.25 49.05 48.16 47.55 46.37 46.90 49.15 46.77 54.44 58.44 61.34 64.12 64.90 64.78 64.94 67.02 66.39 66.50 67.22 68.32 68.45 68.40 69.54 68.32 68.24 68.74 68.04 67.89 66.62 66.26 66.53 66.10 67.44 67.77 68.49 68.37 67.85 67.89 67.45 66.60 65.85 65.31 64.44
43.64 40.13 34.52 36.51 38.06 39.06 46.22 46.40 47.97 46.11 45.58 50.35 50.10 47.32 52.43 58.60 62.66 64.04 63.86 63.32 63.27 64.64 65.53 65.17 65.65 66.06 65.90 66.27 66.95 65.88 66.24 66.88 65.95 66.75 65.93 64.70 64.88 65.63 66.55 67.03 67.91 67.88 67.53 67.16 66.58 65.85 65.04 64.06 63.26
44.57 36.86 33.33 36.12 39.15 42.37 47.72 45.28 47.76 47.90 45.91 47.50 49.33 50.72 52.20 62.51 62.56 62.01 61.55 61.42 61.60 63.36 63.82 64.37 64.93 64.80 65.24 64.51 66.07 65.65 66.62 66.48 66.01 65.86 64.82 63.27 62.79 65.12 65.35 66.05 66.73 67.25 66.65 66.26 65.63 65.14 63.93 62.79 62.55
41.54 35.57 38.39 42.96 44.12 44.60 47.76 44.15 46.70 44.22 45.23 46.16 48.62 59.42 61.76 61.99 61.15 60.27 60.04 60.46 60.75 61.23 62.27 62.57 63.22 63.88 64.73 64.79 63.48 64.29 64.52 65.16 64.66 63.91 63.74 62.86 62.32 62.02 62.64 65.28 66.04 66.42 65.99 65.57 65.06 64.35 63.01 60.34 58.24
40.65 40.53 43.92 45.30 46.23 46.69 47.04 44.68 45.72 43.61 42.88 46.90 46.79 56.07 60.12 60.66 59.54 59.94 60.25 61.27 61.57 62.00 61.84 61.72 62.29 63.86 64.55 63.65 62.52 62.11 63.12 62.18 61.21 60.90 60.65 61.37 61.31 63.13 63.19 64.86 64.80 64.16 64.57 62.62 62.15 61.73 58.10 56.40 55.88
40.79 44.48 44.85 45.99 47.54 46.38 45.68 47.75 45.67 45.18 46.56 49.30 49.26 51.00 59.61 59.17 58.46 58.59 58.72 59.14 61.39 61.81 61.25 61.04 61.57 62.89 62.64 62.71 62.26 61.93 62.09 61.83 59.79 60.84 59.42 59.73 61.28 61.32 63.65 63.85 62.49 61.91 60.95 58.94 57.90 56.70 55.17 55.25 55.61
43.19 45.44 46.98 47.27 47.18 47.02 47.32 44.89 45.28 45.80 48.32 49.60 49.91 50.28 55.92 57.49 58.01 57.67 58.08 60.27 61.55 61.14 60.75 60.28 60.83 61.06 61.63 61.52 61.46 61.18 61.03 61.98 61.94 60.97 60.65 60.29 62.69 61.51 63.54 62.20 61.31 59.95 58.10 57.02 54.72 53.37 53.96 54.21 55.49
46.59 46.06 46.20 46.11 45.59 45.43 45.68 45.70 43.74 47.58 48.24 49.18 50.32 49.37 49.70 53.32 55.74 57.17 57.88 58.96 61.25 61.57 60.29 59.89 59.81 60.49 60.70 60.59 62.54 61.98 60.89 61.13 62.18 61.58 60.97 60.86 62.14 63.18 62.14 60.38 59.26 57.51 56.40 55.04 53.72 52.61 52.84 53.07 55.11
46.56 42.79 43.93 44.35 44.70 44.54 45.61 42.95 43.15 47.82 49.15 48.94 49.56 49.06 48.52 52.82 58.00 58.48 58.71 58.75 61.06 61.22 60.23 59.15 59.43 59.37 59.69 60.02 61.48 62.48 61.57 61.07 60.91 61.19 60.85 61.57 62.70 62.36 60.47 58.74 56.80 55.81 54.06 53.05 53.40 52.46 52.89 52.93 55.18
43.15 41.24 36.36 43.24 44.45 45.94 43.34 39.26 46.26 49.74 47.90 47.66 49.07 49.83 48.83 52.55 58.73 58.41 58.43 57.92 60.28 59.84 59.08 58.70 60.07 59.01 59.79 59.58 60.05 62.37 61.48 61.53 61.71 61.65 61.69 61.31 63.16 61.01 58.55 56.64 55.46 54.93 52.98 54.12 54.62 53.79 52.71 53.33 54.00
38.18 36.23 36.97 39.90 45.02 43.98 42.90 40.66 45.53 47.80 48.16 48.07 48.76 48.99 49.57 51.64 57.34 58.19 57.39 58.18 58.50 58.43 57.60 57.08 57.12 58.03 58.75 60.92 58.64 61.82 60.37 61.92 62.37 62.64 61.68 63.25 62.27 59.59 56.93 55.84 55.01 55.53 53.57 54.83 55.69 54.14 53.93 52.80 52.47
34.86 35.27 37.75 36.82 41.58 43.66 41.31 41.98 44.65 46.23 46.13 46.79 46.88 47.00 47.56 52.75 57.21 57.44 57.41 57.74 57.33 57.36 57.20 56.96 56.88 57.66 59.72 59.90 58.98 59.79 61.26 60.45 62.01 62.52 61.56 63.79 61.30 58.86 56.40 56.32 55.21 55.18 54.42 55.96 55.75 53.61 52.56 52.47 52.55
40.43 38.27 36.70 38.09 43.40 41.06 40.04 40.32 42.17 45.05 45.07 43.90 44.97 46.33 47.16 51.30 56.80 56.24 57.17 57.23 56.46 56.34 56.18 56.44 56.30 58.10 58.96 57.92 57.76 57.50 59.29 59.81 60.38 61.92 62.49 62.72 61.16 58.92 56.71 57.59 56.21 56.81 55.44 56.50 55.06 53.50 52.68 51.06 51.83
39.30 37.21 36.72 40.57 42.58 41.83 40.37 40.74 42.64 45.31 45.12 46.50 46.32 45.69 47.01 53.69 54.93 55.86 56.01 55.88 56.10 55.98 55.46 55.84 56.82 58.73 58.46 58.01 57.48 57.20 58.80 60.37 60.09 60.94 61.76 61.66 61.27 59.91 57.99 58.68 57.02 58.48 56.97 56.07 54.59 53.39 51.15 50.88 51.67
36.26 35.93 36.51 36.70 40.69 41.90 39.79 39.27 41.74 45.15 46.19 48.69 49.91 46.94 49.81 54.47 53.85 54.94 54.99 54.74 54.91 55.06 55.30 56.54 56.66 57.95 57.93 58.28 58.50 58.63 58.97 60.45 59.27 59.69 59.07 59.71 59.36 59.95 59.37 59.10 58.47 58.27 57.81 56.36 55.21 54.28 52.97 52.50 51.00
32.15 38.35 38.28 37.85 36.24 31.45 41.18 31.94 39.28 43.19 44.93 47.08 48.81 49.73 48.64 54.16 55.19 55.11 54.77 53.94 54.56 54.80 55.84 56.34 56.44 56.34 57.18 58.28 58.02 57.82 58.00 57.94 58.81 59.74 59.16 57.48 57.84 58.10 58.65 57.85 58.22 57.56 56.97 55.71 55.32 54.99 52.97 52.42 51.20
35.23 39.58 38.57 38.05 35.32 33.13 35.28 32.79 35.20 42.10 41.70 44.59 47.67 49.56 47.23 54.27 54.86 54.30 54.36 54.42 54.98 55.68 56.18 55.90 56.50 56.72 56.91 57.55 57.81 57.45 57.38 58.22 58.99 59.34 57.76 56.54 56.83 57.43 58.85 58.25 57.23 56.78 56.65 56.16 55.09 54.31 53.56 52.75 52.18
41.20 38.08 38.13 37.73 35.08 29.62 35.29 34.83 33.18 36.91 42.26 44.67 48.38 50.25 47.85 53.50 54.84 55.03 54.88 54.57 54.40 55.10 56.08 56.32 56.06 56.68 57.04 56.86 57.46 56.95 56.34 56.26 56.46 57.40 56.94 56.28 56.43 56.92 57.94 58.39 58.03 57.21 56.93 56.37 57.00 56.75 55.25 54.62 53.44
38.40 34.11 27.47 26.24 25.91 26.22 36.98 34.51 36.91 42.37 45.98 46.54 47.54 49.51 50.37 52.32 54.36 53.71 53.47 53.53 53.99 54.07 55.20 56.63 56.22 56.67 57.42 56.78 56.93 56.46 56.25 56.29 56.00 56.45 56.12 55.88 55.70 55.90 56.77 56.93 57.03 56.84 57.03 57.38 57.48 57.39 56.58 56.06 55.24
35.82 34.80 27.25 23.54 24.36 27.89 37.49 31.21 37.25 46.12 48.77 49.80 50.16 49.60 51.48 53.33 54.57 53.90 53.93 53.84 54.10 54.26 55.10 56.23 56.42 56.86 57.48 57.51 55.54 56.24 56.43 55.98 56.26 56.55 56.16 56.05 55.86 56.04 56.63 56.49 56.22 56.42 56.98 57.37 57.68 57.53 57.05 56.75 55.82
35.70 33.71 38.26 31.84 33.62 28.39 32.28 36.72 42.68 46.95 47.67 48.99 49.37 48.56 51.22 52.95 54.20 53.95 54.42 54.30 54.49 54.69 55.07 55.68 56.33 57.58 57.50 57.74 57.01 55.93 55.75 54.96 55.46 56.11 56.24 56.10 56.44 56.31 56.02 56.05 55.65 55.84 56.23 57.01 57.35 56.97 56.63 56.61 56.32
38.44 40.78 32.68 32.26 24.82 23.38 29.54 31.82 34.60 42.03 45.02 46.89 47.81 47.39 50.85 53.79 54.38 54.71 54.72 54.78 55.35 55.47 55.52 55.75 56.14 57.36 57.80 58.23 57.52 56.56 55.71 54.63 54.53 55.49 54.82 55.08 55.40 56.15 55.86 55.48 55.46 55.51 56.06 56.57 56.97 56.59 56.87 56.45 56.59
34.47 35.08 35.62 36.16 32.25 26.70 23.97 28.93 42.98 43.16 45.36 45.90 47.46 49.70 48.98 50.23 53.47 54.62 55.19 55.32 55.55 55.77 55.27 54.94 55.26 55.67 57.14 58.08 57.90 57.09 56.08 55.30 54.20 53.88 53.64 54.15 54.66 55.27 55.71 55.25 54.95 54.58 54.89 56.08 56.33 56.11 56.47 56.15 55.93
39.61 36.77 37.86 30.31 28.97 31.82 30.18 31.33 45.85 44.44 47.16 48.33 47.66 50.13 50.57 49.70 50.28 55.13 55.47 55.52 55.20 54.87 55.19 54.92 55.07 55.08 55.85 57.54 58.26 57.43 56.72 56.20 54.95 53.91 53.59 54.28 53.43 53.93 54.91 55.66 54.93 54.54 54.18 54.57 55.50 55.70 56.16 55.65 55.07

GFSSGP_sfc_wetblb_105.txt.gz
Wetbulb
57.99 54.23 50.50 48.12 39.85 35.96 32.78 37.10 40.12 42.07 43.63 47.45 48.58 47.59 46.52 45.89 45.87 41.34 57.53 67.64 68.82 69.53 70.91 70.57 71.12 71.82 71.95 72.17 72.11 72.60 72.65 72.96 73.02 72.55 72.50 72.59 72.66 72.62 72.49 72.55 72.41 72.50 72.51 71.89 72.06 72.31 71.97 71.30 70.95
52.41 53.47 47.83 42.21 35.68 30.98 34.68 39.48 40.85 43.99 48.03 49.37 49.26 48.32 47.04 48.95 57.77 59.25 61.22 67.22 68.95 70.01 70.77 70.28 70.71 71.46 71.78 71.95 72.16 72.35 72.89 72.72 72.54 72.31 72.19 72.24 72.37 72.24 72.32 72.33 71.79 71.55 70.76 71.91 72.04 71.70 71.07 70.79 70.34
53.24 53.31 45.31 38.22 32.87 32.52 35.61 41.15 42.55 45.89 47.72 47.12 46.32 48.52 51.16 51.71 59.55 60.66 62.96 68.52 68.77 69.42 70.77 70.30 70.33 70.71 71.45 71.73 71.85 72.17 72.34 72.03 71.76 71.82 71.93 71.89 71.68 71.78 71.73 71.45 71.24 71.08 70.35 70.64 71.82 71.37 70.31 69.71 68.93
50.84 48.35 43.53 35.99 33.42 38.33 39.99 43.66 45.17 45.64 46.37 47.03 47.14 46.85 49.85 58.56 60.48 62.78 64.96 69.02 68.19 68.15 70.18 69.94 69.51 70.13 71.40 71.80 71.94 71.91 71.96 71.58 71.34 71.31 71.41 71.62 71.37 71.61 71.47 70.75 70.36 70.47 70.36 71.34 71.06 70.12 69.60 68.49 67.85
45.42 42.13 36.21 32.44 34.11 39.61 43.64 45.47 46.88 45.41 45.42 48.88 47.25 47.01 48.83 59.48 62.43 63.83 65.01 68.96 67.52 67.29 68.21 69.07 68.55 69.73 71.16 71.86 71.83 71.58 71.49 71.18 70.96 69.98 68.95 68.94 70.03 69.95 69.62 69.76 70.05 69.91 70.03 70.61 69.98 69.02 68.53 67.76 66.91
41.84 40.00 33.00 31.51 35.68 41.02 43.49 46.11 45.77 46.42 46.55 47.48 46.78 47.61 50.18 58.97 61.76 62.56 63.35 65.02 66.70 67.09 67.54 67.94 69.52 69.85 70.38 71.07 71.09 70.75 70.56 70.25 69.90 68.52 68.58 68.52 67.85 67.96 68.20 68.20 68.74 69.00 68.46 68.50 68.40 67.83 67.55 66.54 65.83
40.14 36.31 32.60 32.07 36.48 39.76 43.46 46.70 46.20 45.98 44.43 46.05 47.71 47.51 53.45 57.65 59.89 62.99 63.65 64.53 65.77 66.55 66.34 66.52 67.49 69.29 69.75 69.27 69.38 68.93 69.18 68.55 68.01 67.42 67.44 67.04 66.84 66.57 66.75 66.62 67.68 67.85 67.85 68.08 67.49 66.98 66.24 65.28 64.61
41.84 39.02 33.28 34.61 36.45 37.78 44.23 44.71 45.71 44.66 45.05 49.34 49.46 49.22 50.87 57.15 61.82 63.43 63.26 63.20 63.97 65.01 64.88 65.03 65.57 66.20 66.34 67.54 68.26 68.06 67.92 66.82 66.60 66.15 65.51 65.63 65.86 65.53 64.79 65.95 66.46 66.99 67.46 67.47 66.80 66.14 65.02 64.16 63.86
42.36 35.98 32.78 35.40 37.14 40.39 45.24 44.42 46.76 47.13 44.57 46.14 47.32 51.53 53.42 60.14 62.73 61.63 60.64 60.26 60.27 62.79 63.68 63.97 64.33 64.49 64.29 64.72 65.84 66.93 66.93 66.78 66.42 65.79 65.03 64.55 65.17 65.46 65.66 65.37 65.89 66.61 66.94 66.64 66.21 65.30 63.76 62.88 63.65
41.11 34.03 37.48 40.72 41.97 41.69 45.18 42.29 46.42 44.05 44.40 44.57 46.36 57.75 59.33 61.12 61.53 60.36 59.53 59.51 59.89 60.88 61.64 63.06 63.50 63.27 63.16 65.14 64.60 64.05 65.37 65.58 65.65 65.24 64.45 63.84 63.73 63.95 63.96 64.71 65.33 65.92 66.13 65.82 65.55 64.24 62.60 61.92 60.76
39.79 38.64 42.95 42.74 44.33 44.04 44.25 43.13 45.08 42.70 43.25 45.24 46.18 50.40 58.18 59.06 59.93 59.78 60.06 60.05 60.52 61.53 61.31 61.62 61.96 62.91 64.01 63.26 63.48 64.36 64.91 64.84 64.75 64.04 63.21 62.73 63.01 63.51 62.27 63.15 64.58 64.51 64.91 63.06 63.01 61.09 56.55 57.70 59.16
38.98 41.74 45.34 44.40 45.59 43.66 43.20 44.66 44.07 43.47 46.65 49.05 48.40 52.57 58.57 58.25 58.80 59.10 59.21 59.16 60.15 60.38 61.06 60.94 61.17 63.27 64.54 63.01 62.13 62.15 63.35 62.29 62.08 63.25 62.54 61.57 61.35 61.51 61.67 63.64 64.51 63.17 62.15 60.35 59.95 56.36 55.11 55.16 55.89
41.33 43.01 45.35 45.91 45.62 44.59 45.53 43.61 44.42 44.74 46.97 48.14 48.51 48.82 57.69 58.59 58.81 59.61 60.04 58.68 60.59 60.16 60.37 59.81 60.50 61.74 62.65 62.72 61.92 60.78 62.00 61.80 60.90 61.57 61.13 61.36 60.50 60.94 61.96 63.42 63.23 62.10 59.83 59.30 57.93 55.00 54.12 54.61 56.04
44.60 44.82 45.41 45.85 45.86 45.28 44.25 44.77 42.53 46.32 46.36 48.07 49.03 47.96 53.49 58.20 58.44 57.16 56.98 57.40 59.95 61.12 60.13 59.22 60.03 60.63 60.62 60.52 61.92 61.44 61.42 62.00 61.07 61.01 60.55 60.40 61.23 60.94 61.73 62.36 62.17 60.26 59.72 58.04 56.65 54.69 54.42 54.14 55.11
44.93 41.08 42.89 42.65 43.73 43.28 44.12 40.24 41.04 46.72 47.41 47.28 47.73 48.15 47.37 53.24 57.24 56.10 58.32 58.19 60.36 61.21 59.89 59.16 58.98 59.12 59.47 59.31 62.12 61.85 60.94 61.42 61.96 60.95 60.86 59.98 61.92 61.32 62.68 62.06 60.78 59.62 57.91 55.21 53.07 52.27 52.24 52.90 55.41
41.85 40.53 35.78 42.26 43.89 44.66 42.98 39.43 44.48 47.73 45.89 46.01 47.19 47.74 48.25 46.51 52.69 56.29 58.18 58.65 60.42 59.90 59.32 58.66 59.86 58.20 58.36 58.43 62.00 62.02 61.91 61.05 60.99 61.62 61.58 60.66 61.74 62.32 61.79 60.79 58.95 57.17 55.01 54.63 53.83 52.56 51.46 53.90 54.56
37.13 33.37 35.45 39.08 44.49 42.86 41.85 38.29 42.99 45.61 45.81 45.39 45.84 46.73 47.51 45.60 51.12 55.57 57.53 58.37 59.81 59.94 59.00 58.12 57.44 57.30 57.96 58.19 59.01 61.97 61.55 60.46 61.13 61.37 60.85 60.81 60.86 62.58 61.32 59.22 56.73 54.81 54.01 54.03 53.35 51.00 52.21 52.88 53.44
32.83 33.92 36.65 36.70 40.81 41.95 39.85 40.35 42.18 44.53 43.42 44.60 44.33 44.89 44.48 45.66 50.65 57.03 56.39 58.38 59.10 58.76 58.48 57.24 56.34 56.50 57.64 59.11 59.13 60.54 60.72 61.14 62.10 61.92 61.45 60.59 61.88 60.72 59.73 56.78 54.31 53.47 53.23 53.24 52.29 52.31 51.44 52.36 53.15
38.07 36.31 34.96 37.16 42.44 40.26 38.18 38.84 40.66 42.07 43.22 42.86 44.56 44.25 44.66 45.76 54.58 55.75 56.48 56.62 56.34 56.14 55.90 55.84 55.75 56.00 57.50 58.65 57.97 57.85 59.11 59.59 60.58 62.06 61.23 61.55 60.17 59.35 57.35 54.68 53.62 52.21 52.85 53.81 52.79 51.97 51.63 50.43 52.36
36.91 35.83 35.34 38.19 41.17 40.44 39.53 39.24 42.12 41.66 43.34 44.50 44.71 45.14 44.41 49.81 53.01 55.40 55.28 55.32 55.58 55.46 55.70 55.33 55.56 56.76 57.18 57.56 56.56 58.06 58.97 60.14 59.55 60.90 61.47 60.75 59.11 57.33 56.42 54.07 53.13 52.16 53.88 54.18 53.20 52.20 50.35 50.09 51.95
33.33 33.49 34.01 35.81 39.74 39.18 36.19 35.94 38.66 42.36 44.06 45.83 46.92 47.22 45.52 50.22 52.65 54.72 55.20 54.96 54.98 54.91 54.73 55.44 56.52 56.98 56.94 58.19 57.80 57.90 58.05 59.61 59.15 59.48 61.28 59.74 58.27 56.96 56.63 54.65 53.98 53.68 55.65 54.54 53.40 53.02 50.96 51.10 49.41
30.22 35.64 36.26 35.45 34.07 29.05 37.09 28.74 36.12 40.81 43.11 44.60 46.29 46.21 45.38 50.25 54.14 55.15 55.24 53.85 54.63 54.78 54.70 55.52 57.21 55.72 56.14 56.84 57.02 57.15 56.58 57.48 58.74 59.01 59.89 60.35 58.77 57.94 58.34 55.73 55.74 55.61 56.82 55.89 54.60 54.47 52.53 52.41 50.60
33.00 37.65 35.22 34.62 31.66 28.74 32.43 30.40 32.76 39.28 39.89 42.67 45.80 45.53 45.85 50.42 53.48 54.71 54.96 54.77 54.47 54.42 55.20 55.92 56.02 54.65 55.38 57.45 57.45 56.40 57.94 58.77 59.13 58.02 57.52 58.94 59.40 58.72 59.03 58.39 57.81 57.01 57.16 56.54 55.52 53.88 52.61 53.66 52.26
39.08 35.48 34.58 33.53 31.25 24.48 31.10 31.39 30.30 34.18 39.94 42.41 45.45 46.56 47.06 48.57 53.03 54.94 55.14 54.40 54.03 54.52 54.55 55.13 56.30 56.22 55.70 56.28 57.69 57.52 57.36 57.66 58.16 57.44 55.86 57.26 58.28 58.13 58.28 58.25 57.82 56.74 56.33 55.40 55.06 54.28 53.67 53.60 52.91
36.20 31.90 24.72 23.92 24.14 24.01 34.19 32.70 35.34 39.62 43.07 43.98 46.33 47.77 48.37 47.61 52.07 53.96 53.02 53.20 54.24 54.33 54.34 55.08 55.52 54.99 55.78 56.35 57.21 57.01 57.23 57.63 57.87 57.68 56.32 55.60 56.62 57.52 57.59 57.95 57.31 56.72 56.63 56.84 56.74 56.20 55.66 54.18 53.05
32.70 32.42 25.98 22.23 23.00 26.07 35.36 29.32 34.46 42.51 45.85 47.57 49.09 48.68 49.30 50.11 51.76 53.81 53.34 53.69 53.79 54.12 54.52 55.48 54.93 54.87 55.84 54.97 56.57 56.83 56.76 56.99 57.62 57.93 57.22 56.41 56.80 57.59 58.17 58.29 57.78 57.63 57.07 56.87 57.26 56.70 56.48 56.18 55.15
34.06 29.72 36.39 30.09 30.20 27.07 30.22 34.66 40.01 43.66 45.69 46.66 47.11 48.25 47.96 52.72 53.28 53.32 53.40 53.57 53.64 53.87 54.36 55.74 55.13 55.36 56.02 55.42 55.72 55.82 56.23 56.39 56.63 57.13 57.27 56.87 56.92 57.04 57.72 58.15 57.77 57.26 57.47 57.57 57.27 56.60 56.32 56.32 55.80
36.20 38.06 29.98 30.37 24.32 23.56 27.13 29.72 31.74 38.53 43.14 45.77 46.12 46.96 48.34 49.42 52.90 53.42 52.96 53.49 53.96 54.18 54.57 55.42 55.78 55.50 56.22 56.18 55.36 55.15 55.29 56.22 56.53 56.58 56.13 56.39 56.60 56.64 56.32 56.18 56.50 56.64 57.00 57.16 57.00 56.40 56.66 56.34 56.28
31.60 32.19 33.74 34.62 29.89 26.24 23.68 27.03 37.84 39.39 43.23 43.90 47.09 47.70 48.80 48.85 49.15 51.77 53.82 53.95 54.27 54.03 53.99 54.66 55.26 55.60 55.88 56.44 55.95 55.13 55.43 55.34 54.69 55.73 55.97 55.54 56.04 56.08 55.76 55.56 55.23 55.52 55.78 56.36 56.30 56.06 56.16 55.58 55.74
36.38 33.52 34.53 28.41 27.90 29.28 27.49 27.66 41.92 42.14 44.56 45.54 47.52 49.00 49.22 49.23 50.63 53.03 54.20 54.38 54.66 55.21 54.42 53.31 54.41 55.64 56.22 56.93 56.37 55.40 55.83 55.12 53.85 54.42 55.48 55.57 55.38 55.72 55.46 55.38 55.13 54.59 54.63 54.49 54.43 54.29 54.96 55.40 55.03

GFSSGP_sfc_wetblb_108.txt.gz
Wetbulb
59.63 52.63 48.56 46.63 39.40 35.38 32.12 36.14 38.29 40.49 42.05 45.86 46.98 46.30 45.99 44.93 44.78 40.70 54.98 66.76 67.47 68.17 69.77 70.26 70.72 71.94 72.01 72.18 72.26 72.67 73.19 73.69 73.55 73.34 73.02 72.85 72.89 72.72 72.86 72.77 72.49 72.85 72.98 72.64 72.65 73.15 72.38 71.75 71.31
52.58 51.56 46.68 41.21 34.79 30.15 33.21 38.08 39.54 42.60 46.52 48.29 47.92 47.33 46.41 45.10 55.02 57.83 59.98 66.66 68.34 68.98 69.71 69.79 70.87 71.50 71.92 71.89 71.92 72.35 73.25 73.37 73.32 72.60 72.78 72.81 72.73 72.76 72.69 72.42 71.99 72.23 72.30 72.14 72.17 72.11 71.76 71.03 70.75
51.89 51.43 43.90 37.39 31.03 31.17 34.04 40.23 41.11 44.01 46.19 46.13 44.75 47.42 48.27 48.49 57.79 59.26 62.15 66.75 68.21 69.03 69.34 69.47 70.46 70.75 71.62 71.67 71.91 72.02 72.54 72.40 72.30 72.27 72.38 72.73 72.70 72.51 72.40 71.55 71.08 71.34 71.99 71.79 71.66 71.39 70.89 70.17 69.38
49.41 47.14 41.66 35.42 31.53 36.92 38.97 41.25 43.67 45.23 46.14 46.14 45.92 45.57 48.50 55.93 59.15 61.74 63.20 67.87 67.44 68.33 69.28 68.74 69.30 70.31 71.19 71.66 71.83 72.02 72.14 71.49 71.27 70.80 71.38 71.78 72.23 71.71 70.70 70.42 70.29 70.63 71.10 70.83 70.98 70.87 69.56 68.78 68.00
44.04 41.47 34.93 30.67 32.86 37.57 41.82 43.80 44.94 44.71 44.55 47.44 45.53 45.62 47.37 55.26 61.17 62.55 64.33 67.58 66.51 66.82 68.35 68.49 68.62 69.81 71.28 71.92 71.77 71.70 71.34 71.10 71.06 70.01 69.58 69.45 69.89 69.66 69.77 69.69 69.21 69.72 70.12 70.18 70.07 69.47 68.89 67.89 66.99
41.06 39.14 32.36 30.07 33.32 39.31 42.45 45.13 43.98 44.66 45.01 46.18 45.18 46.11 47.75 56.85 60.63 61.46 64.90 66.22 66.31 66.01 67.09 68.06 69.16 69.56 70.55 71.15 70.86 70.47 70.57 70.34 69.35 68.88 68.61 68.35 68.56 68.34 68.14 67.78 69.10 68.65 69.12 68.56 68.90 68.49 67.93 66.99 66.59
38.85 35.52 31.93 31.35 33.78 37.29 41.68 45.33 43.83 44.08 42.34 43.51 45.77 45.02 50.60 56.28 59.63 62.04 63.31 64.59 65.73 66.15 65.94 66.37 67.88 69.12 69.48 69.21 69.37 68.85 68.42 68.48 68.17 67.81 67.51 67.30 66.88 66.98 67.37 67.56 68.04 68.26 68.34 67.81 67.77 67.17 66.70 66.19 65.71
40.43 38.40 31.09 33.13 34.36 36.45 42.91 43.07 44.02 43.48 42.67 46.42 49.50 46.86 47.42 54.40 61.26 62.36 62.80 63.11 63.80 65.08 65.33 64.97 66.23 67.27 68.26 69.24 68.08 68.06 67.54 67.12 67.07 66.91 66.22 65.27 65.55 65.90 66.43 66.68 67.21 67.58 67.39 67.48 67.19 66.08 65.39 65.37 64.56
40.45 34.34 31.17 34.31 35.85 39.19 43.26 42.07 45.27 45.46 43.39 44.55 46.20 49.28 53.40 58.34 61.72 60.94 59.82 59.80 60.54 62.93 63.77 63.95 64.76 65.34 66.77 67.81 67.59 68.42 65.92 66.94 66.31 66.25 66.14 64.60 64.85 65.31 65.71 65.66 66.58 66.76 67.14 66.64 66.46 65.10 64.22 63.99 63.59
39.44 33.09 35.14 39.38 40.37 40.32 42.68 40.30 43.84 43.00 43.33 43.80 45.41 52.48 57.95 59.34 59.91 59.37 59.00 59.25 59.35 60.93 61.82 62.88 63.59 63.97 63.47 65.10 64.37 66.07 66.80 66.18 65.85 64.80 64.44 64.39 64.42 64.12 64.05 64.25 65.70 66.47 66.62 66.13 65.62 63.96 63.28 62.60 60.82
38.76 36.75 39.43 41.38 42.47 41.85 42.00 41.60 42.80 40.90 41.78 44.53 45.03 46.57 56.16 58.32 58.61 58.72 59.57 59.57 60.01 60.40 61.03 62.36 62.98 62.76 62.34 64.42 65.10 65.14 66.02 65.87 65.75 64.02 63.74 63.66 64.50 64.38 64.02 63.91 64.85 65.16 65.64 64.21 62.84 61.11 59.27 59.39 59.54
36.97 39.99 43.33 42.13 43.97 41.74 41.88 42.31 42.46 42.64 45.05 48.02 47.69 47.07 55.67 56.92 57.96 58.64 58.75 59.03 58.96 59.73 60.94 61.66 61.45 62.71 64.35 63.44 63.47 64.63 64.32 65.23 64.97 64.29 63.71 62.73 63.69 62.98 61.90 62.35 63.51 63.78 63.15 61.95 60.11 57.29 56.15 57.34 56.27
39.68 40.64 42.80 43.51 43.90 42.79 44.10 43.15 42.71 43.07 47.14 47.22 47.34 46.98 53.42 56.58 57.59 58.91 59.61 58.41 59.16 58.99 60.04 60.39 60.24 63.20 63.30 62.94 62.72 62.91 63.47 63.43 64.03 63.69 63.09 62.66 62.60 62.21 61.37 62.46 63.73 62.76 61.82 60.87 57.69 55.11 55.58 55.38 55.91
42.00 42.39 43.80 43.78 43.68 43.98 44.23 45.25 40.75 45.02 44.35 46.24 47.88 47.26 46.16 55.74 57.29 57.84 57.32 57.52 58.77 60.11 60.17 60.11 59.98 61.91 62.98 62.96 62.10 61.76 62.56 62.10 62.14 62.60 62.11 62.22 61.81 61.41 61.57 62.44 63.00 60.85 60.79 60.03 58.01 55.35 54.83 55.12 56.10
43.35 39.71 41.26 41.24 42.16 42.13 42.87 38.93 39.86 45.80 46.28 46.01 46.47 46.66 46.24 49.01 56.14 56.91 58.25 58.40 58.73 59.94 59.74 59.55 59.69 60.07 61.73 62.04 62.15 61.61 61.69 61.71 61.03 61.49 61.61 61.55 61.51 61.66 61.81 62.38 62.09 61.03 60.10 58.05 55.68 53.25 54.44 54.58 55.77
39.53 38.65 34.01 40.32 42.59 43.68 43.75 38.75 42.86 46.07 44.48 44.55 45.85 46.26 46.21 46.19 49.41 56.41 58.39 58.45 57.93 58.94 59.05 59.37 60.45 59.21 59.15 59.99 62.03 61.79 61.59 61.67 61.84 61.32 61.50 61.33 61.67 61.48 61.93 62.06 61.48 60.81 58.76 56.78 55.56 53.33 53.03 53.93 54.82
34.62 30.70 33.17 37.33 42.82 42.59 41.87 39.57 41.25 43.46 44.37 44.01 44.48 44.33 45.28 44.99 45.03 47.69 55.14 57.01 58.16 59.43 59.05 58.79 58.84 58.36 57.56 57.66 61.82 61.95 61.91 61.17 61.35 61.85 61.22 60.83 61.09 61.77 62.19 61.48 60.84 58.38 57.78 56.35 55.80 52.70 53.34 53.18 53.33
29.96 31.29 34.55 34.09 38.64 40.77 38.56 39.36 40.94 43.69 41.87 42.22 42.84 44.70 44.03 44.76 46.37 47.66 52.66 56.34 58.17 58.71 58.95 58.85 58.40 57.14 56.88 57.88 60.19 61.50 61.44 61.03 61.09 61.07 61.16 61.40 60.44 62.03 62.07 61.40 58.65 58.01 56.63 54.72 54.56 51.89 51.96 53.54 53.65
35.58 33.60 32.64 34.29 39.95 37.87 37.57 38.58 38.60 40.95 40.55 40.41 41.58 42.74 44.21 44.18 48.43 53.30 54.28 55.83 57.00 57.46 57.92 57.62 57.40 56.03 58.40 58.78 58.70 59.47 59.57 60.15 60.69 61.23 61.44 60.86 60.65 61.20 61.58 59.39 56.68 56.77 55.49 53.71 53.22 52.08 52.18 50.63 53.20
34.72 33.49 33.42 35.75 39.65 39.56 38.67 38.69 41.67 40.05 40.41 41.56 42.49 43.47 44.05 44.01 49.74 53.86 53.73 55.03 56.92 57.81 56.96 56.66 57.24 56.74 58.61 58.68 58.63 58.83 58.66 59.93 60.30 61.14 61.21 60.54 60.85 60.76 59.21 56.68 55.86 55.04 54.28 52.58 52.51 52.57 50.36 50.01 53.34
33.10 32.85 33.01 33.69 36.38 38.07 34.11 34.91 36.98 39.49 40.02 42.60 43.89 44.57 45.34 45.46 46.31 52.22 53.79 54.33 55.77 56.70 56.28 56.52 56.26 57.38 57.47 56.26 58.05 56.94 58.58 59.19 59.07 59.41 60.33 60.69 59.73 58.81 56.97 56.26 54.43 53.45 53.87 52.10 52.45 52.70 51.76 51.43 50.41
29.52 34.42 35.09 33.78 31.53 25.90 33.84 25.98 31.65 36.80 39.49 42.33 43.88 44.11 44.49 44.69 46.99 50.70 53.85 53.59 55.48 56.19 55.92 54.95 56.29 56.62 55.99 56.14 56.17 55.23 56.34 57.06 58.44 58.84 60.53 60.03 58.64 57.39 55.48 54.77 52.86 53.25 54.02 52.72 52.80 53.36 51.47 53.25 50.06
32.08 35.89 33.65 32.65 29.62 26.34 28.37 25.57 28.77 36.10 37.33 41.18 43.27 44.15 45.63 44.50 45.92 49.58 53.57 54.71 55.89 55.50 54.95 56.10 56.91 55.82 54.65 54.93 56.73 56.19 55.98 57.83 58.90 57.40 58.95 57.48 57.14 56.90 55.02 54.26 53.21 54.20 54.70 53.98 53.32 52.49 52.21 53.61 51.53
36.88 33.91 33.03 31.18 28.78 22.43 28.06 27.50 25.54 30.84 36.23 41.70 44.93 46.77 48.54 48.28 45.49 49.88 53.50 53.99 54.99 54.74 55.56 56.07 55.40 55.54 54.03 54.88 57.07 55.92 55.40 57.86 57.62 56.78 56.65 56.66 56.76 56.93 55.12 55.68 55.04 56.13 56.05 54.83 54.11 53.92 53.50 53.75 53.54
35.43 30.92 24.39 22.26 21.25 22.51 31.06 27.93 31.10 36.97 40.37 44.57 44.55 46.36 47.59 51.01 45.83 50.26 52.37 52.73 54.19 54.28 54.82 54.75 55.80 55.42 55.32 54.87 57.17 56.90 56.54 58.30 57.56 56.50 56.48 57.16 56.66 56.82 55.95 56.20 56.36 56.09 55.84 55.43 54.84 53.89 53.59 53.01 52.76
32.82 33.48 25.87 21.64 22.01 24.52 32.48 25.86 32.45 40.03 44.59 46.79 47.30 47.30 48.05 47.58 50.67 50.39 52.29 52.39 53.92 54.24 54.02 55.10 55.44 55.42 55.68 56.32 56.77 57.05 57.57 58.27 58.33 57.34 56.61 57.11 57.55 57.41 56.97 56.05 56.18 56.61 56.51 56.21 56.01 55.36 55.18 54.47 53.68
31.49 29.31 34.77 27.57 28.69 25.77 27.67 31.65 38.54 41.82 43.58 45.42 45.47 46.81 46.72 48.52 48.80 51.03 52.02 53.05 54.18 54.12 53.79 54.86 54.70 55.19 55.24 55.36 56.67 56.59 56.67 57.19 57.69 57.88 57.27 57.49 58.25 58.30 57.67 56.73 55.68 55.64 56.29 56.41 56.17 55.98 55.87 55.56 55.30
33.94 36.30 27.90 27.85 22.70 21.44 24.64 27.65 30.86 37.69 41.36 43.98 43.88 44.91 46.26 48.35 49.15 51.58 52.92 52.37 54.14 54.15 55.16 55.32 54.89 54.67 54.97 55.05 55.43 56.09 56.27 56.35 57.15 57.33 56.96 56.75 57.29 58.07 57.97 57.59 57.17 56.49 56.27 56.72 56.43 55.88 55.98 55.82 55.45
29.76 29.40 31.00 31.28 27.89 23.75 21.91 25.48 35.51 36.59 41.01 42.59 44.52 46.11 46.78 47.45 48.71 52.49 53.14 53.48 53.92 54.43 54.92 55.10 54.71 54.75 55.14 55.40 54.36 53.08 53.40 56.39 56.39 56.39 56.47 56.57 56.68 56.92 57.81 57.64 57.35 57.13 56.89 56.74 56.35 56.07 55.84 55.16 55.30
33.67 30.91 32.50 26.33 25.97 27.68 26.65 26.72 40.61 41.75 42.92 44.19 44.63 47.66 47.81 47.72 48.13 51.71 53.98 53.88 53.70 53.33 54.59 55.06 55.30 55.84 55.71 56.19 55.04 53.55 53.60 54.20 53.70 55.70 55.82 56.33 56.10 56.41 56.60 56.76 57.23 56.85 56.97 57.25 56.73 56.00 56.00 55.56 55.14

GFSSGP_sfc_wetblb_111.txt.gz
Wetbulb
62.25 56.13 54.93 53.60 46.99 45.71 42.20 43.58 45.24 45.60 47.15 50.25 51.46 50.42 50.58 50.76 51.18 48.26 61.25 68.61 69.45 70.91 71.72 71.61 71.06 71.01 71.71 72.45 72.59 73.26 73.78 73.83 73.70 73.65 73.34 73.29 73.20 72.91 73.09 73.12 73.11 73.10 73.42 73.09 73.09 73.62 72.88 72.35 71.93
58.54 53.85 53.09 49.31 44.29 40.78 42.55 44.72 45.15 48.01 49.87 51.11 51.14 51.08 51.11 50.19 57.08 60.44 62.72 68.54 70.20 70.85 71.58 71.66 70.30 71.14 71.98 72.11 72.60 73.00 73.86 73.74 73.52 73.41 73.17 72.83 73.01 73.03 73.09 72.75 72.38 72.60 72.95 72.89 72.59 72.65 71.91 71.64 70.88
56.17 54.22 51.43 47.18 42.42 40.31 42.48 45.63 47.60 49.00 50.53 50.16 50.37 52.03 52.20 52.64 60.22 62.01 64.94 69.38 70.42 70.53 71.18 71.52 70.10 70.73 71.58 71.96 72.21 72.71 73.16 72.94 72.48 72.33 73.07 72.74 72.54 72.75 72.68 72.10 71.72 71.96 72.63 72.77 72.09 71.88 71.29 70.45 69.66
54.85 53.62 48.41 43.60 41.23 43.85 44.71 47.83 47.99 49.24 50.40 50.44 50.52 50.03 53.24 57.99 62.09 64.97 66.40 69.82 70.16 70.63 71.04 70.05 69.47 70.41 71.40 71.77 72.04 72.25 72.19 71.98 71.76 72.07 72.38 71.83 72.03 71.76 71.17 71.14 71.41 70.75 71.96 72.13 71.89 71.11 70.53 69.17 68.50
50.85 49.71 43.95 41.23 40.79 43.34 46.30 48.21 48.83 48.47 48.88 50.17 50.15 49.99 52.21 58.70 64.25 65.51 66.87 69.64 69.96 70.62 71.19 71.41 68.79 70.20 71.11 71.58 72.06 71.72 71.48 71.17 70.45 70.53 70.94 70.29 69.97 69.40 69.26 69.46 69.56 69.91 70.80 70.64 70.24 70.28 69.07 68.19 67.96
48.64 47.76 41.49 38.78 40.48 43.49 46.96 49.13 48.26 47.67 48.33 49.04 49.36 49.95 52.71 60.49 63.38 65.62 68.25 69.53 70.67 70.57 71.26 71.40 69.85 70.03 70.55 70.64 70.03 70.45 70.37 69.14 69.11 70.09 70.19 69.24 68.39 69.33 69.51 69.54 69.35 69.55 69.54 68.93 68.88 68.71 68.15 67.56 67.23
47.08 44.79 40.75 40.02 40.20 42.20 45.48 49.10 48.09 48.22 47.95 48.02 51.51 49.54 54.67 58.95 63.31 65.65 68.63 69.58 69.86 70.68 70.87 71.37 71.65 70.90 69.54 69.15 68.72 69.01 69.21 69.05 68.70 68.46 68.06 68.10 68.33 68.32 68.88 68.62 68.66 68.95 68.74 68.78 68.46 67.26 67.21 67.07 66.19
47.13 46.40 39.75 40.45 40.73 41.61 47.07 48.41 48.95 48.95 48.62 50.28 54.05 50.60 52.26 58.31 63.79 65.52 67.89 69.10 69.21 69.72 70.47 70.84 71.22 71.45 71.96 72.01 68.25 67.94 68.00 67.58 67.48 67.35 66.43 66.47 66.46 66.96 67.48 67.23 67.84 68.38 68.39 68.02 67.62 66.53 66.08 65.34 64.97
46.57 42.03 38.86 40.60 40.77 43.42 47.30 46.90 49.04 50.56 49.04 49.85 51.28 52.04 56.15 61.09 63.83 64.31 65.05 66.59 67.63 68.09 69.14 69.89 70.41 70.82 70.49 70.36 71.15 68.66 67.58 67.13 66.75 67.14 65.81 65.15 67.46 67.19 65.79 66.22 66.96 67.54 67.42 67.36 66.44 65.99 65.08 64.39 63.69
45.81 41.04 40.18 43.67 44.77 44.68 46.55 46.81 47.72 48.15 47.87 48.49 49.70 52.48 59.49 61.67 62.61 62.81 63.02 63.80 65.45 66.70 67.44 69.02 69.90 69.44 68.43 68.25 69.46 70.99 69.57 68.69 68.22 68.40 67.37 67.65 67.24 67.12 66.53 66.32 66.17 66.95 67.00 66.54 65.81 65.24 64.22 64.74 65.87
45.17 41.51 43.54 44.83 46.03 46.45 46.41 46.60 48.40 47.38 46.59 49.19 49.47 51.62 53.44 59.17 61.14 62.07 63.15 63.89 64.47 66.22 67.42 67.95 68.83 70.02 68.38 67.38 67.64 68.27 67.69 67.76 67.55 67.43 67.65 66.94 66.63 66.71 66.89 65.48 66.79 67.23 67.02 66.60 65.61 64.62 64.02 65.31 64.89
42.05 43.78 45.90 46.50 46.70 46.64 45.83 47.36 47.09 47.47 48.69 51.74 51.59 52.25 51.65 53.89 57.62 60.94 62.11 63.34 63.58 64.39 66.18 67.42 68.19 68.28 68.08 67.33 66.66 66.36 66.35 66.65 65.68 65.52 66.08 66.76 66.01 65.97 65.62 64.24 65.09 65.43 67.22 66.04 64.96 62.23 63.03 64.15 63.96
42.69 44.24 45.45 46.81 46.82 46.78 47.39 46.41 46.64 46.46 50.50 51.57 51.58 51.41 51.05 52.46 56.52 60.91 62.72 63.56 63.90 63.62 64.98 66.43 67.23 67.58 66.66 65.72 65.43 65.67 65.14 66.38 65.84 64.27 64.65 65.21 66.15 65.34 65.45 64.89 64.86 65.28 65.05 64.79 62.22 62.30 61.72 62.98 62.60
44.44 44.76 45.41 46.24 46.29 46.15 45.55 46.53 46.94 48.08 50.46 49.98 50.42 51.62 52.51 51.67 54.71 58.68 61.09 61.79 62.44 63.68 64.48 65.89 66.24 66.31 65.21 64.97 64.27 64.71 65.25 65.67 66.84 64.54 63.72 63.88 64.39 64.33 64.45 64.38 64.97 63.83 64.95 63.42 62.04 62.01 60.73 61.96 62.38
45.39 41.99 44.46 44.82 45.69 45.84 46.68 44.28 44.57 49.80 50.67 49.39 50.13 51.41 51.66 51.85 52.82 56.18 59.37 60.94 62.64 63.54 64.55 64.58 65.27 65.79 64.77 64.70 64.05 63.74 64.11 64.09 64.19 64.68 64.02 63.79 63.65 63.70 63.98 64.55 63.34 63.97 64.38 62.68 61.34 61.38 61.43 61.22 61.48
41.31 41.77 37.61 43.72 45.32 46.39 46.47 41.19 47.13 50.24 48.43 48.96 49.47 50.12 51.00 52.14 52.62 54.36 56.57 58.34 61.45 62.92 63.50 64.33 64.29 64.46 63.62 63.86 64.37 63.42 63.17 63.07 62.55 62.84 62.76 63.11 63.42 63.64 63.32 63.42 63.19 64.06 62.87 62.06 60.52 60.56 60.38 60.08 59.86
38.16 34.27 36.67 39.86 45.17 45.50 44.67 42.82 46.90 48.52 47.71 48.14 49.36 49.98 50.39 50.99 52.34 53.19 54.13 54.67 58.79 62.34 63.09 63.37 64.35 64.35 62.59 63.23 63.65 62.91 63.41 62.89 62.60 62.44 61.97 62.18 62.66 63.02 62.58 64.08 63.01 63.44 62.18 61.83 59.24 59.85 60.23 58.92 59.26
32.89 34.18 36.52 37.37 43.29 44.01 43.32 42.69 45.55 47.93 47.57 48.21 48.49 48.95 49.96 50.47 51.61 54.03 56.63 57.25 58.07 62.20 63.08 63.63 63.98 64.19 62.74 62.88 63.07 63.00 63.51 62.70 63.58 62.93 62.26 61.84 61.81 61.91 62.11 62.79 62.66 61.36 59.75 59.51 59.58 58.71 59.93 59.72 59.55
37.46 36.56 36.21 39.74 43.59 42.50 42.61 42.98 45.17 46.69 46.91 46.54 48.24 48.83 49.34 50.08 52.79 54.76 59.02 59.44 60.36 61.68 61.97 62.69 62.81 62.72 61.57 61.23 60.46 60.25 59.62 61.42 61.76 62.09 62.12 62.01 61.48 61.75 61.84 61.89 60.15 59.79 58.80 58.64 59.88 58.56 58.13 57.60 59.66
36.29 34.79 34.83 38.25 41.62 41.54 41.07 40.89 44.25 45.64 46.10 47.46 47.70 48.02 48.43 49.84 50.97 52.92 57.74 57.87 59.09 59.96 61.29 61.18 62.03 61.16 61.50 61.11 60.73 62.52 61.95 61.56 62.13 62.54 62.61 62.89 61.59 61.40 61.67 60.95 59.27 58.36 57.20 57.13 57.92 58.75 57.50 57.32 58.76
34.94 33.93 34.39 34.41 39.34 41.90 39.88 37.68 39.70 43.17 45.02 46.00 46.58 47.73 48.93 49.28 50.72 52.76 54.36 57.71 57.88 59.18 58.74 59.43 60.47 60.44 61.37 62.03 61.20 59.95 61.24 61.00 60.76 61.42 61.95 61.74 61.35 61.08 61.05 60.68 59.81 58.47 56.83 55.26 56.04 58.90 58.24 55.71 57.91
31.83 36.82 36.13 35.54 34.89 30.60 38.32 30.65 37.68 40.86 42.29 44.54 46.83 48.73 50.79 52.41 53.12 52.53 52.59 56.85 57.80 58.59 58.48 59.10 60.05 60.06 59.77 60.02 59.51 58.42 58.84 58.43 60.23 60.76 61.86 60.81 60.85 60.77 59.49 58.56 59.12 58.34 56.94 55.18 55.88 58.80 59.34 58.30 56.09
34.55 38.02 36.57 36.24 34.36 33.73 34.31 31.58 35.40 39.49 40.72 42.94 48.51 49.33 51.00 53.78 53.38 51.90 52.93 56.10 58.43 59.24 57.36 58.66 60.57 59.74 57.89 59.00 58.98 58.08 59.14 60.20 60.32 60.36 60.31 60.56 60.13 58.92 57.79 57.25 56.83 56.87 56.57 56.44 55.37 57.27 58.89 59.10 57.67
38.86 36.56 35.52 34.98 33.54 26.65 32.04 31.46 33.04 37.66 40.51 45.74 47.78 49.28 50.55 52.40 54.21 55.89 55.00 56.82 57.97 59.22 56.57 59.10 59.86 57.50 57.40 59.70 59.32 59.13 58.30 58.43 58.86 58.93 58.88 58.64 57.92 56.46 56.42 55.08 55.03 55.69 55.79 55.91 56.52 57.03 59.10 58.68 58.47
36.85 34.22 27.47 25.99 25.53 26.30 33.96 30.74 34.97 40.43 44.58 47.63 47.28 48.92 50.74 52.28 53.63 54.85 55.50 56.04 56.86 55.61 55.67 57.34 57.91 56.13 57.54 59.63 60.10 59.61 58.37 57.86 59.11 58.68 58.12 56.10 55.95 54.55 54.24 54.21 54.97 55.89 56.35 56.16 56.01 56.88 57.82 58.56 58.19
34.18 34.40 28.05 21.21 23.56 28.02 33.63 29.03 35.10 42.92 46.34 49.02 49.00 50.06 51.05 51.84 53.80 54.96 55.32 56.19 55.86 54.76 55.27 56.34 55.85 56.07 57.00 58.80 59.32 59.61 59.54 58.88 60.02 58.65 58.69 56.69 56.54 54.92 55.44 54.83 56.41 57.20 56.78 55.78 55.90 55.80 56.76 58.22 57.06
34.76 31.33 38.14 31.34 32.26 29.62 32.67 36.59 41.73 44.39 46.54 47.63 47.77 49.30 49.31 51.60 54.19 54.91 55.52 55.97 56.18 55.41 54.92 55.63 55.72 56.42 56.12 57.77 58.31 58.21 58.73 59.15 58.90 58.47 58.75 58.41 58.02 56.28 56.16 56.38 56.91 57.10 56.61 56.46 56.33 55.76 56.07 55.84 56.03
37.50 40.09 30.72 32.26 24.58 23.55 29.69 32.43 35.28 40.98 43.54 46.28 46.83 47.69 48.64 51.64 53.63 55.00 55.26 55.68 55.93 55.39 55.21 56.08 56.53 56.04 56.58 56.72 57.37 57.55 57.64 58.50 59.02 58.40 57.73 58.38 58.29 56.57 55.70 56.06 56.29 56.68 56.47 56.90 57.01 56.88 56.92 56.65 56.98
32.79 33.39 35.36 35.81 32.70 26.95 26.01 30.89 40.47 40.97 45.06 46.15 47.31 47.53 48.53 50.49 52.27 53.15 54.81 54.86 54.88 55.08 55.20 55.10 55.45 55.53 55.98 55.91 56.60 56.72 56.84 57.90 57.87 57.70 57.55 58.06 58.23 57.95 56.34 55.34 54.81 54.44 54.71 56.02 56.25 56.11 56.51 56.20 57.13
36.63 34.37 35.72 31.11 28.89 32.67 32.40 32.21 43.60 45.17 46.58 46.84 47.75 47.58 48.58 49.62 51.20 52.15 51.99 54.69 54.37 54.63 54.59 54.51 55.38 55.87 56.13 56.12 56.27 56.58 56.73 57.11 57.77 56.87 57.13 57.53 57.29 58.18 57.88 56.83 55.74 54.46 53.77 54.42 55.55 56.16 55.98 55.43 55.05

GFSSGP_sfc_wetblb_114.txt.gz
Wetbulb
62.61 61.54 59.91 58.06 49.79 48.88 46.20 47.58 51.79 50.35 50.71 54.24 55.54 55.80 54.26 54.71 52.66 50.43 64.93 71.15 70.21 71.32 73.22 72.58 71.46 71.29 71.95 72.48 72.84 73.36 73.81 73.88 73.88 73.87 73.64 73.47 73.53 73.49 73.33 73.24 73.17 73.45 74.07 73.42 72.87 72.86 72.61 72.53 71.87
63.72 58.23 57.84 55.91 46.66 44.01 45.68 49.99 49.75 52.13 53.27 54.20 54.67 54.54 53.59 52.59 56.86 60.31 65.90 70.66 70.39 71.38 73.00 73.45 70.89 71.06 71.59 72.50 72.97 73.60 74.02 73.90 73.62 73.62 73.67 72.90 73.36 73.15 72.72 72.89 72.61 72.95 73.45 73.55 72.97 72.73 72.41 71.96 71.35
60.03 58.13 53.63 49.69 46.86 44.27 45.35 50.15 52.01 52.80 53.82 53.50 53.68 55.76 54.65 54.06 59.07 61.21 65.12 70.47 70.38 71.02 72.33 73.17 70.41 70.76 71.75 72.43 72.78 73.17 73.56 73.33 73.26 73.09 72.92 72.38 72.07 71.64 70.97 70.85 72.14 72.65 73.33 73.43 72.26 72.11 71.81 71.00 70.35
56.66 55.74 53.45 46.48 45.34 47.83 47.87 51.29 53.08 52.24 53.44 54.43 54.77 52.56 55.74 60.29 61.49 64.70 67.05 70.12 70.35 71.00 71.99 70.19 69.29 70.37 71.55 72.34 72.74 72.92 72.96 72.67 72.51 71.25 72.48 72.53 72.17 71.20 70.51 70.34 71.69 72.28 72.53 72.11 71.91 71.89 70.81 69.66 69.25
57.42 54.70 46.99 45.33 45.70 48.18 50.45 52.87 53.29 51.30 52.13 53.38 54.09 52.67 54.12 60.38 65.37 67.26 67.71 70.24 70.17 71.27 72.32 73.02 68.99 70.27 71.33 72.15 72.38 72.29 72.13 71.67 71.68 71.38 70.82 70.93 68.55 67.46 67.99 68.57 69.18 70.69 71.19 71.68 71.33 70.52 69.66 68.08 68.33
50.68 52.18 44.82 43.21 45.46 48.00 49.93 51.92 52.08 51.48 52.26 53.04 52.44 53.39 55.20 62.80 64.27 67.26 69.03 70.77 72.47 72.55 73.02 73.46 70.34 70.14 70.46 71.22 71.29 71.11 70.86 70.85 70.57 70.61 70.38 69.86 67.30 67.84 67.80 69.42 69.57 70.47 70.39 70.45 70.17 69.41 68.76 67.79 67.47
49.69 48.36 44.63 45.40 45.69 46.61 48.78 51.92 50.94 51.74 52.10 52.13 54.53 52.62 56.43 60.78 65.52 68.79 69.96 71.86 73.00 73.50 73.30 73.35 73.45 71.99 69.47 68.97 69.00 69.18 69.69 69.55 69.41 69.33 69.25 68.77 68.16 68.03 69.18 68.62 69.76 69.83 69.38 69.67 69.19 68.30 67.39 67.20 66.58
51.90 49.94 45.65 45.84 44.75 45.50 49.53 50.92 52.37 52.37 51.86 54.02 55.31 52.40 54.69 59.99 65.62 68.15 70.38 71.54 72.10 72.83 73.01 73.12 73.51 73.55 72.80 72.36 68.02 68.12 68.44 68.26 68.19 68.32 67.73 66.47 66.45 67.74 68.29 68.28 68.87 69.12 69.12 69.10 68.39 67.32 66.60 66.02 65.49
52.65 45.91 43.93 45.09 45.33 46.66 49.80 48.88 52.55 54.23 52.71 53.01 54.31 54.63 56.71 60.71 64.40 65.91 68.44 70.22 70.80 71.23 72.26 72.91 72.97 73.22 72.81 72.57 71.39 68.65 68.51 67.61 67.12 67.76 66.71 66.22 70.30 70.33 69.70 67.85 67.85 68.42 68.31 68.32 67.27 66.65 65.66 64.22 64.00
48.71 45.60 45.62 48.47 48.22 47.27 48.75 49.82 50.64 50.99 51.99 52.15 53.01 55.73 56.86 59.31 61.41 61.98 64.89 67.01 69.11 69.83 71.23 72.22 72.73 72.83 71.61 70.31 71.89 72.05 72.65 72.25 71.64 71.03 70.15 70.30 70.50 69.68 68.27 66.46 67.06 67.54 67.33 67.12 66.31 65.51 64.41 65.34 67.47
49.34 45.46 49.46 48.61 48.83 49.37 48.50 49.12 51.26 49.71 48.92 52.14 52.66 53.72 56.00 57.07 59.15 61.17 62.21 65.06 67.39 69.77 70.69 71.42 72.20 72.71 70.40 70.37 70.39 72.05 72.41 72.12 71.59 71.43 70.46 70.19 69.37 68.55 67.00 67.55 68.31 69.77 66.99 68.20 66.87 66.50 67.80 68.02 67.57
45.77 49.05 49.33 49.65 50.18 49.36 48.44 50.54 49.33 50.13 50.64 53.52 54.33 55.13 55.80 56.65 57.33 59.05 60.72 62.50 65.73 67.95 70.16 71.19 71.84 72.28 70.43 69.99 69.65 71.17 70.05 70.74 69.57 69.84 70.00 68.93 68.84 68.39 67.42 67.57 67.56 68.19 67.05 67.88 68.02 67.95 68.00 67.61 67.06
46.85 48.11 49.66 50.01 49.98 50.01 50.28 48.88 49.18 50.23 52.64 53.96 54.24 54.68 55.13 56.22 57.18 59.51 60.78 62.63 64.81 66.79 68.73 70.44 71.44 71.73 70.27 68.82 69.09 69.48 69.32 68.71 68.39 68.36 68.57 68.29 68.87 68.21 67.41 67.21 66.53 67.51 68.13 65.31 66.38 67.09 66.70 66.01 65.97
48.55 48.56 48.95 49.92 49.45 49.94 48.28 48.98 49.89 51.19 53.10 53.05 53.60 54.04 55.05 55.98 56.90 58.42 59.43 62.27 64.32 66.05 68.01 69.79 70.61 71.18 70.21 68.69 68.83 68.10 69.20 68.86 67.66 67.34 68.71 68.68 69.45 66.98 68.07 67.27 66.13 66.52 66.45 65.76 64.84 63.33 64.97 64.67 65.35
47.54 44.52 47.09 48.05 48.82 48.44 50.19 47.25 48.79 53.03 53.87 52.70 53.05 54.32 55.75 56.37 57.22 57.40 59.10 60.54 63.22 65.12 67.36 68.56 70.02 70.77 69.82 69.51 68.98 68.12 68.66 69.12 66.89 66.60 67.76 67.54 67.14 66.46 67.20 67.25 67.59 65.78 66.90 66.31 63.83 62.67 64.37 63.89 64.80
44.37 45.44 41.89 47.70 48.48 49.10 48.48 44.34 50.45 52.98 52.88 52.73 53.63 54.51 55.23 56.03 56.77 57.92 59.33 59.97 60.99 62.29 65.16 67.90 68.53 69.69 68.63 68.44 68.64 67.88 67.69 67.87 67.34 66.69 66.31 66.37 66.09 65.84 65.63 65.88 66.83 66.85 64.44 64.27 62.21 61.86 63.66 63.69 64.06
42.44 37.78 40.30 43.24 48.10 48.25 47.66 45.47 50.72 52.36 52.31 52.10 53.14 54.07 54.54 55.54 56.65 58.05 58.87 59.66 60.18 61.80 63.72 66.63 68.50 68.98 68.36 68.80 67.49 66.67 66.87 66.32 66.00 65.49 66.18 66.73 65.97 65.39 65.07 63.98 66.72 65.88 63.87 64.68 62.31 61.53 64.06 62.89 63.28
37.43 38.12 39.29 39.60 44.28 46.37 45.56 46.01 49.40 51.39 51.36 51.86 53.05 53.97 54.55 54.92 55.86 57.81 58.65 59.65 62.16 63.15 64.66 66.65 67.60 68.42 67.40 66.67 65.68 65.96 66.01 65.39 64.87 65.11 64.43 65.25 64.58 64.65 64.18 63.29 63.57 64.21 62.89 63.65 62.52 62.36 63.56 63.22 63.03
39.45 39.32 38.88 41.69 44.51 44.77 44.74 45.52 47.80 50.14 50.96 51.17 51.77 52.58 53.64 54.63 56.70 57.88 58.46 60.58 63.91 64.35 64.36 65.76 66.47 67.68 64.46 63.94 63.37 64.03 64.00 63.63 64.55 65.69 63.72 63.11 63.61 63.15 63.37 62.51 62.80 62.81 61.95 63.74 62.97 63.65 62.71 62.04 62.92
38.55 37.92 38.17 40.77 42.75 42.76 42.18 42.18 45.63 47.61 48.99 50.60 51.03 51.87 52.43 53.49 54.74 55.64 56.90 60.77 63.49 64.16 64.65 65.15 66.10 67.00 63.63 64.04 65.34 64.80 62.78 62.93 62.99 64.00 63.88 63.88 62.56 62.29 62.50 62.12 62.02 61.47 61.97 61.52 60.86 62.65 62.20 61.69 63.17
37.79 36.85 37.66 37.95 40.93 42.58 41.25 40.07 42.94 46.29 47.94 48.88 49.93 50.94 51.52 52.28 52.77 54.99 56.74 58.93 62.53 63.57 64.48 64.86 65.85 66.81 65.59 66.84 64.53 65.53 65.02 63.53 63.75 63.63 63.70 63.16 62.77 62.30 61.95 61.86 60.99 60.65 60.65 59.58 59.57 62.07 62.35 60.19 61.96
35.07 40.09 39.18 38.24 37.28 34.39 42.14 34.66 41.61 43.85 44.73 46.57 48.55 50.43 51.90 53.88 56.29 57.63 57.95 58.24 60.71 63.11 64.63 64.50 65.62 65.39 65.53 66.86 64.89 64.44 62.76 61.32 62.68 63.61 64.09 63.19 64.67 64.06 62.06 61.79 60.42 59.80 59.96 59.40 58.48 59.68 60.45 62.04 59.69
37.30 41.08 39.42 38.75 37.38 37.55 38.29 35.55 39.92 43.10 42.00 45.62 48.02 50.88 54.21 56.30 57.88 58.96 59.25 59.16 59.99 63.08 63.32 61.89 63.44 63.80 64.91 66.19 65.61 63.90 62.43 62.91 62.71 63.93 63.93 64.27 63.61 62.58 62.37 61.32 60.44 59.58 58.89 58.38 57.87 58.87 59.27 60.54 61.87
41.62 39.75 39.35 39.45 37.79 31.52 36.50 36.50 37.54 40.66 43.85 46.30 50.86 53.04 54.44 55.83 57.59 59.01 60.07 59.07 60.44 63.42 60.79 60.45 62.18 61.69 62.11 63.44 64.33 63.42 62.21 61.24 61.52 62.11 62.56 62.43 62.27 61.45 60.53 59.70 59.91 59.28 58.25 57.38 57.96 58.33 59.16 62.26 62.35
39.19 36.69 29.79 28.15 29.15 28.88 37.89 35.81 38.13 42.83 46.65 48.93 50.87 52.51 54.39 56.32 58.29 58.95 59.30 60.17 60.56 61.36 58.74 59.47 61.15 59.98 59.70 61.17 62.00 62.68 62.17 60.19 60.19 59.95 61.64 60.51 59.37 57.23 57.59 57.95 57.83 58.13 57.66 57.04 57.76 58.12 58.83 61.35 61.60
36.87 36.46 30.53 24.43 27.20 31.02 37.74 32.88 38.60 45.33 48.27 52.09 52.88 53.27 54.42 56.41 58.74 59.02 59.33 60.35 59.57 58.47 58.52 58.66 59.74 58.78 59.29 61.46 61.87 62.23 61.31 61.18 61.15 62.60 61.58 60.02 58.60 57.05 56.33 55.83 56.47 56.81 56.92 56.86 56.71 57.16 57.91 59.62 61.11
36.22 34.12 39.08 33.65 35.20 32.45 35.93 38.90 42.83 46.03 46.35 50.60 51.71 52.32 53.40 55.97 58.09 58.58 59.26 59.68 59.38 57.43 57.09 57.70 58.30 58.52 59.23 62.05 62.31 61.69 61.03 60.96 60.90 62.64 61.48 58.89 58.88 55.81 54.69 55.37 55.59 56.05 55.81 56.33 56.58 56.51 57.24 59.04 60.15
38.27 39.93 32.14 33.75 26.06 25.66 32.55 35.65 37.68 42.67 45.92 49.66 50.79 51.31 53.04 55.84 56.44 57.10 57.90 57.85 57.82 57.14 57.49 57.87 57.83 58.38 58.63 60.96 60.55 60.69 60.43 61.74 61.93 62.40 59.63 58.37 58.10 56.50 55.04 55.81 56.19 55.83 55.55 55.73 56.50 57.24 58.70 59.77 60.24
36.26 36.22 36.41 36.22 34.68 29.39 28.89 34.70 44.53 45.93 48.67 49.53 51.18 51.70 53.21 54.75 55.78 56.15 55.36 56.34 56.79 56.30 56.35 56.69 56.70 57.57 58.39 58.73 59.51 59.69 59.23 60.90 61.54 61.08 60.54 59.01 58.01 56.35 55.61 56.17 56.13 55.55 56.11 56.32 56.19 57.47 57.21 57.68 58.38
39.01 37.54 38.05 32.18 31.06 34.42 34.81 35.29 47.59 48.46 50.72 51.73 50.70 51.50 53.08 54.62 54.77 55.17 55.16 52.11 51.38 55.00 55.63 55.61 55.99 56.98 57.89 58.42 58.37 57.72 59.26 60.51 60.35 59.40 59.02 59.00 57.35 56.37 56.15 56.07 56.11 56.01 56.67 56.90 57.10 57.61 57.66 57.57 57.29

GFSSGP_sfc_wetblb_117.txt.gz
Wetbulb
63.17 62.76 61.01 57.19 50.07 49.63 46.76 49.04 52.45 51.94 52.46 56.16 56.48 57.17 55.32 56.17 54.70 52.31 64.32 69.17 68.99 69.90 73.30 72.81 71.72 72.42 72.44 72.69 72.88 73.30 73.83 74.19 74.01 73.82 73.67 73.29 73.17 73.27 74.10 73.77 73.91 73.60 73.70 73.35 72.96 72.98 73.13 72.73 72.25
63.63 61.16 58.00 54.52 47.76 45.21 47.43 51.27 50.43 53.17 55.38 56.38 56.24 58.18 54.80 53.77 57.39 61.25 65.02 69.15 69.17 70.26 73.35 73.69 71.15 71.43 72.43 72.70 72.91 73.48 73.97 74.22 73.82 73.62 73.68 73.17 73.19 72.81 72.50 72.64 72.44 72.78 73.45 73.70 73.00 72.83 72.64 72.00 71.73
63.12 59.30 53.12 50.45 47.95 45.11 47.04 50.83 51.77 54.68 55.76 55.49 55.14 57.49 56.21 55.25 58.36 61.70 66.35 68.26 68.73 70.14 72.32 73.75 70.87 70.91 72.22 72.68 72.94 73.60 73.75 73.43 73.38 73.32 73.23 72.30 72.28 71.43 69.78 69.45 70.39 72.04 73.77 73.63 72.83 72.44 72.08 71.46 70.44
59.57 55.46 54.06 48.23 46.77 49.60 49.78 51.67 52.98 53.92 55.54 56.25 56.21 53.97 57.15 60.95 60.44 62.71 66.15 67.04 68.07 69.99 71.38 70.46 69.91 70.90 71.87 72.60 72.79 73.21 73.11 72.66 72.69 72.81 72.67 72.04 70.74 69.43 68.16 68.06 69.10 70.41 71.87 72.71 72.46 72.45 71.33 70.08 69.49
57.67 54.16 48.15 46.62 46.55 49.10 51.72 52.78 54.08 53.28 54.26 55.17 56.06 54.33 55.48 60.24 63.63 64.95 65.87 67.58 69.04 70.06 73.11 73.11 69.44 70.66 71.72 72.46 72.77 72.60 72.34 72.26 72.30 72.23 72.13 71.00 69.10 68.37 68.49 69.01 68.72 68.30 69.67 72.13 72.06 71.16 70.16 69.41 68.84
51.84 52.31 46.23 44.83 47.27 50.31 51.76 52.75 53.92 54.03 54.14 54.97 54.77 54.94 56.46 61.81 63.32 66.29 67.29 69.50 71.42 71.70 73.45 73.28 70.35 70.49 71.15 71.62 71.64 71.56 71.48 71.49 71.64 71.42 70.85 68.78 66.96 67.01 67.41 68.87 68.95 68.12 69.41 70.53 70.59 69.76 69.21 68.58 68.44
50.72 49.30 46.22 46.66 47.45 48.99 50.29 53.71 51.47 52.78 53.27 53.78 56.43 53.47 57.55 61.29 66.10 68.85 68.54 70.24 72.00 73.33 73.64 73.58 72.85 71.75 70.04 69.93 69.90 69.78 69.93 70.32 70.50 70.38 69.71 68.05 67.04 67.31 67.18 67.72 68.88 68.45 69.59 70.23 69.59 68.72 68.09 67.98 67.29
52.91 50.90 47.02 47.94 47.03 47.62 52.05 52.23 52.74 52.47 52.67 57.04 56.97 53.33 54.92 62.61 65.13 67.72 69.54 70.69 72.09 73.18 73.17 73.35 73.36 73.09 73.02 72.79 68.63 68.88 68.97 68.88 68.72 68.98 68.22 66.57 66.41 67.33 67.25 68.40 68.79 69.36 69.68 69.64 68.85 67.69 67.47 66.97 66.39
55.38 47.89 45.86 47.32 47.85 49.29 52.55 49.88 53.44 54.72 53.52 54.64 56.34 57.05 59.16 61.99 64.12 65.87 68.21 69.72 71.10 72.20 72.75 73.07 73.14 73.46 73.55 73.13 71.52 69.11 68.86 68.19 67.85 68.68 66.89 65.93 69.24 67.76 68.89 68.35 68.32 69.02 68.94 68.45 67.47 66.97 66.24 65.28 65.24
50.98 47.86 48.11 51.46 51.51 50.21 51.47 50.68 51.90 51.58 52.18 52.96 54.46 57.43 58.17 59.54 61.94 62.42 64.65 67.01 69.12 70.29 71.88 72.45 73.04 73.16 73.33 71.50 72.59 71.89 72.02 71.88 71.50 71.99 71.11 71.25 70.77 70.04 69.47 68.09 67.57 68.24 67.40 67.13 66.75 66.01 64.80 65.60 68.07
51.55 47.21 51.30 52.05 52.73 52.30 50.56 50.33 52.16 50.58 49.99 53.07 53.23 55.56 57.60 58.23 59.05 60.88 61.44 64.40 67.92 69.96 71.21 72.03 72.73 73.34 73.19 71.74 72.08 71.53 71.64 71.82 72.00 71.53 71.61 71.71 70.25 71.67 69.79 69.76 68.79 69.78 67.85 68.36 67.20 64.96 68.21 68.08 67.85
48.70 51.53 51.91 52.46 53.18 52.46 50.42 52.27 50.96 51.32 51.32 53.75 55.00 56.54 56.78 56.91 57.97 58.55 60.36 61.52 63.76 67.72 70.88 72.07 72.40 72.63 73.02 72.15 71.60 71.90 71.42 71.74 71.37 71.53 72.05 70.51 69.70 69.85 69.29 67.42 66.68 68.15 69.64 68.32 66.08 67.72 68.69 67.76 67.75
48.80 50.16 51.75 52.50 52.35 51.73 52.46 50.83 51.04 51.81 54.05 54.71 54.49 54.80 55.23 56.25 57.47 59.50 59.89 61.30 62.77 64.54 68.79 71.58 72.20 72.70 72.21 71.85 71.18 71.55 71.64 71.57 71.93 71.35 71.87 70.68 69.80 68.59 68.46 68.16 68.10 68.15 69.11 68.80 66.17 67.73 68.04 67.60 67.19
50.11 50.18 50.80 51.88 51.76 52.03 50.07 50.56 51.39 52.30 54.54 54.22 54.50 54.23 54.92 55.55 56.69 58.23 59.36 60.03 61.79 64.07 67.68 70.73 71.72 72.48 72.95 69.95 70.68 71.15 71.22 70.89 70.90 70.68 71.01 70.57 69.69 69.90 68.42 68.84 67.81 66.62 68.66 67.44 65.11 65.28 66.39 66.65 65.96
48.77 46.05 48.12 49.12 49.98 49.84 51.41 48.00 49.20 53.23 54.37 53.77 54.12 55.07 55.45 55.51 56.64 57.39 58.87 59.54 60.67 63.77 66.37 69.12 71.24 72.67 72.53 70.29 69.95 70.40 70.47 70.47 70.10 69.53 71.10 70.35 69.93 69.58 68.94 68.23 67.50 67.43 68.45 65.53 63.99 63.49 63.94 66.38 65.25
43.37 46.13 42.71 48.15 49.60 50.07 49.59 44.03 50.96 54.50 54.28 53.83 54.43 55.51 55.90 56.42 56.89 57.80 59.17 59.67 60.52 62.20 64.91 67.50 69.01 71.73 72.76 71.42 71.14 70.18 69.54 69.56 69.55 68.61 69.81 70.18 69.24 68.95 69.12 68.16 68.18 68.25 67.62 64.88 63.28 63.72 63.03 62.04 63.21
41.46 37.52 40.76 43.81 49.10 49.54 48.70 45.57 50.79 53.46 53.91 53.23 54.55 55.49 56.12 56.87 57.95 58.89 59.35 59.85 60.44 62.16 62.69 65.33 69.64 70.36 72.27 71.64 70.73 70.53 69.87 69.34 69.05 68.75 68.21 68.93 68.58 68.27 68.05 67.78 67.95 67.73 66.88 66.01 63.60 62.68 61.54 60.69 61.41
35.58 37.68 40.37 41.37 45.39 46.76 46.01 46.33 49.93 52.19 52.68 52.75 53.99 55.07 55.78 56.27 57.05 58.66 59.51 60.55 60.86 62.72 63.24 64.60 68.09 70.33 72.14 71.03 70.33 69.79 68.89 67.22 67.93 67.51 67.70 68.22 68.41 67.73 67.32 67.70 67.58 67.43 66.11 64.61 62.00 61.61 61.48 61.07 61.73
38.43 37.76 37.25 41.27 45.61 44.69 44.56 45.17 47.30 50.69 51.70 51.99 52.71 53.77 55.27 56.22 58.09 58.94 60.12 60.78 60.93 63.42 64.28 64.97 66.26 69.17 70.23 68.76 67.70 65.89 65.26 65.06 65.90 66.31 66.62 67.35 67.39 66.72 67.15 66.32 66.24 64.40 63.12 62.63 62.77 61.92 60.75 59.89 63.57
39.34 36.78 37.55 40.75 42.43 42.46 42.89 43.26 47.33 48.65 49.10 51.09 51.92 52.90 54.10 55.05 56.29 57.62 59.00 59.92 61.58 61.64 64.64 65.05 66.34 68.15 69.11 66.97 65.95 67.04 67.56 66.60 67.14 66.46 66.19 66.03 65.67 66.11 65.59 65.57 64.20 63.23 62.79 62.36 60.98 61.39 59.38 59.51 63.02
39.03 37.53 37.79 37.56 40.61 42.47 41.95 40.48 42.79 45.96 47.93 48.93 50.33 51.84 53.37 54.12 54.68 55.30 56.62 58.39 59.85 62.44 64.74 65.17 66.36 67.39 68.30 65.25 66.35 67.47 66.98 65.50 64.09 63.59 64.61 65.45 65.08 64.31 63.66 63.53 63.60 62.83 61.89 61.09 60.81 61.24 59.24 57.79 60.60
35.75 41.03 39.75 37.80 36.72 34.20 41.87 34.40 40.98 44.86 46.30 48.24 49.57 50.92 51.76 52.70 53.79 54.53 55.66 57.46 59.66 62.40 65.14 65.79 66.36 66.87 67.55 65.90 66.47 66.80 64.70 62.61 64.22 64.61 64.94 64.75 65.66 64.40 63.13 62.61 62.29 62.17 61.92 61.35 60.57 61.72 61.42 60.23 59.03
36.51 41.04 40.47 39.77 37.57 36.87 37.46 35.65 39.89 44.47 43.89 46.47 48.66 50.08 52.16 54.21 56.26 57.34 58.24 59.10 59.92 62.29 64.76 66.18 66.59 66.86 66.94 66.78 67.20 66.56 66.25 65.23 65.09 64.70 64.82 64.41 64.73 64.88 63.52 62.31 61.63 60.78 61.13 61.13 60.28 60.21 60.78 60.60 61.03
41.12 38.93 39.83 40.14 38.36 31.41 36.69 36.47 37.55 41.46 44.04 46.86 49.85 51.18 53.75 56.15 57.78 58.71 60.34 61.94 61.13 65.10 65.60 65.51 65.50 66.28 66.53 66.26 67.26 66.52 66.13 65.17 64.08 63.78 63.51 63.54 64.30 65.12 63.65 63.23 61.62 60.48 60.50 60.21 59.74 60.12 60.34 60.42 60.89
39.30 36.22 30.11 28.89 30.18 29.98 38.27 36.07 38.78 44.06 46.22 47.88 51.01 53.80 55.61 57.50 58.20 59.07 59.95 61.23 60.88 63.06 64.04 61.72 62.75 64.04 64.57 65.25 66.40 66.40 66.00 65.12 64.04 63.75 63.12 63.20 63.31 63.01 63.21 62.65 61.10 60.27 59.84 59.64 59.31 59.25 59.68 59.53 59.48
36.53 35.80 31.17 24.50 26.83 30.93 37.78 33.91 38.77 45.58 47.39 50.20 53.40 55.10 56.22 57.03 59.08 59.38 60.51 61.51 61.42 62.32 62.75 59.46 60.91 61.77 61.72 63.91 65.16 65.39 65.42 64.48 63.57 63.24 63.12 62.65 63.00 62.67 61.96 61.54 60.27 59.91 59.37 59.22 58.74 58.92 59.30 59.36 59.35
36.05 33.90 38.83 34.23 35.93 32.32 35.36 38.56 43.09 45.71 46.41 51.10 52.67 53.89 55.29 57.18 58.74 59.65 60.68 61.12 61.16 60.30 58.90 58.61 60.18 60.51 59.96 61.93 63.81 63.61 63.99 63.45 62.55 62.80 63.56 63.46 63.39 61.72 61.68 58.81 58.31 58.89 58.59 58.28 58.30 58.23 58.56 59.03 59.38
38.56 39.92 32.96 34.77 26.48 26.42 33.33 35.97 37.16 42.06 44.40 49.43 50.88 52.84 55.32 57.23 57.72 58.34 59.03 59.03 58.78 58.06 58.10 58.56 59.54 59.52 59.82 61.85 62.58 62.77 63.04 63.32 63.02 62.54 62.43 62.58 61.42 60.33 57.36 56.05 56.17 56.41 56.93 57.25 57.35 57.49 58.59 58.45 59.08
36.55 34.89 36.31 36.22 34.82 28.95 28.74 34.12 43.91 44.18 45.99 47.73 50.98 53.55 55.19 56.36 57.28 56.95 55.82 56.03 55.79 57.61 57.50 57.43 57.84 58.39 59.06 60.86 61.72 62.58 62.22 62.50 62.04 62.17 62.39 62.04 60.32 59.12 57.03 55.74 56.01 55.68 55.43 56.15 56.21 56.49 57.53 57.84 58.29
41.38 37.15 37.16 31.58 30.79 34.32 33.91 34.87 47.77 47.80 49.05 50.01 51.42 53.54 55.69 56.18 56.04 56.00 55.40 54.74 53.21 52.72 55.88 56.37 56.99 57.82 58.98 59.56 60.03 61.08 60.99 61.19 61.67 61.53 61.87 61.69 58.98 58.28 55.87 56.13 56.09 55.28 55.26 55.71 55.72 56.15 57.17 57.24 57.52

GFSSGP_sfc_wetblb_120.txt.gz
Wetbulb
63.05 61.76 60.41 57.37 47.47 47.98 44.72 46.59 51.36 50.89 52.08 55.70 56.41 54.55 55.18 55.81 54.28 52.06 66.02 69.14 70.33 70.87 71.37 71.67 72.22 72.70 72.83 73.05 72.93 73.27 73.91 74.22 74.03 73.79 73.65 73.70 73.59 73.34 73.18 73.94 73.96 73.66 74.07 73.89 73.37 72.95 73.12 72.83 72.29
61.25 60.80 58.95 52.80 44.98 42.40 44.43 50.11 48.96 51.86 55.09 56.67 56.09 57.05 54.84 53.56 58.49 61.49 64.58 68.42 70.32 71.86 71.64 71.44 71.46 72.09 72.56 72.97 73.08 73.55 73.93 74.22 73.95 73.75 73.60 73.29 72.86 71.51 71.62 71.56 71.19 71.74 73.19 73.47 73.34 73.39 72.82 72.28 71.54
61.31 61.92 52.47 48.56 45.26 42.82 45.12 49.55 51.33 54.30 56.11 55.53 54.39 57.05 56.71 54.51 58.08 61.79 66.30 67.65 69.53 71.33 72.12 71.60 70.70 71.29 72.21 72.65 73.01 73.70 73.88 73.68 73.35 73.15 73.60 72.70 70.42 68.74 69.15 68.27 68.77 69.23 70.41 73.25 73.07 73.05 72.16 71.44 70.47
58.55 58.26 52.64 45.01 44.38 47.89 47.98 50.50 52.29 53.57 55.15 55.72 55.64 53.70 57.32 60.76 59.93 64.95 65.84 66.58 67.85 70.02 73.63 69.37 69.95 70.85 72.10 72.72 73.02 73.44 73.26 72.10 72.63 72.81 72.68 71.76 68.67 67.91 68.31 66.52 68.45 67.86 66.56 70.78 72.38 72.23 71.36 70.07 69.57
58.65 53.05 45.71 44.33 45.06 47.96 50.40 51.37 52.76 52.51 53.55 54.87 54.97 53.66 55.61 60.44 62.60 65.22 65.21 66.15 68.27 71.63 72.33 70.82 69.37 70.74 71.90 72.60 73.03 72.73 72.52 71.77 71.93 72.32 71.85 70.43 68.93 67.95 67.76 67.97 67.85 64.79 64.01 68.62 70.77 71.13 70.14 69.40 68.99
52.23 51.49 43.73 42.67 45.82 49.34 51.44 52.90 52.29 52.80 54.17 54.30 53.89 54.18 56.14 60.87 62.53 64.97 66.73 69.45 72.59 73.02 73.12 71.17 70.16 70.58 71.28 71.68 71.74 71.41 71.62 71.31 71.79 71.61 70.38 70.14 69.16 68.56 67.63 68.00 67.42 65.86 64.83 67.77 69.79 69.87 69.42 68.79 68.53
49.93 48.04 44.62 44.98 45.67 47.37 50.24 53.97 51.25 51.13 52.72 52.71 55.47 52.50 57.45 59.73 65.63 67.04 67.69 69.99 72.27 73.85 72.98 71.42 70.87 70.98 70.35 70.04 70.04 69.99 70.38 70.47 71.08 70.61 69.00 67.85 68.40 67.97 68.66 68.97 67.63 66.25 67.78 69.24 69.61 68.47 68.44 68.37 68.00
52.36 49.47 45.24 46.28 45.46 46.19 51.55 52.21 53.00 51.50 50.52 55.68 56.45 52.55 54.54 63.33 67.74 68.13 67.96 70.19 70.91 72.52 72.95 71.48 71.66 71.40 71.46 70.78 68.90 68.95 69.10 69.24 69.27 69.25 67.61 66.62 66.00 66.59 67.72 68.32 68.67 68.44 68.70 69.60 68.50 67.87 67.88 67.55 66.83
54.83 46.94 43.86 45.51 46.35 48.30 52.29 51.16 53.31 54.04 52.00 52.74 55.80 56.92 60.29 63.55 64.38 65.22 67.01 69.67 70.57 71.69 72.31 72.08 71.65 71.74 72.24 71.84 70.33 68.92 69.35 68.56 68.27 68.70 67.30 65.60 66.57 66.87 66.65 66.75 67.36 68.36 68.28 68.67 67.73 67.12 66.32 65.33 65.39
50.18 46.46 46.20 50.13 50.96 50.47 51.82 51.64 51.51 50.69 50.65 51.22 54.06 57.92 58.88 60.60 62.38 63.01 64.98 66.37 68.76 70.20 71.16 71.82 72.12 71.97 72.35 71.35 70.70 70.47 70.55 70.45 70.48 70.24 67.55 68.20 68.50 66.89 67.19 67.65 67.50 67.69 67.69 67.40 66.83 66.38 65.39 65.52 65.27
50.44 46.33 49.77 50.81 52.38 53.02 51.82 51.62 52.34 49.89 48.69 51.95 51.94 55.14 56.43 58.27 59.76 61.21 63.46 66.23 67.56 69.98 70.90 71.40 72.00 72.57 72.27 70.70 71.15 70.26 70.63 70.26 70.13 70.55 69.85 69.70 69.10 68.84 67.86 67.86 67.68 66.77 67.26 66.70 65.99 65.15 65.34 66.06 65.90
47.17 50.08 50.98 51.40 52.59 52.08 50.92 52.78 50.84 50.58 50.77 53.59 54.23 55.79 56.11 56.62 57.30 58.50 60.39 61.58 66.37 68.15 70.30 71.14 71.82 72.35 72.35 70.94 70.65 70.58 69.36 70.19 70.09 69.77 70.31 69.53 68.56 67.98 67.52 67.28 66.75 66.55 66.63 65.94 65.79 64.72 64.96 65.05 65.25
47.36 48.04 49.83 51.26 51.82 51.94 52.80 50.76 50.83 51.13 53.67 55.05 54.92 54.36 53.74 56.59 57.18 59.82 59.93 60.91 62.38 66.30 69.27 70.50 71.49 71.81 72.16 70.88 70.33 70.60 69.50 69.97 70.11 70.19 70.20 69.43 68.34 67.47 67.42 66.29 65.88 65.67 67.00 66.03 65.43 64.65 64.50 64.27 64.86
46.61 47.05 48.14 49.89 50.42 51.23 50.09 50.44 51.01 51.69 53.94 53.97 54.65 54.33 53.96 53.90 55.44 56.91 58.49 59.16 61.72 63.02 68.79 70.49 70.58 71.82 72.22 70.77 70.38 69.77 71.15 70.10 70.73 70.45 70.15 69.58 68.11 67.75 66.63 65.66 65.94 66.23 66.66 66.59 65.42 64.30 64.37 64.02 64.47
46.76 44.06 46.07 46.74 48.54 48.40 50.02 46.92 48.30 52.64 53.83 53.37 53.57 54.06 54.51 54.55 54.95 54.86 57.46 58.49 59.87 62.37 66.02 70.11 70.37 71.51 71.89 70.33 70.31 70.15 70.51 70.16 69.59 69.48 70.28 69.35 68.48 67.70 66.30 65.69 65.56 65.79 66.32 65.81 64.09 63.46 63.12 63.97 64.15
41.45 41.62 38.21 43.86 46.87 48.43 48.12 41.94 48.83 52.49 52.03 51.73 53.62 54.38 54.50 54.98 55.25 55.45 56.98 58.10 59.49 60.51 63.69 68.54 70.66 70.67 71.37 70.32 69.42 69.26 69.35 69.45 69.19 68.16 69.28 69.20 68.44 67.78 66.73 65.69 65.10 65.52 65.81 64.76 63.20 62.62 61.95 61.91 62.02
38.85 34.87 36.57 39.55 44.82 44.67 46.27 44.04 48.84 51.75 51.53 51.45 53.12 54.45 54.61 55.11 56.35 56.95 57.14 57.54 58.21 60.58 62.45 65.65 68.25 69.64 70.56 70.22 69.51 69.10 68.84 69.04 68.69 68.49 68.04 69.01 68.39 67.56 66.45 65.85 65.28 65.56 65.14 63.47 62.46 62.29 62.04 60.90 60.80
34.19 35.06 38.12 37.58 41.59 43.92 43.30 44.45 48.39 50.37 50.26 51.15 52.58 53.75 54.53 55.38 56.50 58.05 58.75 58.97 59.12 60.88 62.21 65.34 67.42 69.10 70.33 70.78 69.75 69.33 68.60 68.16 68.70 68.23 67.50 67.93 67.80 67.29 66.40 65.77 65.23 65.12 64.33 63.06 62.18 61.43 61.66 61.00 60.66
39.04 37.45 36.15 39.08 41.96 41.53 41.72 42.57 45.58 48.12 49.13 49.43 51.17 52.64 53.49 54.87 57.05 58.22 59.61 60.51 60.98 61.75 63.89 63.75 66.45 68.24 69.36 69.04 67.89 67.39 66.56 66.45 66.47 66.65 66.75 66.20 66.79 66.50 65.90 65.23 64.81 64.75 63.87 62.90 62.11 61.55 60.22 59.36 59.93
38.16 36.81 36.91 39.96 41.06 40.04 39.97 39.83 43.85 45.70 47.49 49.42 50.48 51.25 52.86 53.92 55.55 57.74 58.97 61.03 61.76 61.37 62.86 63.80 63.73 67.74 68.59 69.07 68.49 67.78 66.97 65.13 64.94 65.58 65.55 65.55 66.15 65.91 65.28 64.86 64.08 64.08 63.60 62.58 61.88 61.09 59.83 59.07 59.87
37.15 35.80 36.29 36.80 39.72 40.62 39.45 37.59 40.62 44.30 46.12 48.06 49.27 49.35 50.06 52.96 54.36 55.77 57.14 58.63 61.09 61.41 63.37 63.27 63.65 65.28 67.69 68.64 67.34 65.95 65.08 65.20 64.49 64.86 64.60 64.73 64.98 65.35 64.85 64.55 63.97 63.42 62.91 61.72 61.49 61.07 59.88 57.47 58.75
33.05 38.78 38.28 37.12 36.32 31.75 39.22 30.44 38.58 42.10 43.61 46.02 47.14 48.07 49.06 50.66 52.56 55.42 56.09 56.77 58.52 60.57 63.41 64.04 63.97 64.45 66.68 67.39 65.40 64.72 63.54 63.02 63.71 63.50 63.64 63.90 64.35 63.95 63.86 63.62 63.80 62.93 62.90 61.67 61.42 61.43 60.08 58.80 56.95
35.23 39.94 37.91 37.10 35.21 35.84 35.69 32.52 36.28 41.35 40.99 43.58 46.52 48.79 49.84 50.59 52.20 53.07 54.32 55.78 59.71 60.08 62.96 63.60 64.22 64.64 66.75 65.88 64.97 64.50 64.21 64.25 63.81 63.74 62.46 62.93 63.73 63.58 63.02 63.24 63.06 62.55 62.43 61.85 61.28 61.06 60.01 59.41 57.63
39.70 37.40 36.34 36.92 35.34 28.86 34.97 34.04 34.14 37.61 40.78 43.51 47.41 49.58 50.86 53.17 56.21 57.37 59.55 61.05 61.16 64.57 64.27 65.05 64.57 64.42 65.86 65.24 65.43 64.59 64.65 63.62 63.08 62.99 62.77 62.48 62.90 63.20 62.78 62.18 61.72 62.09 61.67 61.45 61.16 61.14 60.53 59.39 58.91
36.35 32.87 25.53 24.73 26.42 26.82 36.32 33.92 36.08 41.65 43.34 44.43 47.80 52.26 54.63 56.30 57.32 58.34 58.95 59.98 61.02 62.87 64.53 64.07 63.85 63.60 65.43 65.52 65.05 65.23 65.05 65.29 63.88 62.52 62.38 62.07 62.44 62.51 62.75 61.91 61.33 60.79 61.03 61.17 61.33 60.77 60.70 60.26 59.00
33.22 32.44 26.32 18.84 23.36 27.82 36.05 31.14 36.41 43.33 44.87 46.44 52.60 54.13 55.23 56.13 58.03 58.55 59.98 60.83 61.13 62.73 62.82 60.78 60.91 61.53 64.41 64.87 64.87 65.01 64.43 64.53 63.84 63.36 62.45 62.09 62.09 62.13 62.83 62.06 61.67 60.87 60.79 60.70 60.14 60.09 60.29 60.70 59.74
34.97 30.74 36.00 30.73 32.62 28.69 33.45 36.98 41.48 43.47 43.98 45.31 51.97 53.49 53.87 55.78 57.05 58.64 59.26 59.76 59.14 59.68 60.15 60.04 59.58 60.63 62.15 62.63 63.09 63.44 63.24 62.73 62.60 62.76 62.20 61.80 62.14 62.48 61.38 61.79 61.21 60.75 60.39 60.08 59.87 59.17 59.20 60.02 59.89
37.28 39.49 29.87 31.21 22.25 21.35 29.14 33.19 35.29 39.86 41.81 45.65 50.70 51.72 54.48 56.59 56.94 57.21 57.06 56.96 57.51 57.90 58.37 58.85 59.00 60.11 60.30 61.00 61.58 62.48 61.92 62.28 62.49 62.19 61.53 62.00 62.11 60.84 60.37 59.32 59.08 59.13 59.42 59.49 59.07 58.64 58.94 59.11 59.22
33.32 33.06 34.96 34.06 31.81 25.26 24.73 31.32 42.06 43.97 43.73 47.77 50.45 53.06 54.05 55.01 55.53 55.02 55.07 54.63 54.53 55.81 56.30 57.89 57.64 58.20 59.22 59.58 60.75 61.50 61.19 61.61 61.07 61.20 61.99 61.09 60.64 60.51 58.29 56.32 56.67 56.55 56.89 57.71 57.99 57.98 58.32 58.33 58.60
37.23 32.79 34.18 29.14 27.50 32.31 31.96 31.91 43.68 46.65 47.47 49.39 50.32 53.08 54.99 55.35 54.76 53.93 53.68 53.00 51.35 51.08 51.33 51.32 56.26 57.66 58.79 59.40 59.48 60.15 60.42 60.26 60.03 60.16 61.35 61.30 60.06 58.80 57.59 56.47 55.79 55.57 55.85 56.29 56.45 56.43 57.45 57.79 57.81